<?xml version="1.0" encoding="UTF-8" standalone="no" ?>
<gpx xmlns="http://www.topografix.com/GPX/1/1" xmlns:xsi="http://www.w3.org/2001/XMLSchema-instance" xsi:schemaLocation="http://www.topografix.com/GPX/1/1 http://www.topografix.com/GPX/1/1/gpx.xsd" version="1.1" creator="VisuGPX - https://www.visugpx.com">
  <metadata>
    <name>Mer-25-Mai-Cajarc-Capdenac-Villeneuve</name>
  </metadata>
  <trk>
    <name><![CDATA[Mer-25-Mai-Cajarc-Capdenac-Villeneuve]]></name>
    <extensions>
      <line xmlns="http://www.topografix.com/GPX/gpx_style/0/2">
        <width>4</width>
      </line>
    </extensions>
    <trkseg>
      <trkpt lat="44.4905" lon="1.8527">
        <ele>202.4</ele>
        <time>2022-05-25T11:05:52.000Z</time>
      </trkpt>
      <trkpt lat="44.4905" lon="1.8527">
        <ele>201.2</ele>
        <time>2022-05-25T11:05:53.000Z</time>
      </trkpt>
      <trkpt lat="44.49051" lon="1.85259">
        <ele>200.8</ele>
        <time>2022-05-25T11:06:15.000Z</time>
      </trkpt>
      <trkpt lat="44.49052" lon="1.85251">
        <ele>200.6</ele>
        <time>2022-05-25T11:06:17.000Z</time>
      </trkpt>
      <trkpt lat="44.4906" lon="1.85229">
        <ele>200.4</ele>
        <time>2022-05-25T11:06:22.000Z</time>
      </trkpt>
      <trkpt lat="44.49068" lon="1.85215">
        <ele>200.2</ele>
        <time>2022-05-25T11:06:26.000Z</time>
      </trkpt>
      <trkpt lat="44.49073" lon="1.85202">
        <ele>200.2</ele>
        <time>2022-05-25T11:06:29.000Z</time>
      </trkpt>
      <trkpt lat="44.49076" lon="1.85197">
        <ele>200.2</ele>
        <time>2022-05-25T11:06:30.000Z</time>
      </trkpt>
      <trkpt lat="44.49079" lon="1.85194">
        <ele>200.4</ele>
        <time>2022-05-25T11:06:31.000Z</time>
      </trkpt>
      <trkpt lat="44.49086" lon="1.85186">
        <ele>200.2</ele>
        <time>2022-05-25T11:06:34.000Z</time>
      </trkpt>
      <trkpt lat="44.49087" lon="1.85183">
        <ele>199.8</ele>
        <time>2022-05-25T11:06:35.000Z</time>
      </trkpt>
      <trkpt lat="44.49085" lon="1.85176">
        <ele>199</ele>
        <time>2022-05-25T11:06:37.000Z</time>
      </trkpt>
      <trkpt lat="44.49072" lon="1.8516">
        <ele>198.6</ele>
        <time>2022-05-25T11:06:40.000Z</time>
      </trkpt>
      <trkpt lat="44.49054" lon="1.85135">
        <ele>197.6</ele>
        <time>2022-05-25T11:06:43.000Z</time>
      </trkpt>
      <trkpt lat="44.49047" lon="1.85126">
        <ele>196.4</ele>
        <time>2022-05-25T11:06:44.000Z</time>
      </trkpt>
      <trkpt lat="44.49034" lon="1.85107">
        <ele>195.2</ele>
        <time>2022-05-25T11:06:46.000Z</time>
      </trkpt>
      <trkpt lat="44.49028" lon="1.85097">
        <ele>194</ele>
        <time>2022-05-25T11:06:47.000Z</time>
      </trkpt>
      <trkpt lat="44.49016" lon="1.85074">
        <ele>192.2</ele>
        <time>2022-05-25T11:06:49.000Z</time>
      </trkpt>
      <trkpt lat="44.49003" lon="1.85051">
        <ele>190</ele>
        <time>2022-05-25T11:06:51.000Z</time>
      </trkpt>
      <trkpt lat="44.48996" lon="1.85039">
        <ele>188.8</ele>
        <time>2022-05-25T11:06:52.000Z</time>
      </trkpt>
      <trkpt lat="44.48983" lon="1.85017">
        <ele>185</ele>
        <time>2022-05-25T11:06:54.000Z</time>
      </trkpt>
      <trkpt lat="44.48977" lon="1.85006">
        <ele>184</ele>
        <time>2022-05-25T11:06:55.000Z</time>
      </trkpt>
      <trkpt lat="44.48971" lon="1.84995">
        <ele>181.6</ele>
        <time>2022-05-25T11:06:56.000Z</time>
      </trkpt>
      <trkpt lat="44.48967" lon="1.84985">
        <ele>180.6</ele>
        <time>2022-05-25T11:06:57.000Z</time>
      </trkpt>
      <trkpt lat="44.48965" lon="1.84975">
        <ele>179</ele>
        <time>2022-05-25T11:06:58.000Z</time>
      </trkpt>
      <trkpt lat="44.48969" lon="1.84957">
        <ele>176.8</ele>
        <time>2022-05-25T11:07:00.000Z</time>
      </trkpt>
      <trkpt lat="44.48975" lon="1.84952">
        <ele>175.6</ele>
        <time>2022-05-25T11:07:01.000Z</time>
      </trkpt>
      <trkpt lat="44.48987" lon="1.84942">
        <ele>174.2</ele>
        <time>2022-05-25T11:07:03.000Z</time>
      </trkpt>
      <trkpt lat="44.48999" lon="1.84933">
        <ele>172.2</ele>
        <time>2022-05-25T11:07:05.000Z</time>
      </trkpt>
      <trkpt lat="44.49009" lon="1.8492">
        <ele>170.8</ele>
        <time>2022-05-25T11:07:07.000Z</time>
      </trkpt>
      <trkpt lat="44.49016" lon="1.84903">
        <ele>169.4</ele>
        <time>2022-05-25T11:07:09.000Z</time>
      </trkpt>
      <trkpt lat="44.49018" lon="1.84894">
        <ele>168.8</ele>
        <time>2022-05-25T11:07:10.000Z</time>
      </trkpt>
      <trkpt lat="44.49021" lon="1.84886">
        <ele>168.6</ele>
        <time>2022-05-25T11:07:11.000Z</time>
      </trkpt>
      <trkpt lat="44.49023" lon="1.8488">
        <ele>168</ele>
        <time>2022-05-25T11:07:12.000Z</time>
      </trkpt>
      <trkpt lat="44.49028" lon="1.84868">
        <ele>166.8</ele>
        <time>2022-05-25T11:07:15.000Z</time>
      </trkpt>
      <trkpt lat="44.4903" lon="1.84864">
        <ele>165.6</ele>
        <time>2022-05-25T11:07:17.000Z</time>
      </trkpt>
      <trkpt lat="44.49031" lon="1.84861">
        <ele>165</ele>
        <time>2022-05-25T11:07:18.000Z</time>
      </trkpt>
      <trkpt lat="44.49029" lon="1.84858">
        <ele>164.8</ele>
        <time>2022-05-25T11:07:19.000Z</time>
      </trkpt>
      <trkpt lat="44.49025" lon="1.84849">
        <ele>164.4</ele>
        <time>2022-05-25T11:07:21.000Z</time>
      </trkpt>
      <trkpt lat="44.49016" lon="1.84834">
        <ele>164</ele>
        <time>2022-05-25T11:07:24.000Z</time>
      </trkpt>
      <trkpt lat="44.49008" lon="1.84824">
        <ele>163.4</ele>
        <time>2022-05-25T11:07:26.000Z</time>
      </trkpt>
      <trkpt lat="44.49005" lon="1.84818">
        <ele>163.4</ele>
        <time>2022-05-25T11:07:27.000Z</time>
      </trkpt>
      <trkpt lat="44.48994" lon="1.84801">
        <ele>162.8</ele>
        <time>2022-05-25T11:07:30.000Z</time>
      </trkpt>
      <trkpt lat="44.48979" lon="1.84779">
        <ele>162.2</ele>
        <time>2022-05-25T11:07:34.000Z</time>
      </trkpt>
      <trkpt lat="44.48972" lon="1.84768">
        <ele>161.4</ele>
        <time>2022-05-25T11:07:36.000Z</time>
      </trkpt>
      <trkpt lat="44.48965" lon="1.84756">
        <ele>161</ele>
        <time>2022-05-25T11:07:38.000Z</time>
      </trkpt>
      <trkpt lat="44.48958" lon="1.84744">
        <ele>160.8</ele>
        <time>2022-05-25T11:07:40.000Z</time>
      </trkpt>
      <trkpt lat="44.48948" lon="1.8473">
        <ele>160.6</ele>
        <time>2022-05-25T11:07:43.000Z</time>
      </trkpt>
      <trkpt lat="44.48927" lon="1.84698">
        <ele>160</ele>
        <time>2022-05-25T11:07:49.000Z</time>
      </trkpt>
      <trkpt lat="44.48923" lon="1.84692">
        <ele>159.8</ele>
        <time>2022-05-25T11:07:50.000Z</time>
      </trkpt>
      <trkpt lat="44.48901" lon="1.84652">
        <ele>159</ele>
        <time>2022-05-25T11:07:56.000Z</time>
      </trkpt>
      <trkpt lat="44.48894" lon="1.84638">
        <ele>158.8</ele>
        <time>2022-05-25T11:07:58.000Z</time>
      </trkpt>
      <trkpt lat="44.48875" lon="1.84595">
        <ele>158.2</ele>
        <time>2022-05-25T11:08:04.000Z</time>
      </trkpt>
      <trkpt lat="44.48859" lon="1.84561">
        <ele>157.8</ele>
        <time>2022-05-25T11:08:09.000Z</time>
      </trkpt>
      <trkpt lat="44.48853" lon="1.84547">
        <ele>157.4</ele>
        <time>2022-05-25T11:08:11.000Z</time>
      </trkpt>
      <trkpt lat="44.4883" lon="1.84499">
        <ele>157.2</ele>
        <time>2022-05-25T11:08:18.000Z</time>
      </trkpt>
      <trkpt lat="44.48823" lon="1.84486">
        <ele>156.8</ele>
        <time>2022-05-25T11:08:20.000Z</time>
      </trkpt>
      <trkpt lat="44.48798" lon="1.84439">
        <ele>156.2</ele>
        <time>2022-05-25T11:08:27.000Z</time>
      </trkpt>
      <trkpt lat="44.48776" lon="1.844">
        <ele>155.6</ele>
        <time>2022-05-25T11:08:33.000Z</time>
      </trkpt>
      <trkpt lat="44.48769" lon="1.84387">
        <ele>155.2</ele>
        <time>2022-05-25T11:08:35.000Z</time>
      </trkpt>
      <trkpt lat="44.48746" lon="1.84345">
        <ele>155</ele>
        <time>2022-05-25T11:08:42.000Z</time>
      </trkpt>
      <trkpt lat="44.48737" lon="1.84327">
        <ele>154.4</ele>
        <time>2022-05-25T11:08:45.000Z</time>
      </trkpt>
      <trkpt lat="44.48724" lon="1.84305">
        <ele>154.4</ele>
        <time>2022-05-25T11:08:49.000Z</time>
      </trkpt>
      <trkpt lat="44.48721" lon="1.843">
        <ele>154.4</ele>
        <time>2022-05-25T11:08:50.000Z</time>
      </trkpt>
      <trkpt lat="44.48713" lon="1.84286">
        <ele>154.2</ele>
        <time>2022-05-25T11:08:53.000Z</time>
      </trkpt>
      <trkpt lat="44.48704" lon="1.84273">
        <ele>154</ele>
        <time>2022-05-25T11:08:56.000Z</time>
      </trkpt>
      <trkpt lat="44.48698" lon="1.84271">
        <ele>154</ele>
        <time>2022-05-25T11:08:58.000Z</time>
      </trkpt>
      <trkpt lat="44.48677" lon="1.84288">
        <ele>154</ele>
        <time>2022-05-25T11:09:04.000Z</time>
      </trkpt>
      <trkpt lat="44.48653" lon="1.84305">
        <ele>153.8</ele>
        <time>2022-05-25T11:09:10.000Z</time>
      </trkpt>
      <trkpt lat="44.48637" lon="1.84322">
        <ele>153.6</ele>
        <time>2022-05-25T11:09:14.000Z</time>
      </trkpt>
      <trkpt lat="44.48632" lon="1.84325">
        <ele>153.6</ele>
        <time>2022-05-25T11:09:15.000Z</time>
      </trkpt>
      <trkpt lat="44.48623" lon="1.84333">
        <ele>153.8</ele>
        <time>2022-05-25T11:09:17.000Z</time>
      </trkpt>
      <trkpt lat="44.48614" lon="1.84339">
        <ele>153.8</ele>
        <time>2022-05-25T11:09:19.000Z</time>
      </trkpt>
      <trkpt lat="44.48605" lon="1.84346">
        <ele>153.8</ele>
        <time>2022-05-25T11:09:21.000Z</time>
      </trkpt>
      <trkpt lat="44.48596" lon="1.84354">
        <ele>153.8</ele>
        <time>2022-05-25T11:09:23.000Z</time>
      </trkpt>
      <trkpt lat="44.48593" lon="1.84359">
        <ele>153.8</ele>
        <time>2022-05-25T11:09:24.000Z</time>
      </trkpt>
      <trkpt lat="44.48584" lon="1.84367">
        <ele>153.8</ele>
        <time>2022-05-25T11:09:26.000Z</time>
      </trkpt>
      <trkpt lat="44.4857" lon="1.84376">
        <ele>153.8</ele>
        <time>2022-05-25T11:09:29.000Z</time>
      </trkpt>
      <trkpt lat="44.48564" lon="1.84379">
        <ele>153.8</ele>
        <time>2022-05-25T11:09:30.000Z</time>
      </trkpt>
      <trkpt lat="44.48553" lon="1.84384">
        <ele>153.6</ele>
        <time>2022-05-25T11:09:32.000Z</time>
      </trkpt>
      <trkpt lat="44.48524" lon="1.84388">
        <ele>153.6</ele>
        <time>2022-05-25T11:09:37.000Z</time>
      </trkpt>
      <trkpt lat="44.48504" lon="1.84383">
        <ele>154</ele>
        <time>2022-05-25T11:09:41.000Z</time>
      </trkpt>
      <trkpt lat="44.48495" lon="1.84377">
        <ele>154.2</ele>
        <time>2022-05-25T11:09:43.000Z</time>
      </trkpt>
      <trkpt lat="44.48483" lon="1.84366">
        <ele>154.4</ele>
        <time>2022-05-25T11:09:46.000Z</time>
      </trkpt>
      <trkpt lat="44.48475" lon="1.84359">
        <ele>154.2</ele>
        <time>2022-05-25T11:09:48.000Z</time>
      </trkpt>
      <trkpt lat="44.48466" lon="1.8436">
        <ele>154.2</ele>
        <time>2022-05-25T11:09:50.000Z</time>
      </trkpt>
      <trkpt lat="44.48462" lon="1.84363">
        <ele>154.2</ele>
        <time>2022-05-25T11:09:51.000Z</time>
      </trkpt>
      <trkpt lat="44.48424" lon="1.84386">
        <ele>154.2</ele>
        <time>2022-05-25T11:09:59.000Z</time>
      </trkpt>
      <trkpt lat="44.48393" lon="1.84401">
        <ele>153.8</ele>
        <time>2022-05-25T11:10:05.000Z</time>
      </trkpt>
      <trkpt lat="44.48385" lon="1.84405">
        <ele>153.8</ele>
        <time>2022-05-25T11:10:07.000Z</time>
      </trkpt>
      <trkpt lat="44.4838" lon="1.84408">
        <ele>153.8</ele>
        <time>2022-05-25T11:10:08.000Z</time>
      </trkpt>
      <trkpt lat="44.48364" lon="1.84416">
        <ele>154</ele>
        <time>2022-05-25T11:10:12.000Z</time>
      </trkpt>
      <trkpt lat="44.48332" lon="1.84431">
        <ele>154</ele>
        <time>2022-05-25T11:10:19.000Z</time>
      </trkpt>
      <trkpt lat="44.48324" lon="1.84436">
        <ele>154.2</ele>
        <time>2022-05-25T11:10:21.000Z</time>
      </trkpt>
      <trkpt lat="44.48301" lon="1.84448">
        <ele>154.4</ele>
        <time>2022-05-25T11:10:26.000Z</time>
      </trkpt>
      <trkpt lat="44.48258" lon="1.84471">
        <ele>154.6</ele>
        <time>2022-05-25T11:10:35.000Z</time>
      </trkpt>
      <trkpt lat="44.48231" lon="1.84488">
        <ele>154.4</ele>
        <time>2022-05-25T11:10:42.000Z</time>
      </trkpt>
      <trkpt lat="44.48236" lon="1.84496">
        <ele>154.4</ele>
        <time>2022-05-25T11:10:45.000Z</time>
      </trkpt>
      <trkpt lat="44.4825" lon="1.84504">
        <ele>154</ele>
        <time>2022-05-25T11:10:49.000Z</time>
      </trkpt>
      <trkpt lat="44.48256" lon="1.84515">
        <ele>153.8</ele>
        <time>2022-05-25T11:10:51.000Z</time>
      </trkpt>
      <trkpt lat="44.48262" lon="1.84528">
        <ele>153.6</ele>
        <time>2022-05-25T11:10:53.000Z</time>
      </trkpt>
      <trkpt lat="44.48265" lon="1.84536">
        <ele>153.6</ele>
        <time>2022-05-25T11:10:54.000Z</time>
      </trkpt>
      <trkpt lat="44.4827" lon="1.84559">
        <ele>152.6</ele>
        <time>2022-05-25T11:10:57.000Z</time>
      </trkpt>
      <trkpt lat="44.48271" lon="1.84566">
        <ele>152.4</ele>
        <time>2022-05-25T11:10:58.000Z</time>
      </trkpt>
      <trkpt lat="44.48275" lon="1.84596">
        <ele>151.8</ele>
        <time>2022-05-25T11:11:02.000Z</time>
      </trkpt>
      <trkpt lat="44.48275" lon="1.8461">
        <ele>151.6</ele>
        <time>2022-05-25T11:11:04.000Z</time>
      </trkpt>
      <trkpt lat="44.48275" lon="1.84617">
        <ele>151.6</ele>
        <time>2022-05-25T11:11:05.000Z</time>
      </trkpt>
      <trkpt lat="44.48275" lon="1.84624">
        <ele>151.6</ele>
        <time>2022-05-25T11:11:06.000Z</time>
      </trkpt>
      <trkpt lat="44.48276" lon="1.84639">
        <ele>151.6</ele>
        <time>2022-05-25T11:11:08.000Z</time>
      </trkpt>
      <trkpt lat="44.48276" lon="1.8466">
        <ele>151.6</ele>
        <time>2022-05-25T11:11:11.000Z</time>
      </trkpt>
      <trkpt lat="44.48275" lon="1.84718">
        <ele>152.4</ele>
        <time>2022-05-25T11:11:19.000Z</time>
      </trkpt>
      <trkpt lat="44.48271" lon="1.84785">
        <ele>153.4</ele>
        <time>2022-05-25T11:11:28.000Z</time>
      </trkpt>
      <trkpt lat="44.48269" lon="1.84845">
        <ele>153</ele>
        <time>2022-05-25T11:11:36.000Z</time>
      </trkpt>
      <trkpt lat="44.48268" lon="1.84875">
        <ele>152.8</ele>
        <time>2022-05-25T11:11:40.000Z</time>
      </trkpt>
      <trkpt lat="44.48267" lon="1.8489">
        <ele>152.8</ele>
        <time>2022-05-25T11:11:42.000Z</time>
      </trkpt>
      <trkpt lat="44.48266" lon="1.8492">
        <ele>152.8</ele>
        <time>2022-05-25T11:11:46.000Z</time>
      </trkpt>
      <trkpt lat="44.48265" lon="1.84959">
        <ele>153.2</ele>
        <time>2022-05-25T11:11:51.000Z</time>
      </trkpt>
      <trkpt lat="44.48261" lon="1.85014">
        <ele>153.4</ele>
        <time>2022-05-25T11:11:58.000Z</time>
      </trkpt>
      <trkpt lat="44.48251" lon="1.85091">
        <ele>153.4</ele>
        <time>2022-05-25T11:12:08.000Z</time>
      </trkpt>
      <trkpt lat="44.48245" lon="1.85168">
        <ele>153.8</ele>
        <time>2022-05-25T11:12:18.000Z</time>
      </trkpt>
      <trkpt lat="44.48245" lon="1.85176">
        <ele>154</ele>
        <time>2022-05-25T11:12:19.000Z</time>
      </trkpt>
      <trkpt lat="44.48247" lon="1.85228">
        <ele>154.6</ele>
        <time>2022-05-25T11:12:26.000Z</time>
      </trkpt>
      <trkpt lat="44.48251" lon="1.8528">
        <ele>155</ele>
        <time>2022-05-25T11:12:33.000Z</time>
      </trkpt>
      <trkpt lat="44.48256" lon="1.85322">
        <ele>155</ele>
        <time>2022-05-25T11:12:39.000Z</time>
      </trkpt>
      <trkpt lat="44.48256" lon="1.85328">
        <ele>155.2</ele>
        <time>2022-05-25T11:12:40.000Z</time>
      </trkpt>
      <trkpt lat="44.48257" lon="1.85335">
        <ele>155.8</ele>
        <time>2022-05-25T11:12:41.000Z</time>
      </trkpt>
      <trkpt lat="44.4826" lon="1.85348">
        <ele>156.2</ele>
        <time>2022-05-25T11:12:43.000Z</time>
      </trkpt>
      <trkpt lat="44.48261" lon="1.85355">
        <ele>156.2</ele>
        <time>2022-05-25T11:12:44.000Z</time>
      </trkpt>
      <trkpt lat="44.48262" lon="1.85361">
        <ele>156.6</ele>
        <time>2022-05-25T11:12:45.000Z</time>
      </trkpt>
      <trkpt lat="44.48265" lon="1.85374">
        <ele>157</ele>
        <time>2022-05-25T11:12:47.000Z</time>
      </trkpt>
      <trkpt lat="44.48267" lon="1.85387">
        <ele>157.2</ele>
        <time>2022-05-25T11:12:49.000Z</time>
      </trkpt>
      <trkpt lat="44.48268" lon="1.85394">
        <ele>157.4</ele>
        <time>2022-05-25T11:12:50.000Z</time>
      </trkpt>
      <trkpt lat="44.48269" lon="1.85409">
        <ele>157.8</ele>
        <time>2022-05-25T11:12:52.000Z</time>
      </trkpt>
      <trkpt lat="44.48272" lon="1.85424">
        <ele>158</ele>
        <time>2022-05-25T11:12:54.000Z</time>
      </trkpt>
      <trkpt lat="44.48274" lon="1.85455">
        <ele>158.2</ele>
        <time>2022-05-25T11:12:58.000Z</time>
      </trkpt>
      <trkpt lat="44.48273" lon="1.85463">
        <ele>158.6</ele>
        <time>2022-05-25T11:12:59.000Z</time>
      </trkpt>
      <trkpt lat="44.48273" lon="1.8547">
        <ele>158.8</ele>
        <time>2022-05-25T11:13:00.000Z</time>
      </trkpt>
      <trkpt lat="44.48274" lon="1.85519">
        <ele>159.4</ele>
        <time>2022-05-25T11:13:07.000Z</time>
      </trkpt>
      <trkpt lat="44.48275" lon="1.85533">
        <ele>159.6</ele>
        <time>2022-05-25T11:13:09.000Z</time>
      </trkpt>
      <trkpt lat="44.48276" lon="1.8554">
        <ele>159.6</ele>
        <time>2022-05-25T11:13:10.000Z</time>
      </trkpt>
      <trkpt lat="44.4828" lon="1.85561">
        <ele>159.8</ele>
        <time>2022-05-25T11:13:13.000Z</time>
      </trkpt>
      <trkpt lat="44.48293" lon="1.85612">
        <ele>160</ele>
        <time>2022-05-25T11:13:20.000Z</time>
      </trkpt>
      <trkpt lat="44.48304" lon="1.85664">
        <ele>160.8</ele>
        <time>2022-05-25T11:13:27.000Z</time>
      </trkpt>
      <trkpt lat="44.48306" lon="1.85671">
        <ele>160.8</ele>
        <time>2022-05-25T11:13:28.000Z</time>
      </trkpt>
      <trkpt lat="44.48311" lon="1.85714">
        <ele>161.2</ele>
        <time>2022-05-25T11:13:34.000Z</time>
      </trkpt>
      <trkpt lat="44.48311" lon="1.85729">
        <ele>161.2</ele>
        <time>2022-05-25T11:13:36.000Z</time>
      </trkpt>
      <trkpt lat="44.48309" lon="1.85759">
        <ele>161.8</ele>
        <time>2022-05-25T11:13:40.000Z</time>
      </trkpt>
      <trkpt lat="44.48308" lon="1.85767">
        <ele>161.8</ele>
        <time>2022-05-25T11:13:41.000Z</time>
      </trkpt>
      <trkpt lat="44.48305" lon="1.85818">
        <ele>162</ele>
        <time>2022-05-25T11:13:48.000Z</time>
      </trkpt>
      <trkpt lat="44.48304" lon="1.85825">
        <ele>162</ele>
        <time>2022-05-25T11:13:49.000Z</time>
      </trkpt>
      <trkpt lat="44.48305" lon="1.85858">
        <ele>162.2</ele>
        <time>2022-05-25T11:13:54.000Z</time>
      </trkpt>
      <trkpt lat="44.48306" lon="1.85891">
        <ele>163</ele>
        <time>2022-05-25T11:13:59.000Z</time>
      </trkpt>
      <trkpt lat="44.48306" lon="1.85919">
        <ele>163.6</ele>
        <time>2022-05-25T11:14:03.000Z</time>
      </trkpt>
      <trkpt lat="44.4831" lon="1.85948">
        <ele>164</ele>
        <time>2022-05-25T11:14:07.000Z</time>
      </trkpt>
      <trkpt lat="44.48316" lon="1.85976">
        <ele>164.2</ele>
        <time>2022-05-25T11:14:11.000Z</time>
      </trkpt>
      <trkpt lat="44.48331" lon="1.86033">
        <ele>163.6</ele>
        <time>2022-05-25T11:14:19.000Z</time>
      </trkpt>
      <trkpt lat="44.48348" lon="1.86075">
        <ele>162.8</ele>
        <time>2022-05-25T11:14:25.000Z</time>
      </trkpt>
      <trkpt lat="44.48352" lon="1.86082">
        <ele>162.6</ele>
        <time>2022-05-25T11:14:26.000Z</time>
      </trkpt>
      <trkpt lat="44.48367" lon="1.86107">
        <ele>161.6</ele>
        <time>2022-05-25T11:14:30.000Z</time>
      </trkpt>
      <trkpt lat="44.48379" lon="1.86127">
        <ele>161.4</ele>
        <time>2022-05-25T11:14:33.000Z</time>
      </trkpt>
      <trkpt lat="44.48382" lon="1.86134">
        <ele>161</ele>
        <time>2022-05-25T11:14:34.000Z</time>
      </trkpt>
      <trkpt lat="44.48389" lon="1.8615">
        <ele>160.6</ele>
        <time>2022-05-25T11:14:36.000Z</time>
      </trkpt>
      <trkpt lat="44.48398" lon="1.86183">
        <ele>160.2</ele>
        <time>2022-05-25T11:14:40.000Z</time>
      </trkpt>
      <trkpt lat="44.48403" lon="1.86235">
        <ele>159.6</ele>
        <time>2022-05-25T11:14:46.000Z</time>
      </trkpt>
      <trkpt lat="44.48404" lon="1.86244">
        <ele>159.4</ele>
        <time>2022-05-25T11:14:47.000Z</time>
      </trkpt>
      <trkpt lat="44.48409" lon="1.86306">
        <ele>159</ele>
        <time>2022-05-25T11:14:54.000Z</time>
      </trkpt>
      <trkpt lat="44.48407" lon="1.86367">
        <ele>158.8</ele>
        <time>2022-05-25T11:15:01.000Z</time>
      </trkpt>
      <trkpt lat="44.48404" lon="1.86417">
        <ele>158.8</ele>
        <time>2022-05-25T11:15:07.000Z</time>
      </trkpt>
      <trkpt lat="44.48403" lon="1.86439">
        <ele>158.8</ele>
        <time>2022-05-25T11:15:10.000Z</time>
      </trkpt>
      <trkpt lat="44.48403" lon="1.86447">
        <ele>158.8</ele>
        <time>2022-05-25T11:15:11.000Z</time>
      </trkpt>
      <trkpt lat="44.48401" lon="1.86503">
        <ele>159.6</ele>
        <time>2022-05-25T11:15:18.000Z</time>
      </trkpt>
      <trkpt lat="44.48403" lon="1.86562">
        <ele>159.6</ele>
        <time>2022-05-25T11:15:25.000Z</time>
      </trkpt>
      <trkpt lat="44.48411" lon="1.8663">
        <ele>159.4</ele>
        <time>2022-05-25T11:15:33.000Z</time>
      </trkpt>
      <trkpt lat="44.48417" lon="1.8668">
        <ele>158.4</ele>
        <time>2022-05-25T11:15:39.000Z</time>
      </trkpt>
      <trkpt lat="44.48418" lon="1.86689">
        <ele>158.4</ele>
        <time>2022-05-25T11:15:40.000Z</time>
      </trkpt>
      <trkpt lat="44.48424" lon="1.86752">
        <ele>158.2</ele>
        <time>2022-05-25T11:15:47.000Z</time>
      </trkpt>
      <trkpt lat="44.48428" lon="1.8683">
        <ele>157.4</ele>
        <time>2022-05-25T11:15:56.000Z</time>
      </trkpt>
      <trkpt lat="44.48428" lon="1.86838">
        <ele>157.2</ele>
        <time>2022-05-25T11:15:57.000Z</time>
      </trkpt>
      <trkpt lat="44.4843" lon="1.86856">
        <ele>157</ele>
        <time>2022-05-25T11:15:59.000Z</time>
      </trkpt>
      <trkpt lat="44.48432" lon="1.86932">
        <ele>156.8</ele>
        <time>2022-05-25T11:16:08.000Z</time>
      </trkpt>
      <trkpt lat="44.48431" lon="1.86949">
        <ele>156.8</ele>
        <time>2022-05-25T11:16:10.000Z</time>
      </trkpt>
      <trkpt lat="44.48426" lon="1.86974">
        <ele>156.6</ele>
        <time>2022-05-25T11:16:13.000Z</time>
      </trkpt>
      <trkpt lat="44.48422" lon="1.8699">
        <ele>156.6</ele>
        <time>2022-05-25T11:16:15.000Z</time>
      </trkpt>
      <trkpt lat="44.48418" lon="1.87022">
        <ele>156.8</ele>
        <time>2022-05-25T11:16:19.000Z</time>
      </trkpt>
      <trkpt lat="44.48417" lon="1.87044">
        <ele>156.2</ele>
        <time>2022-05-25T11:16:22.000Z</time>
      </trkpt>
      <trkpt lat="44.48415" lon="1.87074">
        <ele>157</ele>
        <time>2022-05-25T11:16:26.000Z</time>
      </trkpt>
      <trkpt lat="44.48409" lon="1.87107">
        <ele>156.8</ele>
        <time>2022-05-25T11:16:30.000Z</time>
      </trkpt>
      <trkpt lat="44.48402" lon="1.87131">
        <ele>156.4</ele>
        <time>2022-05-25T11:16:33.000Z</time>
      </trkpt>
      <trkpt lat="44.48399" lon="1.87138">
        <ele>156.2</ele>
        <time>2022-05-25T11:16:34.000Z</time>
      </trkpt>
      <trkpt lat="44.48387" lon="1.87175">
        <ele>155.8</ele>
        <time>2022-05-25T11:16:39.000Z</time>
      </trkpt>
      <trkpt lat="44.48378" lon="1.87203">
        <ele>156</ele>
        <time>2022-05-25T11:16:43.000Z</time>
      </trkpt>
      <trkpt lat="44.48373" lon="1.87225">
        <ele>156.2</ele>
        <time>2022-05-25T11:16:46.000Z</time>
      </trkpt>
      <trkpt lat="44.48364" lon="1.87264">
        <ele>157.2</ele>
        <time>2022-05-25T11:16:52.000Z</time>
      </trkpt>
      <trkpt lat="44.48363" lon="1.8727">
        <ele>157.6</ele>
        <time>2022-05-25T11:16:53.000Z</time>
      </trkpt>
      <trkpt lat="44.48362" lon="1.8728">
        <ele>158.4</ele>
        <time>2022-05-25T11:16:55.000Z</time>
      </trkpt>
      <trkpt lat="44.4836" lon="1.87302">
        <ele>159.2</ele>
        <time>2022-05-25T11:16:59.000Z</time>
      </trkpt>
      <trkpt lat="44.4836" lon="1.87308">
        <ele>159.8</ele>
        <time>2022-05-25T11:17:00.000Z</time>
      </trkpt>
      <trkpt lat="44.48358" lon="1.8735">
        <ele>160.6</ele>
        <time>2022-05-25T11:17:08.000Z</time>
      </trkpt>
      <trkpt lat="44.48357" lon="1.87365">
        <ele>161.2</ele>
        <time>2022-05-25T11:17:11.000Z</time>
      </trkpt>
      <trkpt lat="44.48356" lon="1.8738">
        <ele>162.4</ele>
        <time>2022-05-25T11:17:14.000Z</time>
      </trkpt>
      <trkpt lat="44.48356" lon="1.87385">
        <ele>162.8</ele>
        <time>2022-05-25T11:17:15.000Z</time>
      </trkpt>
      <trkpt lat="44.48353" lon="1.87405">
        <ele>163.6</ele>
        <time>2022-05-25T11:17:19.000Z</time>
      </trkpt>
      <trkpt lat="44.48351" lon="1.87409">
        <ele>163.6</ele>
        <time>2022-05-25T11:17:20.000Z</time>
      </trkpt>
      <trkpt lat="44.48349" lon="1.87429">
        <ele>164</ele>
        <time>2022-05-25T11:17:24.000Z</time>
      </trkpt>
      <trkpt lat="44.48347" lon="1.87444">
        <ele>164.4</ele>
        <time>2022-05-25T11:17:27.000Z</time>
      </trkpt>
      <trkpt lat="44.48346" lon="1.87454">
        <ele>165.2</ele>
        <time>2022-05-25T11:17:29.000Z</time>
      </trkpt>
      <trkpt lat="44.48345" lon="1.87463">
        <ele>165.6</ele>
        <time>2022-05-25T11:17:31.000Z</time>
      </trkpt>
      <trkpt lat="44.48345" lon="1.87483">
        <ele>166.6</ele>
        <time>2022-05-25T11:17:35.000Z</time>
      </trkpt>
      <trkpt lat="44.48344" lon="1.87488">
        <ele>166.6</ele>
        <time>2022-05-25T11:17:36.000Z</time>
      </trkpt>
      <trkpt lat="44.48344" lon="1.87521">
        <ele>167.4</ele>
        <time>2022-05-25T11:17:42.000Z</time>
      </trkpt>
      <trkpt lat="44.48344" lon="1.87531">
        <ele>167.8</ele>
        <time>2022-05-25T11:17:44.000Z</time>
      </trkpt>
      <trkpt lat="44.48343" lon="1.87554">
        <ele>168.4</ele>
        <time>2022-05-25T11:17:48.000Z</time>
      </trkpt>
      <trkpt lat="44.48341" lon="1.8757">
        <ele>168.8</ele>
        <time>2022-05-25T11:17:51.000Z</time>
      </trkpt>
      <trkpt lat="44.4834" lon="1.87586">
        <ele>169</ele>
        <time>2022-05-25T11:17:54.000Z</time>
      </trkpt>
      <trkpt lat="44.48339" lon="1.87614">
        <ele>169.4</ele>
        <time>2022-05-25T11:17:59.000Z</time>
      </trkpt>
      <trkpt lat="44.48338" lon="1.8763">
        <ele>169.8</ele>
        <time>2022-05-25T11:18:02.000Z</time>
      </trkpt>
      <trkpt lat="44.48335" lon="1.87646">
        <ele>170</ele>
        <time>2022-05-25T11:18:05.000Z</time>
      </trkpt>
      <trkpt lat="44.48334" lon="1.87667">
        <ele>170.2</ele>
        <time>2022-05-25T11:18:09.000Z</time>
      </trkpt>
      <trkpt lat="44.48337" lon="1.87688">
        <ele>170.8</ele>
        <time>2022-05-25T11:18:13.000Z</time>
      </trkpt>
      <trkpt lat="44.48339" lon="1.87704">
        <ele>171.2</ele>
        <time>2022-05-25T11:18:16.000Z</time>
      </trkpt>
      <trkpt lat="44.4834" lon="1.87724">
        <ele>172</ele>
        <time>2022-05-25T11:18:20.000Z</time>
      </trkpt>
      <trkpt lat="44.48341" lon="1.8775">
        <ele>172.4</ele>
        <time>2022-05-25T11:18:25.000Z</time>
      </trkpt>
      <trkpt lat="44.4834" lon="1.87778">
        <ele>173</ele>
        <time>2022-05-25T11:18:30.000Z</time>
      </trkpt>
      <trkpt lat="44.48341" lon="1.87785">
        <ele>173.2</ele>
        <time>2022-05-25T11:18:31.000Z</time>
      </trkpt>
      <trkpt lat="44.4834" lon="1.87821">
        <ele>173.6</ele>
        <time>2022-05-25T11:18:37.000Z</time>
      </trkpt>
      <trkpt lat="44.48339" lon="1.87847">
        <ele>173.8</ele>
        <time>2022-05-25T11:18:41.000Z</time>
      </trkpt>
      <trkpt lat="44.48338" lon="1.87854">
        <ele>174</ele>
        <time>2022-05-25T11:18:42.000Z</time>
      </trkpt>
      <trkpt lat="44.48338" lon="1.87868">
        <ele>174</ele>
        <time>2022-05-25T11:18:44.000Z</time>
      </trkpt>
      <trkpt lat="44.48338" lon="1.87882">
        <ele>174</ele>
        <time>2022-05-25T11:18:46.000Z</time>
      </trkpt>
      <trkpt lat="44.48337" lon="1.87903">
        <ele>173.8</ele>
        <time>2022-05-25T11:18:49.000Z</time>
      </trkpt>
      <trkpt lat="44.48335" lon="1.87917">
        <ele>173.8</ele>
        <time>2022-05-25T11:18:51.000Z</time>
      </trkpt>
      <trkpt lat="44.48334" lon="1.87931">
        <ele>173.8</ele>
        <time>2022-05-25T11:18:53.000Z</time>
      </trkpt>
      <trkpt lat="44.48333" lon="1.87938">
        <ele>173.6</ele>
        <time>2022-05-25T11:18:54.000Z</time>
      </trkpt>
      <trkpt lat="44.48331" lon="1.87958">
        <ele>173.4</ele>
        <time>2022-05-25T11:18:57.000Z</time>
      </trkpt>
      <trkpt lat="44.48327" lon="1.87979">
        <ele>173.4</ele>
        <time>2022-05-25T11:19:00.000Z</time>
      </trkpt>
      <trkpt lat="44.48323" lon="1.88022">
        <ele>173.4</ele>
        <time>2022-05-25T11:19:06.000Z</time>
      </trkpt>
      <trkpt lat="44.48325" lon="1.88068">
        <ele>173.2</ele>
        <time>2022-05-25T11:19:12.000Z</time>
      </trkpt>
      <trkpt lat="44.48325" lon="1.88092">
        <ele>173</ele>
        <time>2022-05-25T11:19:15.000Z</time>
      </trkpt>
      <trkpt lat="44.48326" lon="1.88108">
        <ele>173</ele>
        <time>2022-05-25T11:19:17.000Z</time>
      </trkpt>
      <trkpt lat="44.48326" lon="1.88116">
        <ele>173</ele>
        <time>2022-05-25T11:19:18.000Z</time>
      </trkpt>
      <trkpt lat="44.48326" lon="1.88131">
        <ele>172.6</ele>
        <time>2022-05-25T11:19:20.000Z</time>
      </trkpt>
      <trkpt lat="44.48329" lon="1.88146">
        <ele>172.4</ele>
        <time>2022-05-25T11:19:22.000Z</time>
      </trkpt>
      <trkpt lat="44.4833" lon="1.88154">
        <ele>172.2</ele>
        <time>2022-05-25T11:19:23.000Z</time>
      </trkpt>
      <trkpt lat="44.48334" lon="1.88168">
        <ele>172</ele>
        <time>2022-05-25T11:19:25.000Z</time>
      </trkpt>
      <trkpt lat="44.48341" lon="1.88188">
        <ele>171.8</ele>
        <time>2022-05-25T11:19:28.000Z</time>
      </trkpt>
      <trkpt lat="44.48342" lon="1.88195">
        <ele>171.8</ele>
        <time>2022-05-25T11:19:29.000Z</time>
      </trkpt>
      <trkpt lat="44.48345" lon="1.88217">
        <ele>171.8</ele>
        <time>2022-05-25T11:19:32.000Z</time>
      </trkpt>
      <trkpt lat="44.48345" lon="1.88238">
        <ele>172</ele>
        <time>2022-05-25T11:19:35.000Z</time>
      </trkpt>
      <trkpt lat="44.48347" lon="1.88254">
        <ele>172</ele>
        <time>2022-05-25T11:19:37.000Z</time>
      </trkpt>
      <trkpt lat="44.4835" lon="1.88268">
        <ele>172.2</ele>
        <time>2022-05-25T11:19:39.000Z</time>
      </trkpt>
      <trkpt lat="44.48357" lon="1.88293">
        <ele>172.2</ele>
        <time>2022-05-25T11:19:43.000Z</time>
      </trkpt>
      <trkpt lat="44.48368" lon="1.88325">
        <ele>172.6</ele>
        <time>2022-05-25T11:19:48.000Z</time>
      </trkpt>
      <trkpt lat="44.48384" lon="1.8837">
        <ele>173.4</ele>
        <time>2022-05-25T11:19:55.000Z</time>
      </trkpt>
      <trkpt lat="44.48387" lon="1.88377">
        <ele>173.4</ele>
        <time>2022-05-25T11:19:56.000Z</time>
      </trkpt>
      <trkpt lat="44.48404" lon="1.88446">
        <ele>173.6</ele>
        <time>2022-05-25T11:20:06.000Z</time>
      </trkpt>
      <trkpt lat="44.48421" lon="1.88486">
        <ele>173.6</ele>
        <time>2022-05-25T11:20:12.000Z</time>
      </trkpt>
      <trkpt lat="44.48436" lon="1.8852">
        <ele>172.4</ele>
        <time>2022-05-25T11:20:17.000Z</time>
      </trkpt>
      <trkpt lat="44.48444" lon="1.88532">
        <ele>172.4</ele>
        <time>2022-05-25T11:20:19.000Z</time>
      </trkpt>
      <trkpt lat="44.48449" lon="1.88538">
        <ele>172</ele>
        <time>2022-05-25T11:20:20.000Z</time>
      </trkpt>
      <trkpt lat="44.48473" lon="1.88564">
        <ele>172</ele>
        <time>2022-05-25T11:20:25.000Z</time>
      </trkpt>
      <trkpt lat="44.4848" lon="1.88575">
        <ele>171.6</ele>
        <time>2022-05-25T11:20:27.000Z</time>
      </trkpt>
      <trkpt lat="44.48492" lon="1.88591">
        <ele>171.4</ele>
        <time>2022-05-25T11:20:30.000Z</time>
      </trkpt>
      <trkpt lat="44.48519" lon="1.88624">
        <ele>171</ele>
        <time>2022-05-25T11:20:36.000Z</time>
      </trkpt>
      <trkpt lat="44.48529" lon="1.88635">
        <ele>171</ele>
        <time>2022-05-25T11:20:38.000Z</time>
      </trkpt>
      <trkpt lat="44.48564" lon="1.88668">
        <ele>170.4</ele>
        <time>2022-05-25T11:20:45.000Z</time>
      </trkpt>
      <trkpt lat="44.48573" lon="1.88678">
        <ele>169.8</ele>
        <time>2022-05-25T11:20:47.000Z</time>
      </trkpt>
      <trkpt lat="44.48594" lon="1.88696">
        <ele>168.6</ele>
        <time>2022-05-25T11:20:51.000Z</time>
      </trkpt>
      <trkpt lat="44.48634" lon="1.88724">
        <ele>167.4</ele>
        <time>2022-05-25T11:20:58.000Z</time>
      </trkpt>
      <trkpt lat="44.4864" lon="1.88728">
        <ele>167.4</ele>
        <time>2022-05-25T11:20:59.000Z</time>
      </trkpt>
      <trkpt lat="44.48677" lon="1.88757">
        <ele>166.2</ele>
        <time>2022-05-25T11:21:06.000Z</time>
      </trkpt>
      <trkpt lat="44.48705" lon="1.88772">
        <ele>166.2</ele>
        <time>2022-05-25T11:21:11.000Z</time>
      </trkpt>
      <trkpt lat="44.48717" lon="1.88778">
        <ele>166.2</ele>
        <time>2022-05-25T11:21:13.000Z</time>
      </trkpt>
      <trkpt lat="44.48751" lon="1.88792">
        <ele>166.2</ele>
        <time>2022-05-25T11:21:19.000Z</time>
      </trkpt>
      <trkpt lat="44.48795" lon="1.88816">
        <ele>166.2</ele>
        <time>2022-05-25T11:21:27.000Z</time>
      </trkpt>
      <trkpt lat="44.48818" lon="1.88827">
        <ele>165.8</ele>
        <time>2022-05-25T11:21:31.000Z</time>
      </trkpt>
      <trkpt lat="44.48835" lon="1.88833">
        <ele>165.2</ele>
        <time>2022-05-25T11:21:34.000Z</time>
      </trkpt>
      <trkpt lat="44.4884" lon="1.88834">
        <ele>165.2</ele>
        <time>2022-05-25T11:21:35.000Z</time>
      </trkpt>
      <trkpt lat="44.48875" lon="1.88842">
        <ele>164.2</ele>
        <time>2022-05-25T11:21:41.000Z</time>
      </trkpt>
      <trkpt lat="44.48882" lon="1.88844">
        <ele>163.8</ele>
        <time>2022-05-25T11:21:42.000Z</time>
      </trkpt>
      <trkpt lat="44.48915" lon="1.88851">
        <ele>162.4</ele>
        <time>2022-05-25T11:21:47.000Z</time>
      </trkpt>
      <trkpt lat="44.48935" lon="1.88856">
        <ele>162.2</ele>
        <time>2022-05-25T11:21:50.000Z</time>
      </trkpt>
      <trkpt lat="44.48969" lon="1.88861">
        <ele>161.2</ele>
        <time>2022-05-25T11:21:55.000Z</time>
      </trkpt>
      <trkpt lat="44.48983" lon="1.88863">
        <ele>161</ele>
        <time>2022-05-25T11:21:57.000Z</time>
      </trkpt>
      <trkpt lat="44.49041" lon="1.88868">
        <ele>160.4</ele>
        <time>2022-05-25T11:22:06.000Z</time>
      </trkpt>
      <trkpt lat="44.49047" lon="1.8887">
        <ele>160.2</ele>
        <time>2022-05-25T11:22:07.000Z</time>
      </trkpt>
      <trkpt lat="44.49072" lon="1.88873">
        <ele>159.6</ele>
        <time>2022-05-25T11:22:11.000Z</time>
      </trkpt>
      <trkpt lat="44.49085" lon="1.88874">
        <ele>159.6</ele>
        <time>2022-05-25T11:22:13.000Z</time>
      </trkpt>
      <trkpt lat="44.49115" lon="1.88877">
        <ele>159</ele>
        <time>2022-05-25T11:22:18.000Z</time>
      </trkpt>
      <trkpt lat="44.49133" lon="1.88879">
        <ele>158.6</ele>
        <time>2022-05-25T11:22:21.000Z</time>
      </trkpt>
      <trkpt lat="44.49175" lon="1.88881">
        <ele>158.2</ele>
        <time>2022-05-25T11:22:28.000Z</time>
      </trkpt>
      <trkpt lat="44.49181" lon="1.88881">
        <ele>158.4</ele>
        <time>2022-05-25T11:22:29.000Z</time>
      </trkpt>
      <trkpt lat="44.49228" lon="1.88883">
        <ele>158.6</ele>
        <time>2022-05-25T11:22:37.000Z</time>
      </trkpt>
      <trkpt lat="44.49257" lon="1.88884">
        <ele>157.6</ele>
        <time>2022-05-25T11:22:42.000Z</time>
      </trkpt>
      <trkpt lat="44.49263" lon="1.88884">
        <ele>157.8</ele>
        <time>2022-05-25T11:22:43.000Z</time>
      </trkpt>
      <trkpt lat="44.49304" lon="1.8888">
        <ele>158</ele>
        <time>2022-05-25T11:22:50.000Z</time>
      </trkpt>
      <trkpt lat="44.49359" lon="1.8887">
        <ele>157.8</ele>
        <time>2022-05-25T11:23:00.000Z</time>
      </trkpt>
      <trkpt lat="44.49415" lon="1.88854">
        <ele>158.4</ele>
        <time>2022-05-25T11:23:11.000Z</time>
      </trkpt>
      <trkpt lat="44.49429" lon="1.88851">
        <ele>158.8</ele>
        <time>2022-05-25T11:23:14.000Z</time>
      </trkpt>
      <trkpt lat="44.49439" lon="1.88849">
        <ele>159</ele>
        <time>2022-05-25T11:23:16.000Z</time>
      </trkpt>
      <trkpt lat="44.49449" lon="1.88846">
        <ele>159.2</ele>
        <time>2022-05-25T11:23:18.000Z</time>
      </trkpt>
      <trkpt lat="44.49469" lon="1.88841">
        <ele>159.8</ele>
        <time>2022-05-25T11:23:22.000Z</time>
      </trkpt>
      <trkpt lat="44.49486" lon="1.88839">
        <ele>160.6</ele>
        <time>2022-05-25T11:23:26.000Z</time>
      </trkpt>
      <trkpt lat="44.49495" lon="1.88844">
        <ele>160.4</ele>
        <time>2022-05-25T11:23:28.000Z</time>
      </trkpt>
      <trkpt lat="44.49502" lon="1.8885">
        <ele>160.6</ele>
        <time>2022-05-25T11:23:30.000Z</time>
      </trkpt>
      <trkpt lat="44.4951" lon="1.88868">
        <ele>160.8</ele>
        <time>2022-05-25T11:23:34.000Z</time>
      </trkpt>
      <trkpt lat="44.49515" lon="1.88879">
        <ele>161</ele>
        <time>2022-05-25T11:23:37.000Z</time>
      </trkpt>
      <trkpt lat="44.49519" lon="1.8889">
        <ele>162.4</ele>
        <time>2022-05-25T11:23:40.000Z</time>
      </trkpt>
      <trkpt lat="44.4952" lon="1.88893">
        <ele>162.8</ele>
        <time>2022-05-25T11:23:41.000Z</time>
      </trkpt>
      <trkpt lat="44.49523" lon="1.88904">
        <ele>163.6</ele>
        <time>2022-05-25T11:23:44.000Z</time>
      </trkpt>
      <trkpt lat="44.49532" lon="1.88924">
        <ele>164.6</ele>
        <time>2022-05-25T11:23:50.000Z</time>
      </trkpt>
      <trkpt lat="44.49533" lon="1.88928">
        <ele>164.8</ele>
        <time>2022-05-25T11:23:51.000Z</time>
      </trkpt>
      <trkpt lat="44.49536" lon="1.88943">
        <ele>166</ele>
        <time>2022-05-25T11:23:55.000Z</time>
      </trkpt>
      <trkpt lat="44.49537" lon="1.88947">
        <ele>166.4</ele>
        <time>2022-05-25T11:23:56.000Z</time>
      </trkpt>
      <trkpt lat="44.49538" lon="1.88959">
        <ele>167.2</ele>
        <time>2022-05-25T11:23:59.000Z</time>
      </trkpt>
      <trkpt lat="44.49541" lon="1.88971">
        <ele>168.2</ele>
        <time>2022-05-25T11:24:02.000Z</time>
      </trkpt>
      <trkpt lat="44.49543" lon="1.88982">
        <ele>168.8</ele>
        <time>2022-05-25T11:24:05.000Z</time>
      </trkpt>
      <trkpt lat="44.49543" lon="1.8899">
        <ele>169.2</ele>
        <time>2022-05-25T11:24:07.000Z</time>
      </trkpt>
      <trkpt lat="44.49543" lon="1.88999">
        <ele>169.8</ele>
        <time>2022-05-25T11:24:09.000Z</time>
      </trkpt>
      <trkpt lat="44.49544" lon="1.89024">
        <ele>170.2</ele>
        <time>2022-05-25T11:24:14.000Z</time>
      </trkpt>
      <trkpt lat="44.49543" lon="1.89028">
        <ele>170.4</ele>
        <time>2022-05-25T11:24:15.000Z</time>
      </trkpt>
      <trkpt lat="44.49543" lon="1.89052">
        <ele>171.6</ele>
        <time>2022-05-25T11:24:20.000Z</time>
      </trkpt>
      <trkpt lat="44.49544" lon="1.89056">
        <ele>171.8</ele>
        <time>2022-05-25T11:24:21.000Z</time>
      </trkpt>
      <trkpt lat="44.49544" lon="1.89065">
        <ele>172.8</ele>
        <time>2022-05-25T11:24:24.000Z</time>
      </trkpt>
      <trkpt lat="44.49545" lon="1.89074">
        <ele>173.2</ele>
        <time>2022-05-25T11:24:26.000Z</time>
      </trkpt>
      <trkpt lat="44.49551" lon="1.89102">
        <ele>174</ele>
        <time>2022-05-25T11:24:33.000Z</time>
      </trkpt>
      <trkpt lat="44.49552" lon="1.89105">
        <ele>174.4</ele>
        <time>2022-05-25T11:24:34.000Z</time>
      </trkpt>
      <trkpt lat="44.49555" lon="1.89112">
        <ele>175</ele>
        <time>2022-05-25T11:24:36.000Z</time>
      </trkpt>
      <trkpt lat="44.49563" lon="1.89125">
        <ele>175.8</ele>
        <time>2022-05-25T11:24:41.000Z</time>
      </trkpt>
      <trkpt lat="44.49565" lon="1.89128">
        <ele>176.2</ele>
        <time>2022-05-25T11:24:42.000Z</time>
      </trkpt>
      <trkpt lat="44.49575" lon="1.8914">
        <ele>177</ele>
        <time>2022-05-25T11:24:48.000Z</time>
      </trkpt>
      <trkpt lat="44.49577" lon="1.89142">
        <ele>177.4</ele>
        <time>2022-05-25T11:24:49.000Z</time>
      </trkpt>
      <trkpt lat="44.49582" lon="1.8915">
        <ele>178.4</ele>
        <time>2022-05-25T11:24:53.000Z</time>
      </trkpt>
      <trkpt lat="44.49587" lon="1.89156">
        <ele>179.4</ele>
        <time>2022-05-25T11:24:56.000Z</time>
      </trkpt>
      <trkpt lat="44.49589" lon="1.89158">
        <ele>179.8</ele>
        <time>2022-05-25T11:24:57.000Z</time>
      </trkpt>
      <trkpt lat="44.49595" lon="1.89163">
        <ele>180.4</ele>
        <time>2022-05-25T11:25:00.000Z</time>
      </trkpt>
      <trkpt lat="44.49602" lon="1.89169">
        <ele>181.6</ele>
        <time>2022-05-25T11:25:04.000Z</time>
      </trkpt>
      <trkpt lat="44.49604" lon="1.8917">
        <ele>181.8</ele>
        <time>2022-05-25T11:25:05.000Z</time>
      </trkpt>
      <trkpt lat="44.49612" lon="1.89175">
        <ele>182.4</ele>
        <time>2022-05-25T11:25:08.000Z</time>
      </trkpt>
      <trkpt lat="44.49617" lon="1.89178">
        <ele>182.6</ele>
        <time>2022-05-25T11:25:10.000Z</time>
      </trkpt>
      <trkpt lat="44.49624" lon="1.89184">
        <ele>183.2</ele>
        <time>2022-05-25T11:25:13.000Z</time>
      </trkpt>
      <trkpt lat="44.49629" lon="1.89193">
        <ele>183.8</ele>
        <time>2022-05-25T11:25:16.000Z</time>
      </trkpt>
      <trkpt lat="44.4963" lon="1.89202">
        <ele>184.2</ele>
        <time>2022-05-25T11:25:18.000Z</time>
      </trkpt>
      <trkpt lat="44.49631" lon="1.8923">
        <ele>185</ele>
        <time>2022-05-25T11:25:25.000Z</time>
      </trkpt>
      <trkpt lat="44.49624" lon="1.89249">
        <ele>185.4</ele>
        <time>2022-05-25T11:25:30.000Z</time>
      </trkpt>
      <trkpt lat="44.4961" lon="1.89264">
        <ele>186</ele>
        <time>2022-05-25T11:25:36.000Z</time>
      </trkpt>
      <trkpt lat="44.49591" lon="1.89284">
        <ele>187.2</ele>
        <time>2022-05-25T11:25:45.000Z</time>
      </trkpt>
      <trkpt lat="44.4958" lon="1.89308">
        <ele>188.4</ele>
        <time>2022-05-25T11:25:52.000Z</time>
      </trkpt>
      <trkpt lat="44.49578" lon="1.89311">
        <ele>188.6</ele>
        <time>2022-05-25T11:25:53.000Z</time>
      </trkpt>
      <trkpt lat="44.49575" lon="1.89321">
        <ele>189.4</ele>
        <time>2022-05-25T11:25:56.000Z</time>
      </trkpt>
      <trkpt lat="44.49568" lon="1.89334">
        <ele>189.8</ele>
        <time>2022-05-25T11:26:00.000Z</time>
      </trkpt>
      <trkpt lat="44.49563" lon="1.89349">
        <ele>190.4</ele>
        <time>2022-05-25T11:26:04.000Z</time>
      </trkpt>
      <trkpt lat="44.49562" lon="1.89352">
        <ele>190.8</ele>
        <time>2022-05-25T11:26:05.000Z</time>
      </trkpt>
      <trkpt lat="44.49557" lon="1.89361">
        <ele>191.2</ele>
        <time>2022-05-25T11:26:08.000Z</time>
      </trkpt>
      <trkpt lat="44.49555" lon="1.89368">
        <ele>191.6</ele>
        <time>2022-05-25T11:26:10.000Z</time>
      </trkpt>
      <trkpt lat="44.49547" lon="1.89387">
        <ele>192.8</ele>
        <time>2022-05-25T11:26:16.000Z</time>
      </trkpt>
      <trkpt lat="44.49545" lon="1.89393">
        <ele>193.2</ele>
        <time>2022-05-25T11:26:18.000Z</time>
      </trkpt>
      <trkpt lat="44.49541" lon="1.89403">
        <ele>194</ele>
        <time>2022-05-25T11:26:21.000Z</time>
      </trkpt>
      <trkpt lat="44.49534" lon="1.89421">
        <ele>195</ele>
        <time>2022-05-25T11:26:27.000Z</time>
      </trkpt>
      <trkpt lat="44.49531" lon="1.89438">
        <ele>196.2</ele>
        <time>2022-05-25T11:26:32.000Z</time>
      </trkpt>
      <trkpt lat="44.49531" lon="1.89449">
        <ele>197</ele>
        <time>2022-05-25T11:26:35.000Z</time>
      </trkpt>
      <trkpt lat="44.49532" lon="1.89453">
        <ele>197.2</ele>
        <time>2022-05-25T11:26:36.000Z</time>
      </trkpt>
      <trkpt lat="44.49534" lon="1.89467">
        <ele>198.4</ele>
        <time>2022-05-25T11:26:40.000Z</time>
      </trkpt>
      <trkpt lat="44.49536" lon="1.89474">
        <ele>198.6</ele>
        <time>2022-05-25T11:26:42.000Z</time>
      </trkpt>
      <trkpt lat="44.49536" lon="1.89486">
        <ele>199.4</ele>
        <time>2022-05-25T11:26:45.000Z</time>
      </trkpt>
      <trkpt lat="44.49539" lon="1.89509">
        <ele>200.2</ele>
        <time>2022-05-25T11:26:50.000Z</time>
      </trkpt>
      <trkpt lat="44.49539" lon="1.89517">
        <ele>200.4</ele>
        <time>2022-05-25T11:26:52.000Z</time>
      </trkpt>
      <trkpt lat="44.49544" lon="1.89551">
        <ele>201.4</ele>
        <time>2022-05-25T11:26:59.000Z</time>
      </trkpt>
      <trkpt lat="44.49545" lon="1.89556">
        <ele>201.4</ele>
        <time>2022-05-25T11:27:00.000Z</time>
      </trkpt>
      <trkpt lat="44.4955" lon="1.89587">
        <ele>202</ele>
        <time>2022-05-25T11:27:06.000Z</time>
      </trkpt>
      <trkpt lat="44.49553" lon="1.89609">
        <ele>202.6</ele>
        <time>2022-05-25T11:27:10.000Z</time>
      </trkpt>
      <trkpt lat="44.49558" lon="1.89642">
        <ele>202.8</ele>
        <time>2022-05-25T11:27:16.000Z</time>
      </trkpt>
      <trkpt lat="44.49557" lon="1.89679">
        <ele>203.4</ele>
        <time>2022-05-25T11:27:24.000Z</time>
      </trkpt>
      <trkpt lat="44.49556" lon="1.89683">
        <ele>203.6</ele>
        <time>2022-05-25T11:27:25.000Z</time>
      </trkpt>
      <trkpt lat="44.49553" lon="1.8969">
        <ele>204</ele>
        <time>2022-05-25T11:27:27.000Z</time>
      </trkpt>
      <trkpt lat="44.4955" lon="1.89691">
        <ele>204.2</ele>
        <time>2022-05-25T11:27:28.000Z</time>
      </trkpt>
      <trkpt lat="44.49547" lon="1.89691">
        <ele>204.2</ele>
        <time>2022-05-25T11:27:29.000Z</time>
      </trkpt>
      <trkpt lat="44.49543" lon="1.89686">
        <ele>204.4</ele>
        <time>2022-05-25T11:27:31.000Z</time>
      </trkpt>
      <trkpt lat="44.49541" lon="1.89673">
        <ele>204.6</ele>
        <time>2022-05-25T11:27:34.000Z</time>
      </trkpt>
      <trkpt lat="44.49539" lon="1.89661">
        <ele>205.4</ele>
        <time>2022-05-25T11:27:37.000Z</time>
      </trkpt>
      <trkpt lat="44.49538" lon="1.89653">
        <ele>205.6</ele>
        <time>2022-05-25T11:27:39.000Z</time>
      </trkpt>
      <trkpt lat="44.49536" lon="1.89644">
        <ele>206.4</ele>
        <time>2022-05-25T11:27:42.000Z</time>
      </trkpt>
      <trkpt lat="44.49535" lon="1.89641">
        <ele>206.8</ele>
        <time>2022-05-25T11:27:43.000Z</time>
      </trkpt>
      <trkpt lat="44.49531" lon="1.89624">
        <ele>207.6</ele>
        <time>2022-05-25T11:27:48.000Z</time>
      </trkpt>
      <trkpt lat="44.49529" lon="1.89617">
        <ele>208</ele>
        <time>2022-05-25T11:27:50.000Z</time>
      </trkpt>
      <trkpt lat="44.49526" lon="1.89604">
        <ele>209</ele>
        <time>2022-05-25T11:27:54.000Z</time>
      </trkpt>
      <trkpt lat="44.49525" lon="1.89601">
        <ele>209.2</ele>
        <time>2022-05-25T11:27:55.000Z</time>
      </trkpt>
      <trkpt lat="44.49522" lon="1.89588">
        <ele>210.2</ele>
        <time>2022-05-25T11:27:59.000Z</time>
      </trkpt>
      <trkpt lat="44.4952" lon="1.89576">
        <ele>211</ele>
        <time>2022-05-25T11:28:03.000Z</time>
      </trkpt>
      <trkpt lat="44.49518" lon="1.8957">
        <ele>211.2</ele>
        <time>2022-05-25T11:28:05.000Z</time>
      </trkpt>
      <trkpt lat="44.49513" lon="1.89555">
        <ele>212.4</ele>
        <time>2022-05-25T11:28:10.000Z</time>
      </trkpt>
      <trkpt lat="44.49511" lon="1.89549">
        <ele>212.8</ele>
        <time>2022-05-25T11:28:12.000Z</time>
      </trkpt>
      <trkpt lat="44.49507" lon="1.89539">
        <ele>213.4</ele>
        <time>2022-05-25T11:28:15.000Z</time>
      </trkpt>
      <trkpt lat="44.49502" lon="1.89527">
        <ele>214</ele>
        <time>2022-05-25T11:28:19.000Z</time>
      </trkpt>
      <trkpt lat="44.49498" lon="1.89517">
        <ele>214.6</ele>
        <time>2022-05-25T11:28:22.000Z</time>
      </trkpt>
      <trkpt lat="44.49488" lon="1.89499">
        <ele>215.8</ele>
        <time>2022-05-25T11:28:29.000Z</time>
      </trkpt>
      <trkpt lat="44.49486" lon="1.89497">
        <ele>216</ele>
        <time>2022-05-25T11:28:30.000Z</time>
      </trkpt>
      <trkpt lat="44.49481" lon="1.89488">
        <ele>216.8</ele>
        <time>2022-05-25T11:28:33.000Z</time>
      </trkpt>
      <trkpt lat="44.4947" lon="1.89468">
        <ele>218</ele>
        <time>2022-05-25T11:28:40.000Z</time>
      </trkpt>
      <trkpt lat="44.49461" lon="1.89453">
        <ele>219.2</ele>
        <time>2022-05-25T11:28:46.000Z</time>
      </trkpt>
      <trkpt lat="44.49455" lon="1.89447">
        <ele>219.6</ele>
        <time>2022-05-25T11:28:49.000Z</time>
      </trkpt>
      <trkpt lat="44.49452" lon="1.89443">
        <ele>220</ele>
        <time>2022-05-25T11:28:51.000Z</time>
      </trkpt>
      <trkpt lat="44.4945" lon="1.89441">
        <ele>220.2</ele>
        <time>2022-05-25T11:28:52.000Z</time>
      </trkpt>
      <trkpt lat="44.4944" lon="1.89431">
        <ele>221.4</ele>
        <time>2022-05-25T11:28:57.000Z</time>
      </trkpt>
      <trkpt lat="44.49438" lon="1.89429">
        <ele>221.4</ele>
        <time>2022-05-25T11:28:58.000Z</time>
      </trkpt>
      <trkpt lat="44.49426" lon="1.89422">
        <ele>222.4</ele>
        <time>2022-05-25T11:29:03.000Z</time>
      </trkpt>
      <trkpt lat="44.49416" lon="1.89418">
        <ele>223</ele>
        <time>2022-05-25T11:29:07.000Z</time>
      </trkpt>
      <trkpt lat="44.49413" lon="1.89418">
        <ele>223.4</ele>
        <time>2022-05-25T11:29:08.000Z</time>
      </trkpt>
      <trkpt lat="44.49399" lon="1.89414">
        <ele>224.4</ele>
        <time>2022-05-25T11:29:14.000Z</time>
      </trkpt>
      <trkpt lat="44.49397" lon="1.89414">
        <ele>224.6</ele>
        <time>2022-05-25T11:29:15.000Z</time>
      </trkpt>
      <trkpt lat="44.49385" lon="1.89412">
        <ele>225.6</ele>
        <time>2022-05-25T11:29:20.000Z</time>
      </trkpt>
      <trkpt lat="44.49376" lon="1.89411">
        <ele>226.8</ele>
        <time>2022-05-25T11:29:24.000Z</time>
      </trkpt>
      <trkpt lat="44.49368" lon="1.89411">
        <ele>227.2</ele>
        <time>2022-05-25T11:29:27.000Z</time>
      </trkpt>
      <trkpt lat="44.4936" lon="1.89412">
        <ele>228</ele>
        <time>2022-05-25T11:29:30.000Z</time>
      </trkpt>
      <trkpt lat="44.49346" lon="1.89414">
        <ele>229</ele>
        <time>2022-05-25T11:29:36.000Z</time>
      </trkpt>
      <trkpt lat="44.49344" lon="1.89415">
        <ele>229.2</ele>
        <time>2022-05-25T11:29:37.000Z</time>
      </trkpt>
      <trkpt lat="44.49332" lon="1.89417">
        <ele>230.2</ele>
        <time>2022-05-25T11:29:42.000Z</time>
      </trkpt>
      <trkpt lat="44.49325" lon="1.89419">
        <ele>230.6</ele>
        <time>2022-05-25T11:29:45.000Z</time>
      </trkpt>
      <trkpt lat="44.49315" lon="1.89421">
        <ele>231.2</ele>
        <time>2022-05-25T11:29:49.000Z</time>
      </trkpt>
      <trkpt lat="44.49305" lon="1.89424">
        <ele>232</ele>
        <time>2022-05-25T11:29:53.000Z</time>
      </trkpt>
      <trkpt lat="44.49302" lon="1.89425">
        <ele>232.2</ele>
        <time>2022-05-25T11:29:54.000Z</time>
      </trkpt>
      <trkpt lat="44.49286" lon="1.89429">
        <ele>233.2</ele>
        <time>2022-05-25T11:30:01.000Z</time>
      </trkpt>
      <trkpt lat="44.49284" lon="1.8943">
        <ele>233.6</ele>
        <time>2022-05-25T11:30:02.000Z</time>
      </trkpt>
      <trkpt lat="44.49274" lon="1.89432">
        <ele>234.4</ele>
        <time>2022-05-25T11:30:06.000Z</time>
      </trkpt>
      <trkpt lat="44.49265" lon="1.89435">
        <ele>235.2</ele>
        <time>2022-05-25T11:30:10.000Z</time>
      </trkpt>
      <trkpt lat="44.49262" lon="1.89435">
        <ele>235.4</ele>
        <time>2022-05-25T11:30:11.000Z</time>
      </trkpt>
      <trkpt lat="44.4924" lon="1.89441">
        <ele>236.6</ele>
        <time>2022-05-25T11:30:20.000Z</time>
      </trkpt>
      <trkpt lat="44.49226" lon="1.89445">
        <ele>238</ele>
        <time>2022-05-25T11:30:26.000Z</time>
      </trkpt>
      <trkpt lat="44.49217" lon="1.89448">
        <ele>238.4</ele>
        <time>2022-05-25T11:30:30.000Z</time>
      </trkpt>
      <trkpt lat="44.49205" lon="1.89451">
        <ele>239.2</ele>
        <time>2022-05-25T11:30:35.000Z</time>
      </trkpt>
      <trkpt lat="44.49198" lon="1.89454">
        <ele>239.8</ele>
        <time>2022-05-25T11:30:38.000Z</time>
      </trkpt>
      <trkpt lat="44.4919" lon="1.89457">
        <ele>240.2</ele>
        <time>2022-05-25T11:30:41.000Z</time>
      </trkpt>
      <trkpt lat="44.49178" lon="1.89463">
        <ele>241.2</ele>
        <time>2022-05-25T11:30:46.000Z</time>
      </trkpt>
      <trkpt lat="44.49176" lon="1.89464">
        <ele>241.4</ele>
        <time>2022-05-25T11:30:47.000Z</time>
      </trkpt>
      <trkpt lat="44.49159" lon="1.89475">
        <ele>242.6</ele>
        <time>2022-05-25T11:30:54.000Z</time>
      </trkpt>
      <trkpt lat="44.49146" lon="1.89486">
        <ele>243.6</ele>
        <time>2022-05-25T11:31:00.000Z</time>
      </trkpt>
      <trkpt lat="44.4914" lon="1.89492">
        <ele>244</ele>
        <time>2022-05-25T11:31:03.000Z</time>
      </trkpt>
      <trkpt lat="44.49127" lon="1.89503">
        <ele>245</ele>
        <time>2022-05-25T11:31:09.000Z</time>
      </trkpt>
      <trkpt lat="44.49125" lon="1.89506">
        <ele>245</ele>
        <time>2022-05-25T11:31:10.000Z</time>
      </trkpt>
      <trkpt lat="44.49111" lon="1.89521">
        <ele>246</ele>
        <time>2022-05-25T11:31:17.000Z</time>
      </trkpt>
      <trkpt lat="44.49107" lon="1.89526">
        <ele>246.6</ele>
        <time>2022-05-25T11:31:19.000Z</time>
      </trkpt>
      <trkpt lat="44.49099" lon="1.89536">
        <ele>247.2</ele>
        <time>2022-05-25T11:31:23.000Z</time>
      </trkpt>
      <trkpt lat="44.4909" lon="1.89548">
        <ele>248.2</ele>
        <time>2022-05-25T11:31:28.000Z</time>
      </trkpt>
      <trkpt lat="44.49088" lon="1.89551">
        <ele>248.4</ele>
        <time>2022-05-25T11:31:29.000Z</time>
      </trkpt>
      <trkpt lat="44.4908" lon="1.89564">
        <ele>249.4</ele>
        <time>2022-05-25T11:31:34.000Z</time>
      </trkpt>
      <trkpt lat="44.49074" lon="1.89571">
        <ele>249.8</ele>
        <time>2022-05-25T11:31:37.000Z</time>
      </trkpt>
      <trkpt lat="44.49069" lon="1.89578">
        <ele>250.6</ele>
        <time>2022-05-25T11:31:40.000Z</time>
      </trkpt>
      <trkpt lat="44.49056" lon="1.89598">
        <ele>251.8</ele>
        <time>2022-05-25T11:31:47.000Z</time>
      </trkpt>
      <trkpt lat="44.49054" lon="1.896">
        <ele>251.8</ele>
        <time>2022-05-25T11:31:48.000Z</time>
      </trkpt>
      <trkpt lat="44.49051" lon="1.89606">
        <ele>252.4</ele>
        <time>2022-05-25T11:31:50.000Z</time>
      </trkpt>
      <trkpt lat="44.49045" lon="1.89614">
        <ele>252.8</ele>
        <time>2022-05-25T11:31:53.000Z</time>
      </trkpt>
      <trkpt lat="44.49038" lon="1.89624">
        <ele>253.8</ele>
        <time>2022-05-25T11:31:57.000Z</time>
      </trkpt>
      <trkpt lat="44.49034" lon="1.89629">
        <ele>254.4</ele>
        <time>2022-05-25T11:31:59.000Z</time>
      </trkpt>
      <trkpt lat="44.49028" lon="1.89635">
        <ele>255</ele>
        <time>2022-05-25T11:32:02.000Z</time>
      </trkpt>
      <trkpt lat="44.49017" lon="1.89649">
        <ele>255.6</ele>
        <time>2022-05-25T11:32:08.000Z</time>
      </trkpt>
      <trkpt lat="44.49013" lon="1.89653">
        <ele>256</ele>
        <time>2022-05-25T11:32:10.000Z</time>
      </trkpt>
      <trkpt lat="44.48999" lon="1.89663">
        <ele>256.8</ele>
        <time>2022-05-25T11:32:16.000Z</time>
      </trkpt>
      <trkpt lat="44.48996" lon="1.89664">
        <ele>257</ele>
        <time>2022-05-25T11:32:17.000Z</time>
      </trkpt>
      <trkpt lat="44.48986" lon="1.89679">
        <ele>257.8</ele>
        <time>2022-05-25T11:32:23.000Z</time>
      </trkpt>
      <trkpt lat="44.48988" lon="1.89686">
        <ele>258</ele>
        <time>2022-05-25T11:32:25.000Z</time>
      </trkpt>
      <trkpt lat="44.4899" lon="1.89688">
        <ele>258.2</ele>
        <time>2022-05-25T11:32:26.000Z</time>
      </trkpt>
      <trkpt lat="44.49001" lon="1.89684">
        <ele>258.8</ele>
        <time>2022-05-25T11:32:30.000Z</time>
      </trkpt>
      <trkpt lat="44.49009" lon="1.89675">
        <ele>259.2</ele>
        <time>2022-05-25T11:32:33.000Z</time>
      </trkpt>
      <trkpt lat="44.4902" lon="1.89663">
        <ele>259.8</ele>
        <time>2022-05-25T11:32:38.000Z</time>
      </trkpt>
      <trkpt lat="44.49042" lon="1.89646">
        <ele>260.2</ele>
        <time>2022-05-25T11:32:46.000Z</time>
      </trkpt>
      <trkpt lat="44.49045" lon="1.89644">
        <ele>260.2</ele>
        <time>2022-05-25T11:32:47.000Z</time>
      </trkpt>
      <trkpt lat="44.49051" lon="1.89639">
        <ele>260.6</ele>
        <time>2022-05-25T11:32:49.000Z</time>
      </trkpt>
      <trkpt lat="44.49064" lon="1.8963">
        <ele>261.2</ele>
        <time>2022-05-25T11:32:54.000Z</time>
      </trkpt>
      <trkpt lat="44.49069" lon="1.89626">
        <ele>261.4</ele>
        <time>2022-05-25T11:32:56.000Z</time>
      </trkpt>
      <trkpt lat="44.4908" lon="1.89618">
        <ele>262.4</ele>
        <time>2022-05-25T11:33:00.000Z</time>
      </trkpt>
      <trkpt lat="44.49093" lon="1.89607">
        <ele>263</ele>
        <time>2022-05-25T11:33:05.000Z</time>
      </trkpt>
      <trkpt lat="44.49101" lon="1.89601">
        <ele>263.4</ele>
        <time>2022-05-25T11:33:08.000Z</time>
      </trkpt>
      <trkpt lat="44.49112" lon="1.89592">
        <ele>264.2</ele>
        <time>2022-05-25T11:33:12.000Z</time>
      </trkpt>
      <trkpt lat="44.49115" lon="1.8959">
        <ele>264.4</ele>
        <time>2022-05-25T11:33:13.000Z</time>
      </trkpt>
      <trkpt lat="44.49118" lon="1.89588">
        <ele>264.4</ele>
        <time>2022-05-25T11:33:14.000Z</time>
      </trkpt>
      <trkpt lat="44.49136" lon="1.89573">
        <ele>265.6</ele>
        <time>2022-05-25T11:33:21.000Z</time>
      </trkpt>
      <trkpt lat="44.49139" lon="1.89571">
        <ele>265.8</ele>
        <time>2022-05-25T11:33:22.000Z</time>
      </trkpt>
      <trkpt lat="44.49159" lon="1.89554">
        <ele>266.6</ele>
        <time>2022-05-25T11:33:29.000Z</time>
      </trkpt>
      <trkpt lat="44.49162" lon="1.89552">
        <ele>266.8</ele>
        <time>2022-05-25T11:33:30.000Z</time>
      </trkpt>
      <trkpt lat="44.49174" lon="1.89551">
        <ele>267.2</ele>
        <time>2022-05-25T11:33:34.000Z</time>
      </trkpt>
      <trkpt lat="44.49176" lon="1.89559">
        <ele>267.4</ele>
        <time>2022-05-25T11:33:36.000Z</time>
      </trkpt>
      <trkpt lat="44.49175" lon="1.89563">
        <ele>267.6</ele>
        <time>2022-05-25T11:33:37.000Z</time>
      </trkpt>
      <trkpt lat="44.49173" lon="1.89566">
        <ele>267.6</ele>
        <time>2022-05-25T11:33:38.000Z</time>
      </trkpt>
      <trkpt lat="44.4917" lon="1.89568">
        <ele>268</ele>
        <time>2022-05-25T11:33:39.000Z</time>
      </trkpt>
      <trkpt lat="44.49167" lon="1.8957">
        <ele>268.4</ele>
        <time>2022-05-25T11:33:40.000Z</time>
      </trkpt>
      <trkpt lat="44.49164" lon="1.89571">
        <ele>268.4</ele>
        <time>2022-05-25T11:33:41.000Z</time>
      </trkpt>
      <trkpt lat="44.49155" lon="1.89574">
        <ele>269</ele>
        <time>2022-05-25T11:33:44.000Z</time>
      </trkpt>
      <trkpt lat="44.49146" lon="1.89581">
        <ele>269.6</ele>
        <time>2022-05-25T11:33:47.000Z</time>
      </trkpt>
      <trkpt lat="44.49141" lon="1.89585">
        <ele>270.2</ele>
        <time>2022-05-25T11:33:49.000Z</time>
      </trkpt>
      <trkpt lat="44.49131" lon="1.89596">
        <ele>270.4</ele>
        <time>2022-05-25T11:33:53.000Z</time>
      </trkpt>
      <trkpt lat="44.49119" lon="1.8961">
        <ele>271.2</ele>
        <time>2022-05-25T11:33:58.000Z</time>
      </trkpt>
      <trkpt lat="44.49111" lon="1.89623">
        <ele>272</ele>
        <time>2022-05-25T11:34:02.000Z</time>
      </trkpt>
      <trkpt lat="44.49108" lon="1.89628">
        <ele>272.6</ele>
        <time>2022-05-25T11:34:04.000Z</time>
      </trkpt>
      <trkpt lat="44.491" lon="1.89638">
        <ele>273.6</ele>
        <time>2022-05-25T11:34:08.000Z</time>
      </trkpt>
      <trkpt lat="44.49094" lon="1.89647">
        <ele>274</ele>
        <time>2022-05-25T11:34:11.000Z</time>
      </trkpt>
      <trkpt lat="44.49083" lon="1.89665">
        <ele>274.8</ele>
        <time>2022-05-25T11:34:17.000Z</time>
      </trkpt>
      <trkpt lat="44.49079" lon="1.89671">
        <ele>275.2</ele>
        <time>2022-05-25T11:34:19.000Z</time>
      </trkpt>
      <trkpt lat="44.49072" lon="1.89683">
        <ele>276</ele>
        <time>2022-05-25T11:34:23.000Z</time>
      </trkpt>
      <trkpt lat="44.49066" lon="1.89691">
        <ele>276.6</ele>
        <time>2022-05-25T11:34:26.000Z</time>
      </trkpt>
      <trkpt lat="44.49061" lon="1.89699">
        <ele>277.2</ele>
        <time>2022-05-25T11:34:29.000Z</time>
      </trkpt>
      <trkpt lat="44.49055" lon="1.89707">
        <ele>277.8</ele>
        <time>2022-05-25T11:34:32.000Z</time>
      </trkpt>
      <trkpt lat="44.49047" lon="1.89717">
        <ele>278.4</ele>
        <time>2022-05-25T11:34:36.000Z</time>
      </trkpt>
      <trkpt lat="44.49036" lon="1.89729">
        <ele>279.8</ele>
        <time>2022-05-25T11:34:41.000Z</time>
      </trkpt>
      <trkpt lat="44.49027" lon="1.89738">
        <ele>280.2</ele>
        <time>2022-05-25T11:34:45.000Z</time>
      </trkpt>
      <trkpt lat="44.49018" lon="1.89746">
        <ele>281</ele>
        <time>2022-05-25T11:34:49.000Z</time>
      </trkpt>
      <trkpt lat="44.49008" lon="1.89752">
        <ele>282</ele>
        <time>2022-05-25T11:34:53.000Z</time>
      </trkpt>
      <trkpt lat="44.49006" lon="1.89754">
        <ele>282.4</ele>
        <time>2022-05-25T11:34:54.000Z</time>
      </trkpt>
      <trkpt lat="44.48987" lon="1.89767">
        <ele>283.2</ele>
        <time>2022-05-25T11:35:02.000Z</time>
      </trkpt>
      <trkpt lat="44.48983" lon="1.89771">
        <ele>283.4</ele>
        <time>2022-05-25T11:35:04.000Z</time>
      </trkpt>
      <trkpt lat="44.48975" lon="1.8978">
        <ele>284.4</ele>
        <time>2022-05-25T11:35:08.000Z</time>
      </trkpt>
      <trkpt lat="44.48966" lon="1.8979">
        <ele>285.2</ele>
        <time>2022-05-25T11:35:12.000Z</time>
      </trkpt>
      <trkpt lat="44.48962" lon="1.89796">
        <ele>285.6</ele>
        <time>2022-05-25T11:35:14.000Z</time>
      </trkpt>
      <trkpt lat="44.48957" lon="1.89801">
        <ele>286</ele>
        <time>2022-05-25T11:35:16.000Z</time>
      </trkpt>
      <trkpt lat="44.48949" lon="1.89813">
        <ele>286.8</ele>
        <time>2022-05-25T11:35:20.000Z</time>
      </trkpt>
      <trkpt lat="44.4894" lon="1.89832">
        <ele>287.8</ele>
        <time>2022-05-25T11:35:26.000Z</time>
      </trkpt>
      <trkpt lat="44.48937" lon="1.89839">
        <ele>288.4</ele>
        <time>2022-05-25T11:35:28.000Z</time>
      </trkpt>
      <trkpt lat="44.48935" lon="1.89846">
        <ele>289</ele>
        <time>2022-05-25T11:35:30.000Z</time>
      </trkpt>
      <trkpt lat="44.48928" lon="1.89867">
        <ele>290.2</ele>
        <time>2022-05-25T11:35:36.000Z</time>
      </trkpt>
      <trkpt lat="44.48919" lon="1.89892">
        <ele>291</ele>
        <time>2022-05-25T11:35:43.000Z</time>
      </trkpt>
      <trkpt lat="44.48918" lon="1.89896">
        <ele>291.4</ele>
        <time>2022-05-25T11:35:44.000Z</time>
      </trkpt>
      <trkpt lat="44.48912" lon="1.89914">
        <ele>292.6</ele>
        <time>2022-05-25T11:35:49.000Z</time>
      </trkpt>
      <trkpt lat="44.48907" lon="1.89931">
        <ele>294.6</ele>
        <time>2022-05-25T11:35:54.000Z</time>
      </trkpt>
      <trkpt lat="44.48906" lon="1.89935">
        <ele>293.6</ele>
        <time>2022-05-25T11:35:55.000Z</time>
      </trkpt>
      <trkpt lat="44.48904" lon="1.89942">
        <ele>294</ele>
        <time>2022-05-25T11:35:57.000Z</time>
      </trkpt>
      <trkpt lat="44.48899" lon="1.89957">
        <ele>294.8</ele>
        <time>2022-05-25T11:36:01.000Z</time>
      </trkpt>
      <trkpt lat="44.48896" lon="1.89964">
        <ele>295.4</ele>
        <time>2022-05-25T11:36:03.000Z</time>
      </trkpt>
      <trkpt lat="44.48888" lon="1.89988">
        <ele>296</ele>
        <time>2022-05-25T11:36:09.000Z</time>
      </trkpt>
      <trkpt lat="44.48886" lon="1.89997">
        <ele>296.2</ele>
        <time>2022-05-25T11:36:11.000Z</time>
      </trkpt>
      <trkpt lat="44.48881" lon="1.90013">
        <ele>297</ele>
        <time>2022-05-25T11:36:15.000Z</time>
      </trkpt>
      <trkpt lat="44.48872" lon="1.90038">
        <ele>298.2</ele>
        <time>2022-05-25T11:36:21.000Z</time>
      </trkpt>
      <trkpt lat="44.48853" lon="1.90079">
        <ele>298.8</ele>
        <time>2022-05-25T11:36:31.000Z</time>
      </trkpt>
      <trkpt lat="44.48847" lon="1.90091">
        <ele>299.2</ele>
        <time>2022-05-25T11:36:34.000Z</time>
      </trkpt>
      <trkpt lat="44.48837" lon="1.90109">
        <ele>299.6</ele>
        <time>2022-05-25T11:36:39.000Z</time>
      </trkpt>
      <trkpt lat="44.48822" lon="1.90132">
        <ele>300.2</ele>
        <time>2022-05-25T11:36:45.000Z</time>
      </trkpt>
      <trkpt lat="44.48814" lon="1.90143">
        <ele>300.2</ele>
        <time>2022-05-25T11:36:48.000Z</time>
      </trkpt>
      <trkpt lat="44.48793" lon="1.90172">
        <ele>301</ele>
        <time>2022-05-25T11:36:56.000Z</time>
      </trkpt>
      <trkpt lat="44.48784" lon="1.90182">
        <ele>301.2</ele>
        <time>2022-05-25T11:36:59.000Z</time>
      </trkpt>
      <trkpt lat="44.48777" lon="1.90188">
        <ele>301.6</ele>
        <time>2022-05-25T11:37:01.000Z</time>
      </trkpt>
      <trkpt lat="44.48756" lon="1.90205">
        <ele>301.8</ele>
        <time>2022-05-25T11:37:07.000Z</time>
      </trkpt>
      <trkpt lat="44.48738" lon="1.90216">
        <ele>302.4</ele>
        <time>2022-05-25T11:37:12.000Z</time>
      </trkpt>
      <trkpt lat="44.48727" lon="1.90221">
        <ele>302.8</ele>
        <time>2022-05-25T11:37:15.000Z</time>
      </trkpt>
      <trkpt lat="44.48712" lon="1.90228">
        <ele>303.4</ele>
        <time>2022-05-25T11:37:19.000Z</time>
      </trkpt>
      <trkpt lat="44.48694" lon="1.90237">
        <ele>304.4</ele>
        <time>2022-05-25T11:37:24.000Z</time>
      </trkpt>
      <trkpt lat="44.4869" lon="1.90239">
        <ele>304.6</ele>
        <time>2022-05-25T11:37:25.000Z</time>
      </trkpt>
      <trkpt lat="44.48664" lon="1.90252">
        <ele>305.4</ele>
        <time>2022-05-25T11:37:32.000Z</time>
      </trkpt>
      <trkpt lat="44.48636" lon="1.90266">
        <ele>305.6</ele>
        <time>2022-05-25T11:37:39.000Z</time>
      </trkpt>
      <trkpt lat="44.4863" lon="1.90271">
        <ele>305.6</ele>
        <time>2022-05-25T11:37:41.000Z</time>
      </trkpt>
      <trkpt lat="44.48619" lon="1.90283">
        <ele>306</ele>
        <time>2022-05-25T11:37:46.000Z</time>
      </trkpt>
      <trkpt lat="44.48616" lon="1.90286">
        <ele>306</ele>
        <time>2022-05-25T11:37:49.000Z</time>
      </trkpt>
      <trkpt lat="44.48616" lon="1.90286">
        <ele>306</ele>
        <time>2022-05-25T11:37:50.000Z</time>
      </trkpt>
      <trkpt lat="44.48616" lon="1.90286">
        <ele>306</ele>
        <time>2022-05-25T11:37:54.000Z</time>
      </trkpt>
      <trkpt lat="44.48612" lon="1.90295">
        <ele>307.2</ele>
        <time>2022-05-25T11:41:12.000Z</time>
      </trkpt>
      <trkpt lat="44.4861" lon="1.90299">
        <ele>307.4</ele>
        <time>2022-05-25T11:41:14.000Z</time>
      </trkpt>
      <trkpt lat="44.48603" lon="1.90312">
        <ele>307.4</ele>
        <time>2022-05-25T11:41:18.000Z</time>
      </trkpt>
      <trkpt lat="44.48585" lon="1.90351">
        <ele>306.8</ele>
        <time>2022-05-25T11:41:26.000Z</time>
      </trkpt>
      <trkpt lat="44.48568" lon="1.90385">
        <ele>307.4</ele>
        <time>2022-05-25T11:41:34.000Z</time>
      </trkpt>
      <trkpt lat="44.48544" lon="1.90435">
        <ele>307.6</ele>
        <time>2022-05-25T11:41:45.000Z</time>
      </trkpt>
      <trkpt lat="44.48526" lon="1.90466">
        <ele>308.6</ele>
        <time>2022-05-25T11:41:53.000Z</time>
      </trkpt>
      <trkpt lat="44.48522" lon="1.90474">
        <ele>308.6</ele>
        <time>2022-05-25T11:41:55.000Z</time>
      </trkpt>
      <trkpt lat="44.48521" lon="1.90488">
        <ele>308.8</ele>
        <time>2022-05-25T11:41:58.000Z</time>
      </trkpt>
      <trkpt lat="44.48523" lon="1.90493">
        <ele>308.8</ele>
        <time>2022-05-25T11:41:59.000Z</time>
      </trkpt>
      <trkpt lat="44.48533" lon="1.90526">
        <ele>309.2</ele>
        <time>2022-05-25T11:42:05.000Z</time>
      </trkpt>
      <trkpt lat="44.48533" lon="1.90539">
        <ele>309.4</ele>
        <time>2022-05-25T11:42:07.000Z</time>
      </trkpt>
      <trkpt lat="44.48532" lon="1.90546">
        <ele>309.6</ele>
        <time>2022-05-25T11:42:08.000Z</time>
      </trkpt>
      <trkpt lat="44.48532" lon="1.90552">
        <ele>309.8</ele>
        <time>2022-05-25T11:42:09.000Z</time>
      </trkpt>
      <trkpt lat="44.48524" lon="1.90606">
        <ele>310.8</ele>
        <time>2022-05-25T11:42:17.000Z</time>
      </trkpt>
      <trkpt lat="44.48516" lon="1.90659">
        <ele>311.4</ele>
        <time>2022-05-25T11:42:24.000Z</time>
      </trkpt>
      <trkpt lat="44.48508" lon="1.90709">
        <ele>311.2</ele>
        <time>2022-05-25T11:42:31.000Z</time>
      </trkpt>
      <trkpt lat="44.48497" lon="1.90776">
        <ele>311.4</ele>
        <time>2022-05-25T11:42:40.000Z</time>
      </trkpt>
      <trkpt lat="44.48494" lon="1.90798">
        <ele>311.8</ele>
        <time>2022-05-25T11:42:43.000Z</time>
      </trkpt>
      <trkpt lat="44.48486" lon="1.90846">
        <ele>312.6</ele>
        <time>2022-05-25T11:42:50.000Z</time>
      </trkpt>
      <trkpt lat="44.48482" lon="1.9087">
        <ele>312.8</ele>
        <time>2022-05-25T11:42:54.000Z</time>
      </trkpt>
      <trkpt lat="44.48481" lon="1.90875">
        <ele>313</ele>
        <time>2022-05-25T11:42:55.000Z</time>
      </trkpt>
      <trkpt lat="44.4848" lon="1.90881">
        <ele>313.2</ele>
        <time>2022-05-25T11:42:56.000Z</time>
      </trkpt>
      <trkpt lat="44.48479" lon="1.90892">
        <ele>314.2</ele>
        <time>2022-05-25T11:42:59.000Z</time>
      </trkpt>
      <trkpt lat="44.4848" lon="1.90895">
        <ele>314.2</ele>
        <time>2022-05-25T11:43:00.000Z</time>
      </trkpt>
      <trkpt lat="44.4848" lon="1.90899">
        <ele>315</ele>
        <time>2022-05-25T11:43:05.000Z</time>
      </trkpt>
      <trkpt lat="44.48472" lon="1.90925">
        <ele>315.6</ele>
        <time>2022-05-25T11:45:52.000Z</time>
      </trkpt>
      <trkpt lat="44.4847" lon="1.90932">
        <ele>315.6</ele>
        <time>2022-05-25T11:45:54.000Z</time>
      </trkpt>
      <trkpt lat="44.48464" lon="1.90955">
        <ele>316.8</ele>
        <time>2022-05-25T11:46:00.000Z</time>
      </trkpt>
      <trkpt lat="44.48461" lon="1.90965">
        <ele>317</ele>
        <time>2022-05-25T11:46:02.000Z</time>
      </trkpt>
      <trkpt lat="44.48454" lon="1.90988">
        <ele>317.4</ele>
        <time>2022-05-25T11:46:07.000Z</time>
      </trkpt>
      <trkpt lat="44.48452" lon="1.90999">
        <ele>317.8</ele>
        <time>2022-05-25T11:46:09.000Z</time>
      </trkpt>
      <trkpt lat="44.48447" lon="1.9102">
        <ele>319</ele>
        <time>2022-05-25T11:46:13.000Z</time>
      </trkpt>
      <trkpt lat="44.48436" lon="1.91064">
        <ele>319.4</ele>
        <time>2022-05-25T11:46:21.000Z</time>
      </trkpt>
      <trkpt lat="44.48426" lon="1.91107">
        <ele>319.2</ele>
        <time>2022-05-25T11:46:27.000Z</time>
      </trkpt>
      <trkpt lat="44.4842" lon="1.91135">
        <ele>317.8</ele>
        <time>2022-05-25T11:46:30.000Z</time>
      </trkpt>
      <trkpt lat="44.48414" lon="1.91157">
        <ele>317.4</ele>
        <time>2022-05-25T11:46:32.000Z</time>
      </trkpt>
      <trkpt lat="44.48408" lon="1.91182">
        <ele>316</ele>
        <time>2022-05-25T11:46:34.000Z</time>
      </trkpt>
      <trkpt lat="44.48401" lon="1.91209">
        <ele>314.8</ele>
        <time>2022-05-25T11:46:36.000Z</time>
      </trkpt>
      <trkpt lat="44.48398" lon="1.91222">
        <ele>314.6</ele>
        <time>2022-05-25T11:46:37.000Z</time>
      </trkpt>
      <trkpt lat="44.48391" lon="1.9125">
        <ele>313</ele>
        <time>2022-05-25T11:46:39.000Z</time>
      </trkpt>
      <trkpt lat="44.48385" lon="1.91278">
        <ele>311.2</ele>
        <time>2022-05-25T11:46:41.000Z</time>
      </trkpt>
      <trkpt lat="44.4838" lon="1.91306">
        <ele>310</ele>
        <time>2022-05-25T11:46:43.000Z</time>
      </trkpt>
      <trkpt lat="44.48378" lon="1.91334">
        <ele>308</ele>
        <time>2022-05-25T11:46:45.000Z</time>
      </trkpt>
      <trkpt lat="44.48377" lon="1.91361">
        <ele>307.4</ele>
        <time>2022-05-25T11:46:47.000Z</time>
      </trkpt>
      <trkpt lat="44.48376" lon="1.91384">
        <ele>307.2</ele>
        <time>2022-05-25T11:46:49.000Z</time>
      </trkpt>
      <trkpt lat="44.48375" lon="1.91394">
        <ele>306.8</ele>
        <time>2022-05-25T11:46:50.000Z</time>
      </trkpt>
      <trkpt lat="44.48374" lon="1.91403">
        <ele>307.2</ele>
        <time>2022-05-25T11:46:51.000Z</time>
      </trkpt>
      <trkpt lat="44.48372" lon="1.91441">
        <ele>308</ele>
        <time>2022-05-25T11:46:56.000Z</time>
      </trkpt>
      <trkpt lat="44.48372" lon="1.91448">
        <ele>309</ele>
        <time>2022-05-25T11:46:57.000Z</time>
      </trkpt>
      <trkpt lat="44.48371" lon="1.9146">
        <ele>309.6</ele>
        <time>2022-05-25T11:46:59.000Z</time>
      </trkpt>
      <trkpt lat="44.4837" lon="1.91466">
        <ele>309.6</ele>
        <time>2022-05-25T11:47:00.000Z</time>
      </trkpt>
      <trkpt lat="44.4837" lon="1.91472">
        <ele>310.2</ele>
        <time>2022-05-25T11:47:01.000Z</time>
      </trkpt>
      <trkpt lat="44.4837" lon="1.91499">
        <ele>311.2</ele>
        <time>2022-05-25T11:47:06.000Z</time>
      </trkpt>
      <trkpt lat="44.48371" lon="1.91504">
        <ele>311.4</ele>
        <time>2022-05-25T11:47:07.000Z</time>
      </trkpt>
      <trkpt lat="44.48373" lon="1.91518">
        <ele>312.2</ele>
        <time>2022-05-25T11:47:10.000Z</time>
      </trkpt>
      <trkpt lat="44.48375" lon="1.91532">
        <ele>313.2</ele>
        <time>2022-05-25T11:47:13.000Z</time>
      </trkpt>
      <trkpt lat="44.48377" lon="1.91541">
        <ele>313.6</ele>
        <time>2022-05-25T11:47:15.000Z</time>
      </trkpt>
      <trkpt lat="44.48381" lon="1.91558">
        <ele>314.8</ele>
        <time>2022-05-25T11:47:19.000Z</time>
      </trkpt>
      <trkpt lat="44.48383" lon="1.91568">
        <ele>315.2</ele>
        <time>2022-05-25T11:47:21.000Z</time>
      </trkpt>
      <trkpt lat="44.48385" lon="1.91577">
        <ele>316</ele>
        <time>2022-05-25T11:47:23.000Z</time>
      </trkpt>
      <trkpt lat="44.48388" lon="1.91588">
        <ele>317.2</ele>
        <time>2022-05-25T11:47:26.000Z</time>
      </trkpt>
      <trkpt lat="44.48392" lon="1.9161">
        <ele>317.6</ele>
        <time>2022-05-25T11:47:31.000Z</time>
      </trkpt>
      <trkpt lat="44.48396" lon="1.91627">
        <ele>318.4</ele>
        <time>2022-05-25T11:47:35.000Z</time>
      </trkpt>
      <trkpt lat="44.484" lon="1.91646">
        <ele>318.8</ele>
        <time>2022-05-25T11:47:39.000Z</time>
      </trkpt>
      <trkpt lat="44.48404" lon="1.91659">
        <ele>319.4</ele>
        <time>2022-05-25T11:47:42.000Z</time>
      </trkpt>
      <trkpt lat="44.4841" lon="1.91677">
        <ele>320.4</ele>
        <time>2022-05-25T11:47:46.000Z</time>
      </trkpt>
      <trkpt lat="44.48413" lon="1.91687">
        <ele>321</ele>
        <time>2022-05-25T11:47:48.000Z</time>
      </trkpt>
      <trkpt lat="44.48416" lon="1.91697">
        <ele>321.6</ele>
        <time>2022-05-25T11:47:50.000Z</time>
      </trkpt>
      <trkpt lat="44.48425" lon="1.91726">
        <ele>322.2</ele>
        <time>2022-05-25T11:47:56.000Z</time>
      </trkpt>
      <trkpt lat="44.48428" lon="1.91736">
        <ele>322.6</ele>
        <time>2022-05-25T11:47:58.000Z</time>
      </trkpt>
      <trkpt lat="44.48439" lon="1.91776">
        <ele>323.8</ele>
        <time>2022-05-25T11:48:06.000Z</time>
      </trkpt>
      <trkpt lat="44.48449" lon="1.91804">
        <ele>325</ele>
        <time>2022-05-25T11:48:12.000Z</time>
      </trkpt>
      <trkpt lat="44.48455" lon="1.91817">
        <ele>325.2</ele>
        <time>2022-05-25T11:48:15.000Z</time>
      </trkpt>
      <trkpt lat="44.48466" lon="1.9184">
        <ele>325.8</ele>
        <time>2022-05-25T11:48:20.000Z</time>
      </trkpt>
      <trkpt lat="44.48471" lon="1.91849">
        <ele>326</ele>
        <time>2022-05-25T11:48:22.000Z</time>
      </trkpt>
      <trkpt lat="44.48479" lon="1.91863">
        <ele>326.2</ele>
        <time>2022-05-25T11:48:25.000Z</time>
      </trkpt>
      <trkpt lat="44.48495" lon="1.91894">
        <ele>327</ele>
        <time>2022-05-25T11:48:32.000Z</time>
      </trkpt>
      <trkpt lat="44.48498" lon="1.91898">
        <ele>327.4</ele>
        <time>2022-05-25T11:48:33.000Z</time>
      </trkpt>
      <trkpt lat="44.48519" lon="1.91937">
        <ele>327.6</ele>
        <time>2022-05-25T11:48:41.000Z</time>
      </trkpt>
      <trkpt lat="44.48535" lon="1.91966">
        <ele>326.8</ele>
        <time>2022-05-25T11:48:46.000Z</time>
      </trkpt>
      <trkpt lat="44.4854" lon="1.91974">
        <ele>327</ele>
        <time>2022-05-25T11:48:47.000Z</time>
      </trkpt>
      <trkpt lat="44.48551" lon="1.91999">
        <ele>326</ele>
        <time>2022-05-25T11:48:50.000Z</time>
      </trkpt>
      <trkpt lat="44.48555" lon="1.92009">
        <ele>325.8</ele>
        <time>2022-05-25T11:48:51.000Z</time>
      </trkpt>
      <trkpt lat="44.48568" lon="1.92039">
        <ele>324.8</ele>
        <time>2022-05-25T11:48:54.000Z</time>
      </trkpt>
      <trkpt lat="44.48579" lon="1.92074">
        <ele>323.8</ele>
        <time>2022-05-25T11:48:57.000Z</time>
      </trkpt>
      <trkpt lat="44.48583" lon="1.92087">
        <ele>323.2</ele>
        <time>2022-05-25T11:48:58.000Z</time>
      </trkpt>
      <trkpt lat="44.48586" lon="1.92101">
        <ele>321.8</ele>
        <time>2022-05-25T11:48:59.000Z</time>
      </trkpt>
      <trkpt lat="44.48593" lon="1.92129">
        <ele>320.6</ele>
        <time>2022-05-25T11:49:01.000Z</time>
      </trkpt>
      <trkpt lat="44.48597" lon="1.92144">
        <ele>320.4</ele>
        <time>2022-05-25T11:49:02.000Z</time>
      </trkpt>
      <trkpt lat="44.48601" lon="1.92158">
        <ele>319.2</ele>
        <time>2022-05-25T11:49:03.000Z</time>
      </trkpt>
      <trkpt lat="44.48607" lon="1.92186">
        <ele>316.8</ele>
        <time>2022-05-25T11:49:05.000Z</time>
      </trkpt>
      <trkpt lat="44.48608" lon="1.922">
        <ele>316.4</ele>
        <time>2022-05-25T11:49:06.000Z</time>
      </trkpt>
      <trkpt lat="44.48606" lon="1.92213">
        <ele>315.2</ele>
        <time>2022-05-25T11:49:07.000Z</time>
      </trkpt>
      <trkpt lat="44.48603" lon="1.92226">
        <ele>314.2</ele>
        <time>2022-05-25T11:49:08.000Z</time>
      </trkpt>
      <trkpt lat="44.48599" lon="1.92237">
        <ele>313.2</ele>
        <time>2022-05-25T11:49:09.000Z</time>
      </trkpt>
      <trkpt lat="44.48596" lon="1.9225">
        <ele>312</ele>
        <time>2022-05-25T11:49:10.000Z</time>
      </trkpt>
      <trkpt lat="44.48594" lon="1.92276">
        <ele>310.8</ele>
        <time>2022-05-25T11:49:12.000Z</time>
      </trkpt>
      <trkpt lat="44.48598" lon="1.923">
        <ele>309.6</ele>
        <time>2022-05-25T11:49:14.000Z</time>
      </trkpt>
      <trkpt lat="44.48602" lon="1.9231">
        <ele>308.8</ele>
        <time>2022-05-25T11:49:15.000Z</time>
      </trkpt>
      <trkpt lat="44.48605" lon="1.92319">
        <ele>308.2</ele>
        <time>2022-05-25T11:49:16.000Z</time>
      </trkpt>
      <trkpt lat="44.4861" lon="1.92328">
        <ele>308</ele>
        <time>2022-05-25T11:49:17.000Z</time>
      </trkpt>
      <trkpt lat="44.48616" lon="1.92335">
        <ele>307.8</ele>
        <time>2022-05-25T11:49:18.000Z</time>
      </trkpt>
      <trkpt lat="44.48629" lon="1.92353">
        <ele>307.2</ele>
        <time>2022-05-25T11:49:20.000Z</time>
      </trkpt>
      <trkpt lat="44.4865" lon="1.92381">
        <ele>306.6</ele>
        <time>2022-05-25T11:49:24.000Z</time>
      </trkpt>
      <trkpt lat="44.4866" lon="1.92395">
        <ele>306.6</ele>
        <time>2022-05-25T11:49:26.000Z</time>
      </trkpt>
      <trkpt lat="44.48683" lon="1.92427">
        <ele>306.4</ele>
        <time>2022-05-25T11:49:31.000Z</time>
      </trkpt>
      <trkpt lat="44.48703" lon="1.92463">
        <ele>306.4</ele>
        <time>2022-05-25T11:49:36.000Z</time>
      </trkpt>
      <trkpt lat="44.48706" lon="1.92471">
        <ele>306.4</ele>
        <time>2022-05-25T11:49:37.000Z</time>
      </trkpt>
      <trkpt lat="44.48717" lon="1.92506">
        <ele>306</ele>
        <time>2022-05-25T11:49:41.000Z</time>
      </trkpt>
      <trkpt lat="44.48724" lon="1.92522">
        <ele>306</ele>
        <time>2022-05-25T11:49:43.000Z</time>
      </trkpt>
      <trkpt lat="44.48727" lon="1.92529">
        <ele>305.6</ele>
        <time>2022-05-25T11:49:44.000Z</time>
      </trkpt>
      <trkpt lat="44.48736" lon="1.92541">
        <ele>305</ele>
        <time>2022-05-25T11:49:46.000Z</time>
      </trkpt>
      <trkpt lat="44.48741" lon="1.92545">
        <ele>305</ele>
        <time>2022-05-25T11:49:47.000Z</time>
      </trkpt>
      <trkpt lat="44.48746" lon="1.92548">
        <ele>305</ele>
        <time>2022-05-25T11:49:48.000Z</time>
      </trkpt>
      <trkpt lat="44.48762" lon="1.92551">
        <ele>305.2</ele>
        <time>2022-05-25T11:49:51.000Z</time>
      </trkpt>
      <trkpt lat="44.48781" lon="1.92552">
        <ele>306.2</ele>
        <time>2022-05-25T11:49:55.000Z</time>
      </trkpt>
      <trkpt lat="44.48792" lon="1.92556">
        <ele>306.8</ele>
        <time>2022-05-25T11:49:58.000Z</time>
      </trkpt>
      <trkpt lat="44.48796" lon="1.92557">
        <ele>307.6</ele>
        <time>2022-05-25T11:49:59.000Z</time>
      </trkpt>
      <trkpt lat="44.48814" lon="1.92572">
        <ele>308.6</ele>
        <time>2022-05-25T11:50:05.000Z</time>
      </trkpt>
      <trkpt lat="44.48826" lon="1.92586">
        <ele>309.6</ele>
        <time>2022-05-25T11:50:09.000Z</time>
      </trkpt>
      <trkpt lat="44.48828" lon="1.9259">
        <ele>310</ele>
        <time>2022-05-25T11:50:10.000Z</time>
      </trkpt>
      <trkpt lat="44.48842" lon="1.92611">
        <ele>310.8</ele>
        <time>2022-05-25T11:50:15.000Z</time>
      </trkpt>
      <trkpt lat="44.48845" lon="1.92617">
        <ele>311</ele>
        <time>2022-05-25T11:50:16.000Z</time>
      </trkpt>
      <trkpt lat="44.48866" lon="1.9265">
        <ele>311.8</ele>
        <time>2022-05-25T11:50:24.000Z</time>
      </trkpt>
      <trkpt lat="44.48874" lon="1.92662">
        <ele>312</ele>
        <time>2022-05-25T11:50:27.000Z</time>
      </trkpt>
      <trkpt lat="44.48892" lon="1.92692">
        <ele>312.8</ele>
        <time>2022-05-25T11:50:34.000Z</time>
      </trkpt>
      <trkpt lat="44.48897" lon="1.92699">
        <ele>313.2</ele>
        <time>2022-05-25T11:50:36.000Z</time>
      </trkpt>
      <trkpt lat="44.48911" lon="1.92722">
        <ele>313.2</ele>
        <time>2022-05-25T11:50:41.000Z</time>
      </trkpt>
      <trkpt lat="44.48928" lon="1.92754">
        <ele>314.2</ele>
        <time>2022-05-25T11:50:48.000Z</time>
      </trkpt>
      <trkpt lat="44.48932" lon="1.92763">
        <ele>314.4</ele>
        <time>2022-05-25T11:50:50.000Z</time>
      </trkpt>
      <trkpt lat="44.48939" lon="1.92789">
        <ele>315</ele>
        <time>2022-05-25T11:50:55.000Z</time>
      </trkpt>
      <trkpt lat="44.48943" lon="1.92799">
        <ele>315.2</ele>
        <time>2022-05-25T11:50:57.000Z</time>
      </trkpt>
      <trkpt lat="44.48954" lon="1.92835">
        <ele>316</ele>
        <time>2022-05-25T11:51:04.000Z</time>
      </trkpt>
      <trkpt lat="44.48961" lon="1.92856">
        <ele>316.2</ele>
        <time>2022-05-25T11:51:08.000Z</time>
      </trkpt>
      <trkpt lat="44.48968" lon="1.92876">
        <ele>317</ele>
        <time>2022-05-25T11:51:12.000Z</time>
      </trkpt>
      <trkpt lat="44.48971" lon="1.92881">
        <ele>317.2</ele>
        <time>2022-05-25T11:51:13.000Z</time>
      </trkpt>
      <trkpt lat="44.48975" lon="1.92891">
        <ele>317.4</ele>
        <time>2022-05-25T11:51:15.000Z</time>
      </trkpt>
      <trkpt lat="44.48982" lon="1.92903">
        <ele>317.8</ele>
        <time>2022-05-25T11:51:18.000Z</time>
      </trkpt>
      <trkpt lat="44.48986" lon="1.92906">
        <ele>317.8</ele>
        <time>2022-05-25T11:51:19.000Z</time>
      </trkpt>
      <trkpt lat="44.4901" lon="1.92928">
        <ele>318.4</ele>
        <time>2022-05-25T11:51:26.000Z</time>
      </trkpt>
      <trkpt lat="44.49018" lon="1.92934">
        <ele>319</ele>
        <time>2022-05-25T11:51:28.000Z</time>
      </trkpt>
      <trkpt lat="44.49027" lon="1.92942">
        <ele>319.4</ele>
        <time>2022-05-25T11:51:31.000Z</time>
      </trkpt>
      <trkpt lat="44.49035" lon="1.92949">
        <ele>319.8</ele>
        <time>2022-05-25T11:51:34.000Z</time>
      </trkpt>
      <trkpt lat="44.49042" lon="1.92956">
        <ele>320.4</ele>
        <time>2022-05-25T11:51:37.000Z</time>
      </trkpt>
      <trkpt lat="44.49045" lon="1.9296">
        <ele>321</ele>
        <time>2022-05-25T11:51:39.000Z</time>
      </trkpt>
      <trkpt lat="44.49056" lon="1.92971">
        <ele>321.6</ele>
        <time>2022-05-25T11:51:44.000Z</time>
      </trkpt>
      <trkpt lat="44.49064" lon="1.92979">
        <ele>322.8</ele>
        <time>2022-05-25T11:51:48.000Z</time>
      </trkpt>
      <trkpt lat="44.4907" lon="1.92985">
        <ele>323.8</ele>
        <time>2022-05-25T11:51:51.000Z</time>
      </trkpt>
      <trkpt lat="44.49079" lon="1.92993">
        <ele>325</ele>
        <time>2022-05-25T11:51:55.000Z</time>
      </trkpt>
      <trkpt lat="44.49085" lon="1.92999">
        <ele>325.8</ele>
        <time>2022-05-25T11:51:58.000Z</time>
      </trkpt>
      <trkpt lat="44.49087" lon="1.93001">
        <ele>326</ele>
        <time>2022-05-25T11:51:59.000Z</time>
      </trkpt>
      <trkpt lat="44.49096" lon="1.9301">
        <ele>327.2</ele>
        <time>2022-05-25T11:52:03.000Z</time>
      </trkpt>
      <trkpt lat="44.49102" lon="1.93017">
        <ele>328</ele>
        <time>2022-05-25T11:52:06.000Z</time>
      </trkpt>
      <trkpt lat="44.49104" lon="1.93019">
        <ele>328.4</ele>
        <time>2022-05-25T11:52:07.000Z</time>
      </trkpt>
      <trkpt lat="44.49114" lon="1.93029">
        <ele>329.4</ele>
        <time>2022-05-25T11:52:12.000Z</time>
      </trkpt>
      <trkpt lat="44.49118" lon="1.93034">
        <ele>330</ele>
        <time>2022-05-25T11:52:14.000Z</time>
      </trkpt>
      <trkpt lat="44.49126" lon="1.93044">
        <ele>330.8</ele>
        <time>2022-05-25T11:52:18.000Z</time>
      </trkpt>
      <trkpt lat="44.49133" lon="1.93055">
        <ele>331.6</ele>
        <time>2022-05-25T11:52:22.000Z</time>
      </trkpt>
      <trkpt lat="44.49135" lon="1.93058">
        <ele>331.8</ele>
        <time>2022-05-25T11:52:23.000Z</time>
      </trkpt>
      <trkpt lat="44.49145" lon="1.93077">
        <ele>332.8</ele>
        <time>2022-05-25T11:52:29.000Z</time>
      </trkpt>
      <trkpt lat="44.49154" lon="1.93093">
        <ele>334</ele>
        <time>2022-05-25T11:52:34.000Z</time>
      </trkpt>
      <trkpt lat="44.49158" lon="1.931">
        <ele>334.4</ele>
        <time>2022-05-25T11:52:36.000Z</time>
      </trkpt>
      <trkpt lat="44.49174" lon="1.93129">
        <ele>335</ele>
        <time>2022-05-25T11:52:44.000Z</time>
      </trkpt>
      <trkpt lat="44.49191" lon="1.9315">
        <ele>334.6</ele>
        <time>2022-05-25T11:52:49.000Z</time>
      </trkpt>
      <trkpt lat="44.49196" lon="1.93153">
        <ele>334.4</ele>
        <time>2022-05-25T11:52:50.000Z</time>
      </trkpt>
      <trkpt lat="44.49201" lon="1.93157">
        <ele>334.2</ele>
        <time>2022-05-25T11:52:51.000Z</time>
      </trkpt>
      <trkpt lat="44.49218" lon="1.93166">
        <ele>333.4</ele>
        <time>2022-05-25T11:52:54.000Z</time>
      </trkpt>
      <trkpt lat="44.49231" lon="1.93172">
        <ele>333</ele>
        <time>2022-05-25T11:52:56.000Z</time>
      </trkpt>
      <trkpt lat="44.49251" lon="1.9318">
        <ele>331.8</ele>
        <time>2022-05-25T11:52:59.000Z</time>
      </trkpt>
      <trkpt lat="44.49258" lon="1.93182">
        <ele>331.8</ele>
        <time>2022-05-25T11:53:00.000Z</time>
      </trkpt>
      <trkpt lat="44.49293" lon="1.93196">
        <ele>330.6</ele>
        <time>2022-05-25T11:53:05.000Z</time>
      </trkpt>
      <trkpt lat="44.49306" lon="1.93199">
        <ele>330.4</ele>
        <time>2022-05-25T11:53:07.000Z</time>
      </trkpt>
      <trkpt lat="44.49337" lon="1.93211">
        <ele>330</ele>
        <time>2022-05-25T11:53:12.000Z</time>
      </trkpt>
      <trkpt lat="44.49343" lon="1.93214">
        <ele>330</ele>
        <time>2022-05-25T11:53:13.000Z</time>
      </trkpt>
      <trkpt lat="44.49375" lon="1.93237">
        <ele>330</ele>
        <time>2022-05-25T11:53:19.000Z</time>
      </trkpt>
      <trkpt lat="44.4938" lon="1.93242">
        <ele>330.4</ele>
        <time>2022-05-25T11:53:20.000Z</time>
      </trkpt>
      <trkpt lat="44.49409" lon="1.93277">
        <ele>330.4</ele>
        <time>2022-05-25T11:53:26.000Z</time>
      </trkpt>
      <trkpt lat="44.49429" lon="1.933">
        <ele>329.4</ele>
        <time>2022-05-25T11:53:30.000Z</time>
      </trkpt>
      <trkpt lat="44.49443" lon="1.93314">
        <ele>329</ele>
        <time>2022-05-25T11:53:33.000Z</time>
      </trkpt>
      <trkpt lat="44.49453" lon="1.93323">
        <ele>328.8</ele>
        <time>2022-05-25T11:53:35.000Z</time>
      </trkpt>
      <trkpt lat="44.49459" lon="1.93327">
        <ele>328.2</ele>
        <time>2022-05-25T11:53:36.000Z</time>
      </trkpt>
      <trkpt lat="44.49472" lon="1.93334">
        <ele>328</ele>
        <time>2022-05-25T11:53:38.000Z</time>
      </trkpt>
      <trkpt lat="44.49511" lon="1.93354">
        <ele>327.2</ele>
        <time>2022-05-25T11:53:44.000Z</time>
      </trkpt>
      <trkpt lat="44.4954" lon="1.93378">
        <ele>326.2</ele>
        <time>2022-05-25T11:53:48.000Z</time>
      </trkpt>
      <trkpt lat="44.49547" lon="1.93384">
        <ele>326</ele>
        <time>2022-05-25T11:53:49.000Z</time>
      </trkpt>
      <trkpt lat="44.49564" lon="1.93399">
        <ele>324.6</ele>
        <time>2022-05-25T11:53:51.000Z</time>
      </trkpt>
      <trkpt lat="44.49572" lon="1.93406">
        <ele>322.6</ele>
        <time>2022-05-25T11:53:52.000Z</time>
      </trkpt>
      <trkpt lat="44.49589" lon="1.93421">
        <ele>320.2</ele>
        <time>2022-05-25T11:53:54.000Z</time>
      </trkpt>
      <trkpt lat="44.49598" lon="1.93429">
        <ele>319</ele>
        <time>2022-05-25T11:53:55.000Z</time>
      </trkpt>
      <trkpt lat="44.49616" lon="1.93445">
        <ele>317.8</ele>
        <time>2022-05-25T11:53:57.000Z</time>
      </trkpt>
      <trkpt lat="44.49633" lon="1.93461">
        <ele>316.4</ele>
        <time>2022-05-25T11:53:59.000Z</time>
      </trkpt>
      <trkpt lat="44.4965" lon="1.93477">
        <ele>315</ele>
        <time>2022-05-25T11:54:01.000Z</time>
      </trkpt>
      <trkpt lat="44.49659" lon="1.93485">
        <ele>314.2</ele>
        <time>2022-05-25T11:54:02.000Z</time>
      </trkpt>
      <trkpt lat="44.49668" lon="1.93493">
        <ele>313.4</ele>
        <time>2022-05-25T11:54:03.000Z</time>
      </trkpt>
      <trkpt lat="44.49686" lon="1.93506">
        <ele>312.2</ele>
        <time>2022-05-25T11:54:05.000Z</time>
      </trkpt>
      <trkpt lat="44.49695" lon="1.93512">
        <ele>311</ele>
        <time>2022-05-25T11:54:06.000Z</time>
      </trkpt>
      <trkpt lat="44.49704" lon="1.93516">
        <ele>310.6</ele>
        <time>2022-05-25T11:54:07.000Z</time>
      </trkpt>
      <trkpt lat="44.4972" lon="1.93524">
        <ele>310</ele>
        <time>2022-05-25T11:54:09.000Z</time>
      </trkpt>
      <trkpt lat="44.49744" lon="1.93532">
        <ele>308.4</ele>
        <time>2022-05-25T11:54:12.000Z</time>
      </trkpt>
      <trkpt lat="44.49777" lon="1.93536">
        <ele>308.2</ele>
        <time>2022-05-25T11:54:17.000Z</time>
      </trkpt>
      <trkpt lat="44.4979" lon="1.93535">
        <ele>308.2</ele>
        <time>2022-05-25T11:54:19.000Z</time>
      </trkpt>
      <trkpt lat="44.49802" lon="1.93531">
        <ele>308.2</ele>
        <time>2022-05-25T11:54:21.000Z</time>
      </trkpt>
      <trkpt lat="44.49848" lon="1.9351">
        <ele>307.8</ele>
        <time>2022-05-25T11:54:28.000Z</time>
      </trkpt>
      <trkpt lat="44.49861" lon="1.93505">
        <ele>307.4</ele>
        <time>2022-05-25T11:54:30.000Z</time>
      </trkpt>
      <trkpt lat="44.49893" lon="1.93482">
        <ele>306.2</ele>
        <time>2022-05-25T11:54:35.000Z</time>
      </trkpt>
      <trkpt lat="44.49905" lon="1.93468">
        <ele>305.8</ele>
        <time>2022-05-25T11:54:37.000Z</time>
      </trkpt>
      <trkpt lat="44.4991" lon="1.93458">
        <ele>305.6</ele>
        <time>2022-05-25T11:54:38.000Z</time>
      </trkpt>
      <trkpt lat="44.49918" lon="1.93437">
        <ele>305.2</ele>
        <time>2022-05-25T11:54:40.000Z</time>
      </trkpt>
      <trkpt lat="44.49921" lon="1.93424">
        <ele>304.6</ele>
        <time>2022-05-25T11:54:41.000Z</time>
      </trkpt>
      <trkpt lat="44.49923" lon="1.93411">
        <ele>303.2</ele>
        <time>2022-05-25T11:54:42.000Z</time>
      </trkpt>
      <trkpt lat="44.49927" lon="1.93383">
        <ele>302</ele>
        <time>2022-05-25T11:54:44.000Z</time>
      </trkpt>
      <trkpt lat="44.49933" lon="1.93355">
        <ele>299.6</ele>
        <time>2022-05-25T11:54:46.000Z</time>
      </trkpt>
      <trkpt lat="44.49936" lon="1.93341">
        <ele>299.2</ele>
        <time>2022-05-25T11:54:47.000Z</time>
      </trkpt>
      <trkpt lat="44.4994" lon="1.93328">
        <ele>298.2</ele>
        <time>2022-05-25T11:54:48.000Z</time>
      </trkpt>
      <trkpt lat="44.49954" lon="1.9329">
        <ele>296</ele>
        <time>2022-05-25T11:54:51.000Z</time>
      </trkpt>
      <trkpt lat="44.49962" lon="1.93263">
        <ele>294.2</ele>
        <time>2022-05-25T11:54:53.000Z</time>
      </trkpt>
      <trkpt lat="44.49967" lon="1.9325">
        <ele>293.6</ele>
        <time>2022-05-25T11:54:54.000Z</time>
      </trkpt>
      <trkpt lat="44.49971" lon="1.93236">
        <ele>292.6</ele>
        <time>2022-05-25T11:54:55.000Z</time>
      </trkpt>
      <trkpt lat="44.49981" lon="1.93209">
        <ele>290</ele>
        <time>2022-05-25T11:54:57.000Z</time>
      </trkpt>
      <trkpt lat="44.4999" lon="1.9318">
        <ele>288.2</ele>
        <time>2022-05-25T11:54:59.000Z</time>
      </trkpt>
      <trkpt lat="44.49994" lon="1.93165">
        <ele>287</ele>
        <time>2022-05-25T11:55:00.000Z</time>
      </trkpt>
      <trkpt lat="44.49998" lon="1.9315">
        <ele>286.4</ele>
        <time>2022-05-25T11:55:01.000Z</time>
      </trkpt>
      <trkpt lat="44.50002" lon="1.93136">
        <ele>285.2</ele>
        <time>2022-05-25T11:55:02.000Z</time>
      </trkpt>
      <trkpt lat="44.50007" lon="1.93107">
        <ele>284</ele>
        <time>2022-05-25T11:55:04.000Z</time>
      </trkpt>
      <trkpt lat="44.50008" lon="1.93091">
        <ele>283.4</ele>
        <time>2022-05-25T11:55:05.000Z</time>
      </trkpt>
      <trkpt lat="44.50007" lon="1.93077">
        <ele>282</ele>
        <time>2022-05-25T11:55:06.000Z</time>
      </trkpt>
      <trkpt lat="44.50004" lon="1.93062">
        <ele>281.2</ele>
        <time>2022-05-25T11:55:07.000Z</time>
      </trkpt>
      <trkpt lat="44.49999" lon="1.93048">
        <ele>279.8</ele>
        <time>2022-05-25T11:55:08.000Z</time>
      </trkpt>
      <trkpt lat="44.49993" lon="1.93036">
        <ele>279.2</ele>
        <time>2022-05-25T11:55:09.000Z</time>
      </trkpt>
      <trkpt lat="44.49987" lon="1.93024">
        <ele>277.8</ele>
        <time>2022-05-25T11:55:10.000Z</time>
      </trkpt>
      <trkpt lat="44.49979" lon="1.93014">
        <ele>276.8</ele>
        <time>2022-05-25T11:55:11.000Z</time>
      </trkpt>
      <trkpt lat="44.4997" lon="1.93005">
        <ele>276.2</ele>
        <time>2022-05-25T11:55:12.000Z</time>
      </trkpt>
      <trkpt lat="44.49951" lon="1.92989">
        <ele>275.2</ele>
        <time>2022-05-25T11:55:14.000Z</time>
      </trkpt>
      <trkpt lat="44.4994" lon="1.92983">
        <ele>273.8</ele>
        <time>2022-05-25T11:55:15.000Z</time>
      </trkpt>
      <trkpt lat="44.49918" lon="1.92971">
        <ele>270.6</ele>
        <time>2022-05-25T11:55:17.000Z</time>
      </trkpt>
      <trkpt lat="44.49896" lon="1.92961">
        <ele>269</ele>
        <time>2022-05-25T11:55:19.000Z</time>
      </trkpt>
      <trkpt lat="44.49861" lon="1.92955">
        <ele>266.2</ele>
        <time>2022-05-25T11:55:22.000Z</time>
      </trkpt>
      <trkpt lat="44.4985" lon="1.92955">
        <ele>265.2</ele>
        <time>2022-05-25T11:55:23.000Z</time>
      </trkpt>
      <trkpt lat="44.49839" lon="1.92956">
        <ele>263.6</ele>
        <time>2022-05-25T11:55:24.000Z</time>
      </trkpt>
      <trkpt lat="44.49819" lon="1.92962">
        <ele>262.4</ele>
        <time>2022-05-25T11:55:26.000Z</time>
      </trkpt>
      <trkpt lat="44.4981" lon="1.92965">
        <ele>261.8</ele>
        <time>2022-05-25T11:55:27.000Z</time>
      </trkpt>
      <trkpt lat="44.49801" lon="1.92967">
        <ele>261</ele>
        <time>2022-05-25T11:55:28.000Z</time>
      </trkpt>
      <trkpt lat="44.49794" lon="1.92969">
        <ele>260.4</ele>
        <time>2022-05-25T11:55:29.000Z</time>
      </trkpt>
      <trkpt lat="44.49787" lon="1.92968">
        <ele>259.8</ele>
        <time>2022-05-25T11:55:30.000Z</time>
      </trkpt>
      <trkpt lat="44.49782" lon="1.92963">
        <ele>258.8</ele>
        <time>2022-05-25T11:55:31.000Z</time>
      </trkpt>
      <trkpt lat="44.49778" lon="1.92955">
        <ele>258</ele>
        <time>2022-05-25T11:55:32.000Z</time>
      </trkpt>
      <trkpt lat="44.49776" lon="1.92946">
        <ele>256.8</ele>
        <time>2022-05-25T11:55:33.000Z</time>
      </trkpt>
      <trkpt lat="44.49776" lon="1.92927">
        <ele>254.8</ele>
        <time>2022-05-25T11:55:35.000Z</time>
      </trkpt>
      <trkpt lat="44.49788" lon="1.92912">
        <ele>253.4</ele>
        <time>2022-05-25T11:55:37.000Z</time>
      </trkpt>
      <trkpt lat="44.49802" lon="1.92894">
        <ele>252.4</ele>
        <time>2022-05-25T11:55:39.000Z</time>
      </trkpt>
      <trkpt lat="44.4981" lon="1.92885">
        <ele>251.2</ele>
        <time>2022-05-25T11:55:40.000Z</time>
      </trkpt>
      <trkpt lat="44.49826" lon="1.92865">
        <ele>249.8</ele>
        <time>2022-05-25T11:55:42.000Z</time>
      </trkpt>
      <trkpt lat="44.49841" lon="1.92844">
        <ele>248.8</ele>
        <time>2022-05-25T11:55:44.000Z</time>
      </trkpt>
      <trkpt lat="44.49857" lon="1.92825">
        <ele>247.2</ele>
        <time>2022-05-25T11:55:46.000Z</time>
      </trkpt>
      <trkpt lat="44.49864" lon="1.92814">
        <ele>246</ele>
        <time>2022-05-25T11:55:47.000Z</time>
      </trkpt>
      <trkpt lat="44.49878" lon="1.92789">
        <ele>244</ele>
        <time>2022-05-25T11:55:49.000Z</time>
      </trkpt>
      <trkpt lat="44.49888" lon="1.92762">
        <ele>241.8</ele>
        <time>2022-05-25T11:55:51.000Z</time>
      </trkpt>
      <trkpt lat="44.4989" lon="1.92748">
        <ele>240.8</ele>
        <time>2022-05-25T11:55:52.000Z</time>
      </trkpt>
      <trkpt lat="44.4989" lon="1.92733">
        <ele>239.4</ele>
        <time>2022-05-25T11:55:53.000Z</time>
      </trkpt>
      <trkpt lat="44.49887" lon="1.9272">
        <ele>239.2</ele>
        <time>2022-05-25T11:55:54.000Z</time>
      </trkpt>
      <trkpt lat="44.49881" lon="1.92708">
        <ele>237.6</ele>
        <time>2022-05-25T11:55:55.000Z</time>
      </trkpt>
      <trkpt lat="44.49874" lon="1.92699">
        <ele>236.8</ele>
        <time>2022-05-25T11:55:56.000Z</time>
      </trkpt>
      <trkpt lat="44.49867" lon="1.92691">
        <ele>236.4</ele>
        <time>2022-05-25T11:55:57.000Z</time>
      </trkpt>
      <trkpt lat="44.49863" lon="1.92684">
        <ele>235.6</ele>
        <time>2022-05-25T11:55:58.000Z</time>
      </trkpt>
      <trkpt lat="44.49859" lon="1.92675">
        <ele>235</ele>
        <time>2022-05-25T11:55:59.000Z</time>
      </trkpt>
      <trkpt lat="44.49861" lon="1.92666">
        <ele>234.2</ele>
        <time>2022-05-25T11:56:00.000Z</time>
      </trkpt>
      <trkpt lat="44.49864" lon="1.92659">
        <ele>233.4</ele>
        <time>2022-05-25T11:56:01.000Z</time>
      </trkpt>
      <trkpt lat="44.4987" lon="1.92655">
        <ele>232.4</ele>
        <time>2022-05-25T11:56:02.000Z</time>
      </trkpt>
      <trkpt lat="44.49879" lon="1.92657">
        <ele>231.6</ele>
        <time>2022-05-25T11:56:04.000Z</time>
      </trkpt>
      <trkpt lat="44.49884" lon="1.92664">
        <ele>231</ele>
        <time>2022-05-25T11:56:05.000Z</time>
      </trkpt>
      <trkpt lat="44.49901" lon="1.92686">
        <ele>229.6</ele>
        <time>2022-05-25T11:56:08.000Z</time>
      </trkpt>
      <trkpt lat="44.49921" lon="1.92713">
        <ele>227.6</ele>
        <time>2022-05-25T11:56:11.000Z</time>
      </trkpt>
      <trkpt lat="44.49927" lon="1.92723">
        <ele>226.8</ele>
        <time>2022-05-25T11:56:12.000Z</time>
      </trkpt>
      <trkpt lat="44.49933" lon="1.92733">
        <ele>225.8</ele>
        <time>2022-05-25T11:56:13.000Z</time>
      </trkpt>
      <trkpt lat="44.49939" lon="1.92742">
        <ele>225.2</ele>
        <time>2022-05-25T11:56:14.000Z</time>
      </trkpt>
      <trkpt lat="44.49947" lon="1.92751">
        <ele>224.8</ele>
        <time>2022-05-25T11:56:15.000Z</time>
      </trkpt>
      <trkpt lat="44.49955" lon="1.92759">
        <ele>224</ele>
        <time>2022-05-25T11:56:16.000Z</time>
      </trkpt>
      <trkpt lat="44.49963" lon="1.92766">
        <ele>223.4</ele>
        <time>2022-05-25T11:56:17.000Z</time>
      </trkpt>
      <trkpt lat="44.49972" lon="1.92769">
        <ele>222.2</ele>
        <time>2022-05-25T11:56:18.000Z</time>
      </trkpt>
      <trkpt lat="44.49981" lon="1.9277">
        <ele>221.8</ele>
        <time>2022-05-25T11:56:19.000Z</time>
      </trkpt>
      <trkpt lat="44.4999" lon="1.92768">
        <ele>220.8</ele>
        <time>2022-05-25T11:56:20.000Z</time>
      </trkpt>
      <trkpt lat="44.50009" lon="1.92755">
        <ele>218.4</ele>
        <time>2022-05-25T11:56:22.000Z</time>
      </trkpt>
      <trkpt lat="44.50025" lon="1.92738">
        <ele>217</ele>
        <time>2022-05-25T11:56:24.000Z</time>
      </trkpt>
      <trkpt lat="44.50043" lon="1.92722">
        <ele>216</ele>
        <time>2022-05-25T11:56:26.000Z</time>
      </trkpt>
      <trkpt lat="44.50051" lon="1.92714">
        <ele>215</ele>
        <time>2022-05-25T11:56:27.000Z</time>
      </trkpt>
      <trkpt lat="44.5006" lon="1.92707">
        <ele>214.4</ele>
        <time>2022-05-25T11:56:28.000Z</time>
      </trkpt>
      <trkpt lat="44.50075" lon="1.92689">
        <ele>213.2</ele>
        <time>2022-05-25T11:56:30.000Z</time>
      </trkpt>
      <trkpt lat="44.50083" lon="1.92679">
        <ele>212.4</ele>
        <time>2022-05-25T11:56:31.000Z</time>
      </trkpt>
      <trkpt lat="44.50091" lon="1.9267">
        <ele>211.8</ele>
        <time>2022-05-25T11:56:32.000Z</time>
      </trkpt>
      <trkpt lat="44.501" lon="1.92662">
        <ele>210.6</ele>
        <time>2022-05-25T11:56:33.000Z</time>
      </trkpt>
      <trkpt lat="44.50109" lon="1.92655">
        <ele>209</ele>
        <time>2022-05-25T11:56:34.000Z</time>
      </trkpt>
      <trkpt lat="44.50127" lon="1.92641">
        <ele>207.2</ele>
        <time>2022-05-25T11:56:36.000Z</time>
      </trkpt>
      <trkpt lat="44.50145" lon="1.92626">
        <ele>205.6</ele>
        <time>2022-05-25T11:56:38.000Z</time>
      </trkpt>
      <trkpt lat="44.50162" lon="1.92611">
        <ele>204</ele>
        <time>2022-05-25T11:56:40.000Z</time>
      </trkpt>
      <trkpt lat="44.50171" lon="1.92605">
        <ele>203.6</ele>
        <time>2022-05-25T11:56:41.000Z</time>
      </trkpt>
      <trkpt lat="44.5018" lon="1.92599">
        <ele>202.8</ele>
        <time>2022-05-25T11:56:42.000Z</time>
      </trkpt>
      <trkpt lat="44.50206" lon="1.92586">
        <ele>201.6</ele>
        <time>2022-05-25T11:56:45.000Z</time>
      </trkpt>
      <trkpt lat="44.50222" lon="1.92578">
        <ele>200.2</ele>
        <time>2022-05-25T11:56:47.000Z</time>
      </trkpt>
      <trkpt lat="44.50238" lon="1.9257">
        <ele>199</ele>
        <time>2022-05-25T11:56:49.000Z</time>
      </trkpt>
      <trkpt lat="44.50254" lon="1.92563">
        <ele>198.6</ele>
        <time>2022-05-25T11:56:51.000Z</time>
      </trkpt>
      <trkpt lat="44.50284" lon="1.92556">
        <ele>198</ele>
        <time>2022-05-25T11:56:55.000Z</time>
      </trkpt>
      <trkpt lat="44.50297" lon="1.92554">
        <ele>197.8</ele>
        <time>2022-05-25T11:56:57.000Z</time>
      </trkpt>
      <trkpt lat="44.50309" lon="1.92555">
        <ele>197.8</ele>
        <time>2022-05-25T11:56:59.000Z</time>
      </trkpt>
      <trkpt lat="44.50314" lon="1.92558">
        <ele>197.8</ele>
        <time>2022-05-25T11:57:00.000Z</time>
      </trkpt>
      <trkpt lat="44.50319" lon="1.92563">
        <ele>197.8</ele>
        <time>2022-05-25T11:57:01.000Z</time>
      </trkpt>
      <trkpt lat="44.50325" lon="1.92577">
        <ele>197.8</ele>
        <time>2022-05-25T11:57:03.000Z</time>
      </trkpt>
      <trkpt lat="44.50328" lon="1.92583">
        <ele>197.8</ele>
        <time>2022-05-25T11:57:04.000Z</time>
      </trkpt>
      <trkpt lat="44.5034" lon="1.92601">
        <ele>198.2</ele>
        <time>2022-05-25T11:57:07.000Z</time>
      </trkpt>
      <trkpt lat="44.50357" lon="1.92635">
        <ele>198.8</ele>
        <time>2022-05-25T11:57:12.000Z</time>
      </trkpt>
      <trkpt lat="44.50359" lon="1.92643">
        <ele>198.8</ele>
        <time>2022-05-25T11:57:13.000Z</time>
      </trkpt>
      <trkpt lat="44.50364" lon="1.92695">
        <ele>197.6</ele>
        <time>2022-05-25T11:57:19.000Z</time>
      </trkpt>
      <trkpt lat="44.50373" lon="1.92744">
        <ele>197.2</ele>
        <time>2022-05-25T11:57:25.000Z</time>
      </trkpt>
      <trkpt lat="44.50383" lon="1.92786">
        <ele>197</ele>
        <time>2022-05-25T11:57:30.000Z</time>
      </trkpt>
      <trkpt lat="44.50386" lon="1.92802">
        <ele>197</ele>
        <time>2022-05-25T11:57:32.000Z</time>
      </trkpt>
      <trkpt lat="44.50395" lon="1.92836">
        <ele>196.4</ele>
        <time>2022-05-25T11:57:36.000Z</time>
      </trkpt>
      <trkpt lat="44.50404" lon="1.9287">
        <ele>196.2</ele>
        <time>2022-05-25T11:57:40.000Z</time>
      </trkpt>
      <trkpt lat="44.50423" lon="1.92928">
        <ele>195.8</ele>
        <time>2022-05-25T11:57:47.000Z</time>
      </trkpt>
      <trkpt lat="44.50432" lon="1.92952">
        <ele>195.4</ele>
        <time>2022-05-25T11:57:50.000Z</time>
      </trkpt>
      <trkpt lat="44.50439" lon="1.92967">
        <ele>195.2</ele>
        <time>2022-05-25T11:57:52.000Z</time>
      </trkpt>
      <trkpt lat="44.50457" lon="1.93003">
        <ele>194.8</ele>
        <time>2022-05-25T11:57:57.000Z</time>
      </trkpt>
      <trkpt lat="44.50465" lon="1.93017">
        <ele>194.8</ele>
        <time>2022-05-25T11:57:59.000Z</time>
      </trkpt>
      <trkpt lat="44.50483" lon="1.93052">
        <ele>193.8</ele>
        <time>2022-05-25T11:58:04.000Z</time>
      </trkpt>
      <trkpt lat="44.5049" lon="1.93067">
        <ele>193.6</ele>
        <time>2022-05-25T11:58:06.000Z</time>
      </trkpt>
      <trkpt lat="44.50518" lon="1.93119">
        <ele>192.6</ele>
        <time>2022-05-25T11:58:13.000Z</time>
      </trkpt>
      <trkpt lat="44.50522" lon="1.93126">
        <ele>192.4</ele>
        <time>2022-05-25T11:58:14.000Z</time>
      </trkpt>
      <trkpt lat="44.50529" lon="1.93141">
        <ele>192.2</ele>
        <time>2022-05-25T11:58:16.000Z</time>
      </trkpt>
      <trkpt lat="44.5054" lon="1.93164">
        <ele>191.4</ele>
        <time>2022-05-25T11:58:19.000Z</time>
      </trkpt>
      <trkpt lat="44.50543" lon="1.93171">
        <ele>191.2</ele>
        <time>2022-05-25T11:58:20.000Z</time>
      </trkpt>
      <trkpt lat="44.50571" lon="1.93223">
        <ele>190.4</ele>
        <time>2022-05-25T11:58:27.000Z</time>
      </trkpt>
      <trkpt lat="44.5059" lon="1.93252">
        <ele>190.2</ele>
        <time>2022-05-25T11:58:31.000Z</time>
      </trkpt>
      <trkpt lat="44.50606" lon="1.93276">
        <ele>188.4</ele>
        <time>2022-05-25T11:58:34.000Z</time>
      </trkpt>
      <trkpt lat="44.50611" lon="1.93284">
        <ele>187.8</ele>
        <time>2022-05-25T11:58:35.000Z</time>
      </trkpt>
      <trkpt lat="44.50623" lon="1.93301">
        <ele>187</ele>
        <time>2022-05-25T11:58:37.000Z</time>
      </trkpt>
      <trkpt lat="44.50634" lon="1.93317">
        <ele>185.4</ele>
        <time>2022-05-25T11:58:39.000Z</time>
      </trkpt>
      <trkpt lat="44.5064" lon="1.93325">
        <ele>185</ele>
        <time>2022-05-25T11:58:40.000Z</time>
      </trkpt>
      <trkpt lat="44.5065" lon="1.93341">
        <ele>184.4</ele>
        <time>2022-05-25T11:58:42.000Z</time>
      </trkpt>
      <trkpt lat="44.50662" lon="1.93359">
        <ele>183.2</ele>
        <time>2022-05-25T11:58:44.000Z</time>
      </trkpt>
      <trkpt lat="44.50677" lon="1.93377">
        <ele>181.8</ele>
        <time>2022-05-25T11:58:46.000Z</time>
      </trkpt>
      <trkpt lat="44.50698" lon="1.93405">
        <ele>180.2</ele>
        <time>2022-05-25T11:58:49.000Z</time>
      </trkpt>
      <trkpt lat="44.50705" lon="1.93415">
        <ele>179.2</ele>
        <time>2022-05-25T11:58:50.000Z</time>
      </trkpt>
      <trkpt lat="44.5072" lon="1.93435">
        <ele>177.8</ele>
        <time>2022-05-25T11:58:52.000Z</time>
      </trkpt>
      <trkpt lat="44.50743" lon="1.93467">
        <ele>176.6</ele>
        <time>2022-05-25T11:58:55.000Z</time>
      </trkpt>
      <trkpt lat="44.50769" lon="1.935">
        <ele>175.4</ele>
        <time>2022-05-25T11:58:58.000Z</time>
      </trkpt>
      <trkpt lat="44.50787" lon="1.93522">
        <ele>174</ele>
        <time>2022-05-25T11:59:00.000Z</time>
      </trkpt>
      <trkpt lat="44.50805" lon="1.93546">
        <ele>171.8</ele>
        <time>2022-05-25T11:59:02.000Z</time>
      </trkpt>
      <trkpt lat="44.50814" lon="1.93556">
        <ele>170.4</ele>
        <time>2022-05-25T11:59:03.000Z</time>
      </trkpt>
      <trkpt lat="44.50824" lon="1.93567">
        <ele>169.6</ele>
        <time>2022-05-25T11:59:04.000Z</time>
      </trkpt>
      <trkpt lat="44.50832" lon="1.93579">
        <ele>169.4</ele>
        <time>2022-05-25T11:59:05.000Z</time>
      </trkpt>
      <trkpt lat="44.50838" lon="1.93593">
        <ele>168</ele>
        <time>2022-05-25T11:59:06.000Z</time>
      </trkpt>
      <trkpt lat="44.50842" lon="1.93606">
        <ele>167.6</ele>
        <time>2022-05-25T11:59:07.000Z</time>
      </trkpt>
      <trkpt lat="44.50845" lon="1.9362">
        <ele>166.4</ele>
        <time>2022-05-25T11:59:08.000Z</time>
      </trkpt>
      <trkpt lat="44.50856" lon="1.93659">
        <ele>165.2</ele>
        <time>2022-05-25T11:59:11.000Z</time>
      </trkpt>
      <trkpt lat="44.5086" lon="1.93671">
        <ele>164.8</ele>
        <time>2022-05-25T11:59:12.000Z</time>
      </trkpt>
      <trkpt lat="44.50875" lon="1.937">
        <ele>164.2</ele>
        <time>2022-05-25T11:59:15.000Z</time>
      </trkpt>
      <trkpt lat="44.50879" lon="1.93709">
        <ele>164</ele>
        <time>2022-05-25T11:59:16.000Z</time>
      </trkpt>
      <trkpt lat="44.50885" lon="1.93729">
        <ele>164</ele>
        <time>2022-05-25T11:59:18.000Z</time>
      </trkpt>
      <trkpt lat="44.50889" lon="1.93759">
        <ele>163.2</ele>
        <time>2022-05-25T11:59:21.000Z</time>
      </trkpt>
      <trkpt lat="44.50888" lon="1.93778">
        <ele>162.6</ele>
        <time>2022-05-25T11:59:23.000Z</time>
      </trkpt>
      <trkpt lat="44.50883" lon="1.93806">
        <ele>162.8</ele>
        <time>2022-05-25T11:59:26.000Z</time>
      </trkpt>
      <trkpt lat="44.50882" lon="1.93815">
        <ele>162.8</ele>
        <time>2022-05-25T11:59:27.000Z</time>
      </trkpt>
      <trkpt lat="44.5088" lon="1.93834">
        <ele>163</ele>
        <time>2022-05-25T11:59:29.000Z</time>
      </trkpt>
      <trkpt lat="44.5088" lon="1.93853">
        <ele>163.2</ele>
        <time>2022-05-25T11:59:31.000Z</time>
      </trkpt>
      <trkpt lat="44.50885" lon="1.93919">
        <ele>163.6</ele>
        <time>2022-05-25T11:59:38.000Z</time>
      </trkpt>
      <trkpt lat="44.50887" lon="1.93928">
        <ele>163.4</ele>
        <time>2022-05-25T11:59:39.000Z</time>
      </trkpt>
      <trkpt lat="44.50888" lon="1.93936">
        <ele>163.4</ele>
        <time>2022-05-25T11:59:40.000Z</time>
      </trkpt>
      <trkpt lat="44.50898" lon="1.93958">
        <ele>163.2</ele>
        <time>2022-05-25T11:59:43.000Z</time>
      </trkpt>
      <trkpt lat="44.50927" lon="1.94024">
        <ele>162.6</ele>
        <time>2022-05-25T11:59:51.000Z</time>
      </trkpt>
      <trkpt lat="44.5093" lon="1.94032">
        <ele>162.6</ele>
        <time>2022-05-25T11:59:52.000Z</time>
      </trkpt>
      <trkpt lat="44.50954" lon="1.94099">
        <ele>162.6</ele>
        <time>2022-05-25T12:00:00.000Z</time>
      </trkpt>
      <trkpt lat="44.50969" lon="1.94147">
        <ele>162.6</ele>
        <time>2022-05-25T12:00:06.000Z</time>
      </trkpt>
      <trkpt lat="44.5097" lon="1.94155">
        <ele>162.6</ele>
        <time>2022-05-25T12:00:07.000Z</time>
      </trkpt>
      <trkpt lat="44.50972" lon="1.94179">
        <ele>162.4</ele>
        <time>2022-05-25T12:00:10.000Z</time>
      </trkpt>
      <trkpt lat="44.50971" lon="1.94202">
        <ele>162.4</ele>
        <time>2022-05-25T12:00:13.000Z</time>
      </trkpt>
      <trkpt lat="44.5097" lon="1.94246">
        <ele>163.2</ele>
        <time>2022-05-25T12:00:19.000Z</time>
      </trkpt>
      <trkpt lat="44.50971" lon="1.94253">
        <ele>163.2</ele>
        <time>2022-05-25T12:00:20.000Z</time>
      </trkpt>
      <trkpt lat="44.50974" lon="1.94266">
        <ele>163.6</ele>
        <time>2022-05-25T12:00:22.000Z</time>
      </trkpt>
      <trkpt lat="44.50977" lon="1.94272">
        <ele>163.6</ele>
        <time>2022-05-25T12:00:23.000Z</time>
      </trkpt>
      <trkpt lat="44.50979" lon="1.94277">
        <ele>164</ele>
        <time>2022-05-25T12:00:24.000Z</time>
      </trkpt>
      <trkpt lat="44.50993" lon="1.94302">
        <ele>164.4</ele>
        <time>2022-05-25T12:00:29.000Z</time>
      </trkpt>
      <trkpt lat="44.51" lon="1.94314">
        <ele>165</ele>
        <time>2022-05-25T12:00:32.000Z</time>
      </trkpt>
      <trkpt lat="44.51007" lon="1.94324">
        <ele>166</ele>
        <time>2022-05-25T12:00:35.000Z</time>
      </trkpt>
      <trkpt lat="44.51013" lon="1.94333">
        <ele>167.2</ele>
        <time>2022-05-25T12:00:38.000Z</time>
      </trkpt>
      <trkpt lat="44.51021" lon="1.94341">
        <ele>168</ele>
        <time>2022-05-25T12:00:41.000Z</time>
      </trkpt>
      <trkpt lat="44.51026" lon="1.94346">
        <ele>168.2</ele>
        <time>2022-05-25T12:00:43.000Z</time>
      </trkpt>
      <trkpt lat="44.51038" lon="1.94362">
        <ele>169.2</ele>
        <time>2022-05-25T12:00:48.000Z</time>
      </trkpt>
      <trkpt lat="44.5104" lon="1.94366">
        <ele>169.4</ele>
        <time>2022-05-25T12:00:49.000Z</time>
      </trkpt>
      <trkpt lat="44.51041" lon="1.94386">
        <ele>170.4</ele>
        <time>2022-05-25T12:00:53.000Z</time>
      </trkpt>
      <trkpt lat="44.51034" lon="1.94405">
        <ele>171.4</ele>
        <time>2022-05-25T12:00:58.000Z</time>
      </trkpt>
      <trkpt lat="44.51031" lon="1.94407">
        <ele>171.6</ele>
        <time>2022-05-25T12:00:59.000Z</time>
      </trkpt>
      <trkpt lat="44.51024" lon="1.94412">
        <ele>172.6</ele>
        <time>2022-05-25T12:01:02.000Z</time>
      </trkpt>
      <trkpt lat="44.51018" lon="1.94413">
        <ele>173</ele>
        <time>2022-05-25T12:01:04.000Z</time>
      </trkpt>
      <trkpt lat="44.51007" lon="1.94409">
        <ele>174</ele>
        <time>2022-05-25T12:01:08.000Z</time>
      </trkpt>
      <trkpt lat="44.51003" lon="1.94405">
        <ele>174.4</ele>
        <time>2022-05-25T12:01:10.000Z</time>
      </trkpt>
      <trkpt lat="44.50996" lon="1.944">
        <ele>175</ele>
        <time>2022-05-25T12:01:13.000Z</time>
      </trkpt>
      <trkpt lat="44.50981" lon="1.94393">
        <ele>176.2</ele>
        <time>2022-05-25T12:01:18.000Z</time>
      </trkpt>
      <trkpt lat="44.50963" lon="1.94395">
        <ele>177.4</ele>
        <time>2022-05-25T12:01:23.000Z</time>
      </trkpt>
      <trkpt lat="44.50954" lon="1.94402">
        <ele>178.4</ele>
        <time>2022-05-25T12:01:26.000Z</time>
      </trkpt>
      <trkpt lat="44.50951" lon="1.94407">
        <ele>178.8</ele>
        <time>2022-05-25T12:01:28.000Z</time>
      </trkpt>
      <trkpt lat="44.50948" lon="1.94415">
        <ele>179.8</ele>
        <time>2022-05-25T12:01:31.000Z</time>
      </trkpt>
      <trkpt lat="44.50947" lon="1.94426">
        <ele>180.2</ele>
        <time>2022-05-25T12:01:34.000Z</time>
      </trkpt>
      <trkpt lat="44.50951" lon="1.94443">
        <ele>181</ele>
        <time>2022-05-25T12:01:38.000Z</time>
      </trkpt>
      <trkpt lat="44.50955" lon="1.94451">
        <ele>181.2</ele>
        <time>2022-05-25T12:01:41.000Z</time>
      </trkpt>
      <trkpt lat="44.50958" lon="1.94452">
        <ele>181.4</ele>
        <time>2022-05-25T12:01:42.000Z</time>
      </trkpt>
      <trkpt lat="44.50971" lon="1.94452">
        <ele>182</ele>
        <time>2022-05-25T12:01:46.000Z</time>
      </trkpt>
      <trkpt lat="44.50975" lon="1.94452">
        <ele>182.2</ele>
        <time>2022-05-25T12:01:47.000Z</time>
      </trkpt>
      <trkpt lat="44.50983" lon="1.94453">
        <ele>182.4</ele>
        <time>2022-05-25T12:01:49.000Z</time>
      </trkpt>
      <trkpt lat="44.5101" lon="1.94463">
        <ele>182.4</ele>
        <time>2022-05-25T12:01:54.000Z</time>
      </trkpt>
      <trkpt lat="44.51032" lon="1.94474">
        <ele>181</ele>
        <time>2022-05-25T12:01:58.000Z</time>
      </trkpt>
      <trkpt lat="44.51051" lon="1.94483">
        <ele>180.6</ele>
        <time>2022-05-25T12:02:02.000Z</time>
      </trkpt>
      <trkpt lat="44.51073" lon="1.94491">
        <ele>180.2</ele>
        <time>2022-05-25T12:02:07.000Z</time>
      </trkpt>
      <trkpt lat="44.51093" lon="1.94499">
        <ele>180</ele>
        <time>2022-05-25T12:02:11.000Z</time>
      </trkpt>
      <trkpt lat="44.51105" lon="1.94503">
        <ele>179.8</ele>
        <time>2022-05-25T12:02:13.000Z</time>
      </trkpt>
      <trkpt lat="44.51124" lon="1.94512">
        <ele>179.2</ele>
        <time>2022-05-25T12:02:16.000Z</time>
      </trkpt>
      <trkpt lat="44.51138" lon="1.94521">
        <ele>178.8</ele>
        <time>2022-05-25T12:02:18.000Z</time>
      </trkpt>
      <trkpt lat="44.51159" lon="1.94536">
        <ele>178.2</ele>
        <time>2022-05-25T12:02:21.000Z</time>
      </trkpt>
      <trkpt lat="44.51164" lon="1.94541">
        <ele>177.8</ele>
        <time>2022-05-25T12:02:22.000Z</time>
      </trkpt>
      <trkpt lat="44.51186" lon="1.94559">
        <ele>177</ele>
        <time>2022-05-25T12:02:26.000Z</time>
      </trkpt>
      <trkpt lat="44.51203" lon="1.94573">
        <ele>176.6</ele>
        <time>2022-05-25T12:02:29.000Z</time>
      </trkpt>
      <trkpt lat="44.51236" lon="1.94605">
        <ele>176.4</ele>
        <time>2022-05-25T12:02:35.000Z</time>
      </trkpt>
      <trkpt lat="44.51273" lon="1.94644">
        <ele>176.2</ele>
        <time>2022-05-25T12:02:42.000Z</time>
      </trkpt>
      <trkpt lat="44.51313" lon="1.94689">
        <ele>176</ele>
        <time>2022-05-25T12:02:50.000Z</time>
      </trkpt>
      <trkpt lat="44.51318" lon="1.94695">
        <ele>175.4</ele>
        <time>2022-05-25T12:02:51.000Z</time>
      </trkpt>
      <trkpt lat="44.5134" lon="1.94727">
        <ele>174</ele>
        <time>2022-05-25T12:02:56.000Z</time>
      </trkpt>
      <trkpt lat="44.51344" lon="1.94734">
        <ele>174</ele>
        <time>2022-05-25T12:02:57.000Z</time>
      </trkpt>
      <trkpt lat="44.51368" lon="1.94769">
        <ele>173.4</ele>
        <time>2022-05-25T12:03:02.000Z</time>
      </trkpt>
      <trkpt lat="44.51382" lon="1.9479">
        <ele>173</ele>
        <time>2022-05-25T12:03:05.000Z</time>
      </trkpt>
      <trkpt lat="44.51405" lon="1.94827">
        <ele>172.4</ele>
        <time>2022-05-25T12:03:10.000Z</time>
      </trkpt>
      <trkpt lat="44.51434" lon="1.94882">
        <ele>172.2</ele>
        <time>2022-05-25T12:03:17.000Z</time>
      </trkpt>
      <trkpt lat="44.51446" lon="1.94908">
        <ele>171.6</ele>
        <time>2022-05-25T12:03:20.000Z</time>
      </trkpt>
      <trkpt lat="44.51459" lon="1.94943">
        <ele>170.8</ele>
        <time>2022-05-25T12:03:24.000Z</time>
      </trkpt>
      <trkpt lat="44.51466" lon="1.9496">
        <ele>170.6</ele>
        <time>2022-05-25T12:03:26.000Z</time>
      </trkpt>
      <trkpt lat="44.51486" lon="1.95012">
        <ele>169.8</ele>
        <time>2022-05-25T12:03:32.000Z</time>
      </trkpt>
      <trkpt lat="44.515" lon="1.95045">
        <ele>169.4</ele>
        <time>2022-05-25T12:03:36.000Z</time>
      </trkpt>
      <trkpt lat="44.51509" lon="1.9506">
        <ele>169.2</ele>
        <time>2022-05-25T12:03:38.000Z</time>
      </trkpt>
      <trkpt lat="44.51535" lon="1.95093">
        <ele>168.6</ele>
        <time>2022-05-25T12:03:43.000Z</time>
      </trkpt>
      <trkpt lat="44.51545" lon="1.95105">
        <ele>168.2</ele>
        <time>2022-05-25T12:03:45.000Z</time>
      </trkpt>
      <trkpt lat="44.51566" lon="1.95129">
        <ele>167.4</ele>
        <time>2022-05-25T12:03:49.000Z</time>
      </trkpt>
      <trkpt lat="44.51582" lon="1.95147">
        <ele>167.2</ele>
        <time>2022-05-25T12:03:52.000Z</time>
      </trkpt>
      <trkpt lat="44.51614" lon="1.95184">
        <ele>166.4</ele>
        <time>2022-05-25T12:03:58.000Z</time>
      </trkpt>
      <trkpt lat="44.51619" lon="1.9519">
        <ele>166.2</ele>
        <time>2022-05-25T12:03:59.000Z</time>
      </trkpt>
      <trkpt lat="44.51623" lon="1.95197">
        <ele>166</ele>
        <time>2022-05-25T12:04:00.000Z</time>
      </trkpt>
      <trkpt lat="44.51637" lon="1.9522">
        <ele>165.8</ele>
        <time>2022-05-25T12:04:03.000Z</time>
      </trkpt>
      <trkpt lat="44.51642" lon="1.95228">
        <ele>165.8</ele>
        <time>2022-05-25T12:04:04.000Z</time>
      </trkpt>
      <trkpt lat="44.51655" lon="1.95262">
        <ele>165.6</ele>
        <time>2022-05-25T12:04:08.000Z</time>
      </trkpt>
      <trkpt lat="44.51658" lon="1.9527">
        <ele>165.6</ele>
        <time>2022-05-25T12:04:09.000Z</time>
      </trkpt>
      <trkpt lat="44.51672" lon="1.95313">
        <ele>165.6</ele>
        <time>2022-05-25T12:04:14.000Z</time>
      </trkpt>
      <trkpt lat="44.51688" lon="1.95373">
        <ele>165.8</ele>
        <time>2022-05-25T12:04:21.000Z</time>
      </trkpt>
      <trkpt lat="44.51703" lon="1.95424">
        <ele>166.2</ele>
        <time>2022-05-25T12:04:27.000Z</time>
      </trkpt>
      <trkpt lat="44.51722" lon="1.95471">
        <ele>166.4</ele>
        <time>2022-05-25T12:04:33.000Z</time>
      </trkpt>
      <trkpt lat="44.51735" lon="1.955">
        <ele>166</ele>
        <time>2022-05-25T12:04:37.000Z</time>
      </trkpt>
      <trkpt lat="44.51738" lon="1.95507">
        <ele>166</ele>
        <time>2022-05-25T12:04:38.000Z</time>
      </trkpt>
      <trkpt lat="44.51757" lon="1.95558">
        <ele>166</ele>
        <time>2022-05-25T12:04:45.000Z</time>
      </trkpt>
      <trkpt lat="44.51771" lon="1.95603">
        <ele>166.4</ele>
        <time>2022-05-25T12:04:51.000Z</time>
      </trkpt>
      <trkpt lat="44.51776" lon="1.95617">
        <ele>166.6</ele>
        <time>2022-05-25T12:04:53.000Z</time>
      </trkpt>
      <trkpt lat="44.51783" lon="1.9564">
        <ele>166.6</ele>
        <time>2022-05-25T12:04:56.000Z</time>
      </trkpt>
      <trkpt lat="44.51797" lon="1.9569">
        <ele>166.8</ele>
        <time>2022-05-25T12:05:02.000Z</time>
      </trkpt>
      <trkpt lat="44.5181" lon="1.95735">
        <ele>166.4</ele>
        <time>2022-05-25T12:05:08.000Z</time>
      </trkpt>
      <trkpt lat="44.51819" lon="1.95762">
        <ele>166.4</ele>
        <time>2022-05-25T12:05:12.000Z</time>
      </trkpt>
      <trkpt lat="44.51824" lon="1.95775">
        <ele>166.4</ele>
        <time>2022-05-25T12:05:14.000Z</time>
      </trkpt>
      <trkpt lat="44.51841" lon="1.95836">
        <ele>166.6</ele>
        <time>2022-05-25T12:05:22.000Z</time>
      </trkpt>
      <trkpt lat="44.51851" lon="1.95886">
        <ele>166.6</ele>
        <time>2022-05-25T12:05:28.000Z</time>
      </trkpt>
      <trkpt lat="44.51866" lon="1.95929">
        <ele>166.6</ele>
        <time>2022-05-25T12:05:34.000Z</time>
      </trkpt>
      <trkpt lat="44.51868" lon="1.95934">
        <ele>166.6</ele>
        <time>2022-05-25T12:05:35.000Z</time>
      </trkpt>
      <trkpt lat="44.51878" lon="1.95954">
        <ele>167</ele>
        <time>2022-05-25T12:05:38.000Z</time>
      </trkpt>
      <trkpt lat="44.51881" lon="1.95962">
        <ele>167</ele>
        <time>2022-05-25T12:05:39.000Z</time>
      </trkpt>
      <trkpt lat="44.51883" lon="1.95968">
        <ele>167</ele>
        <time>2022-05-25T12:05:40.000Z</time>
      </trkpt>
      <trkpt lat="44.51891" lon="1.95987">
        <ele>167</ele>
        <time>2022-05-25T12:05:43.000Z</time>
      </trkpt>
      <trkpt lat="44.51898" lon="1.95998">
        <ele>167</ele>
        <time>2022-05-25T12:05:45.000Z</time>
      </trkpt>
      <trkpt lat="44.51907" lon="1.96016">
        <ele>167.2</ele>
        <time>2022-05-25T12:05:48.000Z</time>
      </trkpt>
      <trkpt lat="44.51917" lon="1.96035">
        <ele>167.6</ele>
        <time>2022-05-25T12:05:51.000Z</time>
      </trkpt>
      <trkpt lat="44.51936" lon="1.96074">
        <ele>167.8</ele>
        <time>2022-05-25T12:05:57.000Z</time>
      </trkpt>
      <trkpt lat="44.51941" lon="1.96082">
        <ele>167.8</ele>
        <time>2022-05-25T12:05:58.000Z</time>
      </trkpt>
      <trkpt lat="44.51951" lon="1.96102">
        <ele>168</ele>
        <time>2022-05-25T12:06:01.000Z</time>
      </trkpt>
      <trkpt lat="44.51958" lon="1.96115">
        <ele>168</ele>
        <time>2022-05-25T12:06:03.000Z</time>
      </trkpt>
      <trkpt lat="44.51982" lon="1.96162">
        <ele>168.4</ele>
        <time>2022-05-25T12:06:09.000Z</time>
      </trkpt>
      <trkpt lat="44.51999" lon="1.96202">
        <ele>168.4</ele>
        <time>2022-05-25T12:06:15.000Z</time>
      </trkpt>
      <trkpt lat="44.52005" lon="1.96215">
        <ele>168.8</ele>
        <time>2022-05-25T12:06:17.000Z</time>
      </trkpt>
      <trkpt lat="44.52022" lon="1.96252">
        <ele>169</ele>
        <time>2022-05-25T12:06:22.000Z</time>
      </trkpt>
      <trkpt lat="44.52032" lon="1.96271">
        <ele>169</ele>
        <time>2022-05-25T12:06:25.000Z</time>
      </trkpt>
      <trkpt lat="44.52045" lon="1.96291">
        <ele>169.2</ele>
        <time>2022-05-25T12:06:28.000Z</time>
      </trkpt>
      <trkpt lat="44.52071" lon="1.96333">
        <ele>169.2</ele>
        <time>2022-05-25T12:06:34.000Z</time>
      </trkpt>
      <trkpt lat="44.52075" lon="1.9634">
        <ele>169.2</ele>
        <time>2022-05-25T12:06:35.000Z</time>
      </trkpt>
      <trkpt lat="44.52092" lon="1.96367">
        <ele>169</ele>
        <time>2022-05-25T12:06:38.000Z</time>
      </trkpt>
      <trkpt lat="44.52102" lon="1.96388">
        <ele>168.8</ele>
        <time>2022-05-25T12:06:42.000Z</time>
      </trkpt>
      <trkpt lat="44.52107" lon="1.96403">
        <ele>168.6</ele>
        <time>2022-05-25T12:06:43.000Z</time>
      </trkpt>
      <trkpt lat="44.52114" lon="1.96428">
        <ele>168.2</ele>
        <time>2022-05-25T12:06:47.000Z</time>
      </trkpt>
      <trkpt lat="44.52122" lon="1.96479">
        <ele>168</ele>
        <time>2022-05-25T12:06:52.000Z</time>
      </trkpt>
      <trkpt lat="44.52122" lon="1.96479">
        <ele>167.8</ele>
        <time>2022-05-25T12:06:53.000Z</time>
      </trkpt>
      <trkpt lat="44.52123" lon="1.96487">
        <ele>167.8</ele>
        <time>2022-05-25T12:06:54.000Z</time>
      </trkpt>
      <trkpt lat="44.52135" lon="1.96529">
        <ele>167.6</ele>
        <time>2022-05-25T12:06:58.000Z</time>
      </trkpt>
      <trkpt lat="44.52142" lon="1.96544">
        <ele>167.6</ele>
        <time>2022-05-25T12:07:00.000Z</time>
      </trkpt>
      <trkpt lat="44.52166" lon="1.96581">
        <ele>167.4</ele>
        <time>2022-05-25T12:07:06.000Z</time>
      </trkpt>
      <trkpt lat="44.5219" lon="1.9662">
        <ele>167.4</ele>
        <time>2022-05-25T12:07:12.000Z</time>
      </trkpt>
      <trkpt lat="44.52194" lon="1.96625">
        <ele>167.4</ele>
        <time>2022-05-25T12:07:13.000Z</time>
      </trkpt>
      <trkpt lat="44.52221" lon="1.9666">
        <ele>166.8</ele>
        <time>2022-05-25T12:07:20.000Z</time>
      </trkpt>
      <trkpt lat="44.52225" lon="1.96666">
        <ele>166.6</ele>
        <time>2022-05-25T12:07:21.000Z</time>
      </trkpt>
      <trkpt lat="44.5223" lon="1.96671">
        <ele>166.6</ele>
        <time>2022-05-25T12:07:22.000Z</time>
      </trkpt>
      <trkpt lat="44.52238" lon="1.96681">
        <ele>166.4</ele>
        <time>2022-05-25T12:07:24.000Z</time>
      </trkpt>
      <trkpt lat="44.5226" lon="1.96707">
        <ele>166</ele>
        <time>2022-05-25T12:07:29.000Z</time>
      </trkpt>
      <trkpt lat="44.52292" lon="1.96741">
        <ele>165.6</ele>
        <time>2022-05-25T12:07:35.000Z</time>
      </trkpt>
      <trkpt lat="44.52324" lon="1.9678">
        <ele>166.4</ele>
        <time>2022-05-25T12:07:43.000Z</time>
      </trkpt>
      <trkpt lat="44.52339" lon="1.96794">
        <ele>167</ele>
        <time>2022-05-25T12:07:47.000Z</time>
      </trkpt>
      <trkpt lat="44.52367" lon="1.96835">
        <ele>167.8</ele>
        <time>2022-05-25T12:07:55.000Z</time>
      </trkpt>
      <trkpt lat="44.52384" lon="1.96878">
        <ele>168.2</ele>
        <time>2022-05-25T12:08:02.000Z</time>
      </trkpt>
      <trkpt lat="44.52391" lon="1.96897">
        <ele>168.8</ele>
        <time>2022-05-25T12:08:06.000Z</time>
      </trkpt>
      <trkpt lat="44.52406" lon="1.96947">
        <ele>169.4</ele>
        <time>2022-05-25T12:08:12.000Z</time>
      </trkpt>
      <trkpt lat="44.52417" lon="1.97008">
        <ele>169.6</ele>
        <time>2022-05-25T12:08:20.000Z</time>
      </trkpt>
      <trkpt lat="44.52429" lon="1.97086">
        <ele>169.8</ele>
        <time>2022-05-25T12:08:30.000Z</time>
      </trkpt>
      <trkpt lat="44.5243" lon="1.97094">
        <ele>169.8</ele>
        <time>2022-05-25T12:08:31.000Z</time>
      </trkpt>
      <trkpt lat="44.5243" lon="1.97102">
        <ele>169.8</ele>
        <time>2022-05-25T12:08:32.000Z</time>
      </trkpt>
      <trkpt lat="44.52438" lon="1.97151">
        <ele>170</ele>
        <time>2022-05-25T12:08:38.000Z</time>
      </trkpt>
      <trkpt lat="44.52441" lon="1.97158">
        <ele>169.8</ele>
        <time>2022-05-25T12:08:39.000Z</time>
      </trkpt>
      <trkpt lat="44.52465" lon="1.97199">
        <ele>169.6</ele>
        <time>2022-05-25T12:08:45.000Z</time>
      </trkpt>
      <trkpt lat="44.52501" lon="1.97248">
        <ele>168.6</ele>
        <time>2022-05-25T12:08:53.000Z</time>
      </trkpt>
      <trkpt lat="44.52513" lon="1.97257">
        <ele>168.4</ele>
        <time>2022-05-25T12:08:55.000Z</time>
      </trkpt>
      <trkpt lat="44.52525" lon="1.97261">
        <ele>168.2</ele>
        <time>2022-05-25T12:08:57.000Z</time>
      </trkpt>
      <trkpt lat="44.52537" lon="1.97264">
        <ele>167.8</ele>
        <time>2022-05-25T12:08:59.000Z</time>
      </trkpt>
      <trkpt lat="44.52555" lon="1.97265">
        <ele>167.6</ele>
        <time>2022-05-25T12:09:02.000Z</time>
      </trkpt>
      <trkpt lat="44.52567" lon="1.97264">
        <ele>167.4</ele>
        <time>2022-05-25T12:09:04.000Z</time>
      </trkpt>
      <trkpt lat="44.52595" lon="1.97262">
        <ele>166.6</ele>
        <time>2022-05-25T12:09:09.000Z</time>
      </trkpt>
      <trkpt lat="44.52611" lon="1.97259">
        <ele>166.4</ele>
        <time>2022-05-25T12:09:12.000Z</time>
      </trkpt>
      <trkpt lat="44.52623" lon="1.97255">
        <ele>166.4</ele>
        <time>2022-05-25T12:09:14.000Z</time>
      </trkpt>
      <trkpt lat="44.52636" lon="1.97251">
        <ele>166.4</ele>
        <time>2022-05-25T12:09:16.000Z</time>
      </trkpt>
      <trkpt lat="44.5266" lon="1.97241">
        <ele>166</ele>
        <time>2022-05-25T12:09:20.000Z</time>
      </trkpt>
      <trkpt lat="44.52671" lon="1.97238">
        <ele>165.8</ele>
        <time>2022-05-25T12:09:22.000Z</time>
      </trkpt>
      <trkpt lat="44.52684" lon="1.97239">
        <ele>165.6</ele>
        <time>2022-05-25T12:09:24.000Z</time>
      </trkpt>
      <trkpt lat="44.52691" lon="1.97242">
        <ele>165.6</ele>
        <time>2022-05-25T12:09:25.000Z</time>
      </trkpt>
      <trkpt lat="44.52698" lon="1.97245">
        <ele>165.2</ele>
        <time>2022-05-25T12:09:26.000Z</time>
      </trkpt>
      <trkpt lat="44.52715" lon="1.97258">
        <ele>165</ele>
        <time>2022-05-25T12:09:29.000Z</time>
      </trkpt>
      <trkpt lat="44.52721" lon="1.97263">
        <ele>165</ele>
        <time>2022-05-25T12:09:30.000Z</time>
      </trkpt>
      <trkpt lat="44.52725" lon="1.97269">
        <ele>164.6</ele>
        <time>2022-05-25T12:09:31.000Z</time>
      </trkpt>
      <trkpt lat="44.52733" lon="1.97279">
        <ele>164</ele>
        <time>2022-05-25T12:09:33.000Z</time>
      </trkpt>
      <trkpt lat="44.52739" lon="1.97283">
        <ele>164</ele>
        <time>2022-05-25T12:09:34.000Z</time>
      </trkpt>
      <trkpt lat="44.52756" lon="1.973">
        <ele>164</ele>
        <time>2022-05-25T12:09:37.000Z</time>
      </trkpt>
      <trkpt lat="44.52766" lon="1.97307">
        <ele>164</ele>
        <time>2022-05-25T12:09:39.000Z</time>
      </trkpt>
      <trkpt lat="44.52776" lon="1.97308">
        <ele>164.2</ele>
        <time>2022-05-25T12:09:41.000Z</time>
      </trkpt>
      <trkpt lat="44.52786" lon="1.97307">
        <ele>164.2</ele>
        <time>2022-05-25T12:09:43.000Z</time>
      </trkpt>
      <trkpt lat="44.52797" lon="1.97303">
        <ele>164</ele>
        <time>2022-05-25T12:09:45.000Z</time>
      </trkpt>
      <trkpt lat="44.52814" lon="1.97297">
        <ele>164</ele>
        <time>2022-05-25T12:09:48.000Z</time>
      </trkpt>
      <trkpt lat="44.52852" lon="1.97289">
        <ele>164.2</ele>
        <time>2022-05-25T12:09:55.000Z</time>
      </trkpt>
      <trkpt lat="44.52863" lon="1.97291">
        <ele>163.8</ele>
        <time>2022-05-25T12:09:57.000Z</time>
      </trkpt>
      <trkpt lat="44.52879" lon="1.97299">
        <ele>163.8</ele>
        <time>2022-05-25T12:10:00.000Z</time>
      </trkpt>
      <trkpt lat="44.529" lon="1.97316">
        <ele>164.4</ele>
        <time>2022-05-25T12:10:05.000Z</time>
      </trkpt>
      <trkpt lat="44.52904" lon="1.97319">
        <ele>164.4</ele>
        <time>2022-05-25T12:10:06.000Z</time>
      </trkpt>
      <trkpt lat="44.52921" lon="1.9733">
        <ele>165</ele>
        <time>2022-05-25T12:10:10.000Z</time>
      </trkpt>
      <trkpt lat="44.5293" lon="1.97335">
        <ele>165.4</ele>
        <time>2022-05-25T12:10:12.000Z</time>
      </trkpt>
      <trkpt lat="44.52946" lon="1.9735">
        <ele>166.4</ele>
        <time>2022-05-25T12:10:16.000Z</time>
      </trkpt>
      <trkpt lat="44.52951" lon="1.97353">
        <ele>166.6</ele>
        <time>2022-05-25T12:10:17.000Z</time>
      </trkpt>
      <trkpt lat="44.5297" lon="1.97364">
        <ele>167.4</ele>
        <time>2022-05-25T12:10:21.000Z</time>
      </trkpt>
      <trkpt lat="44.52981" lon="1.97364">
        <ele>167.4</ele>
        <time>2022-05-25T12:10:23.000Z</time>
      </trkpt>
      <trkpt lat="44.52993" lon="1.97361">
        <ele>167.4</ele>
        <time>2022-05-25T12:10:25.000Z</time>
      </trkpt>
      <trkpt lat="44.52999" lon="1.9736">
        <ele>167</ele>
        <time>2022-05-25T12:10:26.000Z</time>
      </trkpt>
      <trkpt lat="44.53011" lon="1.97358">
        <ele>166.6</ele>
        <time>2022-05-25T12:10:28.000Z</time>
      </trkpt>
      <trkpt lat="44.53018" lon="1.97359">
        <ele>166</ele>
        <time>2022-05-25T12:10:29.000Z</time>
      </trkpt>
      <trkpt lat="44.53024" lon="1.97361">
        <ele>165.6</ele>
        <time>2022-05-25T12:10:30.000Z</time>
      </trkpt>
      <trkpt lat="44.53029" lon="1.97363">
        <ele>165.2</ele>
        <time>2022-05-25T12:10:31.000Z</time>
      </trkpt>
      <trkpt lat="44.53035" lon="1.97366">
        <ele>165.2</ele>
        <time>2022-05-25T12:10:32.000Z</time>
      </trkpt>
      <trkpt lat="44.53041" lon="1.97369">
        <ele>165</ele>
        <time>2022-05-25T12:10:33.000Z</time>
      </trkpt>
      <trkpt lat="44.53077" lon="1.97392">
        <ele>164.6</ele>
        <time>2022-05-25T12:10:40.000Z</time>
      </trkpt>
      <trkpt lat="44.53118" lon="1.97424">
        <ele>165</ele>
        <time>2022-05-25T12:10:48.000Z</time>
      </trkpt>
      <trkpt lat="44.53153" lon="1.9745">
        <ele>165.2</ele>
        <time>2022-05-25T12:10:55.000Z</time>
      </trkpt>
      <trkpt lat="44.53163" lon="1.97458">
        <ele>165.4</ele>
        <time>2022-05-25T12:10:57.000Z</time>
      </trkpt>
      <trkpt lat="44.53183" lon="1.97472">
        <ele>165.4</ele>
        <time>2022-05-25T12:11:01.000Z</time>
      </trkpt>
      <trkpt lat="44.53217" lon="1.97492">
        <ele>165.6</ele>
        <time>2022-05-25T12:11:08.000Z</time>
      </trkpt>
      <trkpt lat="44.53255" lon="1.9751">
        <ele>166.2</ele>
        <time>2022-05-25T12:11:16.000Z</time>
      </trkpt>
      <trkpt lat="44.5326" lon="1.97511">
        <ele>166.4</ele>
        <time>2022-05-25T12:11:17.000Z</time>
      </trkpt>
      <trkpt lat="44.5329" lon="1.97517">
        <ele>167</ele>
        <time>2022-05-25T12:11:23.000Z</time>
      </trkpt>
      <trkpt lat="44.53306" lon="1.97519">
        <ele>167.4</ele>
        <time>2022-05-25T12:11:26.000Z</time>
      </trkpt>
      <trkpt lat="44.53311" lon="1.97519">
        <ele>167.4</ele>
        <time>2022-05-25T12:11:27.000Z</time>
      </trkpt>
      <trkpt lat="44.53321" lon="1.97519">
        <ele>167.4</ele>
        <time>2022-05-25T12:11:29.000Z</time>
      </trkpt>
      <trkpt lat="44.53342" lon="1.9752">
        <ele>168.2</ele>
        <time>2022-05-25T12:11:33.000Z</time>
      </trkpt>
      <trkpt lat="44.53347" lon="1.9752">
        <ele>168.4</ele>
        <time>2022-05-25T12:11:34.000Z</time>
      </trkpt>
      <trkpt lat="44.53368" lon="1.97525">
        <ele>168.4</ele>
        <time>2022-05-25T12:11:38.000Z</time>
      </trkpt>
      <trkpt lat="44.53416" lon="1.97547">
        <ele>168.4</ele>
        <time>2022-05-25T12:11:47.000Z</time>
      </trkpt>
      <trkpt lat="44.53468" lon="1.97574">
        <ele>168.4</ele>
        <time>2022-05-25T12:11:56.000Z</time>
      </trkpt>
      <trkpt lat="44.535" lon="1.97581">
        <ele>167.2</ele>
        <time>2022-05-25T12:12:01.000Z</time>
      </trkpt>
      <trkpt lat="44.53519" lon="1.97584">
        <ele>166.6</ele>
        <time>2022-05-25T12:12:04.000Z</time>
      </trkpt>
      <trkpt lat="44.53561" lon="1.97601">
        <ele>166</ele>
        <time>2022-05-25T12:12:11.000Z</time>
      </trkpt>
      <trkpt lat="44.53567" lon="1.97605">
        <ele>165.8</ele>
        <time>2022-05-25T12:12:12.000Z</time>
      </trkpt>
      <trkpt lat="44.53588" lon="1.97622">
        <ele>164.8</ele>
        <time>2022-05-25T12:12:16.000Z</time>
      </trkpt>
      <trkpt lat="44.53598" lon="1.97631">
        <ele>164.2</ele>
        <time>2022-05-25T12:12:18.000Z</time>
      </trkpt>
      <trkpt lat="44.53618" lon="1.9765">
        <ele>164</ele>
        <time>2022-05-25T12:12:22.000Z</time>
      </trkpt>
      <trkpt lat="44.53637" lon="1.97673">
        <ele>164</ele>
        <time>2022-05-25T12:12:26.000Z</time>
      </trkpt>
      <trkpt lat="44.53642" lon="1.97678">
        <ele>164</ele>
        <time>2022-05-25T12:12:27.000Z</time>
      </trkpt>
      <trkpt lat="44.53659" lon="1.97702">
        <ele>164</ele>
        <time>2022-05-25T12:12:31.000Z</time>
      </trkpt>
      <trkpt lat="44.53694" lon="1.97758">
        <ele>164.2</ele>
        <time>2022-05-25T12:12:40.000Z</time>
      </trkpt>
      <trkpt lat="44.53729" lon="1.97803">
        <ele>165</ele>
        <time>2022-05-25T12:12:48.000Z</time>
      </trkpt>
      <trkpt lat="44.53764" lon="1.97835">
        <ele>165.4</ele>
        <time>2022-05-25T12:12:55.000Z</time>
      </trkpt>
      <trkpt lat="44.53803" lon="1.97869">
        <ele>165.2</ele>
        <time>2022-05-25T12:13:03.000Z</time>
      </trkpt>
      <trkpt lat="44.53844" lon="1.97899">
        <ele>165</ele>
        <time>2022-05-25T12:13:11.000Z</time>
      </trkpt>
      <trkpt lat="44.53879" lon="1.9792">
        <ele>165</ele>
        <time>2022-05-25T12:13:18.000Z</time>
      </trkpt>
      <trkpt lat="44.53932" lon="1.97952">
        <ele>165.2</ele>
        <time>2022-05-25T12:13:28.000Z</time>
      </trkpt>
      <trkpt lat="44.53937" lon="1.97956">
        <ele>165.2</ele>
        <time>2022-05-25T12:13:29.000Z</time>
      </trkpt>
      <trkpt lat="44.53955" lon="1.97977">
        <ele>165</ele>
        <time>2022-05-25T12:13:33.000Z</time>
      </trkpt>
      <trkpt lat="44.53976" lon="1.98015">
        <ele>165.4</ele>
        <time>2022-05-25T12:13:39.000Z</time>
      </trkpt>
      <trkpt lat="44.53978" lon="1.98023">
        <ele>165.6</ele>
        <time>2022-05-25T12:13:40.000Z</time>
      </trkpt>
      <trkpt lat="44.53984" lon="1.98052">
        <ele>166.2</ele>
        <time>2022-05-25T12:13:44.000Z</time>
      </trkpt>
      <trkpt lat="44.53991" lon="1.98096">
        <ele>166.8</ele>
        <time>2022-05-25T12:13:50.000Z</time>
      </trkpt>
      <trkpt lat="44.53993" lon="1.9811">
        <ele>167</ele>
        <time>2022-05-25T12:13:52.000Z</time>
      </trkpt>
      <trkpt lat="44.53998" lon="1.98132">
        <ele>167.6</ele>
        <time>2022-05-25T12:13:55.000Z</time>
      </trkpt>
      <trkpt lat="44.54001" lon="1.98139">
        <ele>167.8</ele>
        <time>2022-05-25T12:13:56.000Z</time>
      </trkpt>
      <trkpt lat="44.54004" lon="1.98146">
        <ele>168.2</ele>
        <time>2022-05-25T12:13:57.000Z</time>
      </trkpt>
      <trkpt lat="44.54014" lon="1.98154">
        <ele>168.2</ele>
        <time>2022-05-25T12:13:59.000Z</time>
      </trkpt>
      <trkpt lat="44.5402" lon="1.98156">
        <ele>168.2</ele>
        <time>2022-05-25T12:14:00.000Z</time>
      </trkpt>
      <trkpt lat="44.54026" lon="1.98158">
        <ele>168.2</ele>
        <time>2022-05-25T12:14:01.000Z</time>
      </trkpt>
      <trkpt lat="44.5405" lon="1.9816">
        <ele>168</ele>
        <time>2022-05-25T12:14:05.000Z</time>
      </trkpt>
      <trkpt lat="44.54074" lon="1.98172">
        <ele>167.2</ele>
        <time>2022-05-25T12:14:09.000Z</time>
      </trkpt>
      <trkpt lat="44.54079" lon="1.98177">
        <ele>167</ele>
        <time>2022-05-25T12:14:10.000Z</time>
      </trkpt>
      <trkpt lat="44.541" lon="1.98198">
        <ele>166.4</ele>
        <time>2022-05-25T12:14:14.000Z</time>
      </trkpt>
      <trkpt lat="44.5412" lon="1.9822">
        <ele>166</ele>
        <time>2022-05-25T12:14:18.000Z</time>
      </trkpt>
      <trkpt lat="44.54144" lon="1.9825">
        <ele>166</ele>
        <time>2022-05-25T12:14:23.000Z</time>
      </trkpt>
      <trkpt lat="44.54154" lon="1.98265">
        <ele>165.8</ele>
        <time>2022-05-25T12:14:25.000Z</time>
      </trkpt>
      <trkpt lat="44.54158" lon="1.98272">
        <ele>165.6</ele>
        <time>2022-05-25T12:14:26.000Z</time>
      </trkpt>
      <trkpt lat="44.54161" lon="1.98281">
        <ele>165.4</ele>
        <time>2022-05-25T12:14:27.000Z</time>
      </trkpt>
      <trkpt lat="44.5417" lon="1.98315">
        <ele>164</ele>
        <time>2022-05-25T12:14:31.000Z</time>
      </trkpt>
      <trkpt lat="44.54173" lon="1.98332">
        <ele>163.8</ele>
        <time>2022-05-25T12:14:33.000Z</time>
      </trkpt>
      <trkpt lat="44.54179" lon="1.98359">
        <ele>164</ele>
        <time>2022-05-25T12:14:36.000Z</time>
      </trkpt>
      <trkpt lat="44.54191" lon="1.98411">
        <ele>164.6</ele>
        <time>2022-05-25T12:14:42.000Z</time>
      </trkpt>
      <trkpt lat="44.54208" lon="1.98477">
        <ele>165.2</ele>
        <time>2022-05-25T12:14:50.000Z</time>
      </trkpt>
      <trkpt lat="44.54232" lon="1.98527">
        <ele>165.8</ele>
        <time>2022-05-25T12:14:57.000Z</time>
      </trkpt>
      <trkpt lat="44.54243" lon="1.98548">
        <ele>165.8</ele>
        <time>2022-05-25T12:15:00.000Z</time>
      </trkpt>
      <trkpt lat="44.54254" lon="1.98569">
        <ele>166</ele>
        <time>2022-05-25T12:15:03.000Z</time>
      </trkpt>
      <trkpt lat="44.54271" lon="1.98595">
        <ele>166</ele>
        <time>2022-05-25T12:15:07.000Z</time>
      </trkpt>
      <trkpt lat="44.5428" lon="1.98606">
        <ele>166</ele>
        <time>2022-05-25T12:15:09.000Z</time>
      </trkpt>
      <trkpt lat="44.54301" lon="1.98629">
        <ele>165.8</ele>
        <time>2022-05-25T12:15:14.000Z</time>
      </trkpt>
      <trkpt lat="44.54321" lon="1.98652">
        <ele>166</ele>
        <time>2022-05-25T12:15:18.000Z</time>
      </trkpt>
      <trkpt lat="44.54339" lon="1.98672">
        <ele>166</ele>
        <time>2022-05-25T12:15:22.000Z</time>
      </trkpt>
      <trkpt lat="44.54348" lon="1.98682">
        <ele>166.2</ele>
        <time>2022-05-25T12:15:24.000Z</time>
      </trkpt>
      <trkpt lat="44.54362" lon="1.98698">
        <ele>166.2</ele>
        <time>2022-05-25T12:15:27.000Z</time>
      </trkpt>
      <trkpt lat="44.54399" lon="1.9874">
        <ele>166.6</ele>
        <time>2022-05-25T12:15:35.000Z</time>
      </trkpt>
      <trkpt lat="44.54408" lon="1.9875">
        <ele>166.6</ele>
        <time>2022-05-25T12:15:37.000Z</time>
      </trkpt>
      <trkpt lat="44.54429" lon="1.98768">
        <ele>166.6</ele>
        <time>2022-05-25T12:15:41.000Z</time>
      </trkpt>
      <trkpt lat="44.54461" lon="1.98788">
        <ele>166.4</ele>
        <time>2022-05-25T12:15:47.000Z</time>
      </trkpt>
      <trkpt lat="44.54507" lon="1.98806">
        <ele>166.6</ele>
        <time>2022-05-25T12:15:55.000Z</time>
      </trkpt>
      <trkpt lat="44.54547" lon="1.98817">
        <ele>167</ele>
        <time>2022-05-25T12:16:02.000Z</time>
      </trkpt>
      <trkpt lat="44.54552" lon="1.98819">
        <ele>167</ele>
        <time>2022-05-25T12:16:03.000Z</time>
      </trkpt>
      <trkpt lat="44.546" lon="1.98834">
        <ele>167.6</ele>
        <time>2022-05-25T12:16:11.000Z</time>
      </trkpt>
      <trkpt lat="44.54639" lon="1.98851">
        <ele>167.2</ele>
        <time>2022-05-25T12:16:18.000Z</time>
      </trkpt>
      <trkpt lat="44.54644" lon="1.98855">
        <ele>167.2</ele>
        <time>2022-05-25T12:16:19.000Z</time>
      </trkpt>
      <trkpt lat="44.54654" lon="1.98865">
        <ele>166.8</ele>
        <time>2022-05-25T12:16:21.000Z</time>
      </trkpt>
      <trkpt lat="44.54671" lon="1.98886">
        <ele>166.6</ele>
        <time>2022-05-25T12:16:25.000Z</time>
      </trkpt>
      <trkpt lat="44.54679" lon="1.98898">
        <ele>167</ele>
        <time>2022-05-25T12:16:27.000Z</time>
      </trkpt>
      <trkpt lat="44.547" lon="1.98933">
        <ele>167.6</ele>
        <time>2022-05-25T12:16:33.000Z</time>
      </trkpt>
      <trkpt lat="44.54707" lon="1.98945">
        <ele>167.8</ele>
        <time>2022-05-25T12:16:35.000Z</time>
      </trkpt>
      <trkpt lat="44.54728" lon="1.98973">
        <ele>168.4</ele>
        <time>2022-05-25T12:16:40.000Z</time>
      </trkpt>
      <trkpt lat="44.54733" lon="1.98978">
        <ele>168.4</ele>
        <time>2022-05-25T12:16:41.000Z</time>
      </trkpt>
      <trkpt lat="44.54737" lon="1.98981">
        <ele>168.4</ele>
        <time>2022-05-25T12:16:42.000Z</time>
      </trkpt>
      <trkpt lat="44.54763" lon="1.99">
        <ele>168.6</ele>
        <time>2022-05-25T12:16:47.000Z</time>
      </trkpt>
      <trkpt lat="44.54772" lon="1.9901">
        <ele>168.6</ele>
        <time>2022-05-25T12:16:49.000Z</time>
      </trkpt>
      <trkpt lat="44.54783" lon="1.99028">
        <ele>168.6</ele>
        <time>2022-05-25T12:16:52.000Z</time>
      </trkpt>
      <trkpt lat="44.54795" lon="1.99046">
        <ele>168.8</ele>
        <time>2022-05-25T12:16:55.000Z</time>
      </trkpt>
      <trkpt lat="44.54813" lon="1.99075">
        <ele>169.2</ele>
        <time>2022-05-25T12:17:00.000Z</time>
      </trkpt>
      <trkpt lat="44.54838" lon="1.99119">
        <ele>169.4</ele>
        <time>2022-05-25T12:17:07.000Z</time>
      </trkpt>
      <trkpt lat="44.54842" lon="1.99126">
        <ele>169.4</ele>
        <time>2022-05-25T12:17:08.000Z</time>
      </trkpt>
      <trkpt lat="44.54849" lon="1.99137">
        <ele>170</ele>
        <time>2022-05-25T12:17:10.000Z</time>
      </trkpt>
      <trkpt lat="44.54853" lon="1.99143">
        <ele>170</ele>
        <time>2022-05-25T12:17:11.000Z</time>
      </trkpt>
      <trkpt lat="44.54857" lon="1.99149">
        <ele>170.2</ele>
        <time>2022-05-25T12:17:12.000Z</time>
      </trkpt>
      <trkpt lat="44.5487" lon="1.99164">
        <ele>170.6</ele>
        <time>2022-05-25T12:17:15.000Z</time>
      </trkpt>
      <trkpt lat="44.54886" lon="1.99177">
        <ele>170.6</ele>
        <time>2022-05-25T12:17:18.000Z</time>
      </trkpt>
      <trkpt lat="44.54918" lon="1.99207">
        <ele>170.6</ele>
        <time>2022-05-25T12:17:24.000Z</time>
      </trkpt>
      <trkpt lat="44.54951" lon="1.9925">
        <ele>169.2</ele>
        <time>2022-05-25T12:17:31.000Z</time>
      </trkpt>
      <trkpt lat="44.54959" lon="1.99263">
        <ele>168.8</ele>
        <time>2022-05-25T12:17:33.000Z</time>
      </trkpt>
      <trkpt lat="44.54983" lon="1.99304">
        <ele>168</ele>
        <time>2022-05-25T12:17:39.000Z</time>
      </trkpt>
      <trkpt lat="44.54987" lon="1.99311">
        <ele>167.8</ele>
        <time>2022-05-25T12:17:40.000Z</time>
      </trkpt>
      <trkpt lat="44.55009" lon="1.99347">
        <ele>167.4</ele>
        <time>2022-05-25T12:17:46.000Z</time>
      </trkpt>
      <trkpt lat="44.55026" lon="1.99376">
        <ele>167.6</ele>
        <time>2022-05-25T12:17:51.000Z</time>
      </trkpt>
      <trkpt lat="44.55035" lon="1.99388">
        <ele>168</ele>
        <time>2022-05-25T12:17:53.000Z</time>
      </trkpt>
      <trkpt lat="44.5506" lon="1.99419">
        <ele>168.8</ele>
        <time>2022-05-25T12:17:59.000Z</time>
      </trkpt>
      <trkpt lat="44.55097" lon="1.99468">
        <ele>168.8</ele>
        <time>2022-05-25T12:18:08.000Z</time>
      </trkpt>
      <trkpt lat="44.551" lon="1.99474">
        <ele>168.8</ele>
        <time>2022-05-25T12:18:09.000Z</time>
      </trkpt>
      <trkpt lat="44.55104" lon="1.9948">
        <ele>168.8</ele>
        <time>2022-05-25T12:18:10.000Z</time>
      </trkpt>
      <trkpt lat="44.55118" lon="1.99505">
        <ele>168.8</ele>
        <time>2022-05-25T12:18:14.000Z</time>
      </trkpt>
      <trkpt lat="44.55132" lon="1.99531">
        <ele>170</ele>
        <time>2022-05-25T12:18:18.000Z</time>
      </trkpt>
      <trkpt lat="44.55149" lon="1.99566">
        <ele>170.2</ele>
        <time>2022-05-25T12:18:23.000Z</time>
      </trkpt>
      <trkpt lat="44.55181" lon="1.99626">
        <ele>169.6</ele>
        <time>2022-05-25T12:18:32.000Z</time>
      </trkpt>
      <trkpt lat="44.5521" lon="1.99682">
        <ele>169.8</ele>
        <time>2022-05-25T12:18:40.000Z</time>
      </trkpt>
      <trkpt lat="44.55239" lon="1.99739">
        <ele>169.4</ele>
        <time>2022-05-25T12:18:48.000Z</time>
      </trkpt>
      <trkpt lat="44.55249" lon="1.99762">
        <ele>169.4</ele>
        <time>2022-05-25T12:18:51.000Z</time>
      </trkpt>
      <trkpt lat="44.5526" lon="1.99792">
        <ele>169.2</ele>
        <time>2022-05-25T12:18:55.000Z</time>
      </trkpt>
      <trkpt lat="44.55277" lon="1.9984">
        <ele>168.8</ele>
        <time>2022-05-25T12:19:01.000Z</time>
      </trkpt>
      <trkpt lat="44.55297" lon="1.99904">
        <ele>168</ele>
        <time>2022-05-25T12:19:09.000Z</time>
      </trkpt>
      <trkpt lat="44.55312" lon="1.99952">
        <ele>168.2</ele>
        <time>2022-05-25T12:19:15.000Z</time>
      </trkpt>
      <trkpt lat="44.55322" lon="2.00021">
        <ele>168</ele>
        <time>2022-05-25T12:19:23.000Z</time>
      </trkpt>
      <trkpt lat="44.55328" lon="2.0009">
        <ele>168</ele>
        <time>2022-05-25T12:19:31.000Z</time>
      </trkpt>
      <trkpt lat="44.55329" lon="2.00156">
        <ele>168.8</ele>
        <time>2022-05-25T12:19:39.000Z</time>
      </trkpt>
      <trkpt lat="44.55334" lon="2.0022">
        <ele>168.6</ele>
        <time>2022-05-25T12:19:47.000Z</time>
      </trkpt>
      <trkpt lat="44.55338" lon="2.0027">
        <ele>168.6</ele>
        <time>2022-05-25T12:19:53.000Z</time>
      </trkpt>
      <trkpt lat="44.5534" lon="2.00293">
        <ele>168.4</ele>
        <time>2022-05-25T12:19:56.000Z</time>
      </trkpt>
      <trkpt lat="44.55341" lon="2.00302">
        <ele>168.4</ele>
        <time>2022-05-25T12:19:57.000Z</time>
      </trkpt>
      <trkpt lat="44.55344" lon="2.00326">
        <ele>168.2</ele>
        <time>2022-05-25T12:20:00.000Z</time>
      </trkpt>
      <trkpt lat="44.55345" lon="2.00342">
        <ele>168</ele>
        <time>2022-05-25T12:20:02.000Z</time>
      </trkpt>
      <trkpt lat="44.55351" lon="2.00388">
        <ele>168.8</ele>
        <time>2022-05-25T12:20:08.000Z</time>
      </trkpt>
      <trkpt lat="44.55356" lon="2.00412">
        <ele>169</ele>
        <time>2022-05-25T12:20:11.000Z</time>
      </trkpt>
      <trkpt lat="44.55363" lon="2.00439">
        <ele>169.2</ele>
        <time>2022-05-25T12:20:14.000Z</time>
      </trkpt>
      <trkpt lat="44.55368" lon="2.00456">
        <ele>169</ele>
        <time>2022-05-25T12:20:16.000Z</time>
      </trkpt>
      <trkpt lat="44.55371" lon="2.00465">
        <ele>169.2</ele>
        <time>2022-05-25T12:20:17.000Z</time>
      </trkpt>
      <trkpt lat="44.55373" lon="2.00473">
        <ele>169.2</ele>
        <time>2022-05-25T12:20:18.000Z</time>
      </trkpt>
      <trkpt lat="44.55374" lon="2.00481">
        <ele>169</ele>
        <time>2022-05-25T12:20:19.000Z</time>
      </trkpt>
      <trkpt lat="44.55376" lon="2.00489">
        <ele>169</ele>
        <time>2022-05-25T12:20:20.000Z</time>
      </trkpt>
      <trkpt lat="44.55383" lon="2.00516">
        <ele>169.2</ele>
        <time>2022-05-25T12:20:24.000Z</time>
      </trkpt>
      <trkpt lat="44.55385" lon="2.00523">
        <ele>169.2</ele>
        <time>2022-05-25T12:20:25.000Z</time>
      </trkpt>
      <trkpt lat="44.55398" lon="2.00576">
        <ele>169.4</ele>
        <time>2022-05-25T12:20:32.000Z</time>
      </trkpt>
      <trkpt lat="44.5541" lon="2.00624">
        <ele>169.6</ele>
        <time>2022-05-25T12:20:38.000Z</time>
      </trkpt>
      <trkpt lat="44.55414" lon="2.00639">
        <ele>169.8</ele>
        <time>2022-05-25T12:20:40.000Z</time>
      </trkpt>
      <trkpt lat="44.55415" lon="2.00645">
        <ele>170.2</ele>
        <time>2022-05-25T12:20:41.000Z</time>
      </trkpt>
      <trkpt lat="44.55417" lon="2.00652">
        <ele>170.2</ele>
        <time>2022-05-25T12:20:42.000Z</time>
      </trkpt>
      <trkpt lat="44.55427" lon="2.00674">
        <ele>170.4</ele>
        <time>2022-05-25T12:20:45.000Z</time>
      </trkpt>
      <trkpt lat="44.55443" lon="2.00695">
        <ele>170.6</ele>
        <time>2022-05-25T12:20:49.000Z</time>
      </trkpt>
      <trkpt lat="44.55456" lon="2.00711">
        <ele>170.6</ele>
        <time>2022-05-25T12:20:52.000Z</time>
      </trkpt>
      <trkpt lat="44.55469" lon="2.00731">
        <ele>170.6</ele>
        <time>2022-05-25T12:20:55.000Z</time>
      </trkpt>
      <trkpt lat="44.55476" lon="2.00747">
        <ele>170.6</ele>
        <time>2022-05-25T12:20:57.000Z</time>
      </trkpt>
      <trkpt lat="44.55493" lon="2.00807">
        <ele>170.8</ele>
        <time>2022-05-25T12:21:04.000Z</time>
      </trkpt>
      <trkpt lat="44.55495" lon="2.00817">
        <ele>170.8</ele>
        <time>2022-05-25T12:21:05.000Z</time>
      </trkpt>
      <trkpt lat="44.55504" lon="2.00851">
        <ele>170.6</ele>
        <time>2022-05-25T12:21:09.000Z</time>
      </trkpt>
      <trkpt lat="44.55518" lon="2.00918">
        <ele>170.4</ele>
        <time>2022-05-25T12:21:17.000Z</time>
      </trkpt>
      <trkpt lat="44.55534" lon="2.0099">
        <ele>171</ele>
        <time>2022-05-25T12:21:26.000Z</time>
      </trkpt>
      <trkpt lat="44.55548" lon="2.01039">
        <ele>171.2</ele>
        <time>2022-05-25T12:21:32.000Z</time>
      </trkpt>
      <trkpt lat="44.55553" lon="2.01063">
        <ele>170.8</ele>
        <time>2022-05-25T12:21:35.000Z</time>
      </trkpt>
      <trkpt lat="44.55557" lon="2.01079">
        <ele>170.6</ele>
        <time>2022-05-25T12:21:37.000Z</time>
      </trkpt>
      <trkpt lat="44.55568" lon="2.01148">
        <ele>170.4</ele>
        <time>2022-05-25T12:21:45.000Z</time>
      </trkpt>
      <trkpt lat="44.55572" lon="2.01173">
        <ele>170</ele>
        <time>2022-05-25T12:21:48.000Z</time>
      </trkpt>
      <trkpt lat="44.55574" lon="2.01184">
        <ele>170.2</ele>
        <time>2022-05-25T12:21:49.000Z</time>
      </trkpt>
      <trkpt lat="44.55582" lon="2.01239">
        <ele>169.8</ele>
        <time>2022-05-25T12:21:55.000Z</time>
      </trkpt>
      <trkpt lat="44.5558" lon="2.01268">
        <ele>170.4</ele>
        <time>2022-05-25T12:21:58.000Z</time>
      </trkpt>
      <trkpt lat="44.55579" lon="2.01285">
        <ele>169.8</ele>
        <time>2022-05-25T12:22:00.000Z</time>
      </trkpt>
      <trkpt lat="44.55579" lon="2.01315">
        <ele>169.6</ele>
        <time>2022-05-25T12:22:03.000Z</time>
      </trkpt>
      <trkpt lat="44.55575" lon="2.01331">
        <ele>169.2</ele>
        <time>2022-05-25T12:22:05.000Z</time>
      </trkpt>
      <trkpt lat="44.55573" lon="2.0134">
        <ele>169.2</ele>
        <time>2022-05-25T12:22:06.000Z</time>
      </trkpt>
      <trkpt lat="44.55572" lon="2.01349">
        <ele>169.2</ele>
        <time>2022-05-25T12:22:07.000Z</time>
      </trkpt>
      <trkpt lat="44.55572" lon="2.01412">
        <ele>169</ele>
        <time>2022-05-25T12:22:14.000Z</time>
      </trkpt>
      <trkpt lat="44.55572" lon="2.0143">
        <ele>169</ele>
        <time>2022-05-25T12:22:16.000Z</time>
      </trkpt>
      <trkpt lat="44.55571" lon="2.01456">
        <ele>169</ele>
        <time>2022-05-25T12:22:19.000Z</time>
      </trkpt>
      <trkpt lat="44.55571" lon="2.01464">
        <ele>169.6</ele>
        <time>2022-05-25T12:22:20.000Z</time>
      </trkpt>
      <trkpt lat="44.5557" lon="2.01481">
        <ele>169.6</ele>
        <time>2022-05-25T12:22:22.000Z</time>
      </trkpt>
      <trkpt lat="44.55568" lon="2.01506">
        <ele>169.2</ele>
        <time>2022-05-25T12:22:25.000Z</time>
      </trkpt>
      <trkpt lat="44.55566" lon="2.01529">
        <ele>169.8</ele>
        <time>2022-05-25T12:22:28.000Z</time>
      </trkpt>
      <trkpt lat="44.55565" lon="2.01543">
        <ele>170</ele>
        <time>2022-05-25T12:22:30.000Z</time>
      </trkpt>
      <trkpt lat="44.55563" lon="2.0155">
        <ele>170.2</ele>
        <time>2022-05-25T12:22:31.000Z</time>
      </trkpt>
      <trkpt lat="44.55561" lon="2.01556">
        <ele>170.2</ele>
        <time>2022-05-25T12:22:32.000Z</time>
      </trkpt>
      <trkpt lat="44.55557" lon="2.01575">
        <ele>171</ele>
        <time>2022-05-25T12:22:35.000Z</time>
      </trkpt>
      <trkpt lat="44.55556" lon="2.01581">
        <ele>171.2</ele>
        <time>2022-05-25T12:22:36.000Z</time>
      </trkpt>
      <trkpt lat="44.55554" lon="2.0159">
        <ele>172</ele>
        <time>2022-05-25T12:22:38.000Z</time>
      </trkpt>
      <trkpt lat="44.55551" lon="2.01598">
        <ele>172.4</ele>
        <time>2022-05-25T12:22:40.000Z</time>
      </trkpt>
      <trkpt lat="44.55544" lon="2.01626">
        <ele>173.6</ele>
        <time>2022-05-25T12:22:46.000Z</time>
      </trkpt>
      <trkpt lat="44.55542" lon="2.01641">
        <ele>174.6</ele>
        <time>2022-05-25T12:22:49.000Z</time>
      </trkpt>
      <trkpt lat="44.55541" lon="2.01646">
        <ele>174.8</ele>
        <time>2022-05-25T12:22:50.000Z</time>
      </trkpt>
      <trkpt lat="44.55535" lon="2.01668">
        <ele>175.8</ele>
        <time>2022-05-25T12:22:54.000Z</time>
      </trkpt>
      <trkpt lat="44.55532" lon="2.01708">
        <ele>176.6</ele>
        <time>2022-05-25T12:23:00.000Z</time>
      </trkpt>
      <trkpt lat="44.5553" lon="2.0173">
        <ele>176.6</ele>
        <time>2022-05-25T12:23:03.000Z</time>
      </trkpt>
      <trkpt lat="44.55526" lon="2.01745">
        <ele>176.4</ele>
        <time>2022-05-25T12:23:05.000Z</time>
      </trkpt>
      <trkpt lat="44.55525" lon="2.01752">
        <ele>175.8</ele>
        <time>2022-05-25T12:23:06.000Z</time>
      </trkpt>
      <trkpt lat="44.55519" lon="2.01783">
        <ele>174.8</ele>
        <time>2022-05-25T12:23:10.000Z</time>
      </trkpt>
      <trkpt lat="44.55518" lon="2.01791">
        <ele>174.4</ele>
        <time>2022-05-25T12:23:11.000Z</time>
      </trkpt>
      <trkpt lat="44.55516" lon="2.01823">
        <ele>174</ele>
        <time>2022-05-25T12:23:15.000Z</time>
      </trkpt>
      <trkpt lat="44.55513" lon="2.01849">
        <ele>173.6</ele>
        <time>2022-05-25T12:23:18.000Z</time>
      </trkpt>
      <trkpt lat="44.5551" lon="2.01865">
        <ele>173.8</ele>
        <time>2022-05-25T12:23:20.000Z</time>
      </trkpt>
      <trkpt lat="44.5551" lon="2.01874">
        <ele>173.8</ele>
        <time>2022-05-25T12:23:21.000Z</time>
      </trkpt>
      <trkpt lat="44.55507" lon="2.019">
        <ele>173.6</ele>
        <time>2022-05-25T12:23:24.000Z</time>
      </trkpt>
      <trkpt lat="44.55504" lon="2.01908">
        <ele>173.4</ele>
        <time>2022-05-25T12:23:25.000Z</time>
      </trkpt>
      <trkpt lat="44.55491" lon="2.01958">
        <ele>172.2</ele>
        <time>2022-05-25T12:23:31.000Z</time>
      </trkpt>
      <trkpt lat="44.55489" lon="2.01966">
        <ele>171.8</ele>
        <time>2022-05-25T12:23:32.000Z</time>
      </trkpt>
      <trkpt lat="44.55488" lon="2.01974">
        <ele>171.6</ele>
        <time>2022-05-25T12:23:33.000Z</time>
      </trkpt>
      <trkpt lat="44.55487" lon="2.01982">
        <ele>171.6</ele>
        <time>2022-05-25T12:23:34.000Z</time>
      </trkpt>
      <trkpt lat="44.55487" lon="2.0199">
        <ele>171.4</ele>
        <time>2022-05-25T12:23:35.000Z</time>
      </trkpt>
      <trkpt lat="44.55486" lon="2.02006">
        <ele>171.2</ele>
        <time>2022-05-25T12:23:37.000Z</time>
      </trkpt>
      <trkpt lat="44.55485" lon="2.02013">
        <ele>171.2</ele>
        <time>2022-05-25T12:23:38.000Z</time>
      </trkpt>
      <trkpt lat="44.55485" lon="2.02029">
        <ele>170.8</ele>
        <time>2022-05-25T12:23:40.000Z</time>
      </trkpt>
      <trkpt lat="44.55485" lon="2.02046">
        <ele>170.8</ele>
        <time>2022-05-25T12:23:42.000Z</time>
      </trkpt>
      <trkpt lat="44.55486" lon="2.02054">
        <ele>170.8</ele>
        <time>2022-05-25T12:23:43.000Z</time>
      </trkpt>
      <trkpt lat="44.55486" lon="2.02086">
        <ele>170.8</ele>
        <time>2022-05-25T12:23:47.000Z</time>
      </trkpt>
      <trkpt lat="44.55487" lon="2.02104">
        <ele>171</ele>
        <time>2022-05-25T12:23:49.000Z</time>
      </trkpt>
      <trkpt lat="44.55488" lon="2.02127">
        <ele>171</ele>
        <time>2022-05-25T12:23:52.000Z</time>
      </trkpt>
      <trkpt lat="44.55495" lon="2.02149">
        <ele>170.6</ele>
        <time>2022-05-25T12:23:55.000Z</time>
      </trkpt>
      <trkpt lat="44.55503" lon="2.0219">
        <ele>170.2</ele>
        <time>2022-05-25T12:24:00.000Z</time>
      </trkpt>
      <trkpt lat="44.55506" lon="2.02206">
        <ele>169.6</ele>
        <time>2022-05-25T12:24:02.000Z</time>
      </trkpt>
      <trkpt lat="44.55507" lon="2.02214">
        <ele>169.2</ele>
        <time>2022-05-25T12:24:03.000Z</time>
      </trkpt>
      <trkpt lat="44.55509" lon="2.02231">
        <ele>169</ele>
        <time>2022-05-25T12:24:05.000Z</time>
      </trkpt>
      <trkpt lat="44.55509" lon="2.02247">
        <ele>169</ele>
        <time>2022-05-25T12:24:07.000Z</time>
      </trkpt>
      <trkpt lat="44.55512" lon="2.02293">
        <ele>168.8</ele>
        <time>2022-05-25T12:24:13.000Z</time>
      </trkpt>
      <trkpt lat="44.55513" lon="2.023">
        <ele>169</ele>
        <time>2022-05-25T12:24:14.000Z</time>
      </trkpt>
      <trkpt lat="44.55519" lon="2.02331">
        <ele>169.8</ele>
        <time>2022-05-25T12:24:19.000Z</time>
      </trkpt>
      <trkpt lat="44.55523" lon="2.02343">
        <ele>170</ele>
        <time>2022-05-25T12:24:21.000Z</time>
      </trkpt>
      <trkpt lat="44.55536" lon="2.02374">
        <ele>170.6</ele>
        <time>2022-05-25T12:24:26.000Z</time>
      </trkpt>
      <trkpt lat="44.55551" lon="2.02399">
        <ele>171.2</ele>
        <time>2022-05-25T12:24:30.000Z</time>
      </trkpt>
      <trkpt lat="44.55555" lon="2.02405">
        <ele>171.6</ele>
        <time>2022-05-25T12:24:31.000Z</time>
      </trkpt>
      <trkpt lat="44.55566" lon="2.02422">
        <ele>172.2</ele>
        <time>2022-05-25T12:24:34.000Z</time>
      </trkpt>
      <trkpt lat="44.55577" lon="2.0244">
        <ele>172.4</ele>
        <time>2022-05-25T12:24:37.000Z</time>
      </trkpt>
      <trkpt lat="44.55586" lon="2.02458">
        <ele>172.8</ele>
        <time>2022-05-25T12:24:40.000Z</time>
      </trkpt>
      <trkpt lat="44.5559" lon="2.02474">
        <ele>173</ele>
        <time>2022-05-25T12:24:42.000Z</time>
      </trkpt>
      <trkpt lat="44.55593" lon="2.02498">
        <ele>173.2</ele>
        <time>2022-05-25T12:24:45.000Z</time>
      </trkpt>
      <trkpt lat="44.55594" lon="2.02505">
        <ele>173.4</ele>
        <time>2022-05-25T12:24:46.000Z</time>
      </trkpt>
      <trkpt lat="44.55595" lon="2.02518">
        <ele>173.4</ele>
        <time>2022-05-25T12:24:48.000Z</time>
      </trkpt>
      <trkpt lat="44.55597" lon="2.02525">
        <ele>173.6</ele>
        <time>2022-05-25T12:24:49.000Z</time>
      </trkpt>
      <trkpt lat="44.55601" lon="2.02544">
        <ele>174.2</ele>
        <time>2022-05-25T12:24:52.000Z</time>
      </trkpt>
      <trkpt lat="44.55603" lon="2.0255">
        <ele>174.4</ele>
        <time>2022-05-25T12:24:53.000Z</time>
      </trkpt>
      <trkpt lat="44.5561" lon="2.02569">
        <ele>174.6</ele>
        <time>2022-05-25T12:24:56.000Z</time>
      </trkpt>
      <trkpt lat="44.5562" lon="2.02595">
        <ele>174.8</ele>
        <time>2022-05-25T12:25:01.000Z</time>
      </trkpt>
      <trkpt lat="44.55619" lon="2.02613">
        <ele>175.6</ele>
        <time>2022-05-25T12:25:05.000Z</time>
      </trkpt>
      <trkpt lat="44.55615" lon="2.02624">
        <ele>176</ele>
        <time>2022-05-25T12:25:08.000Z</time>
      </trkpt>
      <trkpt lat="44.55616" lon="2.02634">
        <ele>176.2</ele>
        <time>2022-05-25T12:25:10.000Z</time>
      </trkpt>
      <trkpt lat="44.55631" lon="2.02661">
        <ele>176</ele>
        <time>2022-05-25T12:25:15.000Z</time>
      </trkpt>
      <trkpt lat="44.55651" lon="2.02694">
        <ele>175.2</ele>
        <time>2022-05-25T12:25:20.000Z</time>
      </trkpt>
      <trkpt lat="44.55654" lon="2.02702">
        <ele>174.8</ele>
        <time>2022-05-25T12:25:21.000Z</time>
      </trkpt>
      <trkpt lat="44.5566" lon="2.02716">
        <ele>174.2</ele>
        <time>2022-05-25T12:25:23.000Z</time>
      </trkpt>
      <trkpt lat="44.55672" lon="2.02746">
        <ele>173</ele>
        <time>2022-05-25T12:25:27.000Z</time>
      </trkpt>
      <trkpt lat="44.55697" lon="2.02811">
        <ele>172.6</ele>
        <time>2022-05-25T12:25:36.000Z</time>
      </trkpt>
      <trkpt lat="44.55705" lon="2.02829">
        <ele>172.6</ele>
        <time>2022-05-25T12:25:39.000Z</time>
      </trkpt>
      <trkpt lat="44.55709" lon="2.0284">
        <ele>172.8</ele>
        <time>2022-05-25T12:25:41.000Z</time>
      </trkpt>
      <trkpt lat="44.55713" lon="2.02852">
        <ele>172.8</ele>
        <time>2022-05-25T12:25:43.000Z</time>
      </trkpt>
      <trkpt lat="44.55721" lon="2.02871">
        <ele>173.2</ele>
        <time>2022-05-25T12:25:46.000Z</time>
      </trkpt>
      <trkpt lat="44.55724" lon="2.02877">
        <ele>173.2</ele>
        <time>2022-05-25T12:25:47.000Z</time>
      </trkpt>
      <trkpt lat="44.55732" lon="2.02903">
        <ele>173.2</ele>
        <time>2022-05-25T12:25:51.000Z</time>
      </trkpt>
      <trkpt lat="44.55737" lon="2.02918">
        <ele>173.2</ele>
        <time>2022-05-25T12:25:53.000Z</time>
      </trkpt>
      <trkpt lat="44.55741" lon="2.02931">
        <ele>173.2</ele>
        <time>2022-05-25T12:25:55.000Z</time>
      </trkpt>
      <trkpt lat="44.55744" lon="2.02937">
        <ele>173.2</ele>
        <time>2022-05-25T12:25:56.000Z</time>
      </trkpt>
      <trkpt lat="44.55748" lon="2.02945">
        <ele>173.4</ele>
        <time>2022-05-25T12:25:57.000Z</time>
      </trkpt>
      <trkpt lat="44.55766" lon="2.02978">
        <ele>173.4</ele>
        <time>2022-05-25T12:26:02.000Z</time>
      </trkpt>
      <trkpt lat="44.55789" lon="2.0302">
        <ele>173.6</ele>
        <time>2022-05-25T12:26:08.000Z</time>
      </trkpt>
      <trkpt lat="44.55796" lon="2.03034">
        <ele>173.6</ele>
        <time>2022-05-25T12:26:10.000Z</time>
      </trkpt>
      <trkpt lat="44.5582" lon="2.03076">
        <ele>173.6</ele>
        <time>2022-05-25T12:26:16.000Z</time>
      </trkpt>
      <trkpt lat="44.55822" lon="2.03081">
        <ele>173.4</ele>
        <time>2022-05-25T12:26:17.000Z</time>
      </trkpt>
      <trkpt lat="44.55853" lon="2.03137">
        <ele>173.6</ele>
        <time>2022-05-25T12:26:25.000Z</time>
      </trkpt>
      <trkpt lat="44.55867" lon="2.03166">
        <ele>173.8</ele>
        <time>2022-05-25T12:26:29.000Z</time>
      </trkpt>
      <trkpt lat="44.55876" lon="2.03185">
        <ele>174</ele>
        <time>2022-05-25T12:26:32.000Z</time>
      </trkpt>
      <trkpt lat="44.5588" lon="2.0319">
        <ele>174</ele>
        <time>2022-05-25T12:26:33.000Z</time>
      </trkpt>
      <trkpt lat="44.55892" lon="2.03209">
        <ele>174</ele>
        <time>2022-05-25T12:26:36.000Z</time>
      </trkpt>
      <trkpt lat="44.55896" lon="2.03216">
        <ele>174</ele>
        <time>2022-05-25T12:26:37.000Z</time>
      </trkpt>
      <trkpt lat="44.55917" lon="2.03252">
        <ele>174.2</ele>
        <time>2022-05-25T12:26:42.000Z</time>
      </trkpt>
      <trkpt lat="44.55923" lon="2.03265">
        <ele>174</ele>
        <time>2022-05-25T12:26:44.000Z</time>
      </trkpt>
      <trkpt lat="44.55941" lon="2.03297">
        <ele>173.8</ele>
        <time>2022-05-25T12:26:49.000Z</time>
      </trkpt>
      <trkpt lat="44.55968" lon="2.03346">
        <ele>173.8</ele>
        <time>2022-05-25T12:26:57.000Z</time>
      </trkpt>
      <trkpt lat="44.55989" lon="2.03388">
        <ele>174.4</ele>
        <time>2022-05-25T12:27:04.000Z</time>
      </trkpt>
      <trkpt lat="44.56" lon="2.03412">
        <ele>174.4</ele>
        <time>2022-05-25T12:27:08.000Z</time>
      </trkpt>
      <trkpt lat="44.56011" lon="2.03432">
        <ele>174.8</ele>
        <time>2022-05-25T12:27:11.000Z</time>
      </trkpt>
      <trkpt lat="44.56027" lon="2.03459">
        <ele>175.8</ele>
        <time>2022-05-25T12:27:15.000Z</time>
      </trkpt>
      <trkpt lat="44.56031" lon="2.03464">
        <ele>176</ele>
        <time>2022-05-25T12:27:16.000Z</time>
      </trkpt>
      <trkpt lat="44.56058" lon="2.03506">
        <ele>176.6</ele>
        <time>2022-05-25T12:27:23.000Z</time>
      </trkpt>
      <trkpt lat="44.5608" lon="2.03539">
        <ele>176.8</ele>
        <time>2022-05-25T12:27:30.000Z</time>
      </trkpt>
      <trkpt lat="44.56095" lon="2.03559">
        <ele>178</ele>
        <time>2022-05-25T12:27:35.000Z</time>
      </trkpt>
      <trkpt lat="44.56098" lon="2.03563">
        <ele>178</ele>
        <time>2022-05-25T12:27:36.000Z</time>
      </trkpt>
      <trkpt lat="44.56113" lon="2.03587">
        <ele>179.2</ele>
        <time>2022-05-25T12:27:42.000Z</time>
      </trkpt>
      <trkpt lat="44.56117" lon="2.03595">
        <ele>179.8</ele>
        <time>2022-05-25T12:27:44.000Z</time>
      </trkpt>
      <trkpt lat="44.56125" lon="2.03609">
        <ele>180.2</ele>
        <time>2022-05-25T12:27:48.000Z</time>
      </trkpt>
      <trkpt lat="44.56127" lon="2.03612">
        <ele>180.6</ele>
        <time>2022-05-25T12:27:49.000Z</time>
      </trkpt>
      <trkpt lat="44.56134" lon="2.03628">
        <ele>181.4</ele>
        <time>2022-05-25T12:27:53.000Z</time>
      </trkpt>
      <trkpt lat="44.56142" lon="2.03643">
        <ele>182.6</ele>
        <time>2022-05-25T12:27:57.000Z</time>
      </trkpt>
      <trkpt lat="44.56144" lon="2.03647">
        <ele>182.8</ele>
        <time>2022-05-25T12:27:58.000Z</time>
      </trkpt>
      <trkpt lat="44.56151" lon="2.03662">
        <ele>183.8</ele>
        <time>2022-05-25T12:28:02.000Z</time>
      </trkpt>
      <trkpt lat="44.56155" lon="2.0367">
        <ele>184.2</ele>
        <time>2022-05-25T12:28:04.000Z</time>
      </trkpt>
      <trkpt lat="44.56164" lon="2.03684">
        <ele>184.8</ele>
        <time>2022-05-25T12:28:08.000Z</time>
      </trkpt>
      <trkpt lat="44.56169" lon="2.03692">
        <ele>185.2</ele>
        <time>2022-05-25T12:28:10.000Z</time>
      </trkpt>
      <trkpt lat="44.56177" lon="2.03708">
        <ele>185.8</ele>
        <time>2022-05-25T12:28:14.000Z</time>
      </trkpt>
      <trkpt lat="44.56181" lon="2.0372">
        <ele>186.4</ele>
        <time>2022-05-25T12:28:17.000Z</time>
      </trkpt>
      <trkpt lat="44.56184" lon="2.03734">
        <ele>187.2</ele>
        <time>2022-05-25T12:28:20.000Z</time>
      </trkpt>
      <trkpt lat="44.56191" lon="2.03751">
        <ele>188</ele>
        <time>2022-05-25T12:28:24.000Z</time>
      </trkpt>
      <trkpt lat="44.56193" lon="2.0376">
        <ele>188.2</ele>
        <time>2022-05-25T12:28:26.000Z</time>
      </trkpt>
      <trkpt lat="44.56199" lon="2.03792">
        <ele>189</ele>
        <time>2022-05-25T12:28:32.000Z</time>
      </trkpt>
      <trkpt lat="44.56201" lon="2.03798">
        <ele>189.4</ele>
        <time>2022-05-25T12:28:33.000Z</time>
      </trkpt>
      <trkpt lat="44.56203" lon="2.03803">
        <ele>189.4</ele>
        <time>2022-05-25T12:28:34.000Z</time>
      </trkpt>
      <trkpt lat="44.56211" lon="2.03816">
        <ele>189.8</ele>
        <time>2022-05-25T12:28:37.000Z</time>
      </trkpt>
      <trkpt lat="44.56222" lon="2.03827">
        <ele>190.2</ele>
        <time>2022-05-25T12:28:40.000Z</time>
      </trkpt>
      <trkpt lat="44.56226" lon="2.03831">
        <ele>190.4</ele>
        <time>2022-05-25T12:28:41.000Z</time>
      </trkpt>
      <trkpt lat="44.5623" lon="2.03834">
        <ele>190.4</ele>
        <time>2022-05-25T12:28:42.000Z</time>
      </trkpt>
      <trkpt lat="44.56238" lon="2.0384">
        <ele>190.8</ele>
        <time>2022-05-25T12:28:44.000Z</time>
      </trkpt>
      <trkpt lat="44.56267" lon="2.03855">
        <ele>191.4</ele>
        <time>2022-05-25T12:28:51.000Z</time>
      </trkpt>
      <trkpt lat="44.56275" lon="2.03859">
        <ele>191.6</ele>
        <time>2022-05-25T12:28:53.000Z</time>
      </trkpt>
      <trkpt lat="44.56297" lon="2.03871">
        <ele>192.4</ele>
        <time>2022-05-25T12:28:59.000Z</time>
      </trkpt>
      <trkpt lat="44.56316" lon="2.0388">
        <ele>193.6</ele>
        <time>2022-05-25T12:29:04.000Z</time>
      </trkpt>
      <trkpt lat="44.56326" lon="2.03885">
        <ele>194.6</ele>
        <time>2022-05-25T12:29:07.000Z</time>
      </trkpt>
      <trkpt lat="44.56329" lon="2.03886">
        <ele>194.8</ele>
        <time>2022-05-25T12:29:08.000Z</time>
      </trkpt>
      <trkpt lat="44.56342" lon="2.03894">
        <ele>195.6</ele>
        <time>2022-05-25T12:29:13.000Z</time>
      </trkpt>
      <trkpt lat="44.56345" lon="2.03896">
        <ele>196</ele>
        <time>2022-05-25T12:29:14.000Z</time>
      </trkpt>
      <trkpt lat="44.56359" lon="2.03904">
        <ele>196.8</ele>
        <time>2022-05-25T12:29:18.000Z</time>
      </trkpt>
      <trkpt lat="44.56363" lon="2.03906">
        <ele>197</ele>
        <time>2022-05-25T12:29:19.000Z</time>
      </trkpt>
      <trkpt lat="44.56377" lon="2.03913">
        <ele>197.2</ele>
        <time>2022-05-25T12:29:22.000Z</time>
      </trkpt>
      <trkpt lat="44.56392" lon="2.03921">
        <ele>197.6</ele>
        <time>2022-05-25T12:29:25.000Z</time>
      </trkpt>
      <trkpt lat="44.56402" lon="2.03926">
        <ele>197.8</ele>
        <time>2022-05-25T12:29:27.000Z</time>
      </trkpt>
      <trkpt lat="44.56432" lon="2.03942">
        <ele>198.4</ele>
        <time>2022-05-25T12:29:33.000Z</time>
      </trkpt>
      <trkpt lat="44.56446" lon="2.0395">
        <ele>199</ele>
        <time>2022-05-25T12:29:36.000Z</time>
      </trkpt>
      <trkpt lat="44.56464" lon="2.0396">
        <ele>199</ele>
        <time>2022-05-25T12:29:40.000Z</time>
      </trkpt>
      <trkpt lat="44.56504" lon="2.03981">
        <ele>199.4</ele>
        <time>2022-05-25T12:29:48.000Z</time>
      </trkpt>
      <trkpt lat="44.56549" lon="2.04006">
        <ele>199.2</ele>
        <time>2022-05-25T12:29:57.000Z</time>
      </trkpt>
      <trkpt lat="44.56553" lon="2.0401">
        <ele>199</ele>
        <time>2022-05-25T12:29:58.000Z</time>
      </trkpt>
      <trkpt lat="44.56558" lon="2.04015">
        <ele>199</ele>
        <time>2022-05-25T12:29:59.000Z</time>
      </trkpt>
      <trkpt lat="44.56565" lon="2.04026">
        <ele>199</ele>
        <time>2022-05-25T12:30:01.000Z</time>
      </trkpt>
      <trkpt lat="44.56568" lon="2.04032">
        <ele>198.8</ele>
        <time>2022-05-25T12:30:02.000Z</time>
      </trkpt>
      <trkpt lat="44.56571" lon="2.04039">
        <ele>198.8</ele>
        <time>2022-05-25T12:30:03.000Z</time>
      </trkpt>
      <trkpt lat="44.56574" lon="2.04056">
        <ele>198.4</ele>
        <time>2022-05-25T12:30:05.000Z</time>
      </trkpt>
      <trkpt lat="44.56574" lon="2.04066">
        <ele>198.2</ele>
        <time>2022-05-25T12:30:06.000Z</time>
      </trkpt>
      <trkpt lat="44.56573" lon="2.04076">
        <ele>198</ele>
        <time>2022-05-25T12:30:07.000Z</time>
      </trkpt>
      <trkpt lat="44.56571" lon="2.04087">
        <ele>197.8</ele>
        <time>2022-05-25T12:30:08.000Z</time>
      </trkpt>
      <trkpt lat="44.56567" lon="2.04097">
        <ele>197.8</ele>
        <time>2022-05-25T12:30:09.000Z</time>
      </trkpt>
      <trkpt lat="44.56556" lon="2.04115">
        <ele>197.2</ele>
        <time>2022-05-25T12:30:11.000Z</time>
      </trkpt>
      <trkpt lat="44.5655" lon="2.04122">
        <ele>196.2</ele>
        <time>2022-05-25T12:30:12.000Z</time>
      </trkpt>
      <trkpt lat="44.56528" lon="2.04145">
        <ele>194.8</ele>
        <time>2022-05-25T12:30:15.000Z</time>
      </trkpt>
      <trkpt lat="44.56513" lon="2.04161">
        <ele>193.6</ele>
        <time>2022-05-25T12:30:17.000Z</time>
      </trkpt>
      <trkpt lat="44.56505" lon="2.04169">
        <ele>193.4</ele>
        <time>2022-05-25T12:30:18.000Z</time>
      </trkpt>
      <trkpt lat="44.56472" lon="2.042">
        <ele>192.2</ele>
        <time>2022-05-25T12:30:22.000Z</time>
      </trkpt>
      <trkpt lat="44.56456" lon="2.04218">
        <ele>191</ele>
        <time>2022-05-25T12:30:24.000Z</time>
      </trkpt>
      <trkpt lat="44.56449" lon="2.04228">
        <ele>190.2</ele>
        <time>2022-05-25T12:30:25.000Z</time>
      </trkpt>
      <trkpt lat="44.56426" lon="2.0426">
        <ele>188.6</ele>
        <time>2022-05-25T12:30:28.000Z</time>
      </trkpt>
      <trkpt lat="44.56413" lon="2.04281">
        <ele>187.2</ele>
        <time>2022-05-25T12:30:30.000Z</time>
      </trkpt>
      <trkpt lat="44.56408" lon="2.04293">
        <ele>186.6</ele>
        <time>2022-05-25T12:30:31.000Z</time>
      </trkpt>
      <trkpt lat="44.56404" lon="2.04307">
        <ele>185.6</ele>
        <time>2022-05-25T12:30:32.000Z</time>
      </trkpt>
      <trkpt lat="44.56403" lon="2.04321">
        <ele>185.2</ele>
        <time>2022-05-25T12:30:33.000Z</time>
      </trkpt>
      <trkpt lat="44.56404" lon="2.04336">
        <ele>184</ele>
        <time>2022-05-25T12:30:34.000Z</time>
      </trkpt>
      <trkpt lat="44.56406" lon="2.0435">
        <ele>182.8</ele>
        <time>2022-05-25T12:30:35.000Z</time>
      </trkpt>
      <trkpt lat="44.56408" lon="2.04363">
        <ele>182.4</ele>
        <time>2022-05-25T12:30:36.000Z</time>
      </trkpt>
      <trkpt lat="44.56411" lon="2.04376">
        <ele>181.8</ele>
        <time>2022-05-25T12:30:37.000Z</time>
      </trkpt>
      <trkpt lat="44.56415" lon="2.04399">
        <ele>180.6</ele>
        <time>2022-05-25T12:30:39.000Z</time>
      </trkpt>
      <trkpt lat="44.5642" lon="2.04422">
        <ele>180.2</ele>
        <time>2022-05-25T12:30:41.000Z</time>
      </trkpt>
      <trkpt lat="44.56429" lon="2.0444">
        <ele>180</ele>
        <time>2022-05-25T12:30:43.000Z</time>
      </trkpt>
      <trkpt lat="44.56434" lon="2.04446">
        <ele>180</ele>
        <time>2022-05-25T12:30:44.000Z</time>
      </trkpt>
      <trkpt lat="44.56441" lon="2.04449">
        <ele>180</ele>
        <time>2022-05-25T12:30:45.000Z</time>
      </trkpt>
      <trkpt lat="44.56448" lon="2.0445">
        <ele>180</ele>
        <time>2022-05-25T12:30:46.000Z</time>
      </trkpt>
      <trkpt lat="44.56453" lon="2.04449">
        <ele>180</ele>
        <time>2022-05-25T12:30:47.000Z</time>
      </trkpt>
      <trkpt lat="44.56465" lon="2.04445">
        <ele>179.8</ele>
        <time>2022-05-25T12:30:49.000Z</time>
      </trkpt>
      <trkpt lat="44.5647" lon="2.04441">
        <ele>179.6</ele>
        <time>2022-05-25T12:30:50.000Z</time>
      </trkpt>
      <trkpt lat="44.56506" lon="2.04421">
        <ele>180.4</ele>
        <time>2022-05-25T12:30:57.000Z</time>
      </trkpt>
      <trkpt lat="44.56536" lon="2.04407">
        <ele>181.2</ele>
        <time>2022-05-25T12:31:03.000Z</time>
      </trkpt>
      <trkpt lat="44.5656" lon="2.04405">
        <ele>181.6</ele>
        <time>2022-05-25T12:31:08.000Z</time>
      </trkpt>
      <trkpt lat="44.56575" lon="2.04406">
        <ele>182</ele>
        <time>2022-05-25T12:31:11.000Z</time>
      </trkpt>
      <trkpt lat="44.5658" lon="2.04406">
        <ele>182</ele>
        <time>2022-05-25T12:31:12.000Z</time>
      </trkpt>
      <trkpt lat="44.56591" lon="2.04407">
        <ele>182.8</ele>
        <time>2022-05-25T12:31:15.000Z</time>
      </trkpt>
      <trkpt lat="44.56599" lon="2.04408">
        <ele>183.4</ele>
        <time>2022-05-25T12:31:17.000Z</time>
      </trkpt>
      <trkpt lat="44.56606" lon="2.04409">
        <ele>184</ele>
        <time>2022-05-25T12:31:19.000Z</time>
      </trkpt>
      <trkpt lat="44.5662" lon="2.04418">
        <ele>184.6</ele>
        <time>2022-05-25T12:31:23.000Z</time>
      </trkpt>
      <trkpt lat="44.56628" lon="2.04434">
        <ele>185</ele>
        <time>2022-05-25T12:31:27.000Z</time>
      </trkpt>
      <trkpt lat="44.56629" lon="2.04437">
        <ele>185.4</ele>
        <time>2022-05-25T12:31:28.000Z</time>
      </trkpt>
      <trkpt lat="44.56636" lon="2.0446">
        <ele>186.2</ele>
        <time>2022-05-25T12:31:33.000Z</time>
      </trkpt>
      <trkpt lat="44.56639" lon="2.04468">
        <ele>187</ele>
        <time>2022-05-25T12:31:35.000Z</time>
      </trkpt>
      <trkpt lat="44.56642" lon="2.04478">
        <ele>187.4</ele>
        <time>2022-05-25T12:31:37.000Z</time>
      </trkpt>
      <trkpt lat="44.56649" lon="2.045">
        <ele>188</ele>
        <time>2022-05-25T12:31:41.000Z</time>
      </trkpt>
      <trkpt lat="44.56652" lon="2.04516">
        <ele>188.6</ele>
        <time>2022-05-25T12:31:44.000Z</time>
      </trkpt>
      <trkpt lat="44.56653" lon="2.04529">
        <ele>189</ele>
        <time>2022-05-25T12:31:47.000Z</time>
      </trkpt>
      <trkpt lat="44.56654" lon="2.04539">
        <ele>189.8</ele>
        <time>2022-05-25T12:31:49.000Z</time>
      </trkpt>
      <trkpt lat="44.56653" lon="2.04552">
        <ele>190.2</ele>
        <time>2022-05-25T12:31:52.000Z</time>
      </trkpt>
      <trkpt lat="44.56652" lon="2.04568">
        <ele>191</ele>
        <time>2022-05-25T12:31:55.000Z</time>
      </trkpt>
      <trkpt lat="44.56649" lon="2.04588">
        <ele>192.2</ele>
        <time>2022-05-25T12:31:59.000Z</time>
      </trkpt>
      <trkpt lat="44.56645" lon="2.04616">
        <ele>193.4</ele>
        <time>2022-05-25T12:32:04.000Z</time>
      </trkpt>
      <trkpt lat="44.56645" lon="2.04621">
        <ele>193.4</ele>
        <time>2022-05-25T12:32:05.000Z</time>
      </trkpt>
      <trkpt lat="44.56645" lon="2.04632">
        <ele>194.4</ele>
        <time>2022-05-25T12:32:07.000Z</time>
      </trkpt>
      <trkpt lat="44.56643" lon="2.04643">
        <ele>194.8</ele>
        <time>2022-05-25T12:32:09.000Z</time>
      </trkpt>
      <trkpt lat="44.56641" lon="2.04672">
        <ele>195.4</ele>
        <time>2022-05-25T12:32:14.000Z</time>
      </trkpt>
      <trkpt lat="44.56641" lon="2.04678">
        <ele>195.8</ele>
        <time>2022-05-25T12:32:15.000Z</time>
      </trkpt>
      <trkpt lat="44.56641" lon="2.04705">
        <ele>196.8</ele>
        <time>2022-05-25T12:32:20.000Z</time>
      </trkpt>
      <trkpt lat="44.56638" lon="2.04716">
        <ele>197</ele>
        <time>2022-05-25T12:32:22.000Z</time>
      </trkpt>
      <trkpt lat="44.56633" lon="2.0474">
        <ele>197.8</ele>
        <time>2022-05-25T12:32:26.000Z</time>
      </trkpt>
      <trkpt lat="44.56632" lon="2.0475">
        <ele>198.2</ele>
        <time>2022-05-25T12:32:28.000Z</time>
      </trkpt>
      <trkpt lat="44.56628" lon="2.04765">
        <ele>198.8</ele>
        <time>2022-05-25T12:32:31.000Z</time>
      </trkpt>
      <trkpt lat="44.56619" lon="2.04791">
        <ele>199.4</ele>
        <time>2022-05-25T12:32:36.000Z</time>
      </trkpt>
      <trkpt lat="44.56611" lon="2.0481">
        <ele>199.8</ele>
        <time>2022-05-25T12:32:40.000Z</time>
      </trkpt>
      <trkpt lat="44.56603" lon="2.04829">
        <ele>200.2</ele>
        <time>2022-05-25T12:32:44.000Z</time>
      </trkpt>
      <trkpt lat="44.56592" lon="2.04853">
        <ele>200.6</ele>
        <time>2022-05-25T12:32:49.000Z</time>
      </trkpt>
      <trkpt lat="44.56585" lon="2.04869">
        <ele>200.8</ele>
        <time>2022-05-25T12:32:52.000Z</time>
      </trkpt>
      <trkpt lat="44.56583" lon="2.04874">
        <ele>200.8</ele>
        <time>2022-05-25T12:32:53.000Z</time>
      </trkpt>
      <trkpt lat="44.56576" lon="2.04894">
        <ele>201</ele>
        <time>2022-05-25T12:32:57.000Z</time>
      </trkpt>
      <trkpt lat="44.56574" lon="2.04899">
        <ele>201</ele>
        <time>2022-05-25T12:32:58.000Z</time>
      </trkpt>
      <trkpt lat="44.5657" lon="2.04911">
        <ele>201.2</ele>
        <time>2022-05-25T12:33:00.000Z</time>
      </trkpt>
      <trkpt lat="44.56568" lon="2.04925">
        <ele>201.2</ele>
        <time>2022-05-25T12:33:02.000Z</time>
      </trkpt>
      <trkpt lat="44.56569" lon="2.04938">
        <ele>201.2</ele>
        <time>2022-05-25T12:33:04.000Z</time>
      </trkpt>
      <trkpt lat="44.56572" lon="2.04958">
        <ele>201.2</ele>
        <time>2022-05-25T12:33:07.000Z</time>
      </trkpt>
      <trkpt lat="44.56578" lon="2.04975">
        <ele>201.4</ele>
        <time>2022-05-25T12:33:10.000Z</time>
      </trkpt>
      <trkpt lat="44.56587" lon="2.0499">
        <ele>201.4</ele>
        <time>2022-05-25T12:33:13.000Z</time>
      </trkpt>
      <trkpt lat="44.56595" lon="2.04998">
        <ele>201.4</ele>
        <time>2022-05-25T12:33:15.000Z</time>
      </trkpt>
      <trkpt lat="44.56611" lon="2.05015">
        <ele>202</ele>
        <time>2022-05-25T12:33:19.000Z</time>
      </trkpt>
      <trkpt lat="44.56636" lon="2.05037">
        <ele>203</ele>
        <time>2022-05-25T12:33:26.000Z</time>
      </trkpt>
      <trkpt lat="44.56648" lon="2.05049">
        <ele>204</ele>
        <time>2022-05-25T12:33:30.000Z</time>
      </trkpt>
      <trkpt lat="44.56657" lon="2.05057">
        <ele>204.6</ele>
        <time>2022-05-25T12:33:33.000Z</time>
      </trkpt>
      <trkpt lat="44.56662" lon="2.05061">
        <ele>205.2</ele>
        <time>2022-05-25T12:33:35.000Z</time>
      </trkpt>
      <trkpt lat="44.56673" lon="2.05072">
        <ele>206.2</ele>
        <time>2022-05-25T12:33:39.000Z</time>
      </trkpt>
      <trkpt lat="44.56687" lon="2.05085">
        <ele>207.2</ele>
        <time>2022-05-25T12:33:45.000Z</time>
      </trkpt>
      <trkpt lat="44.56689" lon="2.05087">
        <ele>207.4</ele>
        <time>2022-05-25T12:33:46.000Z</time>
      </trkpt>
      <trkpt lat="44.56697" lon="2.05096">
        <ele>208.2</ele>
        <time>2022-05-25T12:33:50.000Z</time>
      </trkpt>
      <trkpt lat="44.56702" lon="2.05102">
        <ele>208.4</ele>
        <time>2022-05-25T12:33:52.000Z</time>
      </trkpt>
      <trkpt lat="44.56717" lon="2.05117">
        <ele>209.6</ele>
        <time>2022-05-25T12:33:57.000Z</time>
      </trkpt>
      <trkpt lat="44.5672" lon="2.05119">
        <ele>209.6</ele>
        <time>2022-05-25T12:33:58.000Z</time>
      </trkpt>
      <trkpt lat="44.56734" lon="2.05133">
        <ele>210.8</ele>
        <time>2022-05-25T12:34:03.000Z</time>
      </trkpt>
      <trkpt lat="44.56737" lon="2.05136">
        <ele>211</ele>
        <time>2022-05-25T12:34:04.000Z</time>
      </trkpt>
      <trkpt lat="44.56751" lon="2.05148">
        <ele>211.8</ele>
        <time>2022-05-25T12:34:08.000Z</time>
      </trkpt>
      <trkpt lat="44.56767" lon="2.05164">
        <ele>213</ele>
        <time>2022-05-25T12:34:13.000Z</time>
      </trkpt>
      <trkpt lat="44.56794" lon="2.05188">
        <ele>214.2</ele>
        <time>2022-05-25T12:34:21.000Z</time>
      </trkpt>
      <trkpt lat="44.56817" lon="2.0521">
        <ele>215.2</ele>
        <time>2022-05-25T12:34:28.000Z</time>
      </trkpt>
      <trkpt lat="44.56824" lon="2.05216">
        <ele>215.6</ele>
        <time>2022-05-25T12:34:30.000Z</time>
      </trkpt>
      <trkpt lat="44.56834" lon="2.05227">
        <ele>215.6</ele>
        <time>2022-05-25T12:34:33.000Z</time>
      </trkpt>
      <trkpt lat="44.56841" lon="2.05235">
        <ele>215.8</ele>
        <time>2022-05-25T12:34:35.000Z</time>
      </trkpt>
      <trkpt lat="44.56847" lon="2.05245">
        <ele>216</ele>
        <time>2022-05-25T12:34:37.000Z</time>
      </trkpt>
      <trkpt lat="44.56849" lon="2.0525">
        <ele>216</ele>
        <time>2022-05-25T12:34:38.000Z</time>
      </trkpt>
      <trkpt lat="44.56852" lon="2.05262">
        <ele>216.2</ele>
        <time>2022-05-25T12:34:40.000Z</time>
      </trkpt>
      <trkpt lat="44.56854" lon="2.05275">
        <ele>216.2</ele>
        <time>2022-05-25T12:34:42.000Z</time>
      </trkpt>
      <trkpt lat="44.56854" lon="2.05281">
        <ele>216.4</ele>
        <time>2022-05-25T12:34:43.000Z</time>
      </trkpt>
      <trkpt lat="44.56853" lon="2.05287">
        <ele>216.4</ele>
        <time>2022-05-25T12:34:44.000Z</time>
      </trkpt>
      <trkpt lat="44.56849" lon="2.05304">
        <ele>216.6</ele>
        <time>2022-05-25T12:34:47.000Z</time>
      </trkpt>
      <trkpt lat="44.56838" lon="2.0533">
        <ele>217.4</ele>
        <time>2022-05-25T12:34:52.000Z</time>
      </trkpt>
      <trkpt lat="44.56831" lon="2.05345">
        <ele>217.6</ele>
        <time>2022-05-25T12:34:55.000Z</time>
      </trkpt>
      <trkpt lat="44.56806" lon="2.05396">
        <ele>218.2</ele>
        <time>2022-05-25T12:35:05.000Z</time>
      </trkpt>
      <trkpt lat="44.56802" lon="2.05406">
        <ele>218.6</ele>
        <time>2022-05-25T12:35:07.000Z</time>
      </trkpt>
      <trkpt lat="44.56791" lon="2.0543">
        <ele>219.6</ele>
        <time>2022-05-25T12:35:12.000Z</time>
      </trkpt>
      <trkpt lat="44.56787" lon="2.05439">
        <ele>219.8</ele>
        <time>2022-05-25T12:35:14.000Z</time>
      </trkpt>
      <trkpt lat="44.56774" lon="2.05466">
        <ele>220.8</ele>
        <time>2022-05-25T12:35:20.000Z</time>
      </trkpt>
      <trkpt lat="44.56772" lon="2.0547">
        <ele>220.8</ele>
        <time>2022-05-25T12:35:21.000Z</time>
      </trkpt>
      <trkpt lat="44.56765" lon="2.05488">
        <ele>221.8</ele>
        <time>2022-05-25T12:35:25.000Z</time>
      </trkpt>
      <trkpt lat="44.56755" lon="2.05508">
        <ele>222.6</ele>
        <time>2022-05-25T12:35:30.000Z</time>
      </trkpt>
      <trkpt lat="44.56753" lon="2.05512">
        <ele>223</ele>
        <time>2022-05-25T12:35:31.000Z</time>
      </trkpt>
      <trkpt lat="44.56741" lon="2.05536">
        <ele>223.8</ele>
        <time>2022-05-25T12:35:37.000Z</time>
      </trkpt>
      <trkpt lat="44.56739" lon="2.0554">
        <ele>224</ele>
        <time>2022-05-25T12:35:38.000Z</time>
      </trkpt>
      <trkpt lat="44.5673" lon="2.05556">
        <ele>225.2</ele>
        <time>2022-05-25T12:35:42.000Z</time>
      </trkpt>
      <trkpt lat="44.56727" lon="2.05561">
        <ele>225.2</ele>
        <time>2022-05-25T12:35:43.000Z</time>
      </trkpt>
      <trkpt lat="44.56719" lon="2.05572">
        <ele>226.2</ele>
        <time>2022-05-25T12:35:46.000Z</time>
      </trkpt>
      <trkpt lat="44.56708" lon="2.05578">
        <ele>227</ele>
        <time>2022-05-25T12:35:49.000Z</time>
      </trkpt>
      <trkpt lat="44.56705" lon="2.05579">
        <ele>227.2</ele>
        <time>2022-05-25T12:35:50.000Z</time>
      </trkpt>
      <trkpt lat="44.56693" lon="2.05583">
        <ele>228.4</ele>
        <time>2022-05-25T12:35:54.000Z</time>
      </trkpt>
      <trkpt lat="44.5669" lon="2.05583">
        <ele>228.6</ele>
        <time>2022-05-25T12:35:55.000Z</time>
      </trkpt>
      <trkpt lat="44.56681" lon="2.05584">
        <ele>228.8</ele>
        <time>2022-05-25T12:36:00.000Z</time>
      </trkpt>
      <trkpt lat="44.5668" lon="2.05585">
        <ele>228.8</ele>
        <time>2022-05-25T12:36:01.000Z</time>
      </trkpt>
      <trkpt lat="44.5668" lon="2.05583">
        <ele>229.2</ele>
        <time>2022-05-25T12:36:05.000Z</time>
      </trkpt>
      <trkpt lat="44.56679" lon="2.05582">
        <ele>229</ele>
        <time>2022-05-25T12:36:09.000Z</time>
      </trkpt>
      <trkpt lat="44.56676" lon="2.05584">
        <ele>229.2</ele>
        <time>2022-05-25T12:37:30.000Z</time>
      </trkpt>
      <trkpt lat="44.56671" lon="2.05588">
        <ele>229.2</ele>
        <time>2022-05-25T12:37:32.000Z</time>
      </trkpt>
      <trkpt lat="44.56654" lon="2.05596">
        <ele>229</ele>
        <time>2022-05-25T12:37:37.000Z</time>
      </trkpt>
      <trkpt lat="44.56635" lon="2.05604">
        <ele>228.8</ele>
        <time>2022-05-25T12:37:42.000Z</time>
      </trkpt>
      <trkpt lat="44.56615" lon="2.05612">
        <ele>228.2</ele>
        <time>2022-05-25T12:37:47.000Z</time>
      </trkpt>
      <trkpt lat="44.56607" lon="2.05619">
        <ele>228</ele>
        <time>2022-05-25T12:37:49.000Z</time>
      </trkpt>
      <trkpt lat="44.56595" lon="2.05628">
        <ele>227.6</ele>
        <time>2022-05-25T12:37:52.000Z</time>
      </trkpt>
      <trkpt lat="44.56582" lon="2.05637">
        <ele>227</ele>
        <time>2022-05-25T12:37:55.000Z</time>
      </trkpt>
      <trkpt lat="44.56561" lon="2.0565">
        <ele>226.2</ele>
        <time>2022-05-25T12:37:59.000Z</time>
      </trkpt>
      <trkpt lat="44.5655" lon="2.05658">
        <ele>226</ele>
        <time>2022-05-25T12:38:01.000Z</time>
      </trkpt>
      <trkpt lat="44.56521" lon="2.0568">
        <ele>225.2</ele>
        <time>2022-05-25T12:38:06.000Z</time>
      </trkpt>
      <trkpt lat="44.56515" lon="2.05684">
        <ele>225</ele>
        <time>2022-05-25T12:38:07.000Z</time>
      </trkpt>
      <trkpt lat="44.56509" lon="2.05688">
        <ele>224.6</ele>
        <time>2022-05-25T12:38:08.000Z</time>
      </trkpt>
      <trkpt lat="44.56504" lon="2.05692">
        <ele>224.2</ele>
        <time>2022-05-25T12:38:09.000Z</time>
      </trkpt>
      <trkpt lat="44.5648" lon="2.05712">
        <ele>223</ele>
        <time>2022-05-25T12:38:13.000Z</time>
      </trkpt>
      <trkpt lat="44.56475" lon="2.05717">
        <ele>222.8</ele>
        <time>2022-05-25T12:38:14.000Z</time>
      </trkpt>
      <trkpt lat="44.56458" lon="2.05733">
        <ele>221.6</ele>
        <time>2022-05-25T12:38:17.000Z</time>
      </trkpt>
      <trkpt lat="44.56451" lon="2.05738">
        <ele>221.4</ele>
        <time>2022-05-25T12:38:18.000Z</time>
      </trkpt>
      <trkpt lat="44.5644" lon="2.05748">
        <ele>221</ele>
        <time>2022-05-25T12:38:20.000Z</time>
      </trkpt>
      <trkpt lat="44.56418" lon="2.05769">
        <ele>220.4</ele>
        <time>2022-05-25T12:38:24.000Z</time>
      </trkpt>
      <trkpt lat="44.56394" lon="2.05791">
        <ele>219.2</ele>
        <time>2022-05-25T12:38:28.000Z</time>
      </trkpt>
      <trkpt lat="44.56388" lon="2.05797">
        <ele>219</ele>
        <time>2022-05-25T12:38:29.000Z</time>
      </trkpt>
      <trkpt lat="44.56353" lon="2.05831">
        <ele>217.8</ele>
        <time>2022-05-25T12:38:35.000Z</time>
      </trkpt>
      <trkpt lat="44.56319" lon="2.05866">
        <ele>217</ele>
        <time>2022-05-25T12:38:41.000Z</time>
      </trkpt>
      <trkpt lat="44.56314" lon="2.05872">
        <ele>217</ele>
        <time>2022-05-25T12:38:42.000Z</time>
      </trkpt>
      <trkpt lat="44.56304" lon="2.05885">
        <ele>216.8</ele>
        <time>2022-05-25T12:38:44.000Z</time>
      </trkpt>
      <trkpt lat="44.56288" lon="2.05903">
        <ele>215.8</ele>
        <time>2022-05-25T12:38:47.000Z</time>
      </trkpt>
      <trkpt lat="44.56282" lon="2.0591">
        <ele>215.6</ele>
        <time>2022-05-25T12:38:48.000Z</time>
      </trkpt>
      <trkpt lat="44.56267" lon="2.0593">
        <ele>214.6</ele>
        <time>2022-05-25T12:38:51.000Z</time>
      </trkpt>
      <trkpt lat="44.56256" lon="2.05944">
        <ele>214</ele>
        <time>2022-05-25T12:38:53.000Z</time>
      </trkpt>
      <trkpt lat="44.5625" lon="2.0595">
        <ele>213.4</ele>
        <time>2022-05-25T12:38:54.000Z</time>
      </trkpt>
      <trkpt lat="44.56239" lon="2.05962">
        <ele>212.8</ele>
        <time>2022-05-25T12:38:56.000Z</time>
      </trkpt>
      <trkpt lat="44.5623" lon="2.05976">
        <ele>212.4</ele>
        <time>2022-05-25T12:38:58.000Z</time>
      </trkpt>
      <trkpt lat="44.56218" lon="2.06">
        <ele>211.8</ele>
        <time>2022-05-25T12:39:01.000Z</time>
      </trkpt>
      <trkpt lat="44.56207" lon="2.06024">
        <ele>211.6</ele>
        <time>2022-05-25T12:39:04.000Z</time>
      </trkpt>
      <trkpt lat="44.56196" lon="2.06048">
        <ele>211.2</ele>
        <time>2022-05-25T12:39:07.000Z</time>
      </trkpt>
      <trkpt lat="44.56186" lon="2.06063">
        <ele>210.8</ele>
        <time>2022-05-25T12:39:09.000Z</time>
      </trkpt>
      <trkpt lat="44.56182" lon="2.06071">
        <ele>210.6</ele>
        <time>2022-05-25T12:39:10.000Z</time>
      </trkpt>
      <trkpt lat="44.56174" lon="2.06085">
        <ele>210</ele>
        <time>2022-05-25T12:39:12.000Z</time>
      </trkpt>
      <trkpt lat="44.5616" lon="2.06111">
        <ele>209.4</ele>
        <time>2022-05-25T12:39:15.000Z</time>
      </trkpt>
      <trkpt lat="44.56155" lon="2.06119">
        <ele>209.2</ele>
        <time>2022-05-25T12:39:16.000Z</time>
      </trkpt>
      <trkpt lat="44.56146" lon="2.06136">
        <ele>209</ele>
        <time>2022-05-25T12:39:18.000Z</time>
      </trkpt>
      <trkpt lat="44.56125" lon="2.06169">
        <ele>208.2</ele>
        <time>2022-05-25T12:39:22.000Z</time>
      </trkpt>
      <trkpt lat="44.5612" lon="2.06177">
        <ele>207.8</ele>
        <time>2022-05-25T12:39:23.000Z</time>
      </trkpt>
      <trkpt lat="44.56103" lon="2.06214">
        <ele>206.6</ele>
        <time>2022-05-25T12:39:27.000Z</time>
      </trkpt>
      <trkpt lat="44.561" lon="2.06224">
        <ele>206.4</ele>
        <time>2022-05-25T12:39:28.000Z</time>
      </trkpt>
      <trkpt lat="44.56086" lon="2.06265">
        <ele>205.2</ele>
        <time>2022-05-25T12:39:32.000Z</time>
      </trkpt>
      <trkpt lat="44.56075" lon="2.06284">
        <ele>204.4</ele>
        <time>2022-05-25T12:39:34.000Z</time>
      </trkpt>
      <trkpt lat="44.56064" lon="2.06301">
        <ele>203.8</ele>
        <time>2022-05-25T12:39:36.000Z</time>
      </trkpt>
      <trkpt lat="44.56039" lon="2.06334">
        <ele>202.8</ele>
        <time>2022-05-25T12:39:40.000Z</time>
      </trkpt>
      <trkpt lat="44.56025" lon="2.06349">
        <ele>202.4</ele>
        <time>2022-05-25T12:39:42.000Z</time>
      </trkpt>
      <trkpt lat="44.56007" lon="2.06362">
        <ele>202</ele>
        <time>2022-05-25T12:39:45.000Z</time>
      </trkpt>
      <trkpt lat="44.55998" lon="2.06371">
        <ele>201.8</ele>
        <time>2022-05-25T12:39:47.000Z</time>
      </trkpt>
      <trkpt lat="44.55995" lon="2.06375">
        <ele>201.6</ele>
        <time>2022-05-25T12:39:48.000Z</time>
      </trkpt>
      <trkpt lat="44.55991" lon="2.06381">
        <ele>200.8</ele>
        <time>2022-05-25T12:39:51.000Z</time>
      </trkpt>
      <trkpt lat="44.5599" lon="2.06382">
        <ele>200.6</ele>
        <time>2022-05-25T12:39:52.000Z</time>
      </trkpt>
      <trkpt lat="44.5599" lon="2.06383">
        <ele>200.2</ele>
        <time>2022-05-25T12:39:54.000Z</time>
      </trkpt>
      <trkpt lat="44.55989" lon="2.06394">
        <ele>199.8</ele>
        <time>2022-05-25T12:40:05.000Z</time>
      </trkpt>
      <trkpt lat="44.55982" lon="2.06417">
        <ele>199.8</ele>
        <time>2022-05-25T12:40:10.000Z</time>
      </trkpt>
      <trkpt lat="44.55978" lon="2.06429">
        <ele>199.6</ele>
        <time>2022-05-25T12:40:12.000Z</time>
      </trkpt>
      <trkpt lat="44.5597" lon="2.06452">
        <ele>199.6</ele>
        <time>2022-05-25T12:40:15.000Z</time>
      </trkpt>
      <trkpt lat="44.55966" lon="2.06459">
        <ele>199.6</ele>
        <time>2022-05-25T12:40:16.000Z</time>
      </trkpt>
      <trkpt lat="44.5596" lon="2.06473">
        <ele>199.6</ele>
        <time>2022-05-25T12:40:18.000Z</time>
      </trkpt>
      <trkpt lat="44.55953" lon="2.06486">
        <ele>199</ele>
        <time>2022-05-25T12:40:20.000Z</time>
      </trkpt>
      <trkpt lat="44.55942" lon="2.06505">
        <ele>198.2</ele>
        <time>2022-05-25T12:40:23.000Z</time>
      </trkpt>
      <trkpt lat="44.55933" lon="2.0653">
        <ele>197.6</ele>
        <time>2022-05-25T12:40:26.000Z</time>
      </trkpt>
      <trkpt lat="44.55931" lon="2.06538">
        <ele>197.6</ele>
        <time>2022-05-25T12:40:27.000Z</time>
      </trkpt>
      <trkpt lat="44.55921" lon="2.06569">
        <ele>197.2</ele>
        <time>2022-05-25T12:40:31.000Z</time>
      </trkpt>
      <trkpt lat="44.55917" lon="2.06587">
        <ele>197.2</ele>
        <time>2022-05-25T12:40:33.000Z</time>
      </trkpt>
      <trkpt lat="44.55908" lon="2.06639">
        <ele>195.8</ele>
        <time>2022-05-25T12:40:39.000Z</time>
      </trkpt>
      <trkpt lat="44.55906" lon="2.06648">
        <ele>195.6</ele>
        <time>2022-05-25T12:40:40.000Z</time>
      </trkpt>
      <trkpt lat="44.55897" lon="2.0669">
        <ele>194.6</ele>
        <time>2022-05-25T12:40:45.000Z</time>
      </trkpt>
      <trkpt lat="44.55891" lon="2.06722">
        <ele>194.4</ele>
        <time>2022-05-25T12:40:49.000Z</time>
      </trkpt>
      <trkpt lat="44.55875" lon="2.06782">
        <ele>193.6</ele>
        <time>2022-05-25T12:40:56.000Z</time>
      </trkpt>
      <trkpt lat="44.55872" lon="2.0679">
        <ele>193.2</ele>
        <time>2022-05-25T12:40:57.000Z</time>
      </trkpt>
      <trkpt lat="44.5586" lon="2.06815">
        <ele>192.4</ele>
        <time>2022-05-25T12:41:00.000Z</time>
      </trkpt>
      <trkpt lat="44.55847" lon="2.0684">
        <ele>191.8</ele>
        <time>2022-05-25T12:41:03.000Z</time>
      </trkpt>
      <trkpt lat="44.55843" lon="2.06848">
        <ele>191.2</ele>
        <time>2022-05-25T12:41:04.000Z</time>
      </trkpt>
      <trkpt lat="44.55837" lon="2.06866">
        <ele>190.4</ele>
        <time>2022-05-25T12:41:06.000Z</time>
      </trkpt>
      <trkpt lat="44.55832" lon="2.06884">
        <ele>190.2</ele>
        <time>2022-05-25T12:41:08.000Z</time>
      </trkpt>
      <trkpt lat="44.5583" lon="2.06893">
        <ele>190.2</ele>
        <time>2022-05-25T12:41:09.000Z</time>
      </trkpt>
      <trkpt lat="44.55816" lon="2.06973">
        <ele>188.6</ele>
        <time>2022-05-25T12:41:17.000Z</time>
      </trkpt>
      <trkpt lat="44.55814" lon="2.06983">
        <ele>188.4</ele>
        <time>2022-05-25T12:41:18.000Z</time>
      </trkpt>
      <trkpt lat="44.558" lon="2.0702">
        <ele>187.6</ele>
        <time>2022-05-25T12:41:22.000Z</time>
      </trkpt>
      <trkpt lat="44.55783" lon="2.07053">
        <ele>186.6</ele>
        <time>2022-05-25T12:41:26.000Z</time>
      </trkpt>
      <trkpt lat="44.55774" lon="2.07068">
        <ele>186.4</ele>
        <time>2022-05-25T12:41:28.000Z</time>
      </trkpt>
      <trkpt lat="44.55739" lon="2.07126">
        <ele>185.8</ele>
        <time>2022-05-25T12:41:36.000Z</time>
      </trkpt>
      <trkpt lat="44.55729" lon="2.07144">
        <ele>185.6</ele>
        <time>2022-05-25T12:41:39.000Z</time>
      </trkpt>
      <trkpt lat="44.55723" lon="2.07154">
        <ele>185.4</ele>
        <time>2022-05-25T12:41:41.000Z</time>
      </trkpt>
      <trkpt lat="44.55711" lon="2.07172">
        <ele>185.2</ele>
        <time>2022-05-25T12:41:46.000Z</time>
      </trkpt>
      <trkpt lat="44.55702" lon="2.07189">
        <ele>185.4</ele>
        <time>2022-05-25T12:41:51.000Z</time>
      </trkpt>
      <trkpt lat="44.55706" lon="2.07196">
        <ele>185.4</ele>
        <time>2022-05-25T12:41:53.000Z</time>
      </trkpt>
      <trkpt lat="44.5571" lon="2.07198">
        <ele>185.4</ele>
        <time>2022-05-25T12:41:54.000Z</time>
      </trkpt>
      <trkpt lat="44.55736" lon="2.07201">
        <ele>184.6</ele>
        <time>2022-05-25T12:42:00.000Z</time>
      </trkpt>
      <trkpt lat="44.55763" lon="2.0721">
        <ele>183.6</ele>
        <time>2022-05-25T12:42:05.000Z</time>
      </trkpt>
      <trkpt lat="44.55768" lon="2.07212">
        <ele>183.2</ele>
        <time>2022-05-25T12:42:06.000Z</time>
      </trkpt>
      <trkpt lat="44.55781" lon="2.0722">
        <ele>182.4</ele>
        <time>2022-05-25T12:42:09.000Z</time>
      </trkpt>
      <trkpt lat="44.55797" lon="2.07227">
        <ele>181.8</ele>
        <time>2022-05-25T12:42:13.000Z</time>
      </trkpt>
      <trkpt lat="44.55806" lon="2.07231">
        <ele>181.4</ele>
        <time>2022-05-25T12:42:15.000Z</time>
      </trkpt>
      <trkpt lat="44.5582" lon="2.07239">
        <ele>180.4</ele>
        <time>2022-05-25T12:42:19.000Z</time>
      </trkpt>
      <trkpt lat="44.55825" lon="2.07244">
        <ele>179.8</ele>
        <time>2022-05-25T12:42:23.000Z</time>
      </trkpt>
      <trkpt lat="44.55825" lon="2.07245">
        <ele>179.6</ele>
        <time>2022-05-25T12:42:25.000Z</time>
      </trkpt>
      <trkpt lat="44.55823" lon="2.07239">
        <ele>178.8</ele>
        <time>2022-05-25T12:44:31.000Z</time>
      </trkpt>
      <trkpt lat="44.55813" lon="2.07228">
        <ele>178.8</ele>
        <time>2022-05-25T12:44:35.000Z</time>
      </trkpt>
      <trkpt lat="44.5579" lon="2.07213">
        <ele>179.6</ele>
        <time>2022-05-25T12:44:42.000Z</time>
      </trkpt>
      <trkpt lat="44.55777" lon="2.07205">
        <ele>180</ele>
        <time>2022-05-25T12:44:47.000Z</time>
      </trkpt>
      <trkpt lat="44.55764" lon="2.07199">
        <ele>180.6</ele>
        <time>2022-05-25T12:44:51.000Z</time>
      </trkpt>
      <trkpt lat="44.55757" lon="2.07196">
        <ele>181.2</ele>
        <time>2022-05-25T12:44:53.000Z</time>
      </trkpt>
      <trkpt lat="44.55735" lon="2.07189">
        <ele>182.2</ele>
        <time>2022-05-25T12:44:59.000Z</time>
      </trkpt>
      <trkpt lat="44.55732" lon="2.07188">
        <ele>182.4</ele>
        <time>2022-05-25T12:45:00.000Z</time>
      </trkpt>
      <trkpt lat="44.55717" lon="2.07179">
        <ele>182.8</ele>
        <time>2022-05-25T12:45:05.000Z</time>
      </trkpt>
      <trkpt lat="44.55709" lon="2.07179">
        <ele>183.4</ele>
        <time>2022-05-25T12:45:08.000Z</time>
      </trkpt>
      <trkpt lat="44.55707" lon="2.0718">
        <ele>183.8</ele>
        <time>2022-05-25T12:45:09.000Z</time>
      </trkpt>
      <trkpt lat="44.55702" lon="2.07191">
        <ele>184.4</ele>
        <time>2022-05-25T12:45:13.000Z</time>
      </trkpt>
      <trkpt lat="44.55701" lon="2.07196">
        <ele>184.6</ele>
        <time>2022-05-25T12:45:14.000Z</time>
      </trkpt>
      <trkpt lat="44.55703" lon="2.07217">
        <ele>184.6</ele>
        <time>2022-05-25T12:45:18.000Z</time>
      </trkpt>
      <trkpt lat="44.55713" lon="2.07254">
        <ele>184</ele>
        <time>2022-05-25T12:45:24.000Z</time>
      </trkpt>
      <trkpt lat="44.55725" lon="2.07278">
        <ele>183.4</ele>
        <time>2022-05-25T12:45:28.000Z</time>
      </trkpt>
      <trkpt lat="44.55729" lon="2.07285">
        <ele>183.2</ele>
        <time>2022-05-25T12:45:29.000Z</time>
      </trkpt>
      <trkpt lat="44.55744" lon="2.07309">
        <ele>182.2</ele>
        <time>2022-05-25T12:45:33.000Z</time>
      </trkpt>
      <trkpt lat="44.55755" lon="2.07327">
        <ele>181.8</ele>
        <time>2022-05-25T12:45:36.000Z</time>
      </trkpt>
      <trkpt lat="44.55771" lon="2.07352">
        <ele>181</ele>
        <time>2022-05-25T12:45:40.000Z</time>
      </trkpt>
      <trkpt lat="44.55783" lon="2.07372">
        <ele>180.6</ele>
        <time>2022-05-25T12:45:43.000Z</time>
      </trkpt>
      <trkpt lat="44.55787" lon="2.07378">
        <ele>180.4</ele>
        <time>2022-05-25T12:45:44.000Z</time>
      </trkpt>
      <trkpt lat="44.55795" lon="2.0739">
        <ele>180</ele>
        <time>2022-05-25T12:45:46.000Z</time>
      </trkpt>
      <trkpt lat="44.55807" lon="2.07409">
        <ele>179.2</ele>
        <time>2022-05-25T12:45:49.000Z</time>
      </trkpt>
      <trkpt lat="44.55811" lon="2.07416">
        <ele>179</ele>
        <time>2022-05-25T12:45:50.000Z</time>
      </trkpt>
      <trkpt lat="44.55839" lon="2.0746">
        <ele>177.8</ele>
        <time>2022-05-25T12:45:57.000Z</time>
      </trkpt>
      <trkpt lat="44.55843" lon="2.07466">
        <ele>177.4</ele>
        <time>2022-05-25T12:45:58.000Z</time>
      </trkpt>
      <trkpt lat="44.55861" lon="2.07497">
        <ele>177</ele>
        <time>2022-05-25T12:46:04.000Z</time>
      </trkpt>
      <trkpt lat="44.55867" lon="2.07512">
        <ele>176.8</ele>
        <time>2022-05-25T12:46:09.000Z</time>
      </trkpt>
      <trkpt lat="44.55867" lon="2.07514">
        <ele>176.8</ele>
        <time>2022-05-25T12:46:10.000Z</time>
      </trkpt>
      <trkpt lat="44.55867" lon="2.07517">
        <ele>176.6</ele>
        <time>2022-05-25T12:46:13.000Z</time>
      </trkpt>
      <trkpt lat="44.55865" lon="2.07519">
        <ele>175.6</ele>
        <time>2022-05-25T12:48:16.000Z</time>
      </trkpt>
      <trkpt lat="44.55877" lon="2.07527">
        <ele>175.6</ele>
        <time>2022-05-25T12:48:20.000Z</time>
      </trkpt>
      <trkpt lat="44.5589" lon="2.07545">
        <ele>175.6</ele>
        <time>2022-05-25T12:48:24.000Z</time>
      </trkpt>
      <trkpt lat="44.55916" lon="2.07588">
        <ele>175.4</ele>
        <time>2022-05-25T12:48:32.000Z</time>
      </trkpt>
      <trkpt lat="44.5595" lon="2.07646">
        <ele>175.4</ele>
        <time>2022-05-25T12:48:42.000Z</time>
      </trkpt>
      <trkpt lat="44.55956" lon="2.07656">
        <ele>175.6</ele>
        <time>2022-05-25T12:48:44.000Z</time>
      </trkpt>
      <trkpt lat="44.55973" lon="2.07682">
        <ele>175.8</ele>
        <time>2022-05-25T12:48:49.000Z</time>
      </trkpt>
      <trkpt lat="44.55983" lon="2.07698">
        <ele>176</ele>
        <time>2022-05-25T12:48:52.000Z</time>
      </trkpt>
      <trkpt lat="44.55994" lon="2.07715">
        <ele>175.8</ele>
        <time>2022-05-25T12:48:56.000Z</time>
      </trkpt>
      <trkpt lat="44.56004" lon="2.07727">
        <ele>175.8</ele>
        <time>2022-05-25T12:48:59.000Z</time>
      </trkpt>
      <trkpt lat="44.56018" lon="2.07738">
        <ele>175.8</ele>
        <time>2022-05-25T12:49:02.000Z</time>
      </trkpt>
      <trkpt lat="44.56029" lon="2.07741">
        <ele>175.6</ele>
        <time>2022-05-25T12:49:04.000Z</time>
      </trkpt>
      <trkpt lat="44.56035" lon="2.0774">
        <ele>175.6</ele>
        <time>2022-05-25T12:49:05.000Z</time>
      </trkpt>
      <trkpt lat="44.56041" lon="2.07738">
        <ele>175.6</ele>
        <time>2022-05-25T12:49:06.000Z</time>
      </trkpt>
      <trkpt lat="44.56056" lon="2.07725">
        <ele>175.8</ele>
        <time>2022-05-25T12:49:09.000Z</time>
      </trkpt>
      <trkpt lat="44.56064" lon="2.07714">
        <ele>175.8</ele>
        <time>2022-05-25T12:49:11.000Z</time>
      </trkpt>
      <trkpt lat="44.56077" lon="2.07696">
        <ele>175.6</ele>
        <time>2022-05-25T12:49:14.000Z</time>
      </trkpt>
      <trkpt lat="44.56104" lon="2.07654">
        <ele>175.4</ele>
        <time>2022-05-25T12:49:21.000Z</time>
      </trkpt>
      <trkpt lat="44.56108" lon="2.07648">
        <ele>175.2</ele>
        <time>2022-05-25T12:49:22.000Z</time>
      </trkpt>
      <trkpt lat="44.56139" lon="2.07599">
        <ele>175.2</ele>
        <time>2022-05-25T12:49:31.000Z</time>
      </trkpt>
      <trkpt lat="44.56151" lon="2.07581">
        <ele>175.2</ele>
        <time>2022-05-25T12:49:35.000Z</time>
      </trkpt>
      <trkpt lat="44.56161" lon="2.07571">
        <ele>175.2</ele>
        <time>2022-05-25T12:49:38.000Z</time>
      </trkpt>
      <trkpt lat="44.56171" lon="2.07561">
        <ele>175.2</ele>
        <time>2022-05-25T12:49:43.000Z</time>
      </trkpt>
      <trkpt lat="44.56179" lon="2.07552">
        <ele>175.2</ele>
        <time>2022-05-25T12:49:49.000Z</time>
      </trkpt>
      <trkpt lat="44.5618" lon="2.07551">
        <ele>175</ele>
        <time>2022-05-25T12:49:50.000Z</time>
      </trkpt>
      <trkpt lat="44.5618" lon="2.07551">
        <ele>175</ele>
        <time>2022-05-25T12:49:51.000Z</time>
      </trkpt>
      <trkpt lat="44.56178" lon="2.07551">
        <ele>174.6</ele>
        <time>2022-05-25T12:50:23.000Z</time>
      </trkpt>
      <trkpt lat="44.56175" lon="2.07553">
        <ele>174.6</ele>
        <time>2022-05-25T12:50:25.000Z</time>
      </trkpt>
      <trkpt lat="44.56162" lon="2.07565">
        <ele>174.8</ele>
        <time>2022-05-25T12:50:29.000Z</time>
      </trkpt>
      <trkpt lat="44.56158" lon="2.07568">
        <ele>174.8</ele>
        <time>2022-05-25T12:50:30.000Z</time>
      </trkpt>
      <trkpt lat="44.56146" lon="2.07586">
        <ele>175</ele>
        <time>2022-05-25T12:50:34.000Z</time>
      </trkpt>
      <trkpt lat="44.56127" lon="2.07614">
        <ele>175.2</ele>
        <time>2022-05-25T12:50:39.000Z</time>
      </trkpt>
      <trkpt lat="44.561" lon="2.07658">
        <ele>175.2</ele>
        <time>2022-05-25T12:50:46.000Z</time>
      </trkpt>
      <trkpt lat="44.56073" lon="2.07704">
        <ele>175</ele>
        <time>2022-05-25T12:50:53.000Z</time>
      </trkpt>
      <trkpt lat="44.56057" lon="2.07728">
        <ele>174.8</ele>
        <time>2022-05-25T12:50:57.000Z</time>
      </trkpt>
      <trkpt lat="44.56046" lon="2.07736">
        <ele>175</ele>
        <time>2022-05-25T12:50:59.000Z</time>
      </trkpt>
      <trkpt lat="44.56034" lon="2.0774">
        <ele>174.8</ele>
        <time>2022-05-25T12:51:01.000Z</time>
      </trkpt>
      <trkpt lat="44.56023" lon="2.07739">
        <ele>175</ele>
        <time>2022-05-25T12:51:03.000Z</time>
      </trkpt>
      <trkpt lat="44.56017" lon="2.07738">
        <ele>175</ele>
        <time>2022-05-25T12:51:04.000Z</time>
      </trkpt>
      <trkpt lat="44.56002" lon="2.07726">
        <ele>175</ele>
        <time>2022-05-25T12:51:07.000Z</time>
      </trkpt>
      <trkpt lat="44.55979" lon="2.07692">
        <ele>175.2</ele>
        <time>2022-05-25T12:51:13.000Z</time>
      </trkpt>
      <trkpt lat="44.55953" lon="2.07648">
        <ele>176</ele>
        <time>2022-05-25T12:51:20.000Z</time>
      </trkpt>
      <trkpt lat="44.55949" lon="2.07642">
        <ele>176</ele>
        <time>2022-05-25T12:51:21.000Z</time>
      </trkpt>
      <trkpt lat="44.55922" lon="2.07594">
        <ele>175.4</ele>
        <time>2022-05-25T12:51:28.000Z</time>
      </trkpt>
      <trkpt lat="44.5589" lon="2.07541">
        <ele>175.2</ele>
        <time>2022-05-25T12:51:37.000Z</time>
      </trkpt>
      <trkpt lat="44.55886" lon="2.07535">
        <ele>175.2</ele>
        <time>2022-05-25T12:51:38.000Z</time>
      </trkpt>
      <trkpt lat="44.55877" lon="2.07527">
        <ele>175.2</ele>
        <time>2022-05-25T12:51:40.000Z</time>
      </trkpt>
      <trkpt lat="44.55872" lon="2.07524">
        <ele>175.2</ele>
        <time>2022-05-25T12:51:41.000Z</time>
      </trkpt>
      <trkpt lat="44.5584" lon="2.07518">
        <ele>175.2</ele>
        <time>2022-05-25T12:51:47.000Z</time>
      </trkpt>
      <trkpt lat="44.55835" lon="2.07517">
        <ele>175.2</ele>
        <time>2022-05-25T12:51:48.000Z</time>
      </trkpt>
      <trkpt lat="44.55808" lon="2.07513">
        <ele>175.2</ele>
        <time>2022-05-25T12:51:53.000Z</time>
      </trkpt>
      <trkpt lat="44.55753" lon="2.07502">
        <ele>175.8</ele>
        <time>2022-05-25T12:52:03.000Z</time>
      </trkpt>
      <trkpt lat="44.55742" lon="2.07502">
        <ele>175.8</ele>
        <time>2022-05-25T12:52:05.000Z</time>
      </trkpt>
      <trkpt lat="44.55732" lon="2.07506">
        <ele>175.8</ele>
        <time>2022-05-25T12:52:07.000Z</time>
      </trkpt>
      <trkpt lat="44.5569" lon="2.07528">
        <ele>176.4</ele>
        <time>2022-05-25T12:52:15.000Z</time>
      </trkpt>
      <trkpt lat="44.55641" lon="2.07553">
        <ele>176.2</ele>
        <time>2022-05-25T12:52:24.000Z</time>
      </trkpt>
      <trkpt lat="44.55604" lon="2.07572">
        <ele>176.2</ele>
        <time>2022-05-25T12:52:31.000Z</time>
      </trkpt>
      <trkpt lat="44.55554" lon="2.07595">
        <ele>176</ele>
        <time>2022-05-25T12:52:40.000Z</time>
      </trkpt>
      <trkpt lat="44.55516" lon="2.07621">
        <ele>176</ele>
        <time>2022-05-25T12:52:47.000Z</time>
      </trkpt>
      <trkpt lat="44.55506" lon="2.07631">
        <ele>176</ele>
        <time>2022-05-25T12:52:49.000Z</time>
      </trkpt>
      <trkpt lat="44.55492" lon="2.07649">
        <ele>176</ele>
        <time>2022-05-25T12:52:52.000Z</time>
      </trkpt>
      <trkpt lat="44.5547" lon="2.07673">
        <ele>176.6</ele>
        <time>2022-05-25T12:52:57.000Z</time>
      </trkpt>
      <trkpt lat="44.55466" lon="2.07678">
        <ele>176.8</ele>
        <time>2022-05-25T12:52:58.000Z</time>
      </trkpt>
      <trkpt lat="44.55449" lon="2.07705">
        <ele>177.4</ele>
        <time>2022-05-25T12:53:03.000Z</time>
      </trkpt>
      <trkpt lat="44.5544" lon="2.0772">
        <ele>177.8</ele>
        <time>2022-05-25T12:53:06.000Z</time>
      </trkpt>
      <trkpt lat="44.55432" lon="2.07737">
        <ele>179</ele>
        <time>2022-05-25T12:53:09.000Z</time>
      </trkpt>
      <trkpt lat="44.55429" lon="2.07742">
        <ele>179.2</ele>
        <time>2022-05-25T12:53:10.000Z</time>
      </trkpt>
      <trkpt lat="44.55414" lon="2.07767">
        <ele>180</ele>
        <time>2022-05-25T12:53:15.000Z</time>
      </trkpt>
      <trkpt lat="44.55411" lon="2.07771">
        <ele>180</ele>
        <time>2022-05-25T12:53:16.000Z</time>
      </trkpt>
      <trkpt lat="44.55409" lon="2.07776">
        <ele>180.2</ele>
        <time>2022-05-25T12:53:17.000Z</time>
      </trkpt>
      <trkpt lat="44.554" lon="2.0779">
        <ele>180.6</ele>
        <time>2022-05-25T12:53:20.000Z</time>
      </trkpt>
      <trkpt lat="44.55391" lon="2.07804">
        <ele>181.2</ele>
        <time>2022-05-25T12:53:23.000Z</time>
      </trkpt>
      <trkpt lat="44.5538" lon="2.07824">
        <ele>181.6</ele>
        <time>2022-05-25T12:53:27.000Z</time>
      </trkpt>
      <trkpt lat="44.55376" lon="2.07838">
        <ele>181.6</ele>
        <time>2022-05-25T12:53:29.000Z</time>
      </trkpt>
      <trkpt lat="44.55369" lon="2.07873">
        <ele>182</ele>
        <time>2022-05-25T12:53:34.000Z</time>
      </trkpt>
      <trkpt lat="44.55363" lon="2.07913">
        <ele>181.8</ele>
        <time>2022-05-25T12:53:39.000Z</time>
      </trkpt>
      <trkpt lat="44.55363" lon="2.07922">
        <ele>181.6</ele>
        <time>2022-05-25T12:53:40.000Z</time>
      </trkpt>
      <trkpt lat="44.55364" lon="2.07931">
        <ele>181.6</ele>
        <time>2022-05-25T12:53:41.000Z</time>
      </trkpt>
      <trkpt lat="44.5537" lon="2.07955">
        <ele>180.6</ele>
        <time>2022-05-25T12:53:44.000Z</time>
      </trkpt>
      <trkpt lat="44.55372" lon="2.07962">
        <ele>180.6</ele>
        <time>2022-05-25T12:53:45.000Z</time>
      </trkpt>
      <trkpt lat="44.55378" lon="2.07983">
        <ele>180</ele>
        <time>2022-05-25T12:53:48.000Z</time>
      </trkpt>
      <trkpt lat="44.5538" lon="2.07989">
        <ele>180</ele>
        <time>2022-05-25T12:53:49.000Z</time>
      </trkpt>
      <trkpt lat="44.55381" lon="2.07997">
        <ele>179.8</ele>
        <time>2022-05-25T12:53:50.000Z</time>
      </trkpt>
      <trkpt lat="44.55384" lon="2.08022">
        <ele>179.4</ele>
        <time>2022-05-25T12:53:53.000Z</time>
      </trkpt>
      <trkpt lat="44.55386" lon="2.08041">
        <ele>179.2</ele>
        <time>2022-05-25T12:53:55.000Z</time>
      </trkpt>
      <trkpt lat="44.55386" lon="2.08069">
        <ele>178.8</ele>
        <time>2022-05-25T12:53:58.000Z</time>
      </trkpt>
      <trkpt lat="44.55386" lon="2.08076">
        <ele>178.8</ele>
        <time>2022-05-25T12:53:59.000Z</time>
      </trkpt>
      <trkpt lat="44.55389" lon="2.08148">
        <ele>178.6</ele>
        <time>2022-05-25T12:54:07.000Z</time>
      </trkpt>
      <trkpt lat="44.55392" lon="2.0821">
        <ele>179.6</ele>
        <time>2022-05-25T12:54:15.000Z</time>
      </trkpt>
      <trkpt lat="44.55392" lon="2.08225">
        <ele>180</ele>
        <time>2022-05-25T12:54:17.000Z</time>
      </trkpt>
      <trkpt lat="44.55392" lon="2.0826">
        <ele>180.6</ele>
        <time>2022-05-25T12:54:21.000Z</time>
      </trkpt>
      <trkpt lat="44.55392" lon="2.08325">
        <ele>180.8</ele>
        <time>2022-05-25T12:54:29.000Z</time>
      </trkpt>
      <trkpt lat="44.55388" lon="2.08378">
        <ele>181</ele>
        <time>2022-05-25T12:54:36.000Z</time>
      </trkpt>
      <trkpt lat="44.55386" lon="2.08393">
        <ele>181.2</ele>
        <time>2022-05-25T12:54:38.000Z</time>
      </trkpt>
      <trkpt lat="44.55384" lon="2.08409">
        <ele>181.2</ele>
        <time>2022-05-25T12:54:40.000Z</time>
      </trkpt>
      <trkpt lat="44.55379" lon="2.08431">
        <ele>181.4</ele>
        <time>2022-05-25T12:54:43.000Z</time>
      </trkpt>
      <trkpt lat="44.55378" lon="2.08439">
        <ele>181.4</ele>
        <time>2022-05-25T12:54:44.000Z</time>
      </trkpt>
      <trkpt lat="44.55374" lon="2.08477">
        <ele>181.8</ele>
        <time>2022-05-25T12:54:49.000Z</time>
      </trkpt>
      <trkpt lat="44.55372" lon="2.08509">
        <ele>181.8</ele>
        <time>2022-05-25T12:54:53.000Z</time>
      </trkpt>
      <trkpt lat="44.5537" lon="2.08517">
        <ele>181.8</ele>
        <time>2022-05-25T12:54:54.000Z</time>
      </trkpt>
      <trkpt lat="44.55366" lon="2.08534">
        <ele>182</ele>
        <time>2022-05-25T12:54:56.000Z</time>
      </trkpt>
      <trkpt lat="44.5536" lon="2.08557">
        <ele>182.2</ele>
        <time>2022-05-25T12:54:59.000Z</time>
      </trkpt>
      <trkpt lat="44.55358" lon="2.08565">
        <ele>182.2</ele>
        <time>2022-05-25T12:55:00.000Z</time>
      </trkpt>
      <trkpt lat="44.55354" lon="2.08582">
        <ele>182.2</ele>
        <time>2022-05-25T12:55:02.000Z</time>
      </trkpt>
      <trkpt lat="44.55348" lon="2.08598">
        <ele>182.4</ele>
        <time>2022-05-25T12:55:04.000Z</time>
      </trkpt>
      <trkpt lat="44.5534" lon="2.08611">
        <ele>183.2</ele>
        <time>2022-05-25T12:55:06.000Z</time>
      </trkpt>
      <trkpt lat="44.55336" lon="2.08616">
        <ele>183.4</ele>
        <time>2022-05-25T12:55:07.000Z</time>
      </trkpt>
      <trkpt lat="44.55334" lon="2.08624">
        <ele>183.4</ele>
        <time>2022-05-25T12:55:08.000Z</time>
      </trkpt>
      <trkpt lat="44.55327" lon="2.08636">
        <ele>183.8</ele>
        <time>2022-05-25T12:55:10.000Z</time>
      </trkpt>
      <trkpt lat="44.55324" lon="2.08649">
        <ele>183.8</ele>
        <time>2022-05-25T12:55:12.000Z</time>
      </trkpt>
      <trkpt lat="44.55323" lon="2.0866">
        <ele>183.8</ele>
        <time>2022-05-25T12:55:13.000Z</time>
      </trkpt>
      <trkpt lat="44.55315" lon="2.08692">
        <ele>184</ele>
        <time>2022-05-25T12:55:17.000Z</time>
      </trkpt>
      <trkpt lat="44.55314" lon="2.087">
        <ele>184</ele>
        <time>2022-05-25T12:55:18.000Z</time>
      </trkpt>
      <trkpt lat="44.55312" lon="2.0872">
        <ele>184</ele>
        <time>2022-05-25T12:55:20.000Z</time>
      </trkpt>
      <trkpt lat="44.55305" lon="2.08742">
        <ele>184</ele>
        <time>2022-05-25T12:55:23.000Z</time>
      </trkpt>
      <trkpt lat="44.55302" lon="2.08758">
        <ele>184.4</ele>
        <time>2022-05-25T12:55:25.000Z</time>
      </trkpt>
      <trkpt lat="44.55297" lon="2.08787">
        <ele>184.8</ele>
        <time>2022-05-25T12:55:29.000Z</time>
      </trkpt>
      <trkpt lat="44.55292" lon="2.08799">
        <ele>185</ele>
        <time>2022-05-25T12:55:31.000Z</time>
      </trkpt>
      <trkpt lat="44.55288" lon="2.08811">
        <ele>185</ele>
        <time>2022-05-25T12:55:33.000Z</time>
      </trkpt>
      <trkpt lat="44.55286" lon="2.08818">
        <ele>185</ele>
        <time>2022-05-25T12:55:34.000Z</time>
      </trkpt>
      <trkpt lat="44.55275" lon="2.0885">
        <ele>185</ele>
        <time>2022-05-25T12:55:39.000Z</time>
      </trkpt>
      <trkpt lat="44.55272" lon="2.08875">
        <ele>185</ele>
        <time>2022-05-25T12:55:42.000Z</time>
      </trkpt>
      <trkpt lat="44.55271" lon="2.08884">
        <ele>185.2</ele>
        <time>2022-05-25T12:55:43.000Z</time>
      </trkpt>
      <trkpt lat="44.5527" lon="2.08892">
        <ele>185.4</ele>
        <time>2022-05-25T12:55:44.000Z</time>
      </trkpt>
      <trkpt lat="44.55267" lon="2.089">
        <ele>185.6</ele>
        <time>2022-05-25T12:55:45.000Z</time>
      </trkpt>
      <trkpt lat="44.55262" lon="2.08914">
        <ele>185.6</ele>
        <time>2022-05-25T12:55:47.000Z</time>
      </trkpt>
      <trkpt lat="44.55257" lon="2.08929">
        <ele>185.8</ele>
        <time>2022-05-25T12:55:49.000Z</time>
      </trkpt>
      <trkpt lat="44.55255" lon="2.08936">
        <ele>186</ele>
        <time>2022-05-25T12:55:50.000Z</time>
      </trkpt>
      <trkpt lat="44.55249" lon="2.08951">
        <ele>186</ele>
        <time>2022-05-25T12:55:52.000Z</time>
      </trkpt>
      <trkpt lat="44.55244" lon="2.08965">
        <ele>186.2</ele>
        <time>2022-05-25T12:55:54.000Z</time>
      </trkpt>
      <trkpt lat="44.55243" lon="2.08972">
        <ele>186.4</ele>
        <time>2022-05-25T12:55:55.000Z</time>
      </trkpt>
      <trkpt lat="44.55238" lon="2.08986">
        <ele>186.4</ele>
        <time>2022-05-25T12:55:57.000Z</time>
      </trkpt>
      <trkpt lat="44.55235" lon="2.0901">
        <ele>186.6</ele>
        <time>2022-05-25T12:56:00.000Z</time>
      </trkpt>
      <trkpt lat="44.55234" lon="2.09017">
        <ele>187</ele>
        <time>2022-05-25T12:56:01.000Z</time>
      </trkpt>
      <trkpt lat="44.55236" lon="2.09035">
        <ele>187.6</ele>
        <time>2022-05-25T12:56:03.000Z</time>
      </trkpt>
      <trkpt lat="44.55233" lon="2.09067">
        <ele>187.8</ele>
        <time>2022-05-25T12:56:07.000Z</time>
      </trkpt>
      <trkpt lat="44.55232" lon="2.09076">
        <ele>187.8</ele>
        <time>2022-05-25T12:56:08.000Z</time>
      </trkpt>
      <trkpt lat="44.55226" lon="2.09096">
        <ele>187.8</ele>
        <time>2022-05-25T12:56:11.000Z</time>
      </trkpt>
      <trkpt lat="44.55224" lon="2.09113">
        <ele>187.4</ele>
        <time>2022-05-25T12:56:14.000Z</time>
      </trkpt>
      <trkpt lat="44.55226" lon="2.09126">
        <ele>187.4</ele>
        <time>2022-05-25T12:56:16.000Z</time>
      </trkpt>
      <trkpt lat="44.55228" lon="2.09161">
        <ele>188.2</ele>
        <time>2022-05-25T12:56:21.000Z</time>
      </trkpt>
      <trkpt lat="44.55228" lon="2.09168">
        <ele>188.4</ele>
        <time>2022-05-25T12:56:22.000Z</time>
      </trkpt>
      <trkpt lat="44.55229" lon="2.09175">
        <ele>188.6</ele>
        <time>2022-05-25T12:56:23.000Z</time>
      </trkpt>
      <trkpt lat="44.55227" lon="2.09195">
        <ele>189</ele>
        <time>2022-05-25T12:56:26.000Z</time>
      </trkpt>
      <trkpt lat="44.55224" lon="2.09253">
        <ele>189.2</ele>
        <time>2022-05-25T12:56:34.000Z</time>
      </trkpt>
      <trkpt lat="44.55221" lon="2.09269">
        <ele>189.4</ele>
        <time>2022-05-25T12:56:36.000Z</time>
      </trkpt>
      <trkpt lat="44.55219" lon="2.09276">
        <ele>189.4</ele>
        <time>2022-05-25T12:56:37.000Z</time>
      </trkpt>
      <trkpt lat="44.5521" lon="2.09302">
        <ele>189.8</ele>
        <time>2022-05-25T12:56:41.000Z</time>
      </trkpt>
      <trkpt lat="44.5521" lon="2.09319">
        <ele>190</ele>
        <time>2022-05-25T12:56:43.000Z</time>
      </trkpt>
      <trkpt lat="44.55211" lon="2.09356">
        <ele>190.6</ele>
        <time>2022-05-25T12:56:48.000Z</time>
      </trkpt>
      <trkpt lat="44.55212" lon="2.09373">
        <ele>190.6</ele>
        <time>2022-05-25T12:56:50.000Z</time>
      </trkpt>
      <trkpt lat="44.55212" lon="2.0938">
        <ele>190.8</ele>
        <time>2022-05-25T12:56:51.000Z</time>
      </trkpt>
      <trkpt lat="44.55207" lon="2.09414">
        <ele>191.2</ele>
        <time>2022-05-25T12:56:56.000Z</time>
      </trkpt>
      <trkpt lat="44.55204" lon="2.09437">
        <ele>191.4</ele>
        <time>2022-05-25T12:56:59.000Z</time>
      </trkpt>
      <trkpt lat="44.55199" lon="2.09458">
        <ele>191.6</ele>
        <time>2022-05-25T12:57:02.000Z</time>
      </trkpt>
      <trkpt lat="44.5519" lon="2.09472">
        <ele>191.8</ele>
        <time>2022-05-25T12:57:05.000Z</time>
      </trkpt>
      <trkpt lat="44.55184" lon="2.09474">
        <ele>192</ele>
        <time>2022-05-25T12:57:06.000Z</time>
      </trkpt>
      <trkpt lat="44.55179" lon="2.09474">
        <ele>192.4</ele>
        <time>2022-05-25T12:57:07.000Z</time>
      </trkpt>
      <trkpt lat="44.55174" lon="2.09474">
        <ele>192.6</ele>
        <time>2022-05-25T12:57:08.000Z</time>
      </trkpt>
      <trkpt lat="44.55169" lon="2.09472">
        <ele>192.8</ele>
        <time>2022-05-25T12:57:09.000Z</time>
      </trkpt>
      <trkpt lat="44.55164" lon="2.0947">
        <ele>192.8</ele>
        <time>2022-05-25T12:57:10.000Z</time>
      </trkpt>
      <trkpt lat="44.55134" lon="2.09458">
        <ele>193.4</ele>
        <time>2022-05-25T12:57:16.000Z</time>
      </trkpt>
      <trkpt lat="44.55122" lon="2.09456">
        <ele>193.6</ele>
        <time>2022-05-25T12:57:18.000Z</time>
      </trkpt>
      <trkpt lat="44.55118" lon="2.09457">
        <ele>193.8</ele>
        <time>2022-05-25T12:57:19.000Z</time>
      </trkpt>
      <trkpt lat="44.55107" lon="2.0946">
        <ele>194</ele>
        <time>2022-05-25T12:57:21.000Z</time>
      </trkpt>
      <trkpt lat="44.55101" lon="2.09462">
        <ele>194</ele>
        <time>2022-05-25T12:57:22.000Z</time>
      </trkpt>
      <trkpt lat="44.55097" lon="2.09467">
        <ele>194</ele>
        <time>2022-05-25T12:57:23.000Z</time>
      </trkpt>
      <trkpt lat="44.55089" lon="2.09477">
        <ele>194.2</ele>
        <time>2022-05-25T12:57:25.000Z</time>
      </trkpt>
      <trkpt lat="44.55086" lon="2.09484">
        <ele>194.4</ele>
        <time>2022-05-25T12:57:26.000Z</time>
      </trkpt>
      <trkpt lat="44.55072" lon="2.09506">
        <ele>194.4</ele>
        <time>2022-05-25T12:57:30.000Z</time>
      </trkpt>
      <trkpt lat="44.55066" lon="2.09519">
        <ele>194.4</ele>
        <time>2022-05-25T12:57:32.000Z</time>
      </trkpt>
      <trkpt lat="44.55058" lon="2.09537">
        <ele>194.4</ele>
        <time>2022-05-25T12:57:35.000Z</time>
      </trkpt>
      <trkpt lat="44.55053" lon="2.0955">
        <ele>194.4</ele>
        <time>2022-05-25T12:57:37.000Z</time>
      </trkpt>
      <trkpt lat="44.55051" lon="2.09556">
        <ele>194.4</ele>
        <time>2022-05-25T12:57:38.000Z</time>
      </trkpt>
      <trkpt lat="44.5504" lon="2.09582">
        <ele>194.2</ele>
        <time>2022-05-25T12:57:42.000Z</time>
      </trkpt>
      <trkpt lat="44.55033" lon="2.09594">
        <ele>194.2</ele>
        <time>2022-05-25T12:57:44.000Z</time>
      </trkpt>
      <trkpt lat="44.55026" lon="2.09604">
        <ele>194</ele>
        <time>2022-05-25T12:57:46.000Z</time>
      </trkpt>
      <trkpt lat="44.5501" lon="2.09623">
        <ele>194.4</ele>
        <time>2022-05-25T12:57:50.000Z</time>
      </trkpt>
      <trkpt lat="44.55005" lon="2.09623">
        <ele>194.6</ele>
        <time>2022-05-25T12:57:51.000Z</time>
      </trkpt>
      <trkpt lat="44.54999" lon="2.09622">
        <ele>194.8</ele>
        <time>2022-05-25T12:57:52.000Z</time>
      </trkpt>
      <trkpt lat="44.54991" lon="2.09617">
        <ele>195</ele>
        <time>2022-05-25T12:57:54.000Z</time>
      </trkpt>
      <trkpt lat="44.54981" lon="2.09615">
        <ele>195</ele>
        <time>2022-05-25T12:57:56.000Z</time>
      </trkpt>
      <trkpt lat="44.5497" lon="2.09612">
        <ele>195.2</ele>
        <time>2022-05-25T12:57:58.000Z</time>
      </trkpt>
      <trkpt lat="44.54965" lon="2.0961">
        <ele>195.4</ele>
        <time>2022-05-25T12:57:59.000Z</time>
      </trkpt>
      <trkpt lat="44.5496" lon="2.09609">
        <ele>195.4</ele>
        <time>2022-05-25T12:58:00.000Z</time>
      </trkpt>
      <trkpt lat="44.54949" lon="2.09607">
        <ele>195.4</ele>
        <time>2022-05-25T12:58:02.000Z</time>
      </trkpt>
      <trkpt lat="44.54944" lon="2.09607">
        <ele>195.6</ele>
        <time>2022-05-25T12:58:03.000Z</time>
      </trkpt>
      <trkpt lat="44.54922" lon="2.09605">
        <ele>196</ele>
        <time>2022-05-25T12:58:07.000Z</time>
      </trkpt>
      <trkpt lat="44.54916" lon="2.09605">
        <ele>196</ele>
        <time>2022-05-25T12:58:08.000Z</time>
      </trkpt>
      <trkpt lat="44.54911" lon="2.09604">
        <ele>196</ele>
        <time>2022-05-25T12:58:09.000Z</time>
      </trkpt>
      <trkpt lat="44.54898" lon="2.09602">
        <ele>196</ele>
        <time>2022-05-25T12:58:11.000Z</time>
      </trkpt>
      <trkpt lat="44.54881" lon="2.09596">
        <ele>196.2</ele>
        <time>2022-05-25T12:58:14.000Z</time>
      </trkpt>
      <trkpt lat="44.5487" lon="2.09593">
        <ele>196.4</ele>
        <time>2022-05-25T12:58:16.000Z</time>
      </trkpt>
      <trkpt lat="44.54864" lon="2.09591">
        <ele>196.6</ele>
        <time>2022-05-25T12:58:17.000Z</time>
      </trkpt>
      <trkpt lat="44.54853" lon="2.09587">
        <ele>196.6</ele>
        <time>2022-05-25T12:58:19.000Z</time>
      </trkpt>
      <trkpt lat="44.54848" lon="2.09585">
        <ele>196.6</ele>
        <time>2022-05-25T12:58:20.000Z</time>
      </trkpt>
      <trkpt lat="44.54838" lon="2.09582">
        <ele>197</ele>
        <time>2022-05-25T12:58:22.000Z</time>
      </trkpt>
      <trkpt lat="44.54828" lon="2.09577">
        <ele>197.2</ele>
        <time>2022-05-25T12:58:24.000Z</time>
      </trkpt>
      <trkpt lat="44.54823" lon="2.09574">
        <ele>197.2</ele>
        <time>2022-05-25T12:58:25.000Z</time>
      </trkpt>
      <trkpt lat="44.54818" lon="2.09571">
        <ele>197.2</ele>
        <time>2022-05-25T12:58:26.000Z</time>
      </trkpt>
      <trkpt lat="44.54809" lon="2.09562">
        <ele>197.2</ele>
        <time>2022-05-25T12:58:28.000Z</time>
      </trkpt>
      <trkpt lat="44.54806" lon="2.09556">
        <ele>197.2</ele>
        <time>2022-05-25T12:58:29.000Z</time>
      </trkpt>
      <trkpt lat="44.54799" lon="2.09544">
        <ele>197.2</ele>
        <time>2022-05-25T12:58:31.000Z</time>
      </trkpt>
      <trkpt lat="44.54792" lon="2.09524">
        <ele>197</ele>
        <time>2022-05-25T12:58:34.000Z</time>
      </trkpt>
      <trkpt lat="44.54775" lon="2.09494">
        <ele>197.4</ele>
        <time>2022-05-25T12:58:39.000Z</time>
      </trkpt>
      <trkpt lat="44.5477" lon="2.0949">
        <ele>197.4</ele>
        <time>2022-05-25T12:58:40.000Z</time>
      </trkpt>
      <trkpt lat="44.54762" lon="2.09483">
        <ele>197.6</ele>
        <time>2022-05-25T12:58:42.000Z</time>
      </trkpt>
      <trkpt lat="44.54752" lon="2.09477">
        <ele>197.6</ele>
        <time>2022-05-25T12:58:44.000Z</time>
      </trkpt>
      <trkpt lat="44.54742" lon="2.09473">
        <ele>197.8</ele>
        <time>2022-05-25T12:58:46.000Z</time>
      </trkpt>
      <trkpt lat="44.54736" lon="2.09472">
        <ele>197.8</ele>
        <time>2022-05-25T12:58:47.000Z</time>
      </trkpt>
      <trkpt lat="44.54715" lon="2.0947">
        <ele>198</ele>
        <time>2022-05-25T12:58:51.000Z</time>
      </trkpt>
      <trkpt lat="44.54705" lon="2.09473">
        <ele>198.4</ele>
        <time>2022-05-25T12:58:53.000Z</time>
      </trkpt>
      <trkpt lat="44.54693" lon="2.09474">
        <ele>198.6</ele>
        <time>2022-05-25T12:58:55.000Z</time>
      </trkpt>
      <trkpt lat="44.54688" lon="2.09474">
        <ele>198.4</ele>
        <time>2022-05-25T12:58:56.000Z</time>
      </trkpt>
      <trkpt lat="44.54663" lon="2.09479">
        <ele>198.6</ele>
        <time>2022-05-25T12:59:01.000Z</time>
      </trkpt>
      <trkpt lat="44.54652" lon="2.09481">
        <ele>198.8</ele>
        <time>2022-05-25T12:59:03.000Z</time>
      </trkpt>
      <trkpt lat="44.54623" lon="2.09491">
        <ele>199.2</ele>
        <time>2022-05-25T12:59:09.000Z</time>
      </trkpt>
      <trkpt lat="44.54607" lon="2.0949">
        <ele>199.4</ele>
        <time>2022-05-25T12:59:12.000Z</time>
      </trkpt>
      <trkpt lat="44.54596" lon="2.09489">
        <ele>199.6</ele>
        <time>2022-05-25T12:59:14.000Z</time>
      </trkpt>
      <trkpt lat="44.54584" lon="2.09488">
        <ele>199.6</ele>
        <time>2022-05-25T12:59:16.000Z</time>
      </trkpt>
      <trkpt lat="44.54578" lon="2.09487">
        <ele>199.6</ele>
        <time>2022-05-25T12:59:17.000Z</time>
      </trkpt>
      <trkpt lat="44.54568" lon="2.09485">
        <ele>199.8</ele>
        <time>2022-05-25T12:59:19.000Z</time>
      </trkpt>
      <trkpt lat="44.54559" lon="2.09485">
        <ele>199.6</ele>
        <time>2022-05-25T12:59:21.000Z</time>
      </trkpt>
      <trkpt lat="44.54553" lon="2.09485">
        <ele>199.4</ele>
        <time>2022-05-25T12:59:22.000Z</time>
      </trkpt>
      <trkpt lat="44.54536" lon="2.09486">
        <ele>199.6</ele>
        <time>2022-05-25T12:59:25.000Z</time>
      </trkpt>
      <trkpt lat="44.54531" lon="2.09487">
        <ele>199.6</ele>
        <time>2022-05-25T12:59:26.000Z</time>
      </trkpt>
      <trkpt lat="44.54505" lon="2.09501">
        <ele>199.4</ele>
        <time>2022-05-25T12:59:31.000Z</time>
      </trkpt>
      <trkpt lat="44.545" lon="2.09505">
        <ele>199.4</ele>
        <time>2022-05-25T12:59:32.000Z</time>
      </trkpt>
      <trkpt lat="44.54455" lon="2.09543">
        <ele>198.8</ele>
        <time>2022-05-25T12:59:41.000Z</time>
      </trkpt>
      <trkpt lat="44.5444" lon="2.09552">
        <ele>198.6</ele>
        <time>2022-05-25T12:59:44.000Z</time>
      </trkpt>
      <trkpt lat="44.54427" lon="2.09554">
        <ele>198.6</ele>
        <time>2022-05-25T12:59:46.000Z</time>
      </trkpt>
      <trkpt lat="44.54422" lon="2.09552">
        <ele>198.6</ele>
        <time>2022-05-25T12:59:47.000Z</time>
      </trkpt>
      <trkpt lat="44.54405" lon="2.09545">
        <ele>198.6</ele>
        <time>2022-05-25T12:59:50.000Z</time>
      </trkpt>
      <trkpt lat="44.54386" lon="2.09533">
        <ele>198.4</ele>
        <time>2022-05-25T12:59:54.000Z</time>
      </trkpt>
      <trkpt lat="44.54382" lon="2.09529">
        <ele>198.6</ele>
        <time>2022-05-25T12:59:55.000Z</time>
      </trkpt>
      <trkpt lat="44.54379" lon="2.09523">
        <ele>198.6</ele>
        <time>2022-05-25T12:59:56.000Z</time>
      </trkpt>
      <trkpt lat="44.54376" lon="2.09508">
        <ele>198.6</ele>
        <time>2022-05-25T12:59:58.000Z</time>
      </trkpt>
      <trkpt lat="44.54373" lon="2.09488">
        <ele>198.4</ele>
        <time>2022-05-25T13:00:01.000Z</time>
      </trkpt>
      <trkpt lat="44.5437" lon="2.09476">
        <ele>198.4</ele>
        <time>2022-05-25T13:00:03.000Z</time>
      </trkpt>
      <trkpt lat="44.54367" lon="2.0947">
        <ele>198.6</ele>
        <time>2022-05-25T13:00:04.000Z</time>
      </trkpt>
      <trkpt lat="44.54361" lon="2.09456">
        <ele>198.6</ele>
        <time>2022-05-25T13:00:06.000Z</time>
      </trkpt>
      <trkpt lat="44.54358" lon="2.0945">
        <ele>198.4</ele>
        <time>2022-05-25T13:00:07.000Z</time>
      </trkpt>
      <trkpt lat="44.54353" lon="2.09443">
        <ele>198.2</ele>
        <time>2022-05-25T13:00:08.000Z</time>
      </trkpt>
      <trkpt lat="44.54339" lon="2.09431">
        <ele>198.2</ele>
        <time>2022-05-25T13:00:11.000Z</time>
      </trkpt>
      <trkpt lat="44.54327" lon="2.09427">
        <ele>198</ele>
        <time>2022-05-25T13:00:13.000Z</time>
      </trkpt>
      <trkpt lat="44.54316" lon="2.09427">
        <ele>197.8</ele>
        <time>2022-05-25T13:00:15.000Z</time>
      </trkpt>
      <trkpt lat="44.54291" lon="2.09431">
        <ele>197.6</ele>
        <time>2022-05-25T13:00:20.000Z</time>
      </trkpt>
      <trkpt lat="44.54281" lon="2.09436">
        <ele>197.8</ele>
        <time>2022-05-25T13:00:22.000Z</time>
      </trkpt>
      <trkpt lat="44.54264" lon="2.09441">
        <ele>198</ele>
        <time>2022-05-25T13:00:25.000Z</time>
      </trkpt>
      <trkpt lat="44.54258" lon="2.09446">
        <ele>198.2</ele>
        <time>2022-05-25T13:00:26.000Z</time>
      </trkpt>
      <trkpt lat="44.54247" lon="2.09454">
        <ele>198.2</ele>
        <time>2022-05-25T13:00:28.000Z</time>
      </trkpt>
      <trkpt lat="44.54238" lon="2.0946">
        <ele>198.4</ele>
        <time>2022-05-25T13:00:30.000Z</time>
      </trkpt>
      <trkpt lat="44.54222" lon="2.09467">
        <ele>198.4</ele>
        <time>2022-05-25T13:00:33.000Z</time>
      </trkpt>
      <trkpt lat="44.54205" lon="2.09484">
        <ele>198.4</ele>
        <time>2022-05-25T13:00:37.000Z</time>
      </trkpt>
      <trkpt lat="44.542" lon="2.09488">
        <ele>198.4</ele>
        <time>2022-05-25T13:00:38.000Z</time>
      </trkpt>
      <trkpt lat="44.54191" lon="2.09497">
        <ele>198.6</ele>
        <time>2022-05-25T13:00:40.000Z</time>
      </trkpt>
      <trkpt lat="44.54186" lon="2.09501">
        <ele>198.6</ele>
        <time>2022-05-25T13:00:41.000Z</time>
      </trkpt>
      <trkpt lat="44.54182" lon="2.09504">
        <ele>198.6</ele>
        <time>2022-05-25T13:00:42.000Z</time>
      </trkpt>
      <trkpt lat="44.54175" lon="2.09511">
        <ele>198.6</ele>
        <time>2022-05-25T13:00:44.000Z</time>
      </trkpt>
      <trkpt lat="44.54172" lon="2.0952">
        <ele>198.6</ele>
        <time>2022-05-25T13:00:45.000Z</time>
      </trkpt>
      <trkpt lat="44.5417" lon="2.09535">
        <ele>198.8</ele>
        <time>2022-05-25T13:00:47.000Z</time>
      </trkpt>
      <trkpt lat="44.54166" lon="2.09558">
        <ele>198.8</ele>
        <time>2022-05-25T13:00:50.000Z</time>
      </trkpt>
      <trkpt lat="44.54164" lon="2.09567">
        <ele>198.8</ele>
        <time>2022-05-25T13:00:51.000Z</time>
      </trkpt>
      <trkpt lat="44.54158" lon="2.09581">
        <ele>199</ele>
        <time>2022-05-25T13:00:53.000Z</time>
      </trkpt>
      <trkpt lat="44.54155" lon="2.09587">
        <ele>199</ele>
        <time>2022-05-25T13:00:54.000Z</time>
      </trkpt>
      <trkpt lat="44.54152" lon="2.09594">
        <ele>199.2</ele>
        <time>2022-05-25T13:00:55.000Z</time>
      </trkpt>
      <trkpt lat="44.54148" lon="2.09618">
        <ele>199.8</ele>
        <time>2022-05-25T13:00:58.000Z</time>
      </trkpt>
      <trkpt lat="44.54139" lon="2.0964">
        <ele>200.2</ele>
        <time>2022-05-25T13:01:02.000Z</time>
      </trkpt>
      <trkpt lat="44.54134" lon="2.09646">
        <ele>200.4</ele>
        <time>2022-05-25T13:01:03.000Z</time>
      </trkpt>
      <trkpt lat="44.54131" lon="2.09652">
        <ele>200.6</ele>
        <time>2022-05-25T13:01:04.000Z</time>
      </trkpt>
      <trkpt lat="44.54127" lon="2.09657">
        <ele>200.8</ele>
        <time>2022-05-25T13:01:05.000Z</time>
      </trkpt>
      <trkpt lat="44.54124" lon="2.09663">
        <ele>201</ele>
        <time>2022-05-25T13:01:06.000Z</time>
      </trkpt>
      <trkpt lat="44.54121" lon="2.09669">
        <ele>201.2</ele>
        <time>2022-05-25T13:01:07.000Z</time>
      </trkpt>
      <trkpt lat="44.54107" lon="2.09686">
        <ele>201.4</ele>
        <time>2022-05-25T13:01:11.000Z</time>
      </trkpt>
      <trkpt lat="44.54098" lon="2.09692">
        <ele>201.8</ele>
        <time>2022-05-25T13:01:13.000Z</time>
      </trkpt>
      <trkpt lat="44.54079" lon="2.097">
        <ele>202.2</ele>
        <time>2022-05-25T13:01:17.000Z</time>
      </trkpt>
      <trkpt lat="44.54069" lon="2.09704">
        <ele>202.4</ele>
        <time>2022-05-25T13:01:19.000Z</time>
      </trkpt>
      <trkpt lat="44.54053" lon="2.09708">
        <ele>202.6</ele>
        <time>2022-05-25T13:01:22.000Z</time>
      </trkpt>
      <trkpt lat="44.54048" lon="2.09708">
        <ele>202.6</ele>
        <time>2022-05-25T13:01:23.000Z</time>
      </trkpt>
      <trkpt lat="44.54028" lon="2.09711">
        <ele>202.6</ele>
        <time>2022-05-25T13:01:27.000Z</time>
      </trkpt>
      <trkpt lat="44.54022" lon="2.09711">
        <ele>202.8</ele>
        <time>2022-05-25T13:01:28.000Z</time>
      </trkpt>
      <trkpt lat="44.54014" lon="2.0971">
        <ele>202.8</ele>
        <time>2022-05-25T13:01:30.000Z</time>
      </trkpt>
      <trkpt lat="44.54" lon="2.09709">
        <ele>202.8</ele>
        <time>2022-05-25T13:01:33.000Z</time>
      </trkpt>
      <trkpt lat="44.53978" lon="2.09702">
        <ele>203</ele>
        <time>2022-05-25T13:01:38.000Z</time>
      </trkpt>
      <trkpt lat="44.53973" lon="2.09699">
        <ele>202.8</ele>
        <time>2022-05-25T13:01:39.000Z</time>
      </trkpt>
      <trkpt lat="44.53966" lon="2.09691">
        <ele>202.8</ele>
        <time>2022-05-25T13:01:41.000Z</time>
      </trkpt>
      <trkpt lat="44.53955" lon="2.09677">
        <ele>202.8</ele>
        <time>2022-05-25T13:01:44.000Z</time>
      </trkpt>
      <trkpt lat="44.53946" lon="2.0966">
        <ele>203</ele>
        <time>2022-05-25T13:01:47.000Z</time>
      </trkpt>
      <trkpt lat="44.53943" lon="2.0965">
        <ele>203</ele>
        <time>2022-05-25T13:01:49.000Z</time>
      </trkpt>
      <trkpt lat="44.53941" lon="2.09642">
        <ele>203.2</ele>
        <time>2022-05-25T13:01:50.000Z</time>
      </trkpt>
      <trkpt lat="44.53939" lon="2.09635">
        <ele>203.2</ele>
        <time>2022-05-25T13:01:51.000Z</time>
      </trkpt>
      <trkpt lat="44.5394" lon="2.09612">
        <ele>203</ele>
        <time>2022-05-25T13:01:54.000Z</time>
      </trkpt>
      <trkpt lat="44.53943" lon="2.09596">
        <ele>202.8</ele>
        <time>2022-05-25T13:01:56.000Z</time>
      </trkpt>
      <trkpt lat="44.53949" lon="2.09574">
        <ele>202.6</ele>
        <time>2022-05-25T13:01:59.000Z</time>
      </trkpt>
      <trkpt lat="44.53952" lon="2.09526">
        <ele>202.4</ele>
        <time>2022-05-25T13:02:05.000Z</time>
      </trkpt>
      <trkpt lat="44.53953" lon="2.09504">
        <ele>203</ele>
        <time>2022-05-25T13:02:08.000Z</time>
      </trkpt>
      <trkpt lat="44.53955" lon="2.09487">
        <ele>203.6</ele>
        <time>2022-05-25T13:02:10.000Z</time>
      </trkpt>
      <trkpt lat="44.53959" lon="2.09473">
        <ele>204.2</ele>
        <time>2022-05-25T13:02:12.000Z</time>
      </trkpt>
      <trkpt lat="44.53967" lon="2.09462">
        <ele>204.4</ele>
        <time>2022-05-25T13:02:14.000Z</time>
      </trkpt>
      <trkpt lat="44.53976" lon="2.09453">
        <ele>204.4</ele>
        <time>2022-05-25T13:02:16.000Z</time>
      </trkpt>
      <trkpt lat="44.53982" lon="2.09442">
        <ele>204.4</ele>
        <time>2022-05-25T13:02:18.000Z</time>
      </trkpt>
      <trkpt lat="44.53988" lon="2.0942">
        <ele>204</ele>
        <time>2022-05-25T13:02:21.000Z</time>
      </trkpt>
      <trkpt lat="44.53991" lon="2.09403">
        <ele>204</ele>
        <time>2022-05-25T13:02:23.000Z</time>
      </trkpt>
      <trkpt lat="44.53991" lon="2.09387">
        <ele>204</ele>
        <time>2022-05-25T13:02:25.000Z</time>
      </trkpt>
      <trkpt lat="44.53988" lon="2.09363">
        <ele>203.8</ele>
        <time>2022-05-25T13:02:28.000Z</time>
      </trkpt>
      <trkpt lat="44.53982" lon="2.0934">
        <ele>203.8</ele>
        <time>2022-05-25T13:02:31.000Z</time>
      </trkpt>
      <trkpt lat="44.53975" lon="2.09326">
        <ele>203.8</ele>
        <time>2022-05-25T13:02:33.000Z</time>
      </trkpt>
      <trkpt lat="44.53972" lon="2.0932">
        <ele>203.8</ele>
        <time>2022-05-25T13:02:34.000Z</time>
      </trkpt>
      <trkpt lat="44.53956" lon="2.09302">
        <ele>203.8</ele>
        <time>2022-05-25T13:02:38.000Z</time>
      </trkpt>
      <trkpt lat="44.5393" lon="2.09277">
        <ele>204.2</ele>
        <time>2022-05-25T13:02:44.000Z</time>
      </trkpt>
      <trkpt lat="44.5392" lon="2.0927">
        <ele>204.4</ele>
        <time>2022-05-25T13:02:46.000Z</time>
      </trkpt>
      <trkpt lat="44.53905" lon="2.09264">
        <ele>204.6</ele>
        <time>2022-05-25T13:02:49.000Z</time>
      </trkpt>
      <trkpt lat="44.539" lon="2.09263">
        <ele>204.6</ele>
        <time>2022-05-25T13:02:50.000Z</time>
      </trkpt>
      <trkpt lat="44.53879" lon="2.0926">
        <ele>205</ele>
        <time>2022-05-25T13:02:54.000Z</time>
      </trkpt>
      <trkpt lat="44.53868" lon="2.09261">
        <ele>205</ele>
        <time>2022-05-25T13:02:56.000Z</time>
      </trkpt>
      <trkpt lat="44.53864" lon="2.09262">
        <ele>205</ele>
        <time>2022-05-25T13:02:57.000Z</time>
      </trkpt>
      <trkpt lat="44.53852" lon="2.09264">
        <ele>205</ele>
        <time>2022-05-25T13:02:59.000Z</time>
      </trkpt>
      <trkpt lat="44.53834" lon="2.09274">
        <ele>205.2</ele>
        <time>2022-05-25T13:03:03.000Z</time>
      </trkpt>
      <trkpt lat="44.53811" lon="2.09289">
        <ele>205.8</ele>
        <time>2022-05-25T13:03:08.000Z</time>
      </trkpt>
      <trkpt lat="44.53807" lon="2.09292">
        <ele>205.8</ele>
        <time>2022-05-25T13:03:09.000Z</time>
      </trkpt>
      <trkpt lat="44.53803" lon="2.09294">
        <ele>205.8</ele>
        <time>2022-05-25T13:03:10.000Z</time>
      </trkpt>
      <trkpt lat="44.53789" lon="2.093">
        <ele>206.4</ele>
        <time>2022-05-25T13:03:13.000Z</time>
      </trkpt>
      <trkpt lat="44.53781" lon="2.09299">
        <ele>206.8</ele>
        <time>2022-05-25T13:03:15.000Z</time>
      </trkpt>
      <trkpt lat="44.53774" lon="2.09293">
        <ele>207</ele>
        <time>2022-05-25T13:03:17.000Z</time>
      </trkpt>
      <trkpt lat="44.53771" lon="2.09288">
        <ele>207.2</ele>
        <time>2022-05-25T13:03:18.000Z</time>
      </trkpt>
      <trkpt lat="44.53754" lon="2.09255">
        <ele>207.8</ele>
        <time>2022-05-25T13:03:24.000Z</time>
      </trkpt>
      <trkpt lat="44.5375" lon="2.09251">
        <ele>207.8</ele>
        <time>2022-05-25T13:03:25.000Z</time>
      </trkpt>
      <trkpt lat="44.53744" lon="2.09247">
        <ele>207.8</ele>
        <time>2022-05-25T13:03:26.000Z</time>
      </trkpt>
      <trkpt lat="44.53732" lon="2.09246">
        <ele>207.8</ele>
        <time>2022-05-25T13:03:28.000Z</time>
      </trkpt>
      <trkpt lat="44.53697" lon="2.09256">
        <ele>207.6</ele>
        <time>2022-05-25T13:03:34.000Z</time>
      </trkpt>
      <trkpt lat="44.53686" lon="2.09259">
        <ele>207.4</ele>
        <time>2022-05-25T13:03:36.000Z</time>
      </trkpt>
      <trkpt lat="44.53666" lon="2.09265">
        <ele>207</ele>
        <time>2022-05-25T13:03:40.000Z</time>
      </trkpt>
      <trkpt lat="44.53641" lon="2.09273">
        <ele>206.8</ele>
        <time>2022-05-25T13:03:45.000Z</time>
      </trkpt>
      <trkpt lat="44.53621" lon="2.09279">
        <ele>206.4</ele>
        <time>2022-05-25T13:03:49.000Z</time>
      </trkpt>
      <trkpt lat="44.53591" lon="2.09288">
        <ele>206.6</ele>
        <time>2022-05-25T13:03:55.000Z</time>
      </trkpt>
      <trkpt lat="44.53586" lon="2.0929">
        <ele>206.8</ele>
        <time>2022-05-25T13:03:56.000Z</time>
      </trkpt>
      <trkpt lat="44.53581" lon="2.09292">
        <ele>207</ele>
        <time>2022-05-25T13:03:57.000Z</time>
      </trkpt>
      <trkpt lat="44.53567" lon="2.09297">
        <ele>207.2</ele>
        <time>2022-05-25T13:04:00.000Z</time>
      </trkpt>
      <trkpt lat="44.53562" lon="2.093">
        <ele>207.4</ele>
        <time>2022-05-25T13:04:01.000Z</time>
      </trkpt>
      <trkpt lat="44.53524" lon="2.09317">
        <ele>207.4</ele>
        <time>2022-05-25T13:04:08.000Z</time>
      </trkpt>
      <trkpt lat="44.53485" lon="2.09327">
        <ele>207.4</ele>
        <time>2022-05-25T13:04:15.000Z</time>
      </trkpt>
      <trkpt lat="44.53448" lon="2.09331">
        <ele>207</ele>
        <time>2022-05-25T13:04:22.000Z</time>
      </trkpt>
      <trkpt lat="44.53416" lon="2.0933">
        <ele>207.6</ele>
        <time>2022-05-25T13:04:28.000Z</time>
      </trkpt>
      <trkpt lat="44.53411" lon="2.0933">
        <ele>207.8</ele>
        <time>2022-05-25T13:04:29.000Z</time>
      </trkpt>
      <trkpt lat="44.53391" lon="2.09327">
        <ele>208.4</ele>
        <time>2022-05-25T13:04:33.000Z</time>
      </trkpt>
      <trkpt lat="44.53381" lon="2.09328">
        <ele>208.8</ele>
        <time>2022-05-25T13:04:35.000Z</time>
      </trkpt>
      <trkpt lat="44.53375" lon="2.09328">
        <ele>209</ele>
        <time>2022-05-25T13:04:36.000Z</time>
      </trkpt>
      <trkpt lat="44.53353" lon="2.09327">
        <ele>209.2</ele>
        <time>2022-05-25T13:04:40.000Z</time>
      </trkpt>
      <trkpt lat="44.53348" lon="2.09327">
        <ele>209.2</ele>
        <time>2022-05-25T13:04:41.000Z</time>
      </trkpt>
      <trkpt lat="44.53332" lon="2.09327">
        <ele>209.2</ele>
        <time>2022-05-25T13:04:44.000Z</time>
      </trkpt>
      <trkpt lat="44.53315" lon="2.09326">
        <ele>209.4</ele>
        <time>2022-05-25T13:04:47.000Z</time>
      </trkpt>
      <trkpt lat="44.53287" lon="2.09325">
        <ele>209.8</ele>
        <time>2022-05-25T13:04:52.000Z</time>
      </trkpt>
      <trkpt lat="44.53281" lon="2.09325">
        <ele>210</ele>
        <time>2022-05-25T13:04:53.000Z</time>
      </trkpt>
      <trkpt lat="44.5327" lon="2.09326">
        <ele>210</ele>
        <time>2022-05-25T13:04:55.000Z</time>
      </trkpt>
      <trkpt lat="44.53245" lon="2.0933">
        <ele>210</ele>
        <time>2022-05-25T13:04:59.000Z</time>
      </trkpt>
      <trkpt lat="44.53239" lon="2.09333">
        <ele>209.8</ele>
        <time>2022-05-25T13:05:00.000Z</time>
      </trkpt>
      <trkpt lat="44.53209" lon="2.09352">
        <ele>209.6</ele>
        <time>2022-05-25T13:05:05.000Z</time>
      </trkpt>
      <trkpt lat="44.53202" lon="2.09354">
        <ele>209.4</ele>
        <time>2022-05-25T13:05:06.000Z</time>
      </trkpt>
      <trkpt lat="44.53196" lon="2.09355">
        <ele>209</ele>
        <time>2022-05-25T13:05:07.000Z</time>
      </trkpt>
      <trkpt lat="44.5319" lon="2.09356">
        <ele>208.6</ele>
        <time>2022-05-25T13:05:08.000Z</time>
      </trkpt>
      <trkpt lat="44.53178" lon="2.09354">
        <ele>208.6</ele>
        <time>2022-05-25T13:05:10.000Z</time>
      </trkpt>
      <trkpt lat="44.53152" lon="2.09342">
        <ele>208.4</ele>
        <time>2022-05-25T13:05:15.000Z</time>
      </trkpt>
      <trkpt lat="44.53147" lon="2.09341">
        <ele>208.6</ele>
        <time>2022-05-25T13:05:16.000Z</time>
      </trkpt>
      <trkpt lat="44.53123" lon="2.09336">
        <ele>209.8</ele>
        <time>2022-05-25T13:05:21.000Z</time>
      </trkpt>
      <trkpt lat="44.53118" lon="2.09336">
        <ele>209.8</ele>
        <time>2022-05-25T13:05:22.000Z</time>
      </trkpt>
      <trkpt lat="44.53086" lon="2.09335">
        <ele>211</ele>
        <time>2022-05-25T13:05:29.000Z</time>
      </trkpt>
      <trkpt lat="44.53081" lon="2.09335">
        <ele>211.4</ele>
        <time>2022-05-25T13:05:30.000Z</time>
      </trkpt>
      <trkpt lat="44.53058" lon="2.09337">
        <ele>211.6</ele>
        <time>2022-05-25T13:05:34.000Z</time>
      </trkpt>
      <trkpt lat="44.53021" lon="2.09345">
        <ele>211.2</ele>
        <time>2022-05-25T13:05:41.000Z</time>
      </trkpt>
      <trkpt lat="44.5298" lon="2.09353">
        <ele>211.4</ele>
        <time>2022-05-25T13:05:49.000Z</time>
      </trkpt>
      <trkpt lat="44.52942" lon="2.09363">
        <ele>211.8</ele>
        <time>2022-05-25T13:05:57.000Z</time>
      </trkpt>
      <trkpt lat="44.52933" lon="2.09365">
        <ele>212</ele>
        <time>2022-05-25T13:05:59.000Z</time>
      </trkpt>
      <trkpt lat="44.52929" lon="2.09367">
        <ele>212.2</ele>
        <time>2022-05-25T13:06:00.000Z</time>
      </trkpt>
      <trkpt lat="44.52921" lon="2.09371">
        <ele>212.4</ele>
        <time>2022-05-25T13:06:02.000Z</time>
      </trkpt>
      <trkpt lat="44.52916" lon="2.09374">
        <ele>212.4</ele>
        <time>2022-05-25T13:06:03.000Z</time>
      </trkpt>
      <trkpt lat="44.529" lon="2.09388">
        <ele>213.2</ele>
        <time>2022-05-25T13:06:07.000Z</time>
      </trkpt>
      <trkpt lat="44.52887" lon="2.09401">
        <ele>213.6</ele>
        <time>2022-05-25T13:06:10.000Z</time>
      </trkpt>
      <trkpt lat="44.52852" lon="2.0943">
        <ele>212.6</ele>
        <time>2022-05-25T13:06:17.000Z</time>
      </trkpt>
      <trkpt lat="44.52846" lon="2.09432">
        <ele>212.6</ele>
        <time>2022-05-25T13:06:18.000Z</time>
      </trkpt>
      <trkpt lat="44.52824" lon="2.09437">
        <ele>212.2</ele>
        <time>2022-05-25T13:06:22.000Z</time>
      </trkpt>
      <trkpt lat="44.52819" lon="2.09437">
        <ele>212</ele>
        <time>2022-05-25T13:06:23.000Z</time>
      </trkpt>
      <trkpt lat="44.52814" lon="2.09437">
        <ele>212</ele>
        <time>2022-05-25T13:06:24.000Z</time>
      </trkpt>
      <trkpt lat="44.5279" lon="2.09438">
        <ele>212.4</ele>
        <time>2022-05-25T13:06:29.000Z</time>
      </trkpt>
      <trkpt lat="44.52785" lon="2.09438">
        <ele>212.6</ele>
        <time>2022-05-25T13:06:30.000Z</time>
      </trkpt>
      <trkpt lat="44.52759" lon="2.09441">
        <ele>213</ele>
        <time>2022-05-25T13:06:35.000Z</time>
      </trkpt>
      <trkpt lat="44.52754" lon="2.09443">
        <ele>213.2</ele>
        <time>2022-05-25T13:06:36.000Z</time>
      </trkpt>
      <trkpt lat="44.5275" lon="2.09445">
        <ele>213.2</ele>
        <time>2022-05-25T13:06:37.000Z</time>
      </trkpt>
      <trkpt lat="44.52736" lon="2.09454">
        <ele>213.4</ele>
        <time>2022-05-25T13:06:40.000Z</time>
      </trkpt>
      <trkpt lat="44.52724" lon="2.09466">
        <ele>214</ele>
        <time>2022-05-25T13:06:43.000Z</time>
      </trkpt>
      <trkpt lat="44.52714" lon="2.09479">
        <ele>214.2</ele>
        <time>2022-05-25T13:06:46.000Z</time>
      </trkpt>
      <trkpt lat="44.5271" lon="2.0949">
        <ele>214.2</ele>
        <time>2022-05-25T13:06:48.000Z</time>
      </trkpt>
      <trkpt lat="44.52708" lon="2.09505">
        <ele>214</ele>
        <time>2022-05-25T13:06:50.000Z</time>
      </trkpt>
      <trkpt lat="44.52708" lon="2.09519">
        <ele>213.6</ele>
        <time>2022-05-25T13:06:52.000Z</time>
      </trkpt>
      <trkpt lat="44.52708" lon="2.09546">
        <ele>213.6</ele>
        <time>2022-05-25T13:06:55.000Z</time>
      </trkpt>
      <trkpt lat="44.52707" lon="2.09562">
        <ele>213.4</ele>
        <time>2022-05-25T13:06:57.000Z</time>
      </trkpt>
      <trkpt lat="44.52704" lon="2.096">
        <ele>213.4</ele>
        <time>2022-05-25T13:07:02.000Z</time>
      </trkpt>
      <trkpt lat="44.52704" lon="2.09606">
        <ele>213.4</ele>
        <time>2022-05-25T13:07:03.000Z</time>
      </trkpt>
      <trkpt lat="44.52702" lon="2.09632">
        <ele>213.4</ele>
        <time>2022-05-25T13:07:07.000Z</time>
      </trkpt>
      <trkpt lat="44.52702" lon="2.09644">
        <ele>213.8</ele>
        <time>2022-05-25T13:07:09.000Z</time>
      </trkpt>
      <trkpt lat="44.52703" lon="2.09655">
        <ele>214.2</ele>
        <time>2022-05-25T13:07:11.000Z</time>
      </trkpt>
      <trkpt lat="44.52704" lon="2.09662">
        <ele>214.4</ele>
        <time>2022-05-25T13:07:12.000Z</time>
      </trkpt>
      <trkpt lat="44.52708" lon="2.0968">
        <ele>214.6</ele>
        <time>2022-05-25T13:07:15.000Z</time>
      </trkpt>
      <trkpt lat="44.52716" lon="2.09704">
        <ele>215.4</ele>
        <time>2022-05-25T13:07:19.000Z</time>
      </trkpt>
      <trkpt lat="44.5272" lon="2.09714">
        <ele>215.8</ele>
        <time>2022-05-25T13:07:21.000Z</time>
      </trkpt>
      <trkpt lat="44.52727" lon="2.09731">
        <ele>216</ele>
        <time>2022-05-25T13:07:24.000Z</time>
      </trkpt>
      <trkpt lat="44.52743" lon="2.09762">
        <ele>216</ele>
        <time>2022-05-25T13:07:29.000Z</time>
      </trkpt>
      <trkpt lat="44.52765" lon="2.09801">
        <ele>215.4</ele>
        <time>2022-05-25T13:07:36.000Z</time>
      </trkpt>
      <trkpt lat="44.52768" lon="2.09806">
        <ele>215.6</ele>
        <time>2022-05-25T13:07:37.000Z</time>
      </trkpt>
      <trkpt lat="44.52779" lon="2.09817">
        <ele>216</ele>
        <time>2022-05-25T13:07:40.000Z</time>
      </trkpt>
      <trkpt lat="44.52784" lon="2.0982">
        <ele>216.2</ele>
        <time>2022-05-25T13:07:41.000Z</time>
      </trkpt>
      <trkpt lat="44.52798" lon="2.09827">
        <ele>216.6</ele>
        <time>2022-05-25T13:07:44.000Z</time>
      </trkpt>
      <trkpt lat="44.52809" lon="2.09831">
        <ele>216.8</ele>
        <time>2022-05-25T13:07:46.000Z</time>
      </trkpt>
      <trkpt lat="44.52814" lon="2.09833">
        <ele>216.8</ele>
        <time>2022-05-25T13:07:47.000Z</time>
      </trkpt>
      <trkpt lat="44.5282" lon="2.09834">
        <ele>216.8</ele>
        <time>2022-05-25T13:07:48.000Z</time>
      </trkpt>
      <trkpt lat="44.5283" lon="2.09844">
        <ele>217.2</ele>
        <time>2022-05-25T13:07:50.000Z</time>
      </trkpt>
      <trkpt lat="44.52834" lon="2.09852">
        <ele>217.2</ele>
        <time>2022-05-25T13:07:51.000Z</time>
      </trkpt>
      <trkpt lat="44.52836" lon="2.09861">
        <ele>217</ele>
        <time>2022-05-25T13:07:52.000Z</time>
      </trkpt>
      <trkpt lat="44.52838" lon="2.09878">
        <ele>217</ele>
        <time>2022-05-25T13:07:54.000Z</time>
      </trkpt>
      <trkpt lat="44.52838" lon="2.09886">
        <ele>216.6</ele>
        <time>2022-05-25T13:07:55.000Z</time>
      </trkpt>
      <trkpt lat="44.5284" lon="2.09923">
        <ele>216.6</ele>
        <time>2022-05-25T13:08:00.000Z</time>
      </trkpt>
      <trkpt lat="44.52841" lon="2.09939">
        <ele>216.6</ele>
        <time>2022-05-25T13:08:02.000Z</time>
      </trkpt>
      <trkpt lat="44.5284" lon="2.09954">
        <ele>216.8</ele>
        <time>2022-05-25T13:08:04.000Z</time>
      </trkpt>
      <trkpt lat="44.52838" lon="2.09961">
        <ele>217.2</ele>
        <time>2022-05-25T13:08:05.000Z</time>
      </trkpt>
      <trkpt lat="44.52836" lon="2.09967">
        <ele>217.2</ele>
        <time>2022-05-25T13:08:06.000Z</time>
      </trkpt>
      <trkpt lat="44.52832" lon="2.09988">
        <ele>217.6</ele>
        <time>2022-05-25T13:08:09.000Z</time>
      </trkpt>
      <trkpt lat="44.5283" lon="2.09995">
        <ele>217.6</ele>
        <time>2022-05-25T13:08:10.000Z</time>
      </trkpt>
      <trkpt lat="44.52822" lon="2.10022">
        <ele>217.8</ele>
        <time>2022-05-25T13:08:14.000Z</time>
      </trkpt>
      <trkpt lat="44.52815" lon="2.10035">
        <ele>217.8</ele>
        <time>2022-05-25T13:08:16.000Z</time>
      </trkpt>
      <trkpt lat="44.52807" lon="2.10047">
        <ele>218</ele>
        <time>2022-05-25T13:08:18.000Z</time>
      </trkpt>
      <trkpt lat="44.52802" lon="2.1005">
        <ele>218</ele>
        <time>2022-05-25T13:08:19.000Z</time>
      </trkpt>
      <trkpt lat="44.52787" lon="2.10058">
        <ele>218</ele>
        <time>2022-05-25T13:08:22.000Z</time>
      </trkpt>
      <trkpt lat="44.52784" lon="2.1006">
        <ele>218.2</ele>
        <time>2022-05-25T13:08:23.000Z</time>
      </trkpt>
      <trkpt lat="44.52781" lon="2.10062">
        <ele>218.4</ele>
        <time>2022-05-25T13:08:24.000Z</time>
      </trkpt>
      <trkpt lat="44.52776" lon="2.10062">
        <ele>218.4</ele>
        <time>2022-05-25T13:08:25.000Z</time>
      </trkpt>
      <trkpt lat="44.52772" lon="2.1006">
        <ele>218.4</ele>
        <time>2022-05-25T13:08:26.000Z</time>
      </trkpt>
      <trkpt lat="44.52764" lon="2.10055">
        <ele>218.8</ele>
        <time>2022-05-25T13:08:28.000Z</time>
      </trkpt>
      <trkpt lat="44.52761" lon="2.10052">
        <ele>218.8</ele>
        <time>2022-05-25T13:08:29.000Z</time>
      </trkpt>
      <trkpt lat="44.52757" lon="2.10048">
        <ele>219</ele>
        <time>2022-05-25T13:08:30.000Z</time>
      </trkpt>
      <trkpt lat="44.52753" lon="2.10045">
        <ele>219.4</ele>
        <time>2022-05-25T13:08:31.000Z</time>
      </trkpt>
      <trkpt lat="44.52743" lon="2.10039">
        <ele>220.2</ele>
        <time>2022-05-25T13:08:34.000Z</time>
      </trkpt>
      <trkpt lat="44.52739" lon="2.10037">
        <ele>220.4</ele>
        <time>2022-05-25T13:08:35.000Z</time>
      </trkpt>
      <trkpt lat="44.52735" lon="2.10036">
        <ele>220.6</ele>
        <time>2022-05-25T13:08:36.000Z</time>
      </trkpt>
      <trkpt lat="44.52722" lon="2.10035">
        <ele>221.2</ele>
        <time>2022-05-25T13:08:39.000Z</time>
      </trkpt>
      <trkpt lat="44.52718" lon="2.10035">
        <ele>221.4</ele>
        <time>2022-05-25T13:08:40.000Z</time>
      </trkpt>
      <trkpt lat="44.52714" lon="2.10036">
        <ele>221.6</ele>
        <time>2022-05-25T13:08:41.000Z</time>
      </trkpt>
      <trkpt lat="44.52705" lon="2.10039">
        <ele>221.8</ele>
        <time>2022-05-25T13:08:43.000Z</time>
      </trkpt>
      <trkpt lat="44.52701" lon="2.10041">
        <ele>221.8</ele>
        <time>2022-05-25T13:08:44.000Z</time>
      </trkpt>
      <trkpt lat="44.52687" lon="2.10055">
        <ele>222.2</ele>
        <time>2022-05-25T13:08:48.000Z</time>
      </trkpt>
      <trkpt lat="44.5268" lon="2.10066">
        <ele>222.4</ele>
        <time>2022-05-25T13:08:50.000Z</time>
      </trkpt>
      <trkpt lat="44.52673" lon="2.10076">
        <ele>222.6</ele>
        <time>2022-05-25T13:08:52.000Z</time>
      </trkpt>
      <trkpt lat="44.52667" lon="2.10085">
        <ele>222.6</ele>
        <time>2022-05-25T13:08:54.000Z</time>
      </trkpt>
      <trkpt lat="44.52664" lon="2.1009">
        <ele>222.6</ele>
        <time>2022-05-25T13:08:55.000Z</time>
      </trkpt>
      <trkpt lat="44.5266" lon="2.101">
        <ele>222.6</ele>
        <time>2022-05-25T13:08:57.000Z</time>
      </trkpt>
      <trkpt lat="44.52654" lon="2.10116">
        <ele>222.4</ele>
        <time>2022-05-25T13:09:00.000Z</time>
      </trkpt>
      <trkpt lat="44.52651" lon="2.10122">
        <ele>222.2</ele>
        <time>2022-05-25T13:09:01.000Z</time>
      </trkpt>
      <trkpt lat="44.52636" lon="2.1016">
        <ele>221.6</ele>
        <time>2022-05-25T13:09:07.000Z</time>
      </trkpt>
      <trkpt lat="44.52631" lon="2.10172">
        <ele>222.2</ele>
        <time>2022-05-25T13:09:09.000Z</time>
      </trkpt>
      <trkpt lat="44.52628" lon="2.10178">
        <ele>222.2</ele>
        <time>2022-05-25T13:09:10.000Z</time>
      </trkpt>
      <trkpt lat="44.52614" lon="2.10203">
        <ele>222.4</ele>
        <time>2022-05-25T13:09:14.000Z</time>
      </trkpt>
      <trkpt lat="44.52601" lon="2.10217">
        <ele>222.4</ele>
        <time>2022-05-25T13:09:17.000Z</time>
      </trkpt>
      <trkpt lat="44.52591" lon="2.10223">
        <ele>222.2</ele>
        <time>2022-05-25T13:09:19.000Z</time>
      </trkpt>
      <trkpt lat="44.52587" lon="2.10225">
        <ele>222</ele>
        <time>2022-05-25T13:09:20.000Z</time>
      </trkpt>
      <trkpt lat="44.52578" lon="2.10225">
        <ele>222</ele>
        <time>2022-05-25T13:09:22.000Z</time>
      </trkpt>
      <trkpt lat="44.52562" lon="2.10224">
        <ele>222.4</ele>
        <time>2022-05-25T13:09:25.000Z</time>
      </trkpt>
      <trkpt lat="44.52557" lon="2.10223">
        <ele>222.4</ele>
        <time>2022-05-25T13:09:26.000Z</time>
      </trkpt>
      <trkpt lat="44.52552" lon="2.10223">
        <ele>222.2</ele>
        <time>2022-05-25T13:09:27.000Z</time>
      </trkpt>
      <trkpt lat="44.52527" lon="2.10216">
        <ele>222.4</ele>
        <time>2022-05-25T13:09:32.000Z</time>
      </trkpt>
      <trkpt lat="44.52522" lon="2.10212">
        <ele>222.4</ele>
        <time>2022-05-25T13:09:33.000Z</time>
      </trkpt>
      <trkpt lat="44.52502" lon="2.10199">
        <ele>222.8</ele>
        <time>2022-05-25T13:09:37.000Z</time>
      </trkpt>
      <trkpt lat="44.52494" lon="2.10195">
        <ele>223.2</ele>
        <time>2022-05-25T13:09:39.000Z</time>
      </trkpt>
      <trkpt lat="44.5249" lon="2.10193">
        <ele>223.4</ele>
        <time>2022-05-25T13:09:40.000Z</time>
      </trkpt>
      <trkpt lat="44.52476" lon="2.10193">
        <ele>223.8</ele>
        <time>2022-05-25T13:09:43.000Z</time>
      </trkpt>
      <trkpt lat="44.52467" lon="2.10195">
        <ele>223.8</ele>
        <time>2022-05-25T13:09:45.000Z</time>
      </trkpt>
      <trkpt lat="44.52458" lon="2.10199">
        <ele>224</ele>
        <time>2022-05-25T13:09:47.000Z</time>
      </trkpt>
      <trkpt lat="44.52454" lon="2.10201">
        <ele>224</ele>
        <time>2022-05-25T13:09:48.000Z</time>
      </trkpt>
      <trkpt lat="44.52446" lon="2.10207">
        <ele>224.2</ele>
        <time>2022-05-25T13:09:50.000Z</time>
      </trkpt>
      <trkpt lat="44.52442" lon="2.10212">
        <ele>224.2</ele>
        <time>2022-05-25T13:09:51.000Z</time>
      </trkpt>
      <trkpt lat="44.52434" lon="2.1022">
        <ele>224.4</ele>
        <time>2022-05-25T13:09:53.000Z</time>
      </trkpt>
      <trkpt lat="44.52432" lon="2.10224">
        <ele>224.6</ele>
        <time>2022-05-25T13:09:54.000Z</time>
      </trkpt>
      <trkpt lat="44.52425" lon="2.10236">
        <ele>224.6</ele>
        <time>2022-05-25T13:09:57.000Z</time>
      </trkpt>
      <trkpt lat="44.52417" lon="2.1025">
        <ele>225</ele>
        <time>2022-05-25T13:10:00.000Z</time>
      </trkpt>
      <trkpt lat="44.52413" lon="2.1026">
        <ele>225</ele>
        <time>2022-05-25T13:10:02.000Z</time>
      </trkpt>
      <trkpt lat="44.52411" lon="2.10265">
        <ele>225.2</ele>
        <time>2022-05-25T13:10:03.000Z</time>
      </trkpt>
      <trkpt lat="44.52404" lon="2.10285">
        <ele>226</ele>
        <time>2022-05-25T13:10:08.000Z</time>
      </trkpt>
      <trkpt lat="44.52403" lon="2.10289">
        <ele>226.2</ele>
        <time>2022-05-25T13:10:09.000Z</time>
      </trkpt>
      <trkpt lat="44.52402" lon="2.10308">
        <ele>226.8</ele>
        <time>2022-05-25T13:10:13.000Z</time>
      </trkpt>
      <trkpt lat="44.52403" lon="2.10322">
        <ele>227.4</ele>
        <time>2022-05-25T13:10:16.000Z</time>
      </trkpt>
      <trkpt lat="44.52404" lon="2.10335">
        <ele>228</ele>
        <time>2022-05-25T13:10:19.000Z</time>
      </trkpt>
      <trkpt lat="44.52404" lon="2.10345">
        <ele>228.6</ele>
        <time>2022-05-25T13:10:21.000Z</time>
      </trkpt>
      <trkpt lat="44.52403" lon="2.10371">
        <ele>229.6</ele>
        <time>2022-05-25T13:10:26.000Z</time>
      </trkpt>
      <trkpt lat="44.52403" lon="2.10376">
        <ele>229.8</ele>
        <time>2022-05-25T13:10:27.000Z</time>
      </trkpt>
      <trkpt lat="44.52396" lon="2.10398">
        <ele>230.6</ele>
        <time>2022-05-25T13:10:32.000Z</time>
      </trkpt>
      <trkpt lat="44.52393" lon="2.10407">
        <ele>230.8</ele>
        <time>2022-05-25T13:10:34.000Z</time>
      </trkpt>
      <trkpt lat="44.52389" lon="2.10423">
        <ele>231.6</ele>
        <time>2022-05-25T13:10:38.000Z</time>
      </trkpt>
      <trkpt lat="44.52384" lon="2.10427">
        <ele>232</ele>
        <time>2022-05-25T13:10:39.000Z</time>
      </trkpt>
      <trkpt lat="44.5238" lon="2.10436">
        <ele>232.8</ele>
        <time>2022-05-25T13:10:43.000Z</time>
      </trkpt>
      <trkpt lat="44.5238" lon="2.10439">
        <ele>233</ele>
        <time>2022-05-25T13:10:44.000Z</time>
      </trkpt>
      <trkpt lat="44.52379" lon="2.10444">
        <ele>233.2</ele>
        <time>2022-05-25T13:10:45.000Z</time>
      </trkpt>
      <trkpt lat="44.52376" lon="2.10448">
        <ele>233.4</ele>
        <time>2022-05-25T13:10:46.000Z</time>
      </trkpt>
      <trkpt lat="44.52373" lon="2.10451">
        <ele>233.4</ele>
        <time>2022-05-25T13:10:47.000Z</time>
      </trkpt>
      <trkpt lat="44.52358" lon="2.1046">
        <ele>233.8</ele>
        <time>2022-05-25T13:10:51.000Z</time>
      </trkpt>
      <trkpt lat="44.52355" lon="2.10462">
        <ele>234.2</ele>
        <time>2022-05-25T13:10:52.000Z</time>
      </trkpt>
      <trkpt lat="44.52333" lon="2.10473">
        <ele>235.2</ele>
        <time>2022-05-25T13:10:58.000Z</time>
      </trkpt>
      <trkpt lat="44.52329" lon="2.10475">
        <ele>235.2</ele>
        <time>2022-05-25T13:10:59.000Z</time>
      </trkpt>
      <trkpt lat="44.52313" lon="2.1048">
        <ele>235.4</ele>
        <time>2022-05-25T13:11:02.000Z</time>
      </trkpt>
      <trkpt lat="44.52304" lon="2.10484">
        <ele>235.4</ele>
        <time>2022-05-25T13:11:04.000Z</time>
      </trkpt>
      <trkpt lat="44.52273" lon="2.10496">
        <ele>234.4</ele>
        <time>2022-05-25T13:11:09.000Z</time>
      </trkpt>
      <trkpt lat="44.52268" lon="2.10498">
        <ele>234</ele>
        <time>2022-05-25T13:11:10.000Z</time>
      </trkpt>
      <trkpt lat="44.52243" lon="2.10505">
        <ele>233</ele>
        <time>2022-05-25T13:11:13.000Z</time>
      </trkpt>
      <trkpt lat="44.52236" lon="2.10505">
        <ele>232.8</ele>
        <time>2022-05-25T13:11:14.000Z</time>
      </trkpt>
      <trkpt lat="44.52216" lon="2.10506">
        <ele>231.6</ele>
        <time>2022-05-25T13:11:16.000Z</time>
      </trkpt>
      <trkpt lat="44.52197" lon="2.10507">
        <ele>229.8</ele>
        <time>2022-05-25T13:11:18.000Z</time>
      </trkpt>
      <trkpt lat="44.52171" lon="2.10508">
        <ele>228.4</ele>
        <time>2022-05-25T13:11:21.000Z</time>
      </trkpt>
      <trkpt lat="44.52155" lon="2.10506">
        <ele>227.8</ele>
        <time>2022-05-25T13:11:23.000Z</time>
      </trkpt>
      <trkpt lat="44.52142" lon="2.10506">
        <ele>227.4</ele>
        <time>2022-05-25T13:11:25.000Z</time>
      </trkpt>
      <trkpt lat="44.52129" lon="2.10507">
        <ele>227</ele>
        <time>2022-05-25T13:11:27.000Z</time>
      </trkpt>
      <trkpt lat="44.52095" lon="2.10506">
        <ele>226.6</ele>
        <time>2022-05-25T13:11:33.000Z</time>
      </trkpt>
      <trkpt lat="44.52089" lon="2.10506">
        <ele>226.8</ele>
        <time>2022-05-25T13:11:34.000Z</time>
      </trkpt>
      <trkpt lat="44.52075" lon="2.10512">
        <ele>227.2</ele>
        <time>2022-05-25T13:11:37.000Z</time>
      </trkpt>
      <trkpt lat="44.52071" lon="2.10514">
        <ele>227</ele>
        <time>2022-05-25T13:11:38.000Z</time>
      </trkpt>
      <trkpt lat="44.52056" lon="2.10522">
        <ele>228.4</ele>
        <time>2022-05-25T13:11:42.000Z</time>
      </trkpt>
      <trkpt lat="44.52051" lon="2.10523">
        <ele>228.4</ele>
        <time>2022-05-25T13:11:43.000Z</time>
      </trkpt>
      <trkpt lat="44.52046" lon="2.10523">
        <ele>228.6</ele>
        <time>2022-05-25T13:11:44.000Z</time>
      </trkpt>
      <trkpt lat="44.52036" lon="2.10516">
        <ele>229.2</ele>
        <time>2022-05-25T13:11:47.000Z</time>
      </trkpt>
      <trkpt lat="44.52032" lon="2.10514">
        <ele>229.2</ele>
        <time>2022-05-25T13:11:48.000Z</time>
      </trkpt>
      <trkpt lat="44.52028" lon="2.10511">
        <ele>229.2</ele>
        <time>2022-05-25T13:11:49.000Z</time>
      </trkpt>
      <trkpt lat="44.52015" lon="2.10503">
        <ele>229.8</ele>
        <time>2022-05-25T13:11:52.000Z</time>
      </trkpt>
      <trkpt lat="44.52002" lon="2.10497">
        <ele>230</ele>
        <time>2022-05-25T13:11:55.000Z</time>
      </trkpt>
      <trkpt lat="44.51997" lon="2.10496">
        <ele>230.2</ele>
        <time>2022-05-25T13:11:56.000Z</time>
      </trkpt>
      <trkpt lat="44.51987" lon="2.10492">
        <ele>230.4</ele>
        <time>2022-05-25T13:11:58.000Z</time>
      </trkpt>
      <trkpt lat="44.51951" lon="2.10486">
        <ele>230.8</ele>
        <time>2022-05-25T13:12:05.000Z</time>
      </trkpt>
      <trkpt lat="44.51904" lon="2.10482">
        <ele>230.8</ele>
        <time>2022-05-25T13:12:14.000Z</time>
      </trkpt>
      <trkpt lat="44.51882" lon="2.10482">
        <ele>230.8</ele>
        <time>2022-05-25T13:12:18.000Z</time>
      </trkpt>
      <trkpt lat="44.51872" lon="2.10482">
        <ele>230.8</ele>
        <time>2022-05-25T13:12:20.000Z</time>
      </trkpt>
      <trkpt lat="44.51867" lon="2.10482">
        <ele>230.8</ele>
        <time>2022-05-25T13:12:21.000Z</time>
      </trkpt>
      <trkpt lat="44.51856" lon="2.10482">
        <ele>230.8</ele>
        <time>2022-05-25T13:12:23.000Z</time>
      </trkpt>
      <trkpt lat="44.51833" lon="2.10481">
        <ele>231</ele>
        <time>2022-05-25T13:12:27.000Z</time>
      </trkpt>
      <trkpt lat="44.518" lon="2.10485">
        <ele>231</ele>
        <time>2022-05-25T13:12:33.000Z</time>
      </trkpt>
      <trkpt lat="44.51772" lon="2.10487">
        <ele>231</ele>
        <time>2022-05-25T13:12:38.000Z</time>
      </trkpt>
      <trkpt lat="44.51766" lon="2.10488">
        <ele>231</ele>
        <time>2022-05-25T13:12:39.000Z</time>
      </trkpt>
      <trkpt lat="44.51746" lon="2.10492">
        <ele>230.8</ele>
        <time>2022-05-25T13:12:43.000Z</time>
      </trkpt>
      <trkpt lat="44.51729" lon="2.10495">
        <ele>230.6</ele>
        <time>2022-05-25T13:12:46.000Z</time>
      </trkpt>
      <trkpt lat="44.51691" lon="2.10501">
        <ele>230.8</ele>
        <time>2022-05-25T13:12:53.000Z</time>
      </trkpt>
      <trkpt lat="44.51653" lon="2.10506">
        <ele>231</ele>
        <time>2022-05-25T13:13:00.000Z</time>
      </trkpt>
      <trkpt lat="44.51615" lon="2.10506">
        <ele>231.2</ele>
        <time>2022-05-25T13:13:07.000Z</time>
      </trkpt>
      <trkpt lat="44.51609" lon="2.10505">
        <ele>231.2</ele>
        <time>2022-05-25T13:13:08.000Z</time>
      </trkpt>
      <trkpt lat="44.5159" lon="2.105">
        <ele>231.2</ele>
        <time>2022-05-25T13:13:12.000Z</time>
      </trkpt>
      <trkpt lat="44.51555" lon="2.10481">
        <ele>231</ele>
        <time>2022-05-25T13:13:19.000Z</time>
      </trkpt>
      <trkpt lat="44.51532" lon="2.1046">
        <ele>231.2</ele>
        <time>2022-05-25T13:13:24.000Z</time>
      </trkpt>
      <trkpt lat="44.51524" lon="2.10449">
        <ele>231.2</ele>
        <time>2022-05-25T13:13:26.000Z</time>
      </trkpt>
      <trkpt lat="44.51517" lon="2.10439">
        <ele>231.2</ele>
        <time>2022-05-25T13:13:28.000Z</time>
      </trkpt>
      <trkpt lat="44.515" lon="2.10406">
        <ele>231.4</ele>
        <time>2022-05-25T13:13:33.000Z</time>
      </trkpt>
      <trkpt lat="44.51479" lon="2.10351">
        <ele>231.2</ele>
        <time>2022-05-25T13:13:41.000Z</time>
      </trkpt>
      <trkpt lat="44.51453" lon="2.10284">
        <ele>231.4</ele>
        <time>2022-05-25T13:13:51.000Z</time>
      </trkpt>
      <trkpt lat="44.5145" lon="2.10277">
        <ele>231.6</ele>
        <time>2022-05-25T13:13:52.000Z</time>
      </trkpt>
      <trkpt lat="44.51429" lon="2.10223">
        <ele>232.2</ele>
        <time>2022-05-25T13:14:00.000Z</time>
      </trkpt>
      <trkpt lat="44.51407" lon="2.10167">
        <ele>231.8</ele>
        <time>2022-05-25T13:14:08.000Z</time>
      </trkpt>
      <trkpt lat="44.51384" lon="2.10111">
        <ele>231.8</ele>
        <time>2022-05-25T13:14:16.000Z</time>
      </trkpt>
      <trkpt lat="44.51366" lon="2.10067">
        <ele>231.8</ele>
        <time>2022-05-25T13:14:22.000Z</time>
      </trkpt>
      <trkpt lat="44.5136" lon="2.10053">
        <ele>232</ele>
        <time>2022-05-25T13:14:24.000Z</time>
      </trkpt>
      <trkpt lat="44.5135" lon="2.10032">
        <ele>232.4</ele>
        <time>2022-05-25T13:14:27.000Z</time>
      </trkpt>
      <trkpt lat="44.51343" lon="2.10019">
        <ele>232.4</ele>
        <time>2022-05-25T13:14:29.000Z</time>
      </trkpt>
      <trkpt lat="44.5134" lon="2.10014">
        <ele>232.6</ele>
        <time>2022-05-25T13:14:30.000Z</time>
      </trkpt>
      <trkpt lat="44.51327" lon="2.1">
        <ele>232.8</ele>
        <time>2022-05-25T13:14:33.000Z</time>
      </trkpt>
      <trkpt lat="44.51322" lon="2.09996">
        <ele>233</ele>
        <time>2022-05-25T13:14:34.000Z</time>
      </trkpt>
      <trkpt lat="44.51302" lon="2.09982">
        <ele>233.2</ele>
        <time>2022-05-25T13:14:38.000Z</time>
      </trkpt>
      <trkpt lat="44.5128" lon="2.09968">
        <ele>233.4</ele>
        <time>2022-05-25T13:14:42.000Z</time>
      </trkpt>
      <trkpt lat="44.51269" lon="2.09963">
        <ele>233.4</ele>
        <time>2022-05-25T13:14:44.000Z</time>
      </trkpt>
      <trkpt lat="44.51257" lon="2.09958">
        <ele>233.4</ele>
        <time>2022-05-25T13:14:46.000Z</time>
      </trkpt>
      <trkpt lat="44.51245" lon="2.09954">
        <ele>233.4</ele>
        <time>2022-05-25T13:14:48.000Z</time>
      </trkpt>
      <trkpt lat="44.51227" lon="2.09949">
        <ele>233.2</ele>
        <time>2022-05-25T13:14:51.000Z</time>
      </trkpt>
      <trkpt lat="44.51193" lon="2.09946">
        <ele>233</ele>
        <time>2022-05-25T13:14:57.000Z</time>
      </trkpt>
      <trkpt lat="44.51177" lon="2.09949">
        <ele>233.2</ele>
        <time>2022-05-25T13:15:00.000Z</time>
      </trkpt>
      <trkpt lat="44.51171" lon="2.09951">
        <ele>233.2</ele>
        <time>2022-05-25T13:15:01.000Z</time>
      </trkpt>
      <trkpt lat="44.51166" lon="2.09953">
        <ele>233</ele>
        <time>2022-05-25T13:15:02.000Z</time>
      </trkpt>
      <trkpt lat="44.5115" lon="2.09964">
        <ele>233</ele>
        <time>2022-05-25T13:15:05.000Z</time>
      </trkpt>
      <trkpt lat="44.51141" lon="2.09971">
        <ele>233</ele>
        <time>2022-05-25T13:15:07.000Z</time>
      </trkpt>
      <trkpt lat="44.51135" lon="2.09977">
        <ele>233</ele>
        <time>2022-05-25T13:15:08.000Z</time>
      </trkpt>
      <trkpt lat="44.51131" lon="2.09982">
        <ele>233</ele>
        <time>2022-05-25T13:15:09.000Z</time>
      </trkpt>
      <trkpt lat="44.51121" lon="2.1">
        <ele>233</ele>
        <time>2022-05-25T13:15:12.000Z</time>
      </trkpt>
      <trkpt lat="44.51114" lon="2.10013">
        <ele>233</ele>
        <time>2022-05-25T13:15:15.000Z</time>
      </trkpt>
      <trkpt lat="44.51098" lon="2.10035">
        <ele>233.6</ele>
        <time>2022-05-25T13:15:19.000Z</time>
      </trkpt>
      <trkpt lat="44.5109" lon="2.10045">
        <ele>233.6</ele>
        <time>2022-05-25T13:15:21.000Z</time>
      </trkpt>
      <trkpt lat="44.51082" lon="2.10059">
        <ele>233.6</ele>
        <time>2022-05-25T13:15:23.000Z</time>
      </trkpt>
      <trkpt lat="44.51075" lon="2.10073">
        <ele>233.6</ele>
        <time>2022-05-25T13:15:25.000Z</time>
      </trkpt>
      <trkpt lat="44.51057" lon="2.10103">
        <ele>233.6</ele>
        <time>2022-05-25T13:15:30.000Z</time>
      </trkpt>
      <trkpt lat="44.51047" lon="2.10114">
        <ele>233.6</ele>
        <time>2022-05-25T13:15:32.000Z</time>
      </trkpt>
      <trkpt lat="44.5103" lon="2.10137">
        <ele>233.6</ele>
        <time>2022-05-25T13:15:36.000Z</time>
      </trkpt>
      <trkpt lat="44.51025" lon="2.10143">
        <ele>233.6</ele>
        <time>2022-05-25T13:15:37.000Z</time>
      </trkpt>
      <trkpt lat="44.51006" lon="2.10163">
        <ele>233.6</ele>
        <time>2022-05-25T13:15:41.000Z</time>
      </trkpt>
      <trkpt lat="44.50965" lon="2.10195">
        <ele>234</ele>
        <time>2022-05-25T13:15:49.000Z</time>
      </trkpt>
      <trkpt lat="44.5093" lon="2.10211">
        <ele>234</ele>
        <time>2022-05-25T13:15:55.000Z</time>
      </trkpt>
      <trkpt lat="44.50895" lon="2.10219">
        <ele>232.8</ele>
        <time>2022-05-25T13:16:01.000Z</time>
      </trkpt>
      <trkpt lat="44.50882" lon="2.10217">
        <ele>232.6</ele>
        <time>2022-05-25T13:16:03.000Z</time>
      </trkpt>
      <trkpt lat="44.50864" lon="2.10212">
        <ele>232.8</ele>
        <time>2022-05-25T13:16:06.000Z</time>
      </trkpt>
      <trkpt lat="44.50827" lon="2.102">
        <ele>232.8</ele>
        <time>2022-05-25T13:16:12.000Z</time>
      </trkpt>
      <trkpt lat="44.5077" lon="2.10179">
        <ele>232.6</ele>
        <time>2022-05-25T13:16:22.000Z</time>
      </trkpt>
      <trkpt lat="44.50763" lon="2.10176">
        <ele>232.6</ele>
        <time>2022-05-25T13:16:23.000Z</time>
      </trkpt>
      <trkpt lat="44.5071" lon="2.10157">
        <ele>232.6</ele>
        <time>2022-05-25T13:16:32.000Z</time>
      </trkpt>
      <trkpt lat="44.50698" lon="2.10153">
        <ele>232.4</ele>
        <time>2022-05-25T13:16:34.000Z</time>
      </trkpt>
      <trkpt lat="44.50652" lon="2.10137">
        <ele>232.6</ele>
        <time>2022-05-25T13:16:42.000Z</time>
      </trkpt>
      <trkpt lat="44.50599" lon="2.10118">
        <ele>233.4</ele>
        <time>2022-05-25T13:16:51.000Z</time>
      </trkpt>
      <trkpt lat="44.50555" lon="2.10102">
        <ele>233.6</ele>
        <time>2022-05-25T13:16:59.000Z</time>
      </trkpt>
      <trkpt lat="44.50509" lon="2.10083">
        <ele>233.6</ele>
        <time>2022-05-25T13:17:07.000Z</time>
      </trkpt>
      <trkpt lat="44.50489" lon="2.10067">
        <ele>233.8</ele>
        <time>2022-05-25T13:17:11.000Z</time>
      </trkpt>
      <trkpt lat="44.50479" lon="2.10058">
        <ele>233.8</ele>
        <time>2022-05-25T13:17:13.000Z</time>
      </trkpt>
      <trkpt lat="44.50468" lon="2.10043">
        <ele>233.8</ele>
        <time>2022-05-25T13:17:16.000Z</time>
      </trkpt>
      <trkpt lat="44.50465" lon="2.10037">
        <ele>233.8</ele>
        <time>2022-05-25T13:17:17.000Z</time>
      </trkpt>
      <trkpt lat="44.50456" lon="2.10015">
        <ele>233.8</ele>
        <time>2022-05-25T13:17:20.000Z</time>
      </trkpt>
      <trkpt lat="44.50453" lon="2.10007">
        <ele>233.8</ele>
        <time>2022-05-25T13:17:21.000Z</time>
      </trkpt>
      <trkpt lat="44.50446" lon="2.09983">
        <ele>234.4</ele>
        <time>2022-05-25T13:17:24.000Z</time>
      </trkpt>
      <trkpt lat="44.5044" lon="2.09949">
        <ele>235.4</ele>
        <time>2022-05-25T13:17:28.000Z</time>
      </trkpt>
      <trkpt lat="44.50431" lon="2.09917">
        <ele>235.8</ele>
        <time>2022-05-25T13:17:32.000Z</time>
      </trkpt>
      <trkpt lat="44.50427" lon="2.0991">
        <ele>236</ele>
        <time>2022-05-25T13:17:33.000Z</time>
      </trkpt>
      <trkpt lat="44.5042" lon="2.09897">
        <ele>236.4</ele>
        <time>2022-05-25T13:17:35.000Z</time>
      </trkpt>
      <trkpt lat="44.50405" lon="2.09872">
        <ele>236.6</ele>
        <time>2022-05-25T13:17:39.000Z</time>
      </trkpt>
      <trkpt lat="44.50397" lon="2.09858">
        <ele>236.4</ele>
        <time>2022-05-25T13:17:41.000Z</time>
      </trkpt>
      <trkpt lat="44.50387" lon="2.09838">
        <ele>236.6</ele>
        <time>2022-05-25T13:17:44.000Z</time>
      </trkpt>
      <trkpt lat="44.50372" lon="2.09802">
        <ele>237.4</ele>
        <time>2022-05-25T13:17:49.000Z</time>
      </trkpt>
      <trkpt lat="44.50369" lon="2.09797">
        <ele>237.4</ele>
        <time>2022-05-25T13:17:50.000Z</time>
      </trkpt>
      <trkpt lat="44.50365" lon="2.09791">
        <ele>237.6</ele>
        <time>2022-05-25T13:17:51.000Z</time>
      </trkpt>
      <trkpt lat="44.50343" lon="2.09754">
        <ele>238</ele>
        <time>2022-05-25T13:17:57.000Z</time>
      </trkpt>
      <trkpt lat="44.50334" lon="2.09733">
        <ele>238</ele>
        <time>2022-05-25T13:18:00.000Z</time>
      </trkpt>
      <trkpt lat="44.5033" lon="2.09718">
        <ele>238</ele>
        <time>2022-05-25T13:18:02.000Z</time>
      </trkpt>
      <trkpt lat="44.50328" lon="2.0971">
        <ele>238</ele>
        <time>2022-05-25T13:18:03.000Z</time>
      </trkpt>
      <trkpt lat="44.50321" lon="2.09689">
        <ele>238</ele>
        <time>2022-05-25T13:18:06.000Z</time>
      </trkpt>
      <trkpt lat="44.50315" lon="2.09675">
        <ele>238.2</ele>
        <time>2022-05-25T13:18:08.000Z</time>
      </trkpt>
      <trkpt lat="44.50304" lon="2.09658">
        <ele>238.4</ele>
        <time>2022-05-25T13:18:11.000Z</time>
      </trkpt>
      <trkpt lat="44.50287" lon="2.09638">
        <ele>238.4</ele>
        <time>2022-05-25T13:18:15.000Z</time>
      </trkpt>
      <trkpt lat="44.50278" lon="2.09628">
        <ele>238.4</ele>
        <time>2022-05-25T13:18:17.000Z</time>
      </trkpt>
      <trkpt lat="44.50273" lon="2.09623">
        <ele>238.6</ele>
        <time>2022-05-25T13:18:18.000Z</time>
      </trkpt>
      <trkpt lat="44.50259" lon="2.09611">
        <ele>239</ele>
        <time>2022-05-25T13:18:21.000Z</time>
      </trkpt>
      <trkpt lat="44.50249" lon="2.09604">
        <ele>239.2</ele>
        <time>2022-05-25T13:18:23.000Z</time>
      </trkpt>
      <trkpt lat="44.50221" lon="2.09596">
        <ele>239.2</ele>
        <time>2022-05-25T13:18:28.000Z</time>
      </trkpt>
      <trkpt lat="44.50174" lon="2.09595">
        <ele>239.2</ele>
        <time>2022-05-25T13:18:36.000Z</time>
      </trkpt>
      <trkpt lat="44.50169" lon="2.09594">
        <ele>239.4</ele>
        <time>2022-05-25T13:18:37.000Z</time>
      </trkpt>
      <trkpt lat="44.50152" lon="2.09592">
        <ele>239.8</ele>
        <time>2022-05-25T13:18:40.000Z</time>
      </trkpt>
      <trkpt lat="44.5014" lon="2.09591">
        <ele>240</ele>
        <time>2022-05-25T13:18:42.000Z</time>
      </trkpt>
      <trkpt lat="44.50134" lon="2.09589">
        <ele>240</ele>
        <time>2022-05-25T13:18:43.000Z</time>
      </trkpt>
      <trkpt lat="44.5011" lon="2.09582">
        <ele>240</ele>
        <time>2022-05-25T13:18:47.000Z</time>
      </trkpt>
      <trkpt lat="44.50077" lon="2.09566">
        <ele>240.2</ele>
        <time>2022-05-25T13:18:53.000Z</time>
      </trkpt>
      <trkpt lat="44.50072" lon="2.09562">
        <ele>240.2</ele>
        <time>2022-05-25T13:18:54.000Z</time>
      </trkpt>
      <trkpt lat="44.50067" lon="2.09559">
        <ele>240.2</ele>
        <time>2022-05-25T13:18:55.000Z</time>
      </trkpt>
      <trkpt lat="44.50042" lon="2.09537">
        <ele>240.2</ele>
        <time>2022-05-25T13:19:00.000Z</time>
      </trkpt>
      <trkpt lat="44.50012" lon="2.09501">
        <ele>240.2</ele>
        <time>2022-05-25T13:19:07.000Z</time>
      </trkpt>
      <trkpt lat="44.49981" lon="2.09453">
        <ele>239.8</ele>
        <time>2022-05-25T13:19:15.000Z</time>
      </trkpt>
      <trkpt lat="44.49969" lon="2.09436">
        <ele>239.8</ele>
        <time>2022-05-25T13:19:18.000Z</time>
      </trkpt>
      <trkpt lat="44.49959" lon="2.0942">
        <ele>239.8</ele>
        <time>2022-05-25T13:19:21.000Z</time>
      </trkpt>
      <trkpt lat="44.49926" lon="2.09371">
        <ele>240.6</ele>
        <time>2022-05-25T13:19:29.000Z</time>
      </trkpt>
      <trkpt lat="44.49904" lon="2.09337">
        <ele>241.8</ele>
        <time>2022-05-25T13:19:35.000Z</time>
      </trkpt>
      <trkpt lat="44.49891" lon="2.09319">
        <ele>242</ele>
        <time>2022-05-25T13:19:38.000Z</time>
      </trkpt>
      <trkpt lat="44.49887" lon="2.09315">
        <ele>242</ele>
        <time>2022-05-25T13:19:39.000Z</time>
      </trkpt>
      <trkpt lat="44.4987" lon="2.09303">
        <ele>242</ele>
        <time>2022-05-25T13:19:42.000Z</time>
      </trkpt>
      <trkpt lat="44.49865" lon="2.09301">
        <ele>242</ele>
        <time>2022-05-25T13:19:43.000Z</time>
      </trkpt>
      <trkpt lat="44.49821" lon="2.09286">
        <ele>242</ele>
        <time>2022-05-25T13:19:51.000Z</time>
      </trkpt>
      <trkpt lat="44.49795" lon="2.09275">
        <ele>242.4</ele>
        <time>2022-05-25T13:19:56.000Z</time>
      </trkpt>
      <trkpt lat="44.4979" lon="2.09272">
        <ele>242.6</ele>
        <time>2022-05-25T13:19:57.000Z</time>
      </trkpt>
      <trkpt lat="44.49786" lon="2.09271">
        <ele>242.8</ele>
        <time>2022-05-25T13:19:58.000Z</time>
      </trkpt>
      <trkpt lat="44.49754" lon="2.09257">
        <ele>243.2</ele>
        <time>2022-05-25T13:20:04.000Z</time>
      </trkpt>
      <trkpt lat="44.49723" lon="2.09242">
        <ele>243.6</ele>
        <time>2022-05-25T13:20:10.000Z</time>
      </trkpt>
      <trkpt lat="44.49697" lon="2.09229">
        <ele>243.8</ele>
        <time>2022-05-25T13:20:15.000Z</time>
      </trkpt>
      <trkpt lat="44.49693" lon="2.09227">
        <ele>243.8</ele>
        <time>2022-05-25T13:20:16.000Z</time>
      </trkpt>
      <trkpt lat="44.49676" lon="2.0922">
        <ele>244.2</ele>
        <time>2022-05-25T13:20:19.000Z</time>
      </trkpt>
      <trkpt lat="44.49659" lon="2.09214">
        <ele>245</ele>
        <time>2022-05-25T13:20:22.000Z</time>
      </trkpt>
      <trkpt lat="44.49621" lon="2.09207">
        <ele>245.2</ele>
        <time>2022-05-25T13:20:29.000Z</time>
      </trkpt>
      <trkpt lat="44.49614" lon="2.09208">
        <ele>245.2</ele>
        <time>2022-05-25T13:20:30.000Z</time>
      </trkpt>
      <trkpt lat="44.49593" lon="2.09216">
        <ele>245.6</ele>
        <time>2022-05-25T13:20:34.000Z</time>
      </trkpt>
      <trkpt lat="44.49576" lon="2.09225">
        <ele>246</ele>
        <time>2022-05-25T13:20:37.000Z</time>
      </trkpt>
      <trkpt lat="44.49568" lon="2.09232">
        <ele>246.4</ele>
        <time>2022-05-25T13:20:39.000Z</time>
      </trkpt>
      <trkpt lat="44.4955" lon="2.09247">
        <ele>246.4</ele>
        <time>2022-05-25T13:20:43.000Z</time>
      </trkpt>
      <trkpt lat="44.49534" lon="2.09259">
        <ele>246.6</ele>
        <time>2022-05-25T13:20:46.000Z</time>
      </trkpt>
      <trkpt lat="44.49523" lon="2.09265">
        <ele>246.4</ele>
        <time>2022-05-25T13:20:48.000Z</time>
      </trkpt>
      <trkpt lat="44.49506" lon="2.0927">
        <ele>246.2</ele>
        <time>2022-05-25T13:20:51.000Z</time>
      </trkpt>
      <trkpt lat="44.49499" lon="2.0927">
        <ele>246</ele>
        <time>2022-05-25T13:20:52.000Z</time>
      </trkpt>
      <trkpt lat="44.49493" lon="2.09269">
        <ele>246</ele>
        <time>2022-05-25T13:20:53.000Z</time>
      </trkpt>
      <trkpt lat="44.49481" lon="2.09264">
        <ele>246</ele>
        <time>2022-05-25T13:20:55.000Z</time>
      </trkpt>
      <trkpt lat="44.49475" lon="2.09262">
        <ele>246</ele>
        <time>2022-05-25T13:20:56.000Z</time>
      </trkpt>
      <trkpt lat="44.49469" lon="2.09259">
        <ele>246</ele>
        <time>2022-05-25T13:20:57.000Z</time>
      </trkpt>
      <trkpt lat="44.49447" lon="2.09246">
        <ele>246</ele>
        <time>2022-05-25T13:21:01.000Z</time>
      </trkpt>
      <trkpt lat="44.49405" lon="2.09212">
        <ele>247</ele>
        <time>2022-05-25T13:21:09.000Z</time>
      </trkpt>
      <trkpt lat="44.4939" lon="2.09199">
        <ele>247.2</ele>
        <time>2022-05-25T13:21:12.000Z</time>
      </trkpt>
      <trkpt lat="44.49375" lon="2.09184">
        <ele>247.4</ele>
        <time>2022-05-25T13:21:15.000Z</time>
      </trkpt>
      <trkpt lat="44.4934" lon="2.09157">
        <ele>246.8</ele>
        <time>2022-05-25T13:21:22.000Z</time>
      </trkpt>
      <trkpt lat="44.49306" lon="2.0914">
        <ele>246.6</ele>
        <time>2022-05-25T13:21:28.000Z</time>
      </trkpt>
      <trkpt lat="44.49278" lon="2.09135">
        <ele>247.4</ele>
        <time>2022-05-25T13:21:33.000Z</time>
      </trkpt>
      <trkpt lat="44.49273" lon="2.09133">
        <ele>247.6</ele>
        <time>2022-05-25T13:21:34.000Z</time>
      </trkpt>
      <trkpt lat="44.49257" lon="2.0913">
        <ele>247.4</ele>
        <time>2022-05-25T13:21:37.000Z</time>
      </trkpt>
      <trkpt lat="44.49242" lon="2.09122">
        <ele>247</ele>
        <time>2022-05-25T13:21:40.000Z</time>
      </trkpt>
      <trkpt lat="44.49237" lon="2.09118">
        <ele>247.4</ele>
        <time>2022-05-25T13:21:41.000Z</time>
      </trkpt>
      <trkpt lat="44.49225" lon="2.09104">
        <ele>247.4</ele>
        <time>2022-05-25T13:21:44.000Z</time>
      </trkpt>
      <trkpt lat="44.49219" lon="2.09091">
        <ele>247.4</ele>
        <time>2022-05-25T13:21:46.000Z</time>
      </trkpt>
      <trkpt lat="44.49216" lon="2.09069">
        <ele>247.4</ele>
        <time>2022-05-25T13:21:49.000Z</time>
      </trkpt>
      <trkpt lat="44.49216" lon="2.09054">
        <ele>247.4</ele>
        <time>2022-05-25T13:21:51.000Z</time>
      </trkpt>
      <trkpt lat="44.49214" lon="2.09022">
        <ele>247.8</ele>
        <time>2022-05-25T13:21:55.000Z</time>
      </trkpt>
      <trkpt lat="44.49212" lon="2.09007">
        <ele>248.2</ele>
        <time>2022-05-25T13:21:57.000Z</time>
      </trkpt>
      <trkpt lat="44.49197" lon="2.08966">
        <ele>248.2</ele>
        <time>2022-05-25T13:22:03.000Z</time>
      </trkpt>
      <trkpt lat="44.49169" lon="2.08903">
        <ele>247.8</ele>
        <time>2022-05-25T13:22:13.000Z</time>
      </trkpt>
      <trkpt lat="44.49166" lon="2.08896">
        <ele>247.6</ele>
        <time>2022-05-25T13:22:14.000Z</time>
      </trkpt>
      <trkpt lat="44.4915" lon="2.08855">
        <ele>248</ele>
        <time>2022-05-25T13:22:20.000Z</time>
      </trkpt>
      <trkpt lat="44.49132" lon="2.08807">
        <ele>248.2</ele>
        <time>2022-05-25T13:22:27.000Z</time>
      </trkpt>
      <trkpt lat="44.49114" lon="2.08756">
        <ele>248.4</ele>
        <time>2022-05-25T13:22:34.000Z</time>
      </trkpt>
      <trkpt lat="44.49096" lon="2.08698">
        <ele>248.8</ele>
        <time>2022-05-25T13:22:42.000Z</time>
      </trkpt>
      <trkpt lat="44.4908" lon="2.0864">
        <ele>249</ele>
        <time>2022-05-25T13:22:50.000Z</time>
      </trkpt>
      <trkpt lat="44.49077" lon="2.08624">
        <ele>249.2</ele>
        <time>2022-05-25T13:22:52.000Z</time>
      </trkpt>
      <trkpt lat="44.4907" lon="2.08593">
        <ele>249.4</ele>
        <time>2022-05-25T13:22:56.000Z</time>
      </trkpt>
      <trkpt lat="44.49056" lon="2.08552">
        <ele>249.6</ele>
        <time>2022-05-25T13:23:02.000Z</time>
      </trkpt>
      <trkpt lat="44.49053" lon="2.08546">
        <ele>249.6</ele>
        <time>2022-05-25T13:23:03.000Z</time>
      </trkpt>
      <trkpt lat="44.49047" lon="2.08535">
        <ele>249.8</ele>
        <time>2022-05-25T13:23:05.000Z</time>
      </trkpt>
      <trkpt lat="44.49039" lon="2.08524">
        <ele>249.6</ele>
        <time>2022-05-25T13:23:07.000Z</time>
      </trkpt>
      <trkpt lat="44.49006" lon="2.0849">
        <ele>249.6</ele>
        <time>2022-05-25T13:23:14.000Z</time>
      </trkpt>
      <trkpt lat="44.48986" lon="2.08479">
        <ele>250.2</ele>
        <time>2022-05-25T13:23:18.000Z</time>
      </trkpt>
      <trkpt lat="44.4897" lon="2.08472">
        <ele>250.4</ele>
        <time>2022-05-25T13:23:21.000Z</time>
      </trkpt>
      <trkpt lat="44.48934" lon="2.08465">
        <ele>250.8</ele>
        <time>2022-05-25T13:23:27.000Z</time>
      </trkpt>
      <trkpt lat="44.48928" lon="2.08465">
        <ele>251</ele>
        <time>2022-05-25T13:23:28.000Z</time>
      </trkpt>
      <trkpt lat="44.48886" lon="2.08465">
        <ele>251.4</ele>
        <time>2022-05-25T13:23:35.000Z</time>
      </trkpt>
      <trkpt lat="44.48862" lon="2.08464">
        <ele>251.8</ele>
        <time>2022-05-25T13:23:39.000Z</time>
      </trkpt>
      <trkpt lat="44.48856" lon="2.08463">
        <ele>251.6</ele>
        <time>2022-05-25T13:23:40.000Z</time>
      </trkpt>
      <trkpt lat="44.48845" lon="2.08458">
        <ele>251.6</ele>
        <time>2022-05-25T13:23:42.000Z</time>
      </trkpt>
      <trkpt lat="44.48834" lon="2.0845">
        <ele>251.6</ele>
        <time>2022-05-25T13:23:44.000Z</time>
      </trkpt>
      <trkpt lat="44.48815" lon="2.08427">
        <ele>251.6</ele>
        <time>2022-05-25T13:23:48.000Z</time>
      </trkpt>
      <trkpt lat="44.48807" lon="2.08416">
        <ele>251.6</ele>
        <time>2022-05-25T13:23:50.000Z</time>
      </trkpt>
      <trkpt lat="44.48776" lon="2.08379">
        <ele>252.2</ele>
        <time>2022-05-25T13:23:57.000Z</time>
      </trkpt>
      <trkpt lat="44.48765" lon="2.08371">
        <ele>252.4</ele>
        <time>2022-05-25T13:23:59.000Z</time>
      </trkpt>
      <trkpt lat="44.4876" lon="2.08368">
        <ele>252.4</ele>
        <time>2022-05-25T13:24:00.000Z</time>
      </trkpt>
      <trkpt lat="44.48749" lon="2.08362">
        <ele>252.8</ele>
        <time>2022-05-25T13:24:02.000Z</time>
      </trkpt>
      <trkpt lat="44.48743" lon="2.0836">
        <ele>253</ele>
        <time>2022-05-25T13:24:03.000Z</time>
      </trkpt>
      <trkpt lat="44.48726" lon="2.08357">
        <ele>253.4</ele>
        <time>2022-05-25T13:24:06.000Z</time>
      </trkpt>
      <trkpt lat="44.4869" lon="2.08362">
        <ele>253.8</ele>
        <time>2022-05-25T13:24:12.000Z</time>
      </trkpt>
      <trkpt lat="44.48673" lon="2.08366">
        <ele>254</ele>
        <time>2022-05-25T13:24:15.000Z</time>
      </trkpt>
      <trkpt lat="44.48651" lon="2.08373">
        <ele>253.8</ele>
        <time>2022-05-25T13:24:19.000Z</time>
      </trkpt>
      <trkpt lat="44.48609" lon="2.08392">
        <ele>254.4</ele>
        <time>2022-05-25T13:24:27.000Z</time>
      </trkpt>
      <trkpt lat="44.48603" lon="2.08395">
        <ele>254.6</ele>
        <time>2022-05-25T13:24:28.000Z</time>
      </trkpt>
      <trkpt lat="44.48558" lon="2.0842">
        <ele>254.8</ele>
        <time>2022-05-25T13:24:37.000Z</time>
      </trkpt>
      <trkpt lat="44.48539" lon="2.08434">
        <ele>255.2</ele>
        <time>2022-05-25T13:24:41.000Z</time>
      </trkpt>
      <trkpt lat="44.4853" lon="2.08439">
        <ele>255.4</ele>
        <time>2022-05-25T13:24:43.000Z</time>
      </trkpt>
      <trkpt lat="44.48511" lon="2.08449">
        <ele>255.6</ele>
        <time>2022-05-25T13:24:47.000Z</time>
      </trkpt>
      <trkpt lat="44.48506" lon="2.08452">
        <ele>255.6</ele>
        <time>2022-05-25T13:24:48.000Z</time>
      </trkpt>
      <trkpt lat="44.48467" lon="2.0847">
        <ele>255.8</ele>
        <time>2022-05-25T13:24:55.000Z</time>
      </trkpt>
      <trkpt lat="44.48431" lon="2.08479">
        <ele>256</ele>
        <time>2022-05-25T13:25:01.000Z</time>
      </trkpt>
      <trkpt lat="44.48425" lon="2.08479">
        <ele>256</ele>
        <time>2022-05-25T13:25:02.000Z</time>
      </trkpt>
      <trkpt lat="44.48412" lon="2.0848">
        <ele>256.2</ele>
        <time>2022-05-25T13:25:04.000Z</time>
      </trkpt>
      <trkpt lat="44.48389" lon="2.0848">
        <ele>256.2</ele>
        <time>2022-05-25T13:25:08.000Z</time>
      </trkpt>
      <trkpt lat="44.48349" lon="2.08477">
        <ele>256.6</ele>
        <time>2022-05-25T13:25:15.000Z</time>
      </trkpt>
      <trkpt lat="44.48343" lon="2.08477">
        <ele>256.8</ele>
        <time>2022-05-25T13:25:16.000Z</time>
      </trkpt>
      <trkpt lat="44.4832" lon="2.08476">
        <ele>256.8</ele>
        <time>2022-05-25T13:25:20.000Z</time>
      </trkpt>
      <trkpt lat="44.48309" lon="2.08475">
        <ele>256.8</ele>
        <time>2022-05-25T13:25:22.000Z</time>
      </trkpt>
      <trkpt lat="44.48298" lon="2.08475">
        <ele>257</ele>
        <time>2022-05-25T13:25:24.000Z</time>
      </trkpt>
      <trkpt lat="44.48287" lon="2.08476">
        <ele>257</ele>
        <time>2022-05-25T13:25:26.000Z</time>
      </trkpt>
      <trkpt lat="44.4828" lon="2.08476">
        <ele>257</ele>
        <time>2022-05-25T13:25:27.000Z</time>
      </trkpt>
      <trkpt lat="44.48244" lon="2.08474">
        <ele>257.2</ele>
        <time>2022-05-25T13:25:33.000Z</time>
      </trkpt>
      <trkpt lat="44.48226" lon="2.08472">
        <ele>257</ele>
        <time>2022-05-25T13:25:36.000Z</time>
      </trkpt>
      <trkpt lat="44.48209" lon="2.08469">
        <ele>256.8</ele>
        <time>2022-05-25T13:25:39.000Z</time>
      </trkpt>
      <trkpt lat="44.48202" lon="2.08469">
        <ele>256.6</ele>
        <time>2022-05-25T13:25:40.000Z</time>
      </trkpt>
      <trkpt lat="44.48146" lon="2.08464">
        <ele>256.6</ele>
        <time>2022-05-25T13:25:49.000Z</time>
      </trkpt>
      <trkpt lat="44.48108" lon="2.08461">
        <ele>256.8</ele>
        <time>2022-05-25T13:25:55.000Z</time>
      </trkpt>
      <trkpt lat="44.48101" lon="2.08461">
        <ele>256.8</ele>
        <time>2022-05-25T13:25:56.000Z</time>
      </trkpt>
      <trkpt lat="44.48071" lon="2.0846">
        <ele>257</ele>
        <time>2022-05-25T13:26:01.000Z</time>
      </trkpt>
      <trkpt lat="44.4803" lon="2.08458">
        <ele>257.2</ele>
        <time>2022-05-25T13:26:08.000Z</time>
      </trkpt>
      <trkpt lat="44.48001" lon="2.08457">
        <ele>257.6</ele>
        <time>2022-05-25T13:26:13.000Z</time>
      </trkpt>
      <trkpt lat="44.47989" lon="2.08456">
        <ele>258</ele>
        <time>2022-05-25T13:26:15.000Z</time>
      </trkpt>
      <trkpt lat="44.47948" lon="2.08453">
        <ele>258.4</ele>
        <time>2022-05-25T13:26:22.000Z</time>
      </trkpt>
      <trkpt lat="44.47912" lon="2.08451">
        <ele>258.8</ele>
        <time>2022-05-25T13:26:28.000Z</time>
      </trkpt>
      <trkpt lat="44.47901" lon="2.08451">
        <ele>259</ele>
        <time>2022-05-25T13:26:30.000Z</time>
      </trkpt>
      <trkpt lat="44.47841" lon="2.08449">
        <ele>259.2</ele>
        <time>2022-05-25T13:26:40.000Z</time>
      </trkpt>
      <trkpt lat="44.47823" lon="2.08448">
        <ele>260</ele>
        <time>2022-05-25T13:26:43.000Z</time>
      </trkpt>
      <trkpt lat="44.47788" lon="2.08446">
        <ele>260.2</ele>
        <time>2022-05-25T13:26:49.000Z</time>
      </trkpt>
      <trkpt lat="44.47739" lon="2.08443">
        <ele>260.4</ele>
        <time>2022-05-25T13:26:57.000Z</time>
      </trkpt>
      <trkpt lat="44.47699" lon="2.08442">
        <ele>260.6</ele>
        <time>2022-05-25T13:27:04.000Z</time>
      </trkpt>
      <trkpt lat="44.47669" lon="2.0844">
        <ele>261</ele>
        <time>2022-05-25T13:27:09.000Z</time>
      </trkpt>
      <trkpt lat="44.47657" lon="2.08437">
        <ele>261</ele>
        <time>2022-05-25T13:27:11.000Z</time>
      </trkpt>
      <trkpt lat="44.47651" lon="2.08434">
        <ele>261.2</ele>
        <time>2022-05-25T13:27:12.000Z</time>
      </trkpt>
      <trkpt lat="44.47629" lon="2.08421">
        <ele>261.6</ele>
        <time>2022-05-25T13:27:16.000Z</time>
      </trkpt>
      <trkpt lat="44.47615" lon="2.08407">
        <ele>262</ele>
        <time>2022-05-25T13:27:19.000Z</time>
      </trkpt>
      <trkpt lat="44.47603" lon="2.0839">
        <ele>262.6</ele>
        <time>2022-05-25T13:27:22.000Z</time>
      </trkpt>
      <trkpt lat="44.47585" lon="2.08361">
        <ele>262.8</ele>
        <time>2022-05-25T13:27:27.000Z</time>
      </trkpt>
      <trkpt lat="44.47582" lon="2.08354">
        <ele>263</ele>
        <time>2022-05-25T13:27:28.000Z</time>
      </trkpt>
      <trkpt lat="44.47579" lon="2.08347">
        <ele>263.2</ele>
        <time>2022-05-25T13:27:29.000Z</time>
      </trkpt>
      <trkpt lat="44.47576" lon="2.0834">
        <ele>263.6</ele>
        <time>2022-05-25T13:27:30.000Z</time>
      </trkpt>
      <trkpt lat="44.47569" lon="2.08328">
        <ele>264</ele>
        <time>2022-05-25T13:27:32.000Z</time>
      </trkpt>
      <trkpt lat="44.47562" lon="2.08316">
        <ele>264.4</ele>
        <time>2022-05-25T13:27:34.000Z</time>
      </trkpt>
      <trkpt lat="44.47548" lon="2.08291">
        <ele>265</ele>
        <time>2022-05-25T13:27:38.000Z</time>
      </trkpt>
      <trkpt lat="44.47541" lon="2.08281">
        <ele>265.4</ele>
        <time>2022-05-25T13:27:40.000Z</time>
      </trkpt>
      <trkpt lat="44.47538" lon="2.08275">
        <ele>265.4</ele>
        <time>2022-05-25T13:27:41.000Z</time>
      </trkpt>
      <trkpt lat="44.4752" lon="2.08245">
        <ele>266</ele>
        <time>2022-05-25T13:27:47.000Z</time>
      </trkpt>
      <trkpt lat="44.47517" lon="2.08241">
        <ele>266.2</ele>
        <time>2022-05-25T13:27:48.000Z</time>
      </trkpt>
      <trkpt lat="44.47506" lon="2.08223">
        <ele>267.4</ele>
        <time>2022-05-25T13:27:52.000Z</time>
      </trkpt>
      <trkpt lat="44.47503" lon="2.08218">
        <ele>267.6</ele>
        <time>2022-05-25T13:27:53.000Z</time>
      </trkpt>
      <trkpt lat="44.47489" lon="2.08196">
        <ele>268.6</ele>
        <time>2022-05-25T13:27:58.000Z</time>
      </trkpt>
      <trkpt lat="44.47481" lon="2.08183">
        <ele>269.4</ele>
        <time>2022-05-25T13:28:01.000Z</time>
      </trkpt>
      <trkpt lat="44.47476" lon="2.08174">
        <ele>270</ele>
        <time>2022-05-25T13:28:03.000Z</time>
      </trkpt>
      <trkpt lat="44.47474" lon="2.0817">
        <ele>270.2</ele>
        <time>2022-05-25T13:28:04.000Z</time>
      </trkpt>
      <trkpt lat="44.47471" lon="2.08166">
        <ele>270.2</ele>
        <time>2022-05-25T13:28:05.000Z</time>
      </trkpt>
      <trkpt lat="44.47464" lon="2.08154">
        <ele>271</ele>
        <time>2022-05-25T13:28:08.000Z</time>
      </trkpt>
      <trkpt lat="44.47462" lon="2.0815">
        <ele>271.2</ele>
        <time>2022-05-25T13:28:09.000Z</time>
      </trkpt>
      <trkpt lat="44.47449" lon="2.0813">
        <ele>272</ele>
        <time>2022-05-25T13:28:14.000Z</time>
      </trkpt>
      <trkpt lat="44.47446" lon="2.08126">
        <ele>272.2</ele>
        <time>2022-05-25T13:28:15.000Z</time>
      </trkpt>
      <trkpt lat="44.47433" lon="2.08102">
        <ele>273.4</ele>
        <time>2022-05-25T13:28:21.000Z</time>
      </trkpt>
      <trkpt lat="44.47428" lon="2.08095">
        <ele>273.8</ele>
        <time>2022-05-25T13:28:23.000Z</time>
      </trkpt>
      <trkpt lat="44.47419" lon="2.08082">
        <ele>274.4</ele>
        <time>2022-05-25T13:28:26.000Z</time>
      </trkpt>
      <trkpt lat="44.4741" lon="2.08069">
        <ele>275</ele>
        <time>2022-05-25T13:28:29.000Z</time>
      </trkpt>
      <trkpt lat="44.47398" lon="2.08054">
        <ele>275.8</ele>
        <time>2022-05-25T13:28:33.000Z</time>
      </trkpt>
      <trkpt lat="44.47385" lon="2.08034">
        <ele>276.8</ele>
        <time>2022-05-25T13:28:38.000Z</time>
      </trkpt>
      <trkpt lat="44.47382" lon="2.08031">
        <ele>276.8</ele>
        <time>2022-05-25T13:28:39.000Z</time>
      </trkpt>
      <trkpt lat="44.47364" lon="2.08007">
        <ele>277.8</ele>
        <time>2022-05-25T13:28:45.000Z</time>
      </trkpt>
      <trkpt lat="44.47362" lon="2.08004">
        <ele>278</ele>
        <time>2022-05-25T13:28:46.000Z</time>
      </trkpt>
      <trkpt lat="44.47345" lon="2.0798">
        <ele>279</ele>
        <time>2022-05-25T13:28:52.000Z</time>
      </trkpt>
      <trkpt lat="44.47342" lon="2.07976">
        <ele>279.4</ele>
        <time>2022-05-25T13:28:53.000Z</time>
      </trkpt>
      <trkpt lat="44.47321" lon="2.07949">
        <ele>280.4</ele>
        <time>2022-05-25T13:29:00.000Z</time>
      </trkpt>
      <trkpt lat="44.47316" lon="2.07941">
        <ele>280.6</ele>
        <time>2022-05-25T13:29:02.000Z</time>
      </trkpt>
      <trkpt lat="44.47302" lon="2.07922">
        <ele>281.4</ele>
        <time>2022-05-25T13:29:07.000Z</time>
      </trkpt>
      <trkpt lat="44.4729" lon="2.07905">
        <ele>282.6</ele>
        <time>2022-05-25T13:29:11.000Z</time>
      </trkpt>
      <trkpt lat="44.47287" lon="2.07901">
        <ele>282.6</ele>
        <time>2022-05-25T13:29:12.000Z</time>
      </trkpt>
      <trkpt lat="44.47268" lon="2.07875">
        <ele>283.6</ele>
        <time>2022-05-25T13:29:19.000Z</time>
      </trkpt>
      <trkpt lat="44.47259" lon="2.07864">
        <ele>284.2</ele>
        <time>2022-05-25T13:29:22.000Z</time>
      </trkpt>
      <trkpt lat="44.47241" lon="2.07843">
        <ele>285</ele>
        <time>2022-05-25T13:29:28.000Z</time>
      </trkpt>
      <trkpt lat="44.47228" lon="2.07831">
        <ele>285.6</ele>
        <time>2022-05-25T13:29:32.000Z</time>
      </trkpt>
      <trkpt lat="44.47218" lon="2.07822">
        <ele>286.2</ele>
        <time>2022-05-25T13:29:35.000Z</time>
      </trkpt>
      <trkpt lat="44.47202" lon="2.07806">
        <ele>287</ele>
        <time>2022-05-25T13:29:40.000Z</time>
      </trkpt>
      <trkpt lat="44.47188" lon="2.07783">
        <ele>287.2</ele>
        <time>2022-05-25T13:29:46.000Z</time>
      </trkpt>
      <trkpt lat="44.47184" lon="2.07764">
        <ele>287.2</ele>
        <time>2022-05-25T13:29:51.000Z</time>
      </trkpt>
      <trkpt lat="44.47184" lon="2.07762">
        <ele>287.2</ele>
        <time>2022-05-25T13:29:52.000Z</time>
      </trkpt>
      <trkpt lat="44.47184" lon="2.07761">
        <ele>287.6</ele>
        <time>2022-05-25T13:29:55.000Z</time>
      </trkpt>
      <trkpt lat="44.4718" lon="2.07759">
        <ele>288</ele>
        <time>2022-05-25T13:30:04.000Z</time>
      </trkpt>
      <trkpt lat="44.47179" lon="2.07765">
        <ele>288</ele>
        <time>2022-05-25T13:30:06.000Z</time>
      </trkpt>
      <trkpt lat="44.47182" lon="2.07782">
        <ele>287.8</ele>
        <time>2022-05-25T13:30:12.000Z</time>
      </trkpt>
      <trkpt lat="44.4719" lon="2.07799">
        <ele>287.6</ele>
        <time>2022-05-25T13:30:19.000Z</time>
      </trkpt>
      <trkpt lat="44.4719" lon="2.078">
        <ele>287.6</ele>
        <time>2022-05-25T13:30:21.000Z</time>
      </trkpt>
      <trkpt lat="44.47189" lon="2.0779">
        <ele>287.4</ele>
        <time>2022-05-25T13:31:08.000Z</time>
      </trkpt>
      <trkpt lat="44.47188" lon="2.07787">
        <ele>287.4</ele>
        <time>2022-05-25T13:31:09.000Z</time>
      </trkpt>
      <trkpt lat="44.47181" lon="2.07766">
        <ele>287.6</ele>
        <time>2022-05-25T13:31:15.000Z</time>
      </trkpt>
      <trkpt lat="44.47178" lon="2.07745">
        <ele>287.8</ele>
        <time>2022-05-25T13:31:19.000Z</time>
      </trkpt>
      <trkpt lat="44.47175" lon="2.07724">
        <ele>288</ele>
        <time>2022-05-25T13:31:23.000Z</time>
      </trkpt>
      <trkpt lat="44.47174" lon="2.07714">
        <ele>288</ele>
        <time>2022-05-25T13:31:25.000Z</time>
      </trkpt>
      <trkpt lat="44.47174" lon="2.07705">
        <ele>288.6</ele>
        <time>2022-05-25T13:31:27.000Z</time>
      </trkpt>
      <trkpt lat="44.47173" lon="2.07687">
        <ele>289.4</ele>
        <time>2022-05-25T13:31:32.000Z</time>
      </trkpt>
      <trkpt lat="44.47172" lon="2.07685">
        <ele>289.6</ele>
        <time>2022-05-25T13:31:33.000Z</time>
      </trkpt>
      <trkpt lat="44.47174" lon="2.0768">
        <ele>290</ele>
        <time>2022-05-25T13:31:37.000Z</time>
      </trkpt>
      <trkpt lat="44.47174" lon="2.0768">
        <ele>290.6</ele>
        <time>2022-05-25T13:31:40.000Z</time>
      </trkpt>
      <trkpt lat="44.47166" lon="2.07665">
        <ele>289.6</ele>
        <time>2022-05-25T13:43:07.000Z</time>
      </trkpt>
      <trkpt lat="44.47164" lon="2.07662">
        <ele>289.6</ele>
        <time>2022-05-25T13:43:08.000Z</time>
      </trkpt>
      <trkpt lat="44.47148" lon="2.07643">
        <ele>289.6</ele>
        <time>2022-05-25T13:43:14.000Z</time>
      </trkpt>
      <trkpt lat="44.47128" lon="2.07627">
        <ele>290</ele>
        <time>2022-05-25T13:43:20.000Z</time>
      </trkpt>
      <trkpt lat="44.47109" lon="2.07612">
        <ele>290.8</ele>
        <time>2022-05-25T13:43:26.000Z</time>
      </trkpt>
      <trkpt lat="44.47099" lon="2.07604">
        <ele>291.2</ele>
        <time>2022-05-25T13:43:29.000Z</time>
      </trkpt>
      <trkpt lat="44.47083" lon="2.07586">
        <ele>291.8</ele>
        <time>2022-05-25T13:43:34.000Z</time>
      </trkpt>
      <trkpt lat="44.4707" lon="2.07562">
        <ele>292</ele>
        <time>2022-05-25T13:43:39.000Z</time>
      </trkpt>
      <trkpt lat="44.47068" lon="2.07557">
        <ele>292</ele>
        <time>2022-05-25T13:43:40.000Z</time>
      </trkpt>
      <trkpt lat="44.47052" lon="2.07503">
        <ele>292.4</ele>
        <time>2022-05-25T13:43:49.000Z</time>
      </trkpt>
      <trkpt lat="44.47049" lon="2.07485">
        <ele>292.4</ele>
        <time>2022-05-25T13:43:52.000Z</time>
      </trkpt>
      <trkpt lat="44.4705" lon="2.07472">
        <ele>292.4</ele>
        <time>2022-05-25T13:43:54.000Z</time>
      </trkpt>
      <trkpt lat="44.47051" lon="2.07465">
        <ele>292.4</ele>
        <time>2022-05-25T13:43:55.000Z</time>
      </trkpt>
      <trkpt lat="44.47056" lon="2.07446">
        <ele>292.4</ele>
        <time>2022-05-25T13:43:58.000Z</time>
      </trkpt>
      <trkpt lat="44.47058" lon="2.0744">
        <ele>292.4</ele>
        <time>2022-05-25T13:43:59.000Z</time>
      </trkpt>
      <trkpt lat="44.47062" lon="2.0743">
        <ele>292.4</ele>
        <time>2022-05-25T13:44:01.000Z</time>
      </trkpt>
      <trkpt lat="44.47066" lon="2.07411">
        <ele>292.4</ele>
        <time>2022-05-25T13:44:04.000Z</time>
      </trkpt>
      <trkpt lat="44.47067" lon="2.07397">
        <ele>292.4</ele>
        <time>2022-05-25T13:44:06.000Z</time>
      </trkpt>
      <trkpt lat="44.47065" lon="2.07383">
        <ele>292.2</ele>
        <time>2022-05-25T13:44:08.000Z</time>
      </trkpt>
      <trkpt lat="44.47064" lon="2.07375">
        <ele>292.2</ele>
        <time>2022-05-25T13:44:09.000Z</time>
      </trkpt>
      <trkpt lat="44.4706" lon="2.07363">
        <ele>292.2</ele>
        <time>2022-05-25T13:44:11.000Z</time>
      </trkpt>
      <trkpt lat="44.47053" lon="2.07349">
        <ele>292</ele>
        <time>2022-05-25T13:44:13.000Z</time>
      </trkpt>
      <trkpt lat="44.47042" lon="2.07334">
        <ele>291.8</ele>
        <time>2022-05-25T13:44:16.000Z</time>
      </trkpt>
      <trkpt lat="44.47034" lon="2.07321">
        <ele>291.8</ele>
        <time>2022-05-25T13:44:18.000Z</time>
      </trkpt>
      <trkpt lat="44.47004" lon="2.07273">
        <ele>291.6</ele>
        <time>2022-05-25T13:44:26.000Z</time>
      </trkpt>
      <trkpt lat="44.46978" lon="2.07233">
        <ele>291.6</ele>
        <time>2022-05-25T13:44:34.000Z</time>
      </trkpt>
      <trkpt lat="44.46953" lon="2.07195">
        <ele>291.6</ele>
        <time>2022-05-25T13:44:41.000Z</time>
      </trkpt>
      <trkpt lat="44.46943" lon="2.0718">
        <ele>291.6</ele>
        <time>2022-05-25T13:44:44.000Z</time>
      </trkpt>
      <trkpt lat="44.46931" lon="2.07164">
        <ele>291.4</ele>
        <time>2022-05-25T13:44:47.000Z</time>
      </trkpt>
      <trkpt lat="44.46904" lon="2.07122">
        <ele>291.4</ele>
        <time>2022-05-25T13:44:54.000Z</time>
      </trkpt>
      <trkpt lat="44.46901" lon="2.07117">
        <ele>291.6</ele>
        <time>2022-05-25T13:44:55.000Z</time>
      </trkpt>
      <trkpt lat="44.46875" lon="2.07076">
        <ele>291.8</ele>
        <time>2022-05-25T13:45:02.000Z</time>
      </trkpt>
      <trkpt lat="44.46844" lon="2.07034">
        <ele>291.8</ele>
        <time>2022-05-25T13:45:10.000Z</time>
      </trkpt>
      <trkpt lat="44.46816" lon="2.07001">
        <ele>292.2</ele>
        <time>2022-05-25T13:45:17.000Z</time>
      </trkpt>
      <trkpt lat="44.46795" lon="2.06976">
        <ele>293</ele>
        <time>2022-05-25T13:45:23.000Z</time>
      </trkpt>
      <trkpt lat="44.46789" lon="2.06969">
        <ele>293.4</ele>
        <time>2022-05-25T13:45:25.000Z</time>
      </trkpt>
      <trkpt lat="44.46775" lon="2.06951">
        <ele>294.4</ele>
        <time>2022-05-25T13:45:29.000Z</time>
      </trkpt>
      <trkpt lat="44.46763" lon="2.06937">
        <ele>294.8</ele>
        <time>2022-05-25T13:45:32.000Z</time>
      </trkpt>
      <trkpt lat="44.46729" lon="2.06896">
        <ele>295.2</ele>
        <time>2022-05-25T13:45:42.000Z</time>
      </trkpt>
      <trkpt lat="44.46725" lon="2.06892">
        <ele>295.4</ele>
        <time>2022-05-25T13:45:43.000Z</time>
      </trkpt>
      <trkpt lat="44.46703" lon="2.06869">
        <ele>296.4</ele>
        <time>2022-05-25T13:45:49.000Z</time>
      </trkpt>
      <trkpt lat="44.46691" lon="2.06858">
        <ele>296.8</ele>
        <time>2022-05-25T13:45:52.000Z</time>
      </trkpt>
      <trkpt lat="44.46658" lon="2.06832">
        <ele>297.6</ele>
        <time>2022-05-25T13:46:00.000Z</time>
      </trkpt>
      <trkpt lat="44.46629" lon="2.06812">
        <ele>298.8</ele>
        <time>2022-05-25T13:46:07.000Z</time>
      </trkpt>
      <trkpt lat="44.46615" lon="2.06803">
        <ele>298.8</ele>
        <time>2022-05-25T13:46:10.000Z</time>
      </trkpt>
      <trkpt lat="44.46576" lon="2.06776">
        <ele>300</ele>
        <time>2022-05-25T13:46:19.000Z</time>
      </trkpt>
      <trkpt lat="44.46572" lon="2.06773">
        <ele>300</ele>
        <time>2022-05-25T13:46:20.000Z</time>
      </trkpt>
      <trkpt lat="44.46541" lon="2.06753">
        <ele>301</ele>
        <time>2022-05-25T13:46:27.000Z</time>
      </trkpt>
      <trkpt lat="44.46528" lon="2.06745">
        <ele>301.4</ele>
        <time>2022-05-25T13:46:30.000Z</time>
      </trkpt>
      <trkpt lat="44.4651" lon="2.06733">
        <ele>302</ele>
        <time>2022-05-25T13:46:34.000Z</time>
      </trkpt>
      <trkpt lat="44.46507" lon="2.06731">
        <ele>302</ele>
        <time>2022-05-25T13:46:35.000Z</time>
      </trkpt>
      <trkpt lat="44.46498" lon="2.06724">
        <ele>302.2</ele>
        <time>2022-05-25T13:46:37.000Z</time>
      </trkpt>
      <trkpt lat="44.46464" lon="2.06703">
        <ele>303</ele>
        <time>2022-05-25T13:46:45.000Z</time>
      </trkpt>
      <trkpt lat="44.46457" lon="2.067">
        <ele>303.2</ele>
        <time>2022-05-25T13:46:47.000Z</time>
      </trkpt>
      <trkpt lat="44.46439" lon="2.06694">
        <ele>304.2</ele>
        <time>2022-05-25T13:46:51.000Z</time>
      </trkpt>
      <trkpt lat="44.46425" lon="2.06692">
        <ele>304.6</ele>
        <time>2022-05-25T13:46:54.000Z</time>
      </trkpt>
      <trkpt lat="44.46398" lon="2.06691">
        <ele>305</ele>
        <time>2022-05-25T13:46:59.000Z</time>
      </trkpt>
      <trkpt lat="44.46382" lon="2.06692">
        <ele>305</ele>
        <time>2022-05-25T13:47:02.000Z</time>
      </trkpt>
      <trkpt lat="44.46334" lon="2.06693">
        <ele>304.8</ele>
        <time>2022-05-25T13:47:11.000Z</time>
      </trkpt>
      <trkpt lat="44.46291" lon="2.06686">
        <ele>304.8</ele>
        <time>2022-05-25T13:47:19.000Z</time>
      </trkpt>
      <trkpt lat="44.46285" lon="2.06683">
        <ele>304.8</ele>
        <time>2022-05-25T13:47:20.000Z</time>
      </trkpt>
      <trkpt lat="44.46268" lon="2.06668">
        <ele>305</ele>
        <time>2022-05-25T13:47:24.000Z</time>
      </trkpt>
      <trkpt lat="44.4626" lon="2.06657">
        <ele>305</ele>
        <time>2022-05-25T13:47:26.000Z</time>
      </trkpt>
      <trkpt lat="44.46247" lon="2.06633">
        <ele>305.2</ele>
        <time>2022-05-25T13:47:30.000Z</time>
      </trkpt>
      <trkpt lat="44.46243" lon="2.06622">
        <ele>305.4</ele>
        <time>2022-05-25T13:47:32.000Z</time>
      </trkpt>
      <trkpt lat="44.46232" lon="2.06593">
        <ele>306</ele>
        <time>2022-05-25T13:47:37.000Z</time>
      </trkpt>
      <trkpt lat="44.46225" lon="2.06571">
        <ele>306.4</ele>
        <time>2022-05-25T13:47:41.000Z</time>
      </trkpt>
      <trkpt lat="44.46219" lon="2.06551">
        <ele>307</ele>
        <time>2022-05-25T13:47:45.000Z</time>
      </trkpt>
      <trkpt lat="44.46213" lon="2.06536">
        <ele>307.6</ele>
        <time>2022-05-25T13:47:48.000Z</time>
      </trkpt>
      <trkpt lat="44.46205" lon="2.06512">
        <ele>308.6</ele>
        <time>2022-05-25T13:47:53.000Z</time>
      </trkpt>
      <trkpt lat="44.46202" lon="2.06502">
        <ele>309</ele>
        <time>2022-05-25T13:47:55.000Z</time>
      </trkpt>
      <trkpt lat="44.46195" lon="2.06484">
        <ele>310</ele>
        <time>2022-05-25T13:47:59.000Z</time>
      </trkpt>
      <trkpt lat="44.46189" lon="2.06466">
        <ele>310.6</ele>
        <time>2022-05-25T13:48:03.000Z</time>
      </trkpt>
      <trkpt lat="44.46186" lon="2.06457">
        <ele>311</ele>
        <time>2022-05-25T13:48:05.000Z</time>
      </trkpt>
      <trkpt lat="44.46177" lon="2.0643">
        <ele>312</ele>
        <time>2022-05-25T13:48:11.000Z</time>
      </trkpt>
      <trkpt lat="44.46174" lon="2.06421">
        <ele>312.2</ele>
        <time>2022-05-25T13:48:13.000Z</time>
      </trkpt>
      <trkpt lat="44.46164" lon="2.06393">
        <ele>313</ele>
        <time>2022-05-25T13:48:19.000Z</time>
      </trkpt>
      <trkpt lat="44.46161" lon="2.06385">
        <ele>313.6</ele>
        <time>2022-05-25T13:48:21.000Z</time>
      </trkpt>
      <trkpt lat="44.46151" lon="2.06357">
        <ele>314.8</ele>
        <time>2022-05-25T13:48:27.000Z</time>
      </trkpt>
      <trkpt lat="44.46146" lon="2.06343">
        <ele>315.2</ele>
        <time>2022-05-25T13:48:30.000Z</time>
      </trkpt>
      <trkpt lat="44.4614" lon="2.06325">
        <ele>315.8</ele>
        <time>2022-05-25T13:48:34.000Z</time>
      </trkpt>
      <trkpt lat="44.46135" lon="2.06307">
        <ele>316.4</ele>
        <time>2022-05-25T13:48:38.000Z</time>
      </trkpt>
      <trkpt lat="44.46132" lon="2.06297">
        <ele>316.8</ele>
        <time>2022-05-25T13:48:40.000Z</time>
      </trkpt>
      <trkpt lat="44.46123" lon="2.06265">
        <ele>318</ele>
        <time>2022-05-25T13:48:47.000Z</time>
      </trkpt>
      <trkpt lat="44.4611" lon="2.06229">
        <ele>319</ele>
        <time>2022-05-25T13:48:55.000Z</time>
      </trkpt>
      <trkpt lat="44.46107" lon="2.0622">
        <ele>319.2</ele>
        <time>2022-05-25T13:48:57.000Z</time>
      </trkpt>
      <trkpt lat="44.46099" lon="2.06199">
        <ele>320.2</ele>
        <time>2022-05-25T13:49:02.000Z</time>
      </trkpt>
      <trkpt lat="44.46096" lon="2.06191">
        <ele>320.4</ele>
        <time>2022-05-25T13:49:04.000Z</time>
      </trkpt>
      <trkpt lat="44.46089" lon="2.06175">
        <ele>321.2</ele>
        <time>2022-05-25T13:49:08.000Z</time>
      </trkpt>
      <trkpt lat="44.46084" lon="2.06164">
        <ele>321.6</ele>
        <time>2022-05-25T13:49:11.000Z</time>
      </trkpt>
      <trkpt lat="44.46074" lon="2.06151">
        <ele>322.2</ele>
        <time>2022-05-25T13:49:15.000Z</time>
      </trkpt>
      <trkpt lat="44.46057" lon="2.06133">
        <ele>323.2</ele>
        <time>2022-05-25T13:49:21.000Z</time>
      </trkpt>
      <trkpt lat="44.46054" lon="2.06131">
        <ele>323.6</ele>
        <time>2022-05-25T13:49:22.000Z</time>
      </trkpt>
      <trkpt lat="44.46038" lon="2.06119">
        <ele>324.4</ele>
        <time>2022-05-25T13:49:27.000Z</time>
      </trkpt>
      <trkpt lat="44.46035" lon="2.06117">
        <ele>324.6</ele>
        <time>2022-05-25T13:49:28.000Z</time>
      </trkpt>
      <trkpt lat="44.46007" lon="2.061">
        <ele>326</ele>
        <time>2022-05-25T13:49:36.000Z</time>
      </trkpt>
      <trkpt lat="44.45987" lon="2.06088">
        <ele>327.2</ele>
        <time>2022-05-25T13:49:42.000Z</time>
      </trkpt>
      <trkpt lat="44.45979" lon="2.06083">
        <ele>327.6</ele>
        <time>2022-05-25T13:49:44.000Z</time>
      </trkpt>
      <trkpt lat="44.45969" lon="2.06077">
        <ele>328.2</ele>
        <time>2022-05-25T13:49:47.000Z</time>
      </trkpt>
      <trkpt lat="44.45956" lon="2.06069">
        <ele>328.8</ele>
        <time>2022-05-25T13:49:51.000Z</time>
      </trkpt>
      <trkpt lat="44.45945" lon="2.06063">
        <ele>329.2</ele>
        <time>2022-05-25T13:49:54.000Z</time>
      </trkpt>
      <trkpt lat="44.45923" lon="2.06051">
        <ele>330.2</ele>
        <time>2022-05-25T13:50:00.000Z</time>
      </trkpt>
      <trkpt lat="44.45899" lon="2.06037">
        <ele>331.2</ele>
        <time>2022-05-25T13:50:07.000Z</time>
      </trkpt>
      <trkpt lat="44.45889" lon="2.06032">
        <ele>331.6</ele>
        <time>2022-05-25T13:50:10.000Z</time>
      </trkpt>
      <trkpt lat="44.45882" lon="2.06028">
        <ele>332.4</ele>
        <time>2022-05-25T13:50:12.000Z</time>
      </trkpt>
      <trkpt lat="44.45859" lon="2.06014">
        <ele>333.2</ele>
        <time>2022-05-25T13:50:19.000Z</time>
      </trkpt>
      <trkpt lat="44.45855" lon="2.06012">
        <ele>333.6</ele>
        <time>2022-05-25T13:50:20.000Z</time>
      </trkpt>
      <trkpt lat="44.45831" lon="2.06">
        <ele>334.6</ele>
        <time>2022-05-25T13:50:27.000Z</time>
      </trkpt>
      <trkpt lat="44.45827" lon="2.05998">
        <ele>334.8</ele>
        <time>2022-05-25T13:50:28.000Z</time>
      </trkpt>
      <trkpt lat="44.45813" lon="2.05994">
        <ele>335.6</ele>
        <time>2022-05-25T13:50:32.000Z</time>
      </trkpt>
      <trkpt lat="44.45805" lon="2.05992">
        <ele>335.8</ele>
        <time>2022-05-25T13:50:34.000Z</time>
      </trkpt>
      <trkpt lat="44.45779" lon="2.05988">
        <ele>336.8</ele>
        <time>2022-05-25T13:50:41.000Z</time>
      </trkpt>
      <trkpt lat="44.45772" lon="2.05986">
        <ele>337.2</ele>
        <time>2022-05-25T13:50:43.000Z</time>
      </trkpt>
      <trkpt lat="44.45756" lon="2.05983">
        <ele>338</ele>
        <time>2022-05-25T13:50:47.000Z</time>
      </trkpt>
      <trkpt lat="44.4573" lon="2.05979">
        <ele>339</ele>
        <time>2022-05-25T13:50:54.000Z</time>
      </trkpt>
      <trkpt lat="44.45723" lon="2.05977">
        <ele>339.4</ele>
        <time>2022-05-25T13:50:56.000Z</time>
      </trkpt>
      <trkpt lat="44.45712" lon="2.05974">
        <ele>340</ele>
        <time>2022-05-25T13:50:59.000Z</time>
      </trkpt>
      <trkpt lat="44.45682" lon="2.05969">
        <ele>341.2</ele>
        <time>2022-05-25T13:51:07.000Z</time>
      </trkpt>
      <trkpt lat="44.45675" lon="2.05967">
        <ele>341.4</ele>
        <time>2022-05-25T13:51:09.000Z</time>
      </trkpt>
      <trkpt lat="44.45659" lon="2.05963">
        <ele>342.2</ele>
        <time>2022-05-25T13:51:13.000Z</time>
      </trkpt>
      <trkpt lat="44.45648" lon="2.05961">
        <ele>343.2</ele>
        <time>2022-05-25T13:51:16.000Z</time>
      </trkpt>
      <trkpt lat="44.45625" lon="2.05957">
        <ele>344.2</ele>
        <time>2022-05-25T13:51:22.000Z</time>
      </trkpt>
      <trkpt lat="44.45622" lon="2.05956">
        <ele>344.6</ele>
        <time>2022-05-25T13:51:23.000Z</time>
      </trkpt>
      <trkpt lat="44.45596" lon="2.05947">
        <ele>345.4</ele>
        <time>2022-05-25T13:51:30.000Z</time>
      </trkpt>
      <trkpt lat="44.45582" lon="2.05937">
        <ele>346.6</ele>
        <time>2022-05-25T13:51:34.000Z</time>
      </trkpt>
      <trkpt lat="44.45572" lon="2.05928">
        <ele>347</ele>
        <time>2022-05-25T13:51:37.000Z</time>
      </trkpt>
      <trkpt lat="44.45554" lon="2.05907">
        <ele>347.6</ele>
        <time>2022-05-25T13:51:43.000Z</time>
      </trkpt>
      <trkpt lat="44.45549" lon="2.05898">
        <ele>348.2</ele>
        <time>2022-05-25T13:51:45.000Z</time>
      </trkpt>
      <trkpt lat="44.45541" lon="2.05879">
        <ele>348.8</ele>
        <time>2022-05-25T13:51:49.000Z</time>
      </trkpt>
      <trkpt lat="44.45538" lon="2.05868">
        <ele>349</ele>
        <time>2022-05-25T13:51:51.000Z</time>
      </trkpt>
      <trkpt lat="44.45537" lon="2.05842">
        <ele>349.8</ele>
        <time>2022-05-25T13:51:56.000Z</time>
      </trkpt>
      <trkpt lat="44.45537" lon="2.05837">
        <ele>350</ele>
        <time>2022-05-25T13:51:57.000Z</time>
      </trkpt>
      <trkpt lat="44.45533" lon="2.05806">
        <ele>351</ele>
        <time>2022-05-25T13:52:03.000Z</time>
      </trkpt>
      <trkpt lat="44.45531" lon="2.05795">
        <ele>351.2</ele>
        <time>2022-05-25T13:52:05.000Z</time>
      </trkpt>
      <trkpt lat="44.4552" lon="2.05772">
        <ele>352</ele>
        <time>2022-05-25T13:52:10.000Z</time>
      </trkpt>
      <trkpt lat="44.45513" lon="2.05768">
        <ele>352</ele>
        <time>2022-05-25T13:52:12.000Z</time>
      </trkpt>
      <trkpt lat="44.45502" lon="2.05765">
        <ele>352.6</ele>
        <time>2022-05-25T13:52:15.000Z</time>
      </trkpt>
      <trkpt lat="44.45487" lon="2.05768">
        <ele>353.2</ele>
        <time>2022-05-25T13:52:19.000Z</time>
      </trkpt>
      <trkpt lat="44.45484" lon="2.05769">
        <ele>353.4</ele>
        <time>2022-05-25T13:52:20.000Z</time>
      </trkpt>
      <trkpt lat="44.45469" lon="2.05777">
        <ele>354.4</ele>
        <time>2022-05-25T13:52:24.000Z</time>
      </trkpt>
      <trkpt lat="44.45455" lon="2.05784">
        <ele>354.8</ele>
        <time>2022-05-25T13:52:28.000Z</time>
      </trkpt>
      <trkpt lat="44.4544" lon="2.0579">
        <ele>355.6</ele>
        <time>2022-05-25T13:52:32.000Z</time>
      </trkpt>
      <trkpt lat="44.45429" lon="2.05791">
        <ele>356.2</ele>
        <time>2022-05-25T13:52:35.000Z</time>
      </trkpt>
      <trkpt lat="44.45422" lon="2.0579">
        <ele>356.6</ele>
        <time>2022-05-25T13:52:37.000Z</time>
      </trkpt>
      <trkpt lat="44.45412" lon="2.05782">
        <ele>357</ele>
        <time>2022-05-25T13:52:40.000Z</time>
      </trkpt>
      <trkpt lat="44.45402" lon="2.05766">
        <ele>358</ele>
        <time>2022-05-25T13:52:44.000Z</time>
      </trkpt>
      <trkpt lat="44.454" lon="2.05762">
        <ele>358</ele>
        <time>2022-05-25T13:52:45.000Z</time>
      </trkpt>
      <trkpt lat="44.45392" lon="2.05731">
        <ele>359</ele>
        <time>2022-05-25T13:52:51.000Z</time>
      </trkpt>
      <trkpt lat="44.45387" lon="2.05695">
        <ele>360</ele>
        <time>2022-05-25T13:52:58.000Z</time>
      </trkpt>
      <trkpt lat="44.45386" lon="2.0569">
        <ele>360</ele>
        <time>2022-05-25T13:52:59.000Z</time>
      </trkpt>
      <trkpt lat="44.45377" lon="2.05666">
        <ele>361.2</ele>
        <time>2022-05-25T13:53:04.000Z</time>
      </trkpt>
      <trkpt lat="44.45375" lon="2.05662">
        <ele>361.2</ele>
        <time>2022-05-25T13:53:05.000Z</time>
      </trkpt>
      <trkpt lat="44.45362" lon="2.05644">
        <ele>362.4</ele>
        <time>2022-05-25T13:53:10.000Z</time>
      </trkpt>
      <trkpt lat="44.45355" lon="2.05638">
        <ele>363</ele>
        <time>2022-05-25T13:53:12.000Z</time>
      </trkpt>
      <trkpt lat="44.45342" lon="2.05628">
        <ele>363.6</ele>
        <time>2022-05-25T13:53:16.000Z</time>
      </trkpt>
      <trkpt lat="44.45333" lon="2.05619">
        <ele>364</ele>
        <time>2022-05-25T13:53:19.000Z</time>
      </trkpt>
      <trkpt lat="44.45322" lon="2.05599">
        <ele>364.8</ele>
        <time>2022-05-25T13:53:24.000Z</time>
      </trkpt>
      <trkpt lat="44.45317" lon="2.0559">
        <ele>365</ele>
        <time>2022-05-25T13:53:26.000Z</time>
      </trkpt>
      <trkpt lat="44.4531" lon="2.05571">
        <ele>365.8</ele>
        <time>2022-05-25T13:53:30.000Z</time>
      </trkpt>
      <trkpt lat="44.45304" lon="2.05557">
        <ele>366.2</ele>
        <time>2022-05-25T13:53:33.000Z</time>
      </trkpt>
      <trkpt lat="44.45296" lon="2.05533">
        <ele>367</ele>
        <time>2022-05-25T13:53:38.000Z</time>
      </trkpt>
      <trkpt lat="44.45289" lon="2.05521">
        <ele>367.6</ele>
        <time>2022-05-25T13:53:41.000Z</time>
      </trkpt>
      <trkpt lat="44.4528" lon="2.05509">
        <ele>368</ele>
        <time>2022-05-25T13:53:44.000Z</time>
      </trkpt>
      <trkpt lat="44.45274" lon="2.05503">
        <ele>368.4</ele>
        <time>2022-05-25T13:53:46.000Z</time>
      </trkpt>
      <trkpt lat="44.4526" lon="2.05495">
        <ele>369.2</ele>
        <time>2022-05-25T13:53:50.000Z</time>
      </trkpt>
      <trkpt lat="44.4525" lon="2.05489">
        <ele>369.6</ele>
        <time>2022-05-25T13:53:53.000Z</time>
      </trkpt>
      <trkpt lat="44.45236" lon="2.0548">
        <ele>370.2</ele>
        <time>2022-05-25T13:53:57.000Z</time>
      </trkpt>
      <trkpt lat="44.45222" lon="2.05462">
        <ele>371</ele>
        <time>2022-05-25T13:54:02.000Z</time>
      </trkpt>
      <trkpt lat="44.45217" lon="2.05454">
        <ele>371.4</ele>
        <time>2022-05-25T13:54:04.000Z</time>
      </trkpt>
      <trkpt lat="44.4521" lon="2.05429">
        <ele>372.4</ele>
        <time>2022-05-25T13:54:09.000Z</time>
      </trkpt>
      <trkpt lat="44.452" lon="2.05387">
        <ele>373.6</ele>
        <time>2022-05-25T13:54:17.000Z</time>
      </trkpt>
      <trkpt lat="44.45196" lon="2.05354">
        <ele>374.6</ele>
        <time>2022-05-25T13:54:23.000Z</time>
      </trkpt>
      <trkpt lat="44.45195" lon="2.05343">
        <ele>375</ele>
        <time>2022-05-25T13:54:25.000Z</time>
      </trkpt>
      <trkpt lat="44.45196" lon="2.05322">
        <ele>375.6</ele>
        <time>2022-05-25T13:54:29.000Z</time>
      </trkpt>
      <trkpt lat="44.45198" lon="2.05307">
        <ele>376.2</ele>
        <time>2022-05-25T13:54:32.000Z</time>
      </trkpt>
      <trkpt lat="44.45201" lon="2.05297">
        <ele>376.6</ele>
        <time>2022-05-25T13:54:34.000Z</time>
      </trkpt>
      <trkpt lat="44.45208" lon="2.05266">
        <ele>377.6</ele>
        <time>2022-05-25T13:54:40.000Z</time>
      </trkpt>
      <trkpt lat="44.45213" lon="2.05251">
        <ele>378</ele>
        <time>2022-05-25T13:54:43.000Z</time>
      </trkpt>
      <trkpt lat="44.45218" lon="2.05232">
        <ele>378.6</ele>
        <time>2022-05-25T13:54:47.000Z</time>
      </trkpt>
      <trkpt lat="44.4522" lon="2.05216">
        <ele>379</ele>
        <time>2022-05-25T13:54:50.000Z</time>
      </trkpt>
      <trkpt lat="44.45221" lon="2.05199">
        <ele>379.4</ele>
        <time>2022-05-25T13:54:53.000Z</time>
      </trkpt>
      <trkpt lat="44.45221" lon="2.05188">
        <ele>380</ele>
        <time>2022-05-25T13:54:55.000Z</time>
      </trkpt>
      <trkpt lat="44.45219" lon="2.05162">
        <ele>381</ele>
        <time>2022-05-25T13:55:00.000Z</time>
      </trkpt>
      <trkpt lat="44.45219" lon="2.05157">
        <ele>381.2</ele>
        <time>2022-05-25T13:55:01.000Z</time>
      </trkpt>
      <trkpt lat="44.45219" lon="2.05153">
        <ele>381.2</ele>
        <time>2022-05-25T13:55:02.000Z</time>
      </trkpt>
      <trkpt lat="44.45218" lon="2.05147">
        <ele>381.4</ele>
        <time>2022-05-25T13:55:03.000Z</time>
      </trkpt>
      <trkpt lat="44.4521" lon="2.05119">
        <ele>381.8</ele>
        <time>2022-05-25T13:55:08.000Z</time>
      </trkpt>
      <trkpt lat="44.45203" lon="2.05096">
        <ele>382.2</ele>
        <time>2022-05-25T13:55:12.000Z</time>
      </trkpt>
      <trkpt lat="44.45198" lon="2.0508">
        <ele>382.6</ele>
        <time>2022-05-25T13:55:15.000Z</time>
      </trkpt>
      <trkpt lat="44.45183" lon="2.05054">
        <ele>383.4</ele>
        <time>2022-05-25T13:55:21.000Z</time>
      </trkpt>
      <trkpt lat="44.45164" lon="2.05032">
        <ele>384</ele>
        <time>2022-05-25T13:55:27.000Z</time>
      </trkpt>
      <trkpt lat="44.4515" lon="2.05022">
        <ele>384.2</ele>
        <time>2022-05-25T13:55:31.000Z</time>
      </trkpt>
      <trkpt lat="44.45142" lon="2.05019">
        <ele>384.4</ele>
        <time>2022-05-25T13:55:33.000Z</time>
      </trkpt>
      <trkpt lat="44.45139" lon="2.05017">
        <ele>384.8</ele>
        <time>2022-05-25T13:55:34.000Z</time>
      </trkpt>
      <trkpt lat="44.45109" lon="2.05008">
        <ele>385.4</ele>
        <time>2022-05-25T13:55:42.000Z</time>
      </trkpt>
      <trkpt lat="44.4509" lon="2.05003">
        <ele>386.6</ele>
        <time>2022-05-25T13:55:47.000Z</time>
      </trkpt>
      <trkpt lat="44.45078" lon="2.05002">
        <ele>387</ele>
        <time>2022-05-25T13:55:50.000Z</time>
      </trkpt>
      <trkpt lat="44.45051" lon="2.04999">
        <ele>387.6</ele>
        <time>2022-05-25T13:55:56.000Z</time>
      </trkpt>
      <trkpt lat="44.45039" lon="2.04999">
        <ele>387.8</ele>
        <time>2022-05-25T13:55:59.000Z</time>
      </trkpt>
      <trkpt lat="44.44995" lon="2.04998">
        <ele>388.8</ele>
        <time>2022-05-25T13:56:09.000Z</time>
      </trkpt>
      <trkpt lat="44.4498" lon="2.04998">
        <ele>389</ele>
        <time>2022-05-25T13:56:13.000Z</time>
      </trkpt>
      <trkpt lat="44.44958" lon="2.04995">
        <ele>389.6</ele>
        <time>2022-05-25T13:56:18.000Z</time>
      </trkpt>
      <trkpt lat="44.44953" lon="2.04995">
        <ele>389.8</ele>
        <time>2022-05-25T13:56:19.000Z</time>
      </trkpt>
      <trkpt lat="44.44928" lon="2.04988">
        <ele>390.6</ele>
        <time>2022-05-25T13:56:25.000Z</time>
      </trkpt>
      <trkpt lat="44.44915" lon="2.04982">
        <ele>391</ele>
        <time>2022-05-25T13:56:28.000Z</time>
      </trkpt>
      <trkpt lat="44.4491" lon="2.04979">
        <ele>391.2</ele>
        <time>2022-05-25T13:56:29.000Z</time>
      </trkpt>
      <trkpt lat="44.44902" lon="2.04972">
        <ele>391.6</ele>
        <time>2022-05-25T13:56:31.000Z</time>
      </trkpt>
      <trkpt lat="44.44892" lon="2.0496">
        <ele>392</ele>
        <time>2022-05-25T13:56:34.000Z</time>
      </trkpt>
      <trkpt lat="44.44884" lon="2.04945">
        <ele>392.2</ele>
        <time>2022-05-25T13:56:37.000Z</time>
      </trkpt>
      <trkpt lat="44.44876" lon="2.04917">
        <ele>392.6</ele>
        <time>2022-05-25T13:56:42.000Z</time>
      </trkpt>
      <trkpt lat="44.44875" lon="2.04911">
        <ele>392.8</ele>
        <time>2022-05-25T13:56:43.000Z</time>
      </trkpt>
      <trkpt lat="44.44875" lon="2.04888">
        <ele>393.2</ele>
        <time>2022-05-25T13:56:47.000Z</time>
      </trkpt>
      <trkpt lat="44.44877" lon="2.04876">
        <ele>393.4</ele>
        <time>2022-05-25T13:56:49.000Z</time>
      </trkpt>
      <trkpt lat="44.44888" lon="2.04838">
        <ele>394</ele>
        <time>2022-05-25T13:56:56.000Z</time>
      </trkpt>
      <trkpt lat="44.44892" lon="2.04829">
        <ele>394.2</ele>
        <time>2022-05-25T13:56:58.000Z</time>
      </trkpt>
      <trkpt lat="44.44899" lon="2.04812">
        <ele>395.4</ele>
        <time>2022-05-25T13:57:02.000Z</time>
      </trkpt>
      <trkpt lat="44.449" lon="2.04807">
        <ele>395.4</ele>
        <time>2022-05-25T13:57:03.000Z</time>
      </trkpt>
      <trkpt lat="44.44913" lon="2.04783">
        <ele>396</ele>
        <time>2022-05-25T13:57:09.000Z</time>
      </trkpt>
      <trkpt lat="44.44918" lon="2.04773">
        <ele>396.4</ele>
        <time>2022-05-25T13:57:11.000Z</time>
      </trkpt>
      <trkpt lat="44.44919" lon="2.04767">
        <ele>396.4</ele>
        <time>2022-05-25T13:57:12.000Z</time>
      </trkpt>
      <trkpt lat="44.44926" lon="2.04752">
        <ele>396.8</ele>
        <time>2022-05-25T13:57:15.000Z</time>
      </trkpt>
      <trkpt lat="44.4494" lon="2.04719">
        <ele>397.4</ele>
        <time>2022-05-25T13:57:21.000Z</time>
      </trkpt>
      <trkpt lat="44.44945" lon="2.04708">
        <ele>397.6</ele>
        <time>2022-05-25T13:57:23.000Z</time>
      </trkpt>
      <trkpt lat="44.44958" lon="2.04679">
        <ele>398.2</ele>
        <time>2022-05-25T13:57:28.000Z</time>
      </trkpt>
      <trkpt lat="44.44963" lon="2.04669">
        <ele>398.4</ele>
        <time>2022-05-25T13:57:30.000Z</time>
      </trkpt>
      <trkpt lat="44.44969" lon="2.04651">
        <ele>399.4</ele>
        <time>2022-05-25T13:57:33.000Z</time>
      </trkpt>
      <trkpt lat="44.44972" lon="2.04643">
        <ele>399.6</ele>
        <time>2022-05-25T13:57:35.000Z</time>
      </trkpt>
      <trkpt lat="44.44987" lon="2.04618">
        <ele>400.4</ele>
        <time>2022-05-25T13:57:39.000Z</time>
      </trkpt>
      <trkpt lat="44.44994" lon="2.04601">
        <ele>400.8</ele>
        <time>2022-05-25T13:57:42.000Z</time>
      </trkpt>
      <trkpt lat="44.44996" lon="2.04589">
        <ele>401.2</ele>
        <time>2022-05-25T13:57:44.000Z</time>
      </trkpt>
      <trkpt lat="44.45009" lon="2.04562">
        <ele>401.8</ele>
        <time>2022-05-25T13:57:49.000Z</time>
      </trkpt>
      <trkpt lat="44.45016" lon="2.04546">
        <ele>402</ele>
        <time>2022-05-25T13:57:52.000Z</time>
      </trkpt>
      <trkpt lat="44.45018" lon="2.04535">
        <ele>402.2</ele>
        <time>2022-05-25T13:57:54.000Z</time>
      </trkpt>
      <trkpt lat="44.45028" lon="2.04511">
        <ele>402.8</ele>
        <time>2022-05-25T13:57:58.000Z</time>
      </trkpt>
      <trkpt lat="44.45038" lon="2.04493">
        <ele>403</ele>
        <time>2022-05-25T13:58:01.000Z</time>
      </trkpt>
      <trkpt lat="44.45048" lon="2.0447">
        <ele>403.4</ele>
        <time>2022-05-25T13:58:05.000Z</time>
      </trkpt>
      <trkpt lat="44.45052" lon="2.04458">
        <ele>403.6</ele>
        <time>2022-05-25T13:58:07.000Z</time>
      </trkpt>
      <trkpt lat="44.45053" lon="2.04452">
        <ele>403.8</ele>
        <time>2022-05-25T13:58:08.000Z</time>
      </trkpt>
      <trkpt lat="44.45055" lon="2.04447">
        <ele>404</ele>
        <time>2022-05-25T13:58:09.000Z</time>
      </trkpt>
      <trkpt lat="44.45058" lon="2.04422">
        <ele>404.6</ele>
        <time>2022-05-25T13:58:13.000Z</time>
      </trkpt>
      <trkpt lat="44.45058" lon="2.0441">
        <ele>404.8</ele>
        <time>2022-05-25T13:58:15.000Z</time>
      </trkpt>
      <trkpt lat="44.45055" lon="2.04386">
        <ele>404.8</ele>
        <time>2022-05-25T13:58:19.000Z</time>
      </trkpt>
      <trkpt lat="44.45053" lon="2.04375">
        <ele>405</ele>
        <time>2022-05-25T13:58:22.000Z</time>
      </trkpt>
      <trkpt lat="44.45052" lon="2.04374">
        <ele>405</ele>
        <time>2022-05-25T13:58:23.000Z</time>
      </trkpt>
      <trkpt lat="44.45052" lon="2.04373">
        <ele>405</ele>
        <time>2022-05-25T13:58:25.000Z</time>
      </trkpt>
      <trkpt lat="44.45052" lon="2.04373">
        <ele>405</ele>
        <time>2022-05-25T13:58:26.000Z</time>
      </trkpt>
      <trkpt lat="44.45048" lon="2.04369">
        <ele>405.4</ele>
        <time>2022-05-25T14:00:15.000Z</time>
      </trkpt>
      <trkpt lat="44.45035" lon="2.04349">
        <ele>405</ele>
        <time>2022-05-25T14:00:21.000Z</time>
      </trkpt>
      <trkpt lat="44.4502" lon="2.04326">
        <ele>404.8</ele>
        <time>2022-05-25T14:00:26.000Z</time>
      </trkpt>
      <trkpt lat="44.44989" lon="2.04284">
        <ele>404.2</ele>
        <time>2022-05-25T14:00:34.000Z</time>
      </trkpt>
      <trkpt lat="44.44985" lon="2.04279">
        <ele>404</ele>
        <time>2022-05-25T14:00:35.000Z</time>
      </trkpt>
      <trkpt lat="44.44957" lon="2.04239">
        <ele>403.4</ele>
        <time>2022-05-25T14:00:43.000Z</time>
      </trkpt>
      <trkpt lat="44.44942" lon="2.04219">
        <ele>403.4</ele>
        <time>2022-05-25T14:00:47.000Z</time>
      </trkpt>
      <trkpt lat="44.44932" lon="2.04203">
        <ele>403.4</ele>
        <time>2022-05-25T14:00:50.000Z</time>
      </trkpt>
      <trkpt lat="44.44906" lon="2.04168">
        <ele>403</ele>
        <time>2022-05-25T14:00:56.000Z</time>
      </trkpt>
      <trkpt lat="44.44871" lon="2.04119">
        <ele>402.2</ele>
        <time>2022-05-25T14:01:04.000Z</time>
      </trkpt>
      <trkpt lat="44.44867" lon="2.04113">
        <ele>402</ele>
        <time>2022-05-25T14:01:05.000Z</time>
      </trkpt>
      <trkpt lat="44.44859" lon="2.041">
        <ele>401.8</ele>
        <time>2022-05-25T14:01:07.000Z</time>
      </trkpt>
      <trkpt lat="44.44845" lon="2.04085">
        <ele>401.6</ele>
        <time>2022-05-25T14:01:10.000Z</time>
      </trkpt>
      <trkpt lat="44.44805" lon="2.04055">
        <ele>401.4</ele>
        <time>2022-05-25T14:01:17.000Z</time>
      </trkpt>
      <trkpt lat="44.44774" lon="2.04039">
        <ele>401</ele>
        <time>2022-05-25T14:01:22.000Z</time>
      </trkpt>
      <trkpt lat="44.44754" lon="2.04029">
        <ele>400.6</ele>
        <time>2022-05-25T14:01:25.000Z</time>
      </trkpt>
      <trkpt lat="44.44712" lon="2.04008">
        <ele>399.8</ele>
        <time>2022-05-25T14:01:31.000Z</time>
      </trkpt>
      <trkpt lat="44.4469" lon="2.03996">
        <ele>399.2</ele>
        <time>2022-05-25T14:01:34.000Z</time>
      </trkpt>
      <trkpt lat="44.44674" lon="2.03988">
        <ele>398.8</ele>
        <time>2022-05-25T14:01:36.000Z</time>
      </trkpt>
      <trkpt lat="44.44651" lon="2.03975">
        <ele>397.4</ele>
        <time>2022-05-25T14:01:39.000Z</time>
      </trkpt>
      <trkpt lat="44.44634" lon="2.03967">
        <ele>396.6</ele>
        <time>2022-05-25T14:01:41.000Z</time>
      </trkpt>
      <trkpt lat="44.44626" lon="2.03963">
        <ele>396.4</ele>
        <time>2022-05-25T14:01:42.000Z</time>
      </trkpt>
      <trkpt lat="44.44603" lon="2.0395">
        <ele>395.2</ele>
        <time>2022-05-25T14:01:45.000Z</time>
      </trkpt>
      <trkpt lat="44.44571" lon="2.03933">
        <ele>394.2</ele>
        <time>2022-05-25T14:01:49.000Z</time>
      </trkpt>
      <trkpt lat="44.44547" lon="2.0392">
        <ele>393</ele>
        <time>2022-05-25T14:01:52.000Z</time>
      </trkpt>
      <trkpt lat="44.44524" lon="2.03907">
        <ele>391.6</ele>
        <time>2022-05-25T14:01:55.000Z</time>
      </trkpt>
      <trkpt lat="44.44492" lon="2.03891">
        <ele>390.6</ele>
        <time>2022-05-25T14:01:59.000Z</time>
      </trkpt>
      <trkpt lat="44.44485" lon="2.03887">
        <ele>389.8</ele>
        <time>2022-05-25T14:02:00.000Z</time>
      </trkpt>
      <trkpt lat="44.44469" lon="2.03879">
        <ele>389.2</ele>
        <time>2022-05-25T14:02:02.000Z</time>
      </trkpt>
      <trkpt lat="44.44439" lon="2.03863">
        <ele>388</ele>
        <time>2022-05-25T14:02:06.000Z</time>
      </trkpt>
      <trkpt lat="44.44423" lon="2.03855">
        <ele>387.4</ele>
        <time>2022-05-25T14:02:08.000Z</time>
      </trkpt>
      <trkpt lat="44.44415" lon="2.03851">
        <ele>386.6</ele>
        <time>2022-05-25T14:02:09.000Z</time>
      </trkpt>
      <trkpt lat="44.44391" lon="2.03837">
        <ele>385.6</ele>
        <time>2022-05-25T14:02:12.000Z</time>
      </trkpt>
      <trkpt lat="44.44375" lon="2.03828">
        <ele>384.6</ele>
        <time>2022-05-25T14:02:14.000Z</time>
      </trkpt>
      <trkpt lat="44.44366" lon="2.03823">
        <ele>384.4</ele>
        <time>2022-05-25T14:02:15.000Z</time>
      </trkpt>
      <trkpt lat="44.44343" lon="2.03811">
        <ele>383.4</ele>
        <time>2022-05-25T14:02:18.000Z</time>
      </trkpt>
      <trkpt lat="44.44314" lon="2.03795">
        <ele>382.2</ele>
        <time>2022-05-25T14:02:22.000Z</time>
      </trkpt>
      <trkpt lat="44.44276" lon="2.03775">
        <ele>381.4</ele>
        <time>2022-05-25T14:02:28.000Z</time>
      </trkpt>
      <trkpt lat="44.44248" lon="2.0376">
        <ele>381.8</ele>
        <time>2022-05-25T14:02:33.000Z</time>
      </trkpt>
      <trkpt lat="44.44216" lon="2.03742">
        <ele>383.2</ele>
        <time>2022-05-25T14:02:39.000Z</time>
      </trkpt>
      <trkpt lat="44.4421" lon="2.0374">
        <ele>383.6</ele>
        <time>2022-05-25T14:02:40.000Z</time>
      </trkpt>
      <trkpt lat="44.4418" lon="2.03723">
        <ele>384.6</ele>
        <time>2022-05-25T14:02:46.000Z</time>
      </trkpt>
      <trkpt lat="44.44156" lon="2.03711">
        <ele>385.8</ele>
        <time>2022-05-25T14:02:51.000Z</time>
      </trkpt>
      <trkpt lat="44.44142" lon="2.03703">
        <ele>386</ele>
        <time>2022-05-25T14:02:54.000Z</time>
      </trkpt>
      <trkpt lat="44.44127" lon="2.03696">
        <ele>386.8</ele>
        <time>2022-05-25T14:02:57.000Z</time>
      </trkpt>
      <trkpt lat="44.44096" lon="2.03679">
        <ele>387.8</ele>
        <time>2022-05-25T14:03:04.000Z</time>
      </trkpt>
      <trkpt lat="44.4407" lon="2.03666">
        <ele>388.8</ele>
        <time>2022-05-25T14:03:10.000Z</time>
      </trkpt>
      <trkpt lat="44.44066" lon="2.03663">
        <ele>389</ele>
        <time>2022-05-25T14:03:11.000Z</time>
      </trkpt>
      <trkpt lat="44.44041" lon="2.03651">
        <ele>389.8</ele>
        <time>2022-05-25T14:03:17.000Z</time>
      </trkpt>
      <trkpt lat="44.44033" lon="2.03646">
        <ele>390</ele>
        <time>2022-05-25T14:03:19.000Z</time>
      </trkpt>
      <trkpt lat="44.44017" lon="2.03636">
        <ele>390.8</ele>
        <time>2022-05-25T14:03:23.000Z</time>
      </trkpt>
      <trkpt lat="44.44014" lon="2.03634">
        <ele>391</ele>
        <time>2022-05-25T14:03:24.000Z</time>
      </trkpt>
      <trkpt lat="44.43993" lon="2.03623">
        <ele>391.6</ele>
        <time>2022-05-25T14:03:29.000Z</time>
      </trkpt>
      <trkpt lat="44.43985" lon="2.03618">
        <ele>391.8</ele>
        <time>2022-05-25T14:03:31.000Z</time>
      </trkpt>
      <trkpt lat="44.43981" lon="2.03616">
        <ele>391.8</ele>
        <time>2022-05-25T14:03:32.000Z</time>
      </trkpt>
      <trkpt lat="44.43965" lon="2.03608">
        <ele>392.4</ele>
        <time>2022-05-25T14:03:36.000Z</time>
      </trkpt>
      <trkpt lat="44.4395" lon="2.03599">
        <ele>393</ele>
        <time>2022-05-25T14:03:40.000Z</time>
      </trkpt>
      <trkpt lat="44.43934" lon="2.03592">
        <ele>393.8</ele>
        <time>2022-05-25T14:03:44.000Z</time>
      </trkpt>
      <trkpt lat="44.4393" lon="2.0359">
        <ele>394</ele>
        <time>2022-05-25T14:03:45.000Z</time>
      </trkpt>
      <trkpt lat="44.43915" lon="2.03581">
        <ele>394.8</ele>
        <time>2022-05-25T14:03:49.000Z</time>
      </trkpt>
      <trkpt lat="44.43907" lon="2.03577">
        <ele>395</ele>
        <time>2022-05-25T14:03:51.000Z</time>
      </trkpt>
      <trkpt lat="44.43903" lon="2.03575">
        <ele>395.2</ele>
        <time>2022-05-25T14:03:52.000Z</time>
      </trkpt>
      <trkpt lat="44.43874" lon="2.03558">
        <ele>396.2</ele>
        <time>2022-05-25T14:04:00.000Z</time>
      </trkpt>
      <trkpt lat="44.4387" lon="2.03557">
        <ele>396.2</ele>
        <time>2022-05-25T14:04:01.000Z</time>
      </trkpt>
      <trkpt lat="44.43864" lon="2.03554">
        <ele>396.6</ele>
        <time>2022-05-25T14:04:03.000Z</time>
      </trkpt>
      <trkpt lat="44.43848" lon="2.03548">
        <ele>397.2</ele>
        <time>2022-05-25T14:04:07.000Z</time>
      </trkpt>
      <trkpt lat="44.43845" lon="2.03547">
        <ele>397.2</ele>
        <time>2022-05-25T14:04:08.000Z</time>
      </trkpt>
      <trkpt lat="44.43834" lon="2.03535">
        <ele>397.6</ele>
        <time>2022-05-25T14:04:12.000Z</time>
      </trkpt>
      <trkpt lat="44.43831" lon="2.03523">
        <ele>397.8</ele>
        <time>2022-05-25T14:04:16.000Z</time>
      </trkpt>
      <trkpt lat="44.43824" lon="2.03505">
        <ele>397.8</ele>
        <time>2022-05-25T14:04:20.000Z</time>
      </trkpt>
      <trkpt lat="44.4381" lon="2.03461">
        <ele>397.4</ele>
        <time>2022-05-25T14:04:27.000Z</time>
      </trkpt>
      <trkpt lat="44.43805" lon="2.03447">
        <ele>397.2</ele>
        <time>2022-05-25T14:04:29.000Z</time>
      </trkpt>
      <trkpt lat="44.43799" lon="2.03428">
        <ele>397</ele>
        <time>2022-05-25T14:04:32.000Z</time>
      </trkpt>
      <trkpt lat="44.43789" lon="2.03398">
        <ele>397</ele>
        <time>2022-05-25T14:04:37.000Z</time>
      </trkpt>
      <trkpt lat="44.43787" lon="2.03393">
        <ele>397</ele>
        <time>2022-05-25T14:04:38.000Z</time>
      </trkpt>
      <trkpt lat="44.43785" lon="2.03388">
        <ele>397.2</ele>
        <time>2022-05-25T14:04:39.000Z</time>
      </trkpt>
      <trkpt lat="44.43782" lon="2.03375">
        <ele>397.4</ele>
        <time>2022-05-25T14:04:42.000Z</time>
      </trkpt>
      <trkpt lat="44.43779" lon="2.03364">
        <ele>397.8</ele>
        <time>2022-05-25T14:04:45.000Z</time>
      </trkpt>
      <trkpt lat="44.4378" lon="2.03364">
        <ele>397.8</ele>
        <time>2022-05-25T14:04:46.000Z</time>
      </trkpt>
      <trkpt lat="44.4379" lon="2.03355">
        <ele>398.2</ele>
        <time>2022-05-25T14:04:51.000Z</time>
      </trkpt>
      <trkpt lat="44.43803" lon="2.0334">
        <ele>398</ele>
        <time>2022-05-25T14:04:56.000Z</time>
      </trkpt>
      <trkpt lat="44.43815" lon="2.03312">
        <ele>397.4</ele>
        <time>2022-05-25T14:05:02.000Z</time>
      </trkpt>
      <trkpt lat="44.43817" lon="2.0328">
        <ele>397</ele>
        <time>2022-05-25T14:05:07.000Z</time>
      </trkpt>
      <trkpt lat="44.43814" lon="2.03227">
        <ele>396.4</ele>
        <time>2022-05-25T14:05:14.000Z</time>
      </trkpt>
      <trkpt lat="44.43813" lon="2.03185">
        <ele>396.2</ele>
        <time>2022-05-25T14:05:19.000Z</time>
      </trkpt>
      <trkpt lat="44.43813" lon="2.03178">
        <ele>396.2</ele>
        <time>2022-05-25T14:05:20.000Z</time>
      </trkpt>
      <trkpt lat="44.43812" lon="2.03163">
        <ele>396</ele>
        <time>2022-05-25T14:05:22.000Z</time>
      </trkpt>
      <trkpt lat="44.4381" lon="2.03149">
        <ele>395.8</ele>
        <time>2022-05-25T14:05:24.000Z</time>
      </trkpt>
      <trkpt lat="44.4381" lon="2.0312">
        <ele>395.4</ele>
        <time>2022-05-25T14:05:28.000Z</time>
      </trkpt>
      <trkpt lat="44.4381" lon="2.03112">
        <ele>395.4</ele>
        <time>2022-05-25T14:05:29.000Z</time>
      </trkpt>
      <trkpt lat="44.43811" lon="2.03089">
        <ele>395.2</ele>
        <time>2022-05-25T14:05:32.000Z</time>
      </trkpt>
      <trkpt lat="44.43811" lon="2.03082">
        <ele>395</ele>
        <time>2022-05-25T14:05:33.000Z</time>
      </trkpt>
      <trkpt lat="44.43811" lon="2.03075">
        <ele>395</ele>
        <time>2022-05-25T14:05:34.000Z</time>
      </trkpt>
      <trkpt lat="44.43811" lon="2.03068">
        <ele>395</ele>
        <time>2022-05-25T14:05:35.000Z</time>
      </trkpt>
      <trkpt lat="44.43811" lon="2.03052">
        <ele>394.8</ele>
        <time>2022-05-25T14:05:37.000Z</time>
      </trkpt>
      <trkpt lat="44.43809" lon="2.0303">
        <ele>394.6</ele>
        <time>2022-05-25T14:05:40.000Z</time>
      </trkpt>
      <trkpt lat="44.43807" lon="2.03023">
        <ele>394.6</ele>
        <time>2022-05-25T14:05:41.000Z</time>
      </trkpt>
      <trkpt lat="44.43802" lon="2.03008">
        <ele>394.6</ele>
        <time>2022-05-25T14:05:43.000Z</time>
      </trkpt>
      <trkpt lat="44.43795" lon="2.02995">
        <ele>394.6</ele>
        <time>2022-05-25T14:05:45.000Z</time>
      </trkpt>
      <trkpt lat="44.43784" lon="2.02985">
        <ele>394.6</ele>
        <time>2022-05-25T14:05:47.000Z</time>
      </trkpt>
      <trkpt lat="44.43762" lon="2.02968">
        <ele>394</ele>
        <time>2022-05-25T14:05:51.000Z</time>
      </trkpt>
      <trkpt lat="44.43756" lon="2.02964">
        <ele>393.8</ele>
        <time>2022-05-25T14:05:52.000Z</time>
      </trkpt>
      <trkpt lat="44.43751" lon="2.02962">
        <ele>393.6</ele>
        <time>2022-05-25T14:05:53.000Z</time>
      </trkpt>
      <trkpt lat="44.4374" lon="2.02958">
        <ele>393.4</ele>
        <time>2022-05-25T14:05:55.000Z</time>
      </trkpt>
      <trkpt lat="44.43729" lon="2.02958">
        <ele>393</ele>
        <time>2022-05-25T14:05:57.000Z</time>
      </trkpt>
      <trkpt lat="44.43723" lon="2.02958">
        <ele>393</ele>
        <time>2022-05-25T14:05:58.000Z</time>
      </trkpt>
      <trkpt lat="44.43709" lon="2.02963">
        <ele>393</ele>
        <time>2022-05-25T14:06:01.000Z</time>
      </trkpt>
      <trkpt lat="44.43704" lon="2.02966">
        <ele>393</ele>
        <time>2022-05-25T14:06:02.000Z</time>
      </trkpt>
      <trkpt lat="44.43698" lon="2.02969">
        <ele>393</ele>
        <time>2022-05-25T14:06:03.000Z</time>
      </trkpt>
      <trkpt lat="44.4369" lon="2.02977">
        <ele>392.8</ele>
        <time>2022-05-25T14:06:05.000Z</time>
      </trkpt>
      <trkpt lat="44.43683" lon="2.02987">
        <ele>392.8</ele>
        <time>2022-05-25T14:06:07.000Z</time>
      </trkpt>
      <trkpt lat="44.43675" lon="2.03002">
        <ele>392.8</ele>
        <time>2022-05-25T14:06:11.000Z</time>
      </trkpt>
      <trkpt lat="44.43668" lon="2.03015">
        <ele>393.2</ele>
        <time>2022-05-25T14:06:16.000Z</time>
      </trkpt>
      <trkpt lat="44.43665" lon="2.03019">
        <ele>393.4</ele>
        <time>2022-05-25T14:06:18.000Z</time>
      </trkpt>
      <trkpt lat="44.43658" lon="2.03022">
        <ele>393.4</ele>
        <time>2022-05-25T14:06:21.000Z</time>
      </trkpt>
      <trkpt lat="44.43639" lon="2.03029">
        <ele>393.6</ele>
        <time>2022-05-25T14:06:27.000Z</time>
      </trkpt>
      <trkpt lat="44.4363" lon="2.03031">
        <ele>393.6</ele>
        <time>2022-05-25T14:06:29.000Z</time>
      </trkpt>
      <trkpt lat="44.4362" lon="2.03032">
        <ele>393.4</ele>
        <time>2022-05-25T14:06:31.000Z</time>
      </trkpt>
      <trkpt lat="44.43591" lon="2.0304">
        <ele>392.6</ele>
        <time>2022-05-25T14:06:36.000Z</time>
      </trkpt>
      <trkpt lat="44.43576" lon="2.03043">
        <ele>391.8</ele>
        <time>2022-05-25T14:06:39.000Z</time>
      </trkpt>
      <trkpt lat="44.43573" lon="2.03042">
        <ele>391.6</ele>
        <time>2022-05-25T14:06:40.000Z</time>
      </trkpt>
      <trkpt lat="44.4357" lon="2.03041">
        <ele>391.2</ele>
        <time>2022-05-25T14:06:41.000Z</time>
      </trkpt>
      <trkpt lat="44.43569" lon="2.03039">
        <ele>390.8</ele>
        <time>2022-05-25T14:06:42.000Z</time>
      </trkpt>
      <trkpt lat="44.43569" lon="2.03038">
        <ele>390.6</ele>
        <time>2022-05-25T14:06:43.000Z</time>
      </trkpt>
      <trkpt lat="44.43569" lon="2.03038">
        <ele>389.8</ele>
        <time>2022-05-25T14:06:45.000Z</time>
      </trkpt>
      <trkpt lat="44.43571" lon="2.03031">
        <ele>389</ele>
        <time>2022-05-25T14:06:48.000Z</time>
      </trkpt>
      <trkpt lat="44.43573" lon="2.03028">
        <ele>388.8</ele>
        <time>2022-05-25T14:06:49.000Z</time>
      </trkpt>
      <trkpt lat="44.43585" lon="2.03012">
        <ele>388.2</ele>
        <time>2022-05-25T14:06:54.000Z</time>
      </trkpt>
      <trkpt lat="44.43602" lon="2.02986">
        <ele>388.2</ele>
        <time>2022-05-25T14:06:59.000Z</time>
      </trkpt>
      <trkpt lat="44.43626" lon="2.02945">
        <ele>388.2</ele>
        <time>2022-05-25T14:07:06.000Z</time>
      </trkpt>
      <trkpt lat="44.43646" lon="2.02905">
        <ele>388.2</ele>
        <time>2022-05-25T14:07:13.000Z</time>
      </trkpt>
      <trkpt lat="44.43647" lon="2.02899">
        <ele>388.2</ele>
        <time>2022-05-25T14:07:14.000Z</time>
      </trkpt>
      <trkpt lat="44.43647" lon="2.02894">
        <ele>388.4</ele>
        <time>2022-05-25T14:07:15.000Z</time>
      </trkpt>
      <trkpt lat="44.43644" lon="2.02879">
        <ele>388.6</ele>
        <time>2022-05-25T14:07:18.000Z</time>
      </trkpt>
      <trkpt lat="44.43634" lon="2.02854">
        <ele>389</ele>
        <time>2022-05-25T14:07:24.000Z</time>
      </trkpt>
      <trkpt lat="44.4362" lon="2.02833">
        <ele>389</ele>
        <time>2022-05-25T14:07:29.000Z</time>
      </trkpt>
      <trkpt lat="44.43617" lon="2.02829">
        <ele>389</ele>
        <time>2022-05-25T14:07:30.000Z</time>
      </trkpt>
      <trkpt lat="44.43605" lon="2.02818">
        <ele>389</ele>
        <time>2022-05-25T14:07:33.000Z</time>
      </trkpt>
      <trkpt lat="44.43591" lon="2.02802">
        <ele>389.2</ele>
        <time>2022-05-25T14:07:37.000Z</time>
      </trkpt>
      <trkpt lat="44.43577" lon="2.0278">
        <ele>390</ele>
        <time>2022-05-25T14:07:42.000Z</time>
      </trkpt>
      <trkpt lat="44.43574" lon="2.02776">
        <ele>390.2</ele>
        <time>2022-05-25T14:07:43.000Z</time>
      </trkpt>
      <trkpt lat="44.4357" lon="2.02772">
        <ele>390.4</ele>
        <time>2022-05-25T14:07:44.000Z</time>
      </trkpt>
      <trkpt lat="44.43547" lon="2.02741">
        <ele>391.2</ele>
        <time>2022-05-25T14:07:51.000Z</time>
      </trkpt>
      <trkpt lat="44.4354" lon="2.02732">
        <ele>391.6</ele>
        <time>2022-05-25T14:07:53.000Z</time>
      </trkpt>
      <trkpt lat="44.43522" lon="2.0271">
        <ele>392.4</ele>
        <time>2022-05-25T14:07:58.000Z</time>
      </trkpt>
      <trkpt lat="44.43519" lon="2.02705">
        <ele>392.4</ele>
        <time>2022-05-25T14:07:59.000Z</time>
      </trkpt>
      <trkpt lat="44.43512" lon="2.02697">
        <ele>392.6</ele>
        <time>2022-05-25T14:08:01.000Z</time>
      </trkpt>
      <trkpt lat="44.43498" lon="2.0268">
        <ele>393.6</ele>
        <time>2022-05-25T14:08:05.000Z</time>
      </trkpt>
      <trkpt lat="44.43495" lon="2.02676">
        <ele>393.8</ele>
        <time>2022-05-25T14:08:06.000Z</time>
      </trkpt>
      <trkpt lat="44.43489" lon="2.02668">
        <ele>394.2</ele>
        <time>2022-05-25T14:08:08.000Z</time>
      </trkpt>
      <trkpt lat="44.43483" lon="2.0266">
        <ele>394.4</ele>
        <time>2022-05-25T14:08:10.000Z</time>
      </trkpt>
      <trkpt lat="44.43479" lon="2.02656">
        <ele>394.6</ele>
        <time>2022-05-25T14:08:11.000Z</time>
      </trkpt>
      <trkpt lat="44.43476" lon="2.02652">
        <ele>394.6</ele>
        <time>2022-05-25T14:08:12.000Z</time>
      </trkpt>
      <trkpt lat="44.4347" lon="2.02644">
        <ele>394.8</ele>
        <time>2022-05-25T14:08:14.000Z</time>
      </trkpt>
      <trkpt lat="44.4346" lon="2.02633">
        <ele>394.8</ele>
        <time>2022-05-25T14:08:17.000Z</time>
      </trkpt>
      <trkpt lat="44.43448" lon="2.02618">
        <ele>395.4</ele>
        <time>2022-05-25T14:08:21.000Z</time>
      </trkpt>
      <trkpt lat="44.4344" lon="2.0261">
        <ele>395.6</ele>
        <time>2022-05-25T14:08:23.000Z</time>
      </trkpt>
      <trkpt lat="44.43415" lon="2.02588">
        <ele>395.6</ele>
        <time>2022-05-25T14:08:29.000Z</time>
      </trkpt>
      <trkpt lat="44.43392" lon="2.02561">
        <ele>395.4</ele>
        <time>2022-05-25T14:08:34.000Z</time>
      </trkpt>
      <trkpt lat="44.43367" lon="2.0252">
        <ele>394.4</ele>
        <time>2022-05-25T14:08:40.000Z</time>
      </trkpt>
      <trkpt lat="44.43359" lon="2.02508">
        <ele>393.6</ele>
        <time>2022-05-25T14:08:42.000Z</time>
      </trkpt>
      <trkpt lat="44.43349" lon="2.02497">
        <ele>393.2</ele>
        <time>2022-05-25T14:08:44.000Z</time>
      </trkpt>
      <trkpt lat="44.43344" lon="2.02493">
        <ele>393</ele>
        <time>2022-05-25T14:08:45.000Z</time>
      </trkpt>
      <trkpt lat="44.43322" lon="2.02477">
        <ele>392.8</ele>
        <time>2022-05-25T14:08:50.000Z</time>
      </trkpt>
      <trkpt lat="44.43298" lon="2.02463">
        <ele>393.2</ele>
        <time>2022-05-25T14:08:55.000Z</time>
      </trkpt>
      <trkpt lat="44.43294" lon="2.0246">
        <ele>393.2</ele>
        <time>2022-05-25T14:08:56.000Z</time>
      </trkpt>
      <trkpt lat="44.43285" lon="2.02452">
        <ele>393.4</ele>
        <time>2022-05-25T14:08:58.000Z</time>
      </trkpt>
      <trkpt lat="44.43266" lon="2.0243">
        <ele>394.4</ele>
        <time>2022-05-25T14:09:03.000Z</time>
      </trkpt>
      <trkpt lat="44.43252" lon="2.02409">
        <ele>394.8</ele>
        <time>2022-05-25T14:09:07.000Z</time>
      </trkpt>
      <trkpt lat="44.4324" lon="2.02386">
        <ele>395.4</ele>
        <time>2022-05-25T14:09:11.000Z</time>
      </trkpt>
      <trkpt lat="44.4322" lon="2.02341">
        <ele>395.6</ele>
        <time>2022-05-25T14:09:18.000Z</time>
      </trkpt>
      <trkpt lat="44.43212" lon="2.0232">
        <ele>395.8</ele>
        <time>2022-05-25T14:09:21.000Z</time>
      </trkpt>
      <trkpt lat="44.43197" lon="2.02285">
        <ele>395.6</ele>
        <time>2022-05-25T14:09:26.000Z</time>
      </trkpt>
      <trkpt lat="44.43167" lon="2.02214">
        <ele>395</ele>
        <time>2022-05-25T14:09:36.000Z</time>
      </trkpt>
      <trkpt lat="44.43161" lon="2.02201">
        <ele>394.8</ele>
        <time>2022-05-25T14:09:38.000Z</time>
      </trkpt>
      <trkpt lat="44.43137" lon="2.02156">
        <ele>395.2</ele>
        <time>2022-05-25T14:09:45.000Z</time>
      </trkpt>
      <trkpt lat="44.43106" lon="2.02111">
        <ele>395.4</ele>
        <time>2022-05-25T14:09:53.000Z</time>
      </trkpt>
      <trkpt lat="44.43098" lon="2.021">
        <ele>395.8</ele>
        <time>2022-05-25T14:09:55.000Z</time>
      </trkpt>
      <trkpt lat="44.43083" lon="2.02078">
        <ele>396.4</ele>
        <time>2022-05-25T14:09:59.000Z</time>
      </trkpt>
      <trkpt lat="44.43072" lon="2.02063">
        <ele>396.8</ele>
        <time>2022-05-25T14:10:02.000Z</time>
      </trkpt>
      <trkpt lat="44.43068" lon="2.02058">
        <ele>397</ele>
        <time>2022-05-25T14:10:03.000Z</time>
      </trkpt>
      <trkpt lat="44.43064" lon="2.02054">
        <ele>397</ele>
        <time>2022-05-25T14:10:04.000Z</time>
      </trkpt>
      <trkpt lat="44.4306" lon="2.0205">
        <ele>397.2</ele>
        <time>2022-05-25T14:10:05.000Z</time>
      </trkpt>
      <trkpt lat="44.4305" lon="2.02036">
        <ele>397.6</ele>
        <time>2022-05-25T14:10:08.000Z</time>
      </trkpt>
      <trkpt lat="44.43038" lon="2.02019">
        <ele>398</ele>
        <time>2022-05-25T14:10:11.000Z</time>
      </trkpt>
      <trkpt lat="44.43029" lon="2.02008">
        <ele>398.2</ele>
        <time>2022-05-25T14:10:13.000Z</time>
      </trkpt>
      <trkpt lat="44.43001" lon="2.01971">
        <ele>398.4</ele>
        <time>2022-05-25T14:10:19.000Z</time>
      </trkpt>
      <trkpt lat="44.42971" lon="2.01934">
        <ele>397</ele>
        <time>2022-05-25T14:10:25.000Z</time>
      </trkpt>
      <trkpt lat="44.42966" lon="2.01928">
        <ele>397</ele>
        <time>2022-05-25T14:10:26.000Z</time>
      </trkpt>
      <trkpt lat="44.42939" lon="2.01891">
        <ele>396.6</ele>
        <time>2022-05-25T14:10:32.000Z</time>
      </trkpt>
      <trkpt lat="44.42898" lon="2.01837">
        <ele>396.4</ele>
        <time>2022-05-25T14:10:41.000Z</time>
      </trkpt>
      <trkpt lat="44.42894" lon="2.01831">
        <ele>396.2</ele>
        <time>2022-05-25T14:10:42.000Z</time>
      </trkpt>
      <trkpt lat="44.42856" lon="2.01779">
        <ele>396.6</ele>
        <time>2022-05-25T14:10:51.000Z</time>
      </trkpt>
      <trkpt lat="44.42828" lon="2.01746">
        <ele>396.6</ele>
        <time>2022-05-25T14:10:57.000Z</time>
      </trkpt>
      <trkpt lat="44.42794" lon="2.01715">
        <ele>396.2</ele>
        <time>2022-05-25T14:11:03.000Z</time>
      </trkpt>
      <trkpt lat="44.42777" lon="2.01699">
        <ele>395.8</ele>
        <time>2022-05-25T14:11:06.000Z</time>
      </trkpt>
      <trkpt lat="44.42751" lon="2.01674">
        <ele>395.4</ele>
        <time>2022-05-25T14:11:11.000Z</time>
      </trkpt>
      <trkpt lat="44.42723" lon="2.01649">
        <ele>395.2</ele>
        <time>2022-05-25T14:11:17.000Z</time>
      </trkpt>
      <trkpt lat="44.42703" lon="2.0163">
        <ele>396.4</ele>
        <time>2022-05-25T14:11:22.000Z</time>
      </trkpt>
      <trkpt lat="44.42695" lon="2.01621">
        <ele>397.2</ele>
        <time>2022-05-25T14:11:24.000Z</time>
      </trkpt>
      <trkpt lat="44.42674" lon="2.01592">
        <ele>397.8</ele>
        <time>2022-05-25T14:11:29.000Z</time>
      </trkpt>
      <trkpt lat="44.42665" lon="2.01582">
        <ele>398</ele>
        <time>2022-05-25T14:11:31.000Z</time>
      </trkpt>
      <trkpt lat="44.42648" lon="2.01557">
        <ele>398</ele>
        <time>2022-05-25T14:11:35.000Z</time>
      </trkpt>
      <trkpt lat="44.42612" lon="2.01506">
        <ele>398</ele>
        <time>2022-05-25T14:11:43.000Z</time>
      </trkpt>
      <trkpt lat="44.42598" lon="2.01483">
        <ele>398</ele>
        <time>2022-05-25T14:11:47.000Z</time>
      </trkpt>
      <trkpt lat="44.4259" lon="2.01472">
        <ele>398.2</ele>
        <time>2022-05-25T14:11:49.000Z</time>
      </trkpt>
      <trkpt lat="44.42587" lon="2.01467">
        <ele>398.6</ele>
        <time>2022-05-25T14:11:50.000Z</time>
      </trkpt>
      <trkpt lat="44.42573" lon="2.01447">
        <ele>399</ele>
        <time>2022-05-25T14:11:54.000Z</time>
      </trkpt>
      <trkpt lat="44.42567" lon="2.01437">
        <ele>399.4</ele>
        <time>2022-05-25T14:11:56.000Z</time>
      </trkpt>
      <trkpt lat="44.42565" lon="2.01432">
        <ele>399.6</ele>
        <time>2022-05-25T14:11:57.000Z</time>
      </trkpt>
      <trkpt lat="44.42562" lon="2.01427">
        <ele>399.6</ele>
        <time>2022-05-25T14:11:58.000Z</time>
      </trkpt>
      <trkpt lat="44.42555" lon="2.01417">
        <ele>400.4</ele>
        <time>2022-05-25T14:12:00.000Z</time>
      </trkpt>
      <trkpt lat="44.42549" lon="2.01408">
        <ele>401</ele>
        <time>2022-05-25T14:12:02.000Z</time>
      </trkpt>
      <trkpt lat="44.42547" lon="2.01404">
        <ele>401</ele>
        <time>2022-05-25T14:12:03.000Z</time>
      </trkpt>
      <trkpt lat="44.42541" lon="2.01394">
        <ele>401.4</ele>
        <time>2022-05-25T14:12:05.000Z</time>
      </trkpt>
      <trkpt lat="44.42535" lon="2.01386">
        <ele>401.4</ele>
        <time>2022-05-25T14:12:07.000Z</time>
      </trkpt>
      <trkpt lat="44.42532" lon="2.01383">
        <ele>401.8</ele>
        <time>2022-05-25T14:12:08.000Z</time>
      </trkpt>
      <trkpt lat="44.42528" lon="2.01379">
        <ele>402</ele>
        <time>2022-05-25T14:12:09.000Z</time>
      </trkpt>
      <trkpt lat="44.42521" lon="2.01371">
        <ele>402</ele>
        <time>2022-05-25T14:12:11.000Z</time>
      </trkpt>
      <trkpt lat="44.42514" lon="2.01365">
        <ele>402.2</ele>
        <time>2022-05-25T14:12:13.000Z</time>
      </trkpt>
      <trkpt lat="44.42507" lon="2.01357">
        <ele>402.6</ele>
        <time>2022-05-25T14:12:15.000Z</time>
      </trkpt>
      <trkpt lat="44.42493" lon="2.01349">
        <ele>403</ele>
        <time>2022-05-25T14:12:18.000Z</time>
      </trkpt>
      <trkpt lat="44.4246" lon="2.01326">
        <ele>403.6</ele>
        <time>2022-05-25T14:12:25.000Z</time>
      </trkpt>
      <trkpt lat="44.42456" lon="2.01321">
        <ele>403.8</ele>
        <time>2022-05-25T14:12:26.000Z</time>
      </trkpt>
      <trkpt lat="44.42451" lon="2.01317">
        <ele>403.8</ele>
        <time>2022-05-25T14:12:27.000Z</time>
      </trkpt>
      <trkpt lat="44.42429" lon="2.01291">
        <ele>403.6</ele>
        <time>2022-05-25T14:12:32.000Z</time>
      </trkpt>
      <trkpt lat="44.42402" lon="2.01261">
        <ele>402.6</ele>
        <time>2022-05-25T14:12:37.000Z</time>
      </trkpt>
      <trkpt lat="44.42397" lon="2.01254">
        <ele>402.2</ele>
        <time>2022-05-25T14:12:38.000Z</time>
      </trkpt>
      <trkpt lat="44.4237" lon="2.01216">
        <ele>401</ele>
        <time>2022-05-25T14:12:43.000Z</time>
      </trkpt>
      <trkpt lat="44.42365" lon="2.01208">
        <ele>399.8</ele>
        <time>2022-05-25T14:12:44.000Z</time>
      </trkpt>
      <trkpt lat="44.42361" lon="2.012">
        <ele>399.4</ele>
        <time>2022-05-25T14:12:45.000Z</time>
      </trkpt>
      <trkpt lat="44.42352" lon="2.01181">
        <ele>398.6</ele>
        <time>2022-05-25T14:12:47.000Z</time>
      </trkpt>
      <trkpt lat="44.4234" lon="2.01151">
        <ele>398</ele>
        <time>2022-05-25T14:12:50.000Z</time>
      </trkpt>
      <trkpt lat="44.42337" lon="2.01141">
        <ele>397</ele>
        <time>2022-05-25T14:12:51.000Z</time>
      </trkpt>
      <trkpt lat="44.42323" lon="2.01103">
        <ele>395.6</ele>
        <time>2022-05-25T14:12:55.000Z</time>
      </trkpt>
      <trkpt lat="44.42317" lon="2.01086">
        <ele>395.2</ele>
        <time>2022-05-25T14:12:57.000Z</time>
      </trkpt>
      <trkpt lat="44.42305" lon="2.01049">
        <ele>394.8</ele>
        <time>2022-05-25T14:13:02.000Z</time>
      </trkpt>
      <trkpt lat="44.42284" lon="2.0099">
        <ele>395.8</ele>
        <time>2022-05-25T14:13:11.000Z</time>
      </trkpt>
      <trkpt lat="44.42274" lon="2.00961">
        <ele>396.8</ele>
        <time>2022-05-25T14:13:16.000Z</time>
      </trkpt>
      <trkpt lat="44.42271" lon="2.00951">
        <ele>397.2</ele>
        <time>2022-05-25T14:13:18.000Z</time>
      </trkpt>
      <trkpt lat="44.42264" lon="2.00931">
        <ele>398.2</ele>
        <time>2022-05-25T14:13:22.000Z</time>
      </trkpt>
      <trkpt lat="44.42259" lon="2.00916">
        <ele>399.4</ele>
        <time>2022-05-25T14:13:25.000Z</time>
      </trkpt>
      <trkpt lat="44.42253" lon="2.00898">
        <ele>400.6</ele>
        <time>2022-05-25T14:13:29.000Z</time>
      </trkpt>
      <trkpt lat="44.4225" lon="2.00889">
        <ele>401.2</ele>
        <time>2022-05-25T14:13:31.000Z</time>
      </trkpt>
      <trkpt lat="44.4224" lon="2.00861">
        <ele>401.8</ele>
        <time>2022-05-25T14:13:37.000Z</time>
      </trkpt>
      <trkpt lat="44.42232" lon="2.00837">
        <ele>402.6</ele>
        <time>2022-05-25T14:13:42.000Z</time>
      </trkpt>
      <trkpt lat="44.42231" lon="2.00833">
        <ele>402.8</ele>
        <time>2022-05-25T14:13:43.000Z</time>
      </trkpt>
      <trkpt lat="44.42227" lon="2.00819">
        <ele>404</ele>
        <time>2022-05-25T14:13:46.000Z</time>
      </trkpt>
      <trkpt lat="44.42224" lon="2.00806">
        <ele>404.6</ele>
        <time>2022-05-25T14:13:49.000Z</time>
      </trkpt>
      <trkpt lat="44.42218" lon="2.00783">
        <ele>405.2</ele>
        <time>2022-05-25T14:13:54.000Z</time>
      </trkpt>
      <trkpt lat="44.42217" lon="2.00778">
        <ele>405.2</ele>
        <time>2022-05-25T14:13:55.000Z</time>
      </trkpt>
      <trkpt lat="44.42207" lon="2.00752">
        <ele>405.8</ele>
        <time>2022-05-25T14:14:01.000Z</time>
      </trkpt>
      <trkpt lat="44.42205" lon="2.00748">
        <ele>406.2</ele>
        <time>2022-05-25T14:14:02.000Z</time>
      </trkpt>
      <trkpt lat="44.42197" lon="2.00724">
        <ele>407.2</ele>
        <time>2022-05-25T14:14:07.000Z</time>
      </trkpt>
      <trkpt lat="44.42196" lon="2.00719">
        <ele>407.2</ele>
        <time>2022-05-25T14:14:08.000Z</time>
      </trkpt>
      <trkpt lat="44.42189" lon="2.00698">
        <ele>408.4</ele>
        <time>2022-05-25T14:14:12.000Z</time>
      </trkpt>
      <trkpt lat="44.42184" lon="2.00684">
        <ele>408.6</ele>
        <time>2022-05-25T14:14:15.000Z</time>
      </trkpt>
      <trkpt lat="44.42178" lon="2.00658">
        <ele>409.6</ele>
        <time>2022-05-25T14:14:20.000Z</time>
      </trkpt>
      <trkpt lat="44.42175" lon="2.00648">
        <ele>409.8</ele>
        <time>2022-05-25T14:14:22.000Z</time>
      </trkpt>
      <trkpt lat="44.42168" lon="2.00623">
        <ele>410.8</ele>
        <time>2022-05-25T14:14:27.000Z</time>
      </trkpt>
      <trkpt lat="44.42161" lon="2.00604">
        <ele>412</ele>
        <time>2022-05-25T14:14:31.000Z</time>
      </trkpt>
      <trkpt lat="44.4216" lon="2.00599">
        <ele>412.2</ele>
        <time>2022-05-25T14:14:32.000Z</time>
      </trkpt>
      <trkpt lat="44.42151" lon="2.0057">
        <ele>413.2</ele>
        <time>2022-05-25T14:14:38.000Z</time>
      </trkpt>
      <trkpt lat="44.4215" lon="2.00566">
        <ele>413.2</ele>
        <time>2022-05-25T14:14:39.000Z</time>
      </trkpt>
      <trkpt lat="44.42143" lon="2.00542">
        <ele>414.2</ele>
        <time>2022-05-25T14:14:44.000Z</time>
      </trkpt>
      <trkpt lat="44.42142" lon="2.00537">
        <ele>414.2</ele>
        <time>2022-05-25T14:14:45.000Z</time>
      </trkpt>
      <trkpt lat="44.42134" lon="2.00508">
        <ele>415.4</ele>
        <time>2022-05-25T14:14:51.000Z</time>
      </trkpt>
      <trkpt lat="44.42131" lon="2.00498">
        <ele>415.6</ele>
        <time>2022-05-25T14:14:53.000Z</time>
      </trkpt>
      <trkpt lat="44.42126" lon="2.00479">
        <ele>416.4</ele>
        <time>2022-05-25T14:14:57.000Z</time>
      </trkpt>
      <trkpt lat="44.42119" lon="2.00449">
        <ele>417.4</ele>
        <time>2022-05-25T14:15:03.000Z</time>
      </trkpt>
      <trkpt lat="44.42108" lon="2.00403">
        <ele>418</ele>
        <time>2022-05-25T14:15:11.000Z</time>
      </trkpt>
      <trkpt lat="44.42093" lon="2.0036">
        <ele>417.8</ele>
        <time>2022-05-25T14:15:17.000Z</time>
      </trkpt>
      <trkpt lat="44.42089" lon="2.00354">
        <ele>417.6</ele>
        <time>2022-05-25T14:15:18.000Z</time>
      </trkpt>
      <trkpt lat="44.42071" lon="2.00329">
        <ele>416.6</ele>
        <time>2022-05-25T14:15:22.000Z</time>
      </trkpt>
      <trkpt lat="44.42066" lon="2.00323">
        <ele>416.4</ele>
        <time>2022-05-25T14:15:23.000Z</time>
      </trkpt>
      <trkpt lat="44.42046" lon="2.00299">
        <ele>415.4</ele>
        <time>2022-05-25T14:15:27.000Z</time>
      </trkpt>
      <trkpt lat="44.42042" lon="2.00292">
        <ele>415.4</ele>
        <time>2022-05-25T14:15:28.000Z</time>
      </trkpt>
      <trkpt lat="44.42021" lon="2.00263">
        <ele>414.6</ele>
        <time>2022-05-25T14:15:32.000Z</time>
      </trkpt>
      <trkpt lat="44.42011" lon="2.00249">
        <ele>414.4</ele>
        <time>2022-05-25T14:15:34.000Z</time>
      </trkpt>
      <trkpt lat="44.41997" lon="2.00227">
        <ele>413.4</ele>
        <time>2022-05-25T14:15:37.000Z</time>
      </trkpt>
      <trkpt lat="44.41992" lon="2.0022">
        <ele>413</ele>
        <time>2022-05-25T14:15:38.000Z</time>
      </trkpt>
      <trkpt lat="44.4196" lon="2.00171">
        <ele>412</ele>
        <time>2022-05-25T14:15:45.000Z</time>
      </trkpt>
      <trkpt lat="44.41955" lon="2.00164">
        <ele>411.8</ele>
        <time>2022-05-25T14:15:46.000Z</time>
      </trkpt>
      <trkpt lat="44.41929" lon="2.00127">
        <ele>411</ele>
        <time>2022-05-25T14:15:52.000Z</time>
      </trkpt>
      <trkpt lat="44.41918" lon="2.00105">
        <ele>410.6</ele>
        <time>2022-05-25T14:15:55.000Z</time>
      </trkpt>
      <trkpt lat="44.41913" lon="2.00088">
        <ele>410.2</ele>
        <time>2022-05-25T14:15:57.000Z</time>
      </trkpt>
      <trkpt lat="44.41912" lon="2.00079">
        <ele>409.8</ele>
        <time>2022-05-25T14:15:58.000Z</time>
      </trkpt>
      <trkpt lat="44.41912" lon="2.00071">
        <ele>409.6</ele>
        <time>2022-05-25T14:15:59.000Z</time>
      </trkpt>
      <trkpt lat="44.41913" lon="2.00062">
        <ele>409.6</ele>
        <time>2022-05-25T14:16:00.000Z</time>
      </trkpt>
      <trkpt lat="44.41915" lon="2.00054">
        <ele>409.4</ele>
        <time>2022-05-25T14:16:01.000Z</time>
      </trkpt>
      <trkpt lat="44.41926" lon="2.00031">
        <ele>409</ele>
        <time>2022-05-25T14:16:04.000Z</time>
      </trkpt>
      <trkpt lat="44.41934" lon="2.00018">
        <ele>408.8</ele>
        <time>2022-05-25T14:16:06.000Z</time>
      </trkpt>
      <trkpt lat="44.41963" lon="1.99971">
        <ele>408.4</ele>
        <time>2022-05-25T14:16:13.000Z</time>
      </trkpt>
      <trkpt lat="44.41984" lon="1.99939">
        <ele>407.6</ele>
        <time>2022-05-25T14:16:18.000Z</time>
      </trkpt>
      <trkpt lat="44.41988" lon="1.99932">
        <ele>407.6</ele>
        <time>2022-05-25T14:16:19.000Z</time>
      </trkpt>
      <trkpt lat="44.42005" lon="1.99903">
        <ele>407.4</ele>
        <time>2022-05-25T14:16:23.000Z</time>
      </trkpt>
      <trkpt lat="44.42012" lon="1.99886">
        <ele>407.2</ele>
        <time>2022-05-25T14:16:25.000Z</time>
      </trkpt>
      <trkpt lat="44.42017" lon="1.99868">
        <ele>406.8</ele>
        <time>2022-05-25T14:16:27.000Z</time>
      </trkpt>
      <trkpt lat="44.4202" lon="1.9986">
        <ele>406.4</ele>
        <time>2022-05-25T14:16:28.000Z</time>
      </trkpt>
      <trkpt lat="44.42025" lon="1.99842">
        <ele>405.8</ele>
        <time>2022-05-25T14:16:30.000Z</time>
      </trkpt>
      <trkpt lat="44.4203" lon="1.99815">
        <ele>405.4</ele>
        <time>2022-05-25T14:16:33.000Z</time>
      </trkpt>
      <trkpt lat="44.42028" lon="1.99805">
        <ele>405.2</ele>
        <time>2022-05-25T14:16:34.000Z</time>
      </trkpt>
      <trkpt lat="44.42026" lon="1.99796">
        <ele>405.2</ele>
        <time>2022-05-25T14:16:35.000Z</time>
      </trkpt>
      <trkpt lat="44.42014" lon="1.99781">
        <ele>404.6</ele>
        <time>2022-05-25T14:16:37.000Z</time>
      </trkpt>
      <trkpt lat="44.41999" lon="1.99769">
        <ele>403.8</ele>
        <time>2022-05-25T14:16:39.000Z</time>
      </trkpt>
      <trkpt lat="44.41979" lon="1.99751">
        <ele>402.8</ele>
        <time>2022-05-25T14:16:42.000Z</time>
      </trkpt>
      <trkpt lat="44.41974" lon="1.99744">
        <ele>402.6</ele>
        <time>2022-05-25T14:16:43.000Z</time>
      </trkpt>
      <trkpt lat="44.41965" lon="1.99726">
        <ele>402</ele>
        <time>2022-05-25T14:16:45.000Z</time>
      </trkpt>
      <trkpt lat="44.41962" lon="1.99715">
        <ele>401.8</ele>
        <time>2022-05-25T14:16:46.000Z</time>
      </trkpt>
      <trkpt lat="44.41959" lon="1.99704">
        <ele>401.4</ele>
        <time>2022-05-25T14:16:47.000Z</time>
      </trkpt>
      <trkpt lat="44.41948" lon="1.9965">
        <ele>400</ele>
        <time>2022-05-25T14:16:52.000Z</time>
      </trkpt>
      <trkpt lat="44.41945" lon="1.9963">
        <ele>399.4</ele>
        <time>2022-05-25T14:16:54.000Z</time>
      </trkpt>
      <trkpt lat="44.41944" lon="1.99604">
        <ele>399</ele>
        <time>2022-05-25T14:16:57.000Z</time>
      </trkpt>
      <trkpt lat="44.41944" lon="1.99595">
        <ele>398.8</ele>
        <time>2022-05-25T14:16:58.000Z</time>
      </trkpt>
      <trkpt lat="44.41946" lon="1.99565">
        <ele>397.8</ele>
        <time>2022-05-25T14:17:01.000Z</time>
      </trkpt>
      <trkpt lat="44.41947" lon="1.99541">
        <ele>397.4</ele>
        <time>2022-05-25T14:17:03.000Z</time>
      </trkpt>
      <trkpt lat="44.41949" lon="1.99506">
        <ele>396.6</ele>
        <time>2022-05-25T14:17:06.000Z</time>
      </trkpt>
      <trkpt lat="44.41946" lon="1.99481">
        <ele>396</ele>
        <time>2022-05-25T14:17:08.000Z</time>
      </trkpt>
      <trkpt lat="44.41937" lon="1.99447">
        <ele>395.2</ele>
        <time>2022-05-25T14:17:11.000Z</time>
      </trkpt>
      <trkpt lat="44.41932" lon="1.99436">
        <ele>394.6</ele>
        <time>2022-05-25T14:17:12.000Z</time>
      </trkpt>
      <trkpt lat="44.41929" lon="1.99426">
        <ele>394.2</ele>
        <time>2022-05-25T14:17:13.000Z</time>
      </trkpt>
      <trkpt lat="44.41925" lon="1.99416">
        <ele>393.4</ele>
        <time>2022-05-25T14:17:14.000Z</time>
      </trkpt>
      <trkpt lat="44.41916" lon="1.99395">
        <ele>392.8</ele>
        <time>2022-05-25T14:17:16.000Z</time>
      </trkpt>
      <trkpt lat="44.41912" lon="1.99384">
        <ele>392.4</ele>
        <time>2022-05-25T14:17:17.000Z</time>
      </trkpt>
      <trkpt lat="44.419" lon="1.99364">
        <ele>391.6</ele>
        <time>2022-05-25T14:17:19.000Z</time>
      </trkpt>
      <trkpt lat="44.4189" lon="1.99343">
        <ele>390.6</ele>
        <time>2022-05-25T14:17:21.000Z</time>
      </trkpt>
      <trkpt lat="44.41885" lon="1.99333">
        <ele>390.2</ele>
        <time>2022-05-25T14:17:22.000Z</time>
      </trkpt>
      <trkpt lat="44.41872" lon="1.99313">
        <ele>389.2</ele>
        <time>2022-05-25T14:17:24.000Z</time>
      </trkpt>
      <trkpt lat="44.41861" lon="1.99295">
        <ele>388.2</ele>
        <time>2022-05-25T14:17:26.000Z</time>
      </trkpt>
      <trkpt lat="44.41856" lon="1.99285">
        <ele>388</ele>
        <time>2022-05-25T14:17:27.000Z</time>
      </trkpt>
      <trkpt lat="44.41852" lon="1.99276">
        <ele>387.4</ele>
        <time>2022-05-25T14:17:28.000Z</time>
      </trkpt>
      <trkpt lat="44.4184" lon="1.99259">
        <ele>386.8</ele>
        <time>2022-05-25T14:17:30.000Z</time>
      </trkpt>
      <trkpt lat="44.41811" lon="1.99219">
        <ele>385.6</ele>
        <time>2022-05-25T14:17:35.000Z</time>
      </trkpt>
      <trkpt lat="44.41799" lon="1.99203">
        <ele>384.6</ele>
        <time>2022-05-25T14:17:37.000Z</time>
      </trkpt>
      <trkpt lat="44.41788" lon="1.99188">
        <ele>383.4</ele>
        <time>2022-05-25T14:17:39.000Z</time>
      </trkpt>
      <trkpt lat="44.41776" lon="1.99173">
        <ele>382.2</ele>
        <time>2022-05-25T14:17:41.000Z</time>
      </trkpt>
      <trkpt lat="44.41763" lon="1.99157">
        <ele>381.8</ele>
        <time>2022-05-25T14:17:43.000Z</time>
      </trkpt>
      <trkpt lat="44.41757" lon="1.99149">
        <ele>381.6</ele>
        <time>2022-05-25T14:17:44.000Z</time>
      </trkpt>
      <trkpt lat="44.41751" lon="1.99142">
        <ele>381.2</ele>
        <time>2022-05-25T14:17:45.000Z</time>
      </trkpt>
      <trkpt lat="44.41745" lon="1.99135">
        <ele>380.8</ele>
        <time>2022-05-25T14:17:46.000Z</time>
      </trkpt>
      <trkpt lat="44.4172" lon="1.991">
        <ele>379.8</ele>
        <time>2022-05-25T14:17:50.000Z</time>
      </trkpt>
      <trkpt lat="44.41709" lon="1.99078">
        <ele>378.8</ele>
        <time>2022-05-25T14:17:52.000Z</time>
      </trkpt>
      <trkpt lat="44.41705" lon="1.99066">
        <ele>378.2</ele>
        <time>2022-05-25T14:17:53.000Z</time>
      </trkpt>
      <trkpt lat="44.41701" lon="1.99041">
        <ele>377.4</ele>
        <time>2022-05-25T14:17:55.000Z</time>
      </trkpt>
      <trkpt lat="44.41701" lon="1.99029">
        <ele>377</ele>
        <time>2022-05-25T14:17:56.000Z</time>
      </trkpt>
      <trkpt lat="44.41702" lon="1.99017">
        <ele>376.4</ele>
        <time>2022-05-25T14:17:57.000Z</time>
      </trkpt>
      <trkpt lat="44.41704" lon="1.99006">
        <ele>376.2</ele>
        <time>2022-05-25T14:17:58.000Z</time>
      </trkpt>
      <trkpt lat="44.41706" lon="1.98995">
        <ele>375.2</ele>
        <time>2022-05-25T14:17:59.000Z</time>
      </trkpt>
      <trkpt lat="44.41715" lon="1.98956">
        <ele>374.2</ele>
        <time>2022-05-25T14:18:03.000Z</time>
      </trkpt>
      <trkpt lat="44.41718" lon="1.98948">
        <ele>374.2</ele>
        <time>2022-05-25T14:18:04.000Z</time>
      </trkpt>
      <trkpt lat="44.41726" lon="1.98913">
        <ele>373.8</ele>
        <time>2022-05-25T14:18:08.000Z</time>
      </trkpt>
      <trkpt lat="44.41742" lon="1.98851">
        <ele>373.2</ele>
        <time>2022-05-25T14:18:15.000Z</time>
      </trkpt>
      <trkpt lat="44.41743" lon="1.98841">
        <ele>373.2</ele>
        <time>2022-05-25T14:18:16.000Z</time>
      </trkpt>
      <trkpt lat="44.41753" lon="1.98783">
        <ele>372.6</ele>
        <time>2022-05-25T14:18:22.000Z</time>
      </trkpt>
      <trkpt lat="44.41754" lon="1.98774">
        <ele>372.2</ele>
        <time>2022-05-25T14:18:23.000Z</time>
      </trkpt>
      <trkpt lat="44.41755" lon="1.98736">
        <ele>371.2</ele>
        <time>2022-05-25T14:18:27.000Z</time>
      </trkpt>
      <trkpt lat="44.41754" lon="1.98726">
        <ele>371</ele>
        <time>2022-05-25T14:18:28.000Z</time>
      </trkpt>
      <trkpt lat="44.41755" lon="1.98699">
        <ele>370.4</ele>
        <time>2022-05-25T14:18:31.000Z</time>
      </trkpt>
      <trkpt lat="44.41756" lon="1.98673">
        <ele>369.8</ele>
        <time>2022-05-25T14:18:34.000Z</time>
      </trkpt>
      <trkpt lat="44.41756" lon="1.98619">
        <ele>368.8</ele>
        <time>2022-05-25T14:18:40.000Z</time>
      </trkpt>
      <trkpt lat="44.41754" lon="1.98609">
        <ele>368.8</ele>
        <time>2022-05-25T14:18:41.000Z</time>
      </trkpt>
      <trkpt lat="44.41754" lon="1.986">
        <ele>368.8</ele>
        <time>2022-05-25T14:18:42.000Z</time>
      </trkpt>
      <trkpt lat="44.4175" lon="1.98581">
        <ele>368.6</ele>
        <time>2022-05-25T14:18:44.000Z</time>
      </trkpt>
      <trkpt lat="44.41742" lon="1.98563">
        <ele>368.4</ele>
        <time>2022-05-25T14:18:46.000Z</time>
      </trkpt>
      <trkpt lat="44.41733" lon="1.98547">
        <ele>368</ele>
        <time>2022-05-25T14:18:48.000Z</time>
      </trkpt>
      <trkpt lat="44.41728" lon="1.98539">
        <ele>367.8</ele>
        <time>2022-05-25T14:18:49.000Z</time>
      </trkpt>
      <trkpt lat="44.417" lon="1.98503">
        <ele>367</ele>
        <time>2022-05-25T14:18:54.000Z</time>
      </trkpt>
      <trkpt lat="44.41695" lon="1.98495">
        <ele>366.6</ele>
        <time>2022-05-25T14:18:55.000Z</time>
      </trkpt>
      <trkpt lat="44.4169" lon="1.98487">
        <ele>366.4</ele>
        <time>2022-05-25T14:18:56.000Z</time>
      </trkpt>
      <trkpt lat="44.41685" lon="1.98468">
        <ele>366</ele>
        <time>2022-05-25T14:18:58.000Z</time>
      </trkpt>
      <trkpt lat="44.41685" lon="1.9845">
        <ele>365.6</ele>
        <time>2022-05-25T14:19:00.000Z</time>
      </trkpt>
      <trkpt lat="44.41685" lon="1.98442">
        <ele>365.2</ele>
        <time>2022-05-25T14:19:01.000Z</time>
      </trkpt>
      <trkpt lat="44.41688" lon="1.98425">
        <ele>364.8</ele>
        <time>2022-05-25T14:19:03.000Z</time>
      </trkpt>
      <trkpt lat="44.41692" lon="1.9841">
        <ele>364.4</ele>
        <time>2022-05-25T14:19:05.000Z</time>
      </trkpt>
      <trkpt lat="44.41693" lon="1.98403">
        <ele>364.4</ele>
        <time>2022-05-25T14:19:06.000Z</time>
      </trkpt>
      <trkpt lat="44.41702" lon="1.98358">
        <ele>365.6</ele>
        <time>2022-05-25T14:19:13.000Z</time>
      </trkpt>
      <trkpt lat="44.41707" lon="1.98329">
        <ele>366.8</ele>
        <time>2022-05-25T14:19:18.000Z</time>
      </trkpt>
      <trkpt lat="44.41711" lon="1.98312">
        <ele>367.4</ele>
        <time>2022-05-25T14:19:21.000Z</time>
      </trkpt>
      <trkpt lat="44.41713" lon="1.983">
        <ele>367.8</ele>
        <time>2022-05-25T14:19:23.000Z</time>
      </trkpt>
      <trkpt lat="44.41723" lon="1.98261">
        <ele>369</ele>
        <time>2022-05-25T14:19:30.000Z</time>
      </trkpt>
      <trkpt lat="44.41726" lon="1.98251">
        <ele>369.4</ele>
        <time>2022-05-25T14:19:32.000Z</time>
      </trkpt>
      <trkpt lat="44.41736" lon="1.98234">
        <ele>370</ele>
        <time>2022-05-25T14:19:36.000Z</time>
      </trkpt>
      <trkpt lat="44.41738" lon="1.9823">
        <ele>370.2</ele>
        <time>2022-05-25T14:19:37.000Z</time>
      </trkpt>
      <trkpt lat="44.41752" lon="1.9821">
        <ele>371</ele>
        <time>2022-05-25T14:19:42.000Z</time>
      </trkpt>
      <trkpt lat="44.41764" lon="1.98187">
        <ele>371.6</ele>
        <time>2022-05-25T14:19:47.000Z</time>
      </trkpt>
      <trkpt lat="44.41771" lon="1.98172">
        <ele>372</ele>
        <time>2022-05-25T14:19:50.000Z</time>
      </trkpt>
      <trkpt lat="44.41773" lon="1.98167">
        <ele>372</ele>
        <time>2022-05-25T14:19:51.000Z</time>
      </trkpt>
      <trkpt lat="44.41778" lon="1.98152">
        <ele>372.2</ele>
        <time>2022-05-25T14:19:54.000Z</time>
      </trkpt>
      <trkpt lat="44.41789" lon="1.98115">
        <ele>372.8</ele>
        <time>2022-05-25T14:20:01.000Z</time>
      </trkpt>
      <trkpt lat="44.41791" lon="1.9811">
        <ele>373</ele>
        <time>2022-05-25T14:20:02.000Z</time>
      </trkpt>
      <trkpt lat="44.41793" lon="1.98099">
        <ele>373.2</ele>
        <time>2022-05-25T14:20:04.000Z</time>
      </trkpt>
      <trkpt lat="44.41799" lon="1.98078">
        <ele>374</ele>
        <time>2022-05-25T14:20:08.000Z</time>
      </trkpt>
      <trkpt lat="44.41801" lon="1.98067">
        <ele>374.2</ele>
        <time>2022-05-25T14:20:10.000Z</time>
      </trkpt>
      <trkpt lat="44.41803" lon="1.98041">
        <ele>375</ele>
        <time>2022-05-25T14:20:15.000Z</time>
      </trkpt>
      <trkpt lat="44.41804" lon="1.98031">
        <ele>375.4</ele>
        <time>2022-05-25T14:20:17.000Z</time>
      </trkpt>
      <trkpt lat="44.41804" lon="1.98001">
        <ele>376.6</ele>
        <time>2022-05-25T14:20:23.000Z</time>
      </trkpt>
      <trkpt lat="44.41808" lon="1.97964">
        <ele>377.8</ele>
        <time>2022-05-25T14:20:30.000Z</time>
      </trkpt>
      <trkpt lat="44.41809" lon="1.97934">
        <ele>378.8</ele>
        <time>2022-05-25T14:20:35.000Z</time>
      </trkpt>
      <trkpt lat="44.4181" lon="1.97929">
        <ele>378.8</ele>
        <time>2022-05-25T14:20:36.000Z</time>
      </trkpt>
      <trkpt lat="44.41811" lon="1.97899">
        <ele>379</ele>
        <time>2022-05-25T14:20:41.000Z</time>
      </trkpt>
      <trkpt lat="44.41811" lon="1.97887">
        <ele>379</ele>
        <time>2022-05-25T14:20:43.000Z</time>
      </trkpt>
      <trkpt lat="44.41812" lon="1.97874">
        <ele>379</ele>
        <time>2022-05-25T14:20:45.000Z</time>
      </trkpt>
      <trkpt lat="44.41813" lon="1.97843">
        <ele>378.4</ele>
        <time>2022-05-25T14:20:50.000Z</time>
      </trkpt>
      <trkpt lat="44.41809" lon="1.97817">
        <ele>377.8</ele>
        <time>2022-05-25T14:20:54.000Z</time>
      </trkpt>
      <trkpt lat="44.41807" lon="1.97811">
        <ele>377.6</ele>
        <time>2022-05-25T14:20:55.000Z</time>
      </trkpt>
      <trkpt lat="44.41795" lon="1.9778">
        <ele>376.6</ele>
        <time>2022-05-25T14:21:00.000Z</time>
      </trkpt>
      <trkpt lat="44.41779" lon="1.97742">
        <ele>375.4</ele>
        <time>2022-05-25T14:21:05.000Z</time>
      </trkpt>
      <trkpt lat="44.41775" lon="1.97732">
        <ele>375</ele>
        <time>2022-05-25T14:21:06.000Z</time>
      </trkpt>
      <trkpt lat="44.41763" lon="1.97703">
        <ele>373.8</ele>
        <time>2022-05-25T14:21:09.000Z</time>
      </trkpt>
      <trkpt lat="44.4175" lon="1.97675">
        <ele>372.4</ele>
        <time>2022-05-25T14:21:12.000Z</time>
      </trkpt>
      <trkpt lat="44.41741" lon="1.97654">
        <ele>371.2</ele>
        <time>2022-05-25T14:21:14.000Z</time>
      </trkpt>
      <trkpt lat="44.41731" lon="1.97622">
        <ele>369.8</ele>
        <time>2022-05-25T14:21:17.000Z</time>
      </trkpt>
      <trkpt lat="44.41727" lon="1.97612">
        <ele>369.4</ele>
        <time>2022-05-25T14:21:18.000Z</time>
      </trkpt>
      <trkpt lat="44.41718" lon="1.97582">
        <ele>368.6</ele>
        <time>2022-05-25T14:21:21.000Z</time>
      </trkpt>
      <trkpt lat="44.41704" lon="1.97542">
        <ele>367.8</ele>
        <time>2022-05-25T14:21:25.000Z</time>
      </trkpt>
      <trkpt lat="44.41699" lon="1.97534">
        <ele>367.4</ele>
        <time>2022-05-25T14:21:26.000Z</time>
      </trkpt>
      <trkpt lat="44.41683" lon="1.97514">
        <ele>366.6</ele>
        <time>2022-05-25T14:21:29.000Z</time>
      </trkpt>
      <trkpt lat="44.41679" lon="1.97509">
        <ele>366.4</ele>
        <time>2022-05-25T14:21:30.000Z</time>
      </trkpt>
      <trkpt lat="44.41662" lon="1.97487">
        <ele>366.6</ele>
        <time>2022-05-25T14:21:34.000Z</time>
      </trkpt>
      <trkpt lat="44.41658" lon="1.97482">
        <ele>366.8</ele>
        <time>2022-05-25T14:21:35.000Z</time>
      </trkpt>
      <trkpt lat="44.41655" lon="1.97475">
        <ele>367</ele>
        <time>2022-05-25T14:21:36.000Z</time>
      </trkpt>
      <trkpt lat="44.41646" lon="1.97457">
        <ele>367.2</ele>
        <time>2022-05-25T14:21:39.000Z</time>
      </trkpt>
      <trkpt lat="44.41643" lon="1.97451">
        <ele>367.6</ele>
        <time>2022-05-25T14:21:40.000Z</time>
      </trkpt>
      <trkpt lat="44.4164" lon="1.97445">
        <ele>368</ele>
        <time>2022-05-25T14:21:41.000Z</time>
      </trkpt>
      <trkpt lat="44.41631" lon="1.97427">
        <ele>368.8</ele>
        <time>2022-05-25T14:21:44.000Z</time>
      </trkpt>
      <trkpt lat="44.41615" lon="1.97391">
        <ele>369.2</ele>
        <time>2022-05-25T14:21:49.000Z</time>
      </trkpt>
      <trkpt lat="44.41601" lon="1.97352">
        <ele>368.8</ele>
        <time>2022-05-25T14:21:54.000Z</time>
      </trkpt>
      <trkpt lat="44.41596" lon="1.97337">
        <ele>368.8</ele>
        <time>2022-05-25T14:21:56.000Z</time>
      </trkpt>
      <trkpt lat="44.41581" lon="1.97287">
        <ele>367.6</ele>
        <time>2022-05-25T14:22:02.000Z</time>
      </trkpt>
      <trkpt lat="44.41578" lon="1.97278">
        <ele>367.2</ele>
        <time>2022-05-25T14:22:03.000Z</time>
      </trkpt>
      <trkpt lat="44.4157" lon="1.9725">
        <ele>366.4</ele>
        <time>2022-05-25T14:22:06.000Z</time>
      </trkpt>
      <trkpt lat="44.4156" lon="1.97219">
        <ele>365</ele>
        <time>2022-05-25T14:22:09.000Z</time>
      </trkpt>
      <trkpt lat="44.41547" lon="1.97178">
        <ele>363.8</ele>
        <time>2022-05-25T14:22:13.000Z</time>
      </trkpt>
      <trkpt lat="44.41534" lon="1.97139">
        <ele>362.6</ele>
        <time>2022-05-25T14:22:17.000Z</time>
      </trkpt>
      <trkpt lat="44.41521" lon="1.97105">
        <ele>361.6</ele>
        <time>2022-05-25T14:22:21.000Z</time>
      </trkpt>
      <trkpt lat="44.41514" lon="1.97089">
        <ele>361.4</ele>
        <time>2022-05-25T14:22:23.000Z</time>
      </trkpt>
      <trkpt lat="44.41496" lon="1.97055">
        <ele>361.6</ele>
        <time>2022-05-25T14:22:28.000Z</time>
      </trkpt>
      <trkpt lat="44.41477" lon="1.97016">
        <ele>362.4</ele>
        <time>2022-05-25T14:22:34.000Z</time>
      </trkpt>
      <trkpt lat="44.41474" lon="1.97009">
        <ele>362.6</ele>
        <time>2022-05-25T14:22:35.000Z</time>
      </trkpt>
      <trkpt lat="44.41455" lon="1.9695">
        <ele>362.6</ele>
        <time>2022-05-25T14:22:43.000Z</time>
      </trkpt>
      <trkpt lat="44.41426" lon="1.96899">
        <ele>361.6</ele>
        <time>2022-05-25T14:22:50.000Z</time>
      </trkpt>
      <trkpt lat="44.41413" lon="1.96877">
        <ele>360.4</ele>
        <time>2022-05-25T14:22:53.000Z</time>
      </trkpt>
      <trkpt lat="44.4139" lon="1.96838">
        <ele>359</ele>
        <time>2022-05-25T14:22:58.000Z</time>
      </trkpt>
      <trkpt lat="44.41385" lon="1.96831">
        <ele>358.8</ele>
        <time>2022-05-25T14:22:59.000Z</time>
      </trkpt>
      <trkpt lat="44.41358" lon="1.9679">
        <ele>358</ele>
        <time>2022-05-25T14:23:05.000Z</time>
      </trkpt>
      <trkpt lat="44.4135" lon="1.96779">
        <ele>357.8</ele>
        <time>2022-05-25T14:23:07.000Z</time>
      </trkpt>
      <trkpt lat="44.41343" lon="1.96769">
        <ele>357.8</ele>
        <time>2022-05-25T14:23:09.000Z</time>
      </trkpt>
      <trkpt lat="44.41337" lon="1.96763">
        <ele>357.8</ele>
        <time>2022-05-25T14:23:11.000Z</time>
      </trkpt>
      <trkpt lat="44.41327" lon="1.96754">
        <ele>358</ele>
        <time>2022-05-25T14:23:14.000Z</time>
      </trkpt>
      <trkpt lat="44.4132" lon="1.96746">
        <ele>358.2</ele>
        <time>2022-05-25T14:23:16.000Z</time>
      </trkpt>
      <trkpt lat="44.41309" lon="1.96733">
        <ele>358.6</ele>
        <time>2022-05-25T14:23:19.000Z</time>
      </trkpt>
      <trkpt lat="44.41296" lon="1.96713">
        <ele>359</ele>
        <time>2022-05-25T14:23:23.000Z</time>
      </trkpt>
      <trkpt lat="44.4128" lon="1.96684">
        <ele>360</ele>
        <time>2022-05-25T14:23:28.000Z</time>
      </trkpt>
      <trkpt lat="44.41273" lon="1.96673">
        <ele>360.2</ele>
        <time>2022-05-25T14:23:30.000Z</time>
      </trkpt>
      <trkpt lat="44.41248" lon="1.9662">
        <ele>360.8</ele>
        <time>2022-05-25T14:23:38.000Z</time>
      </trkpt>
      <trkpt lat="44.41235" lon="1.96568">
        <ele>361</ele>
        <time>2022-05-25T14:23:45.000Z</time>
      </trkpt>
      <trkpt lat="44.41235" lon="1.96519">
        <ele>360.8</ele>
        <time>2022-05-25T14:23:51.000Z</time>
      </trkpt>
      <trkpt lat="44.41237" lon="1.96454">
        <ele>359.2</ele>
        <time>2022-05-25T14:23:59.000Z</time>
      </trkpt>
      <trkpt lat="44.41238" lon="1.96445">
        <ele>359</ele>
        <time>2022-05-25T14:24:00.000Z</time>
      </trkpt>
      <trkpt lat="44.41239" lon="1.96437">
        <ele>359</ele>
        <time>2022-05-25T14:24:01.000Z</time>
      </trkpt>
      <trkpt lat="44.41245" lon="1.96389">
        <ele>358.8</ele>
        <time>2022-05-25T14:24:07.000Z</time>
      </trkpt>
      <trkpt lat="44.41256" lon="1.96318">
        <ele>358.4</ele>
        <time>2022-05-25T14:24:16.000Z</time>
      </trkpt>
      <trkpt lat="44.41258" lon="1.963">
        <ele>358</ele>
        <time>2022-05-25T14:24:18.000Z</time>
      </trkpt>
      <trkpt lat="44.41261" lon="1.96281">
        <ele>357.4</ele>
        <time>2022-05-25T14:24:20.000Z</time>
      </trkpt>
      <trkpt lat="44.41261" lon="1.96271">
        <ele>357.2</ele>
        <time>2022-05-25T14:24:21.000Z</time>
      </trkpt>
      <trkpt lat="44.41261" lon="1.9626">
        <ele>357</ele>
        <time>2022-05-25T14:24:22.000Z</time>
      </trkpt>
      <trkpt lat="44.4126" lon="1.96249">
        <ele>356.6</ele>
        <time>2022-05-25T14:24:23.000Z</time>
      </trkpt>
      <trkpt lat="44.41256" lon="1.96228">
        <ele>356</ele>
        <time>2022-05-25T14:24:25.000Z</time>
      </trkpt>
      <trkpt lat="44.41254" lon="1.96218">
        <ele>355.6</ele>
        <time>2022-05-25T14:24:26.000Z</time>
      </trkpt>
      <trkpt lat="44.41243" lon="1.96191">
        <ele>354.6</ele>
        <time>2022-05-25T14:24:29.000Z</time>
      </trkpt>
      <trkpt lat="44.4123" lon="1.96159">
        <ele>353.6</ele>
        <time>2022-05-25T14:24:33.000Z</time>
      </trkpt>
      <trkpt lat="44.41227" lon="1.96152">
        <ele>353.6</ele>
        <time>2022-05-25T14:24:34.000Z</time>
      </trkpt>
      <trkpt lat="44.41224" lon="1.96145">
        <ele>353.6</ele>
        <time>2022-05-25T14:24:35.000Z</time>
      </trkpt>
      <trkpt lat="44.41207" lon="1.96108">
        <ele>354.6</ele>
        <time>2022-05-25T14:24:41.000Z</time>
      </trkpt>
      <trkpt lat="44.41203" lon="1.96103">
        <ele>354.8</ele>
        <time>2022-05-25T14:24:42.000Z</time>
      </trkpt>
      <trkpt lat="44.41195" lon="1.96086">
        <ele>356</ele>
        <time>2022-05-25T14:24:45.000Z</time>
      </trkpt>
      <trkpt lat="44.41191" lon="1.96074">
        <ele>356.4</ele>
        <time>2022-05-25T14:24:47.000Z</time>
      </trkpt>
      <trkpt lat="44.41189" lon="1.96068">
        <ele>356.6</ele>
        <time>2022-05-25T14:24:48.000Z</time>
      </trkpt>
      <trkpt lat="44.41186" lon="1.96057">
        <ele>357</ele>
        <time>2022-05-25T14:24:50.000Z</time>
      </trkpt>
      <trkpt lat="44.41181" lon="1.96034">
        <ele>358.2</ele>
        <time>2022-05-25T14:24:54.000Z</time>
      </trkpt>
      <trkpt lat="44.41179" lon="1.96024">
        <ele>358.6</ele>
        <time>2022-05-25T14:24:56.000Z</time>
      </trkpt>
      <trkpt lat="44.41177" lon="1.96013">
        <ele>359.2</ele>
        <time>2022-05-25T14:24:58.000Z</time>
      </trkpt>
      <trkpt lat="44.41176" lon="1.96008">
        <ele>359.4</ele>
        <time>2022-05-25T14:24:59.000Z</time>
      </trkpt>
      <trkpt lat="44.41173" lon="1.95992">
        <ele>359.8</ele>
        <time>2022-05-25T14:25:02.000Z</time>
      </trkpt>
      <trkpt lat="44.4117" lon="1.95977">
        <ele>360.6</ele>
        <time>2022-05-25T14:25:05.000Z</time>
      </trkpt>
      <trkpt lat="44.41167" lon="1.95961">
        <ele>361.6</ele>
        <time>2022-05-25T14:25:08.000Z</time>
      </trkpt>
      <trkpt lat="44.41166" lon="1.95956">
        <ele>361.8</ele>
        <time>2022-05-25T14:25:09.000Z</time>
      </trkpt>
      <trkpt lat="44.41162" lon="1.9594">
        <ele>362.8</ele>
        <time>2022-05-25T14:25:12.000Z</time>
      </trkpt>
      <trkpt lat="44.41158" lon="1.95919">
        <ele>363.4</ele>
        <time>2022-05-25T14:25:16.000Z</time>
      </trkpt>
      <trkpt lat="44.41157" lon="1.95869">
        <ele>363.6</ele>
        <time>2022-05-25T14:25:24.000Z</time>
      </trkpt>
      <trkpt lat="44.41156" lon="1.95839">
        <ele>363.2</ele>
        <time>2022-05-25T14:25:28.000Z</time>
      </trkpt>
      <trkpt lat="44.41156" lon="1.95831">
        <ele>363</ele>
        <time>2022-05-25T14:25:29.000Z</time>
      </trkpt>
      <trkpt lat="44.41155" lon="1.95805">
        <ele>362.8</ele>
        <time>2022-05-25T14:25:32.000Z</time>
      </trkpt>
      <trkpt lat="44.41154" lon="1.95777">
        <ele>361.6</ele>
        <time>2022-05-25T14:25:35.000Z</time>
      </trkpt>
      <trkpt lat="44.41153" lon="1.95758">
        <ele>360.8</ele>
        <time>2022-05-25T14:25:37.000Z</time>
      </trkpt>
      <trkpt lat="44.41153" lon="1.95748">
        <ele>360.6</ele>
        <time>2022-05-25T14:25:38.000Z</time>
      </trkpt>
      <trkpt lat="44.41153" lon="1.9573">
        <ele>359.8</ele>
        <time>2022-05-25T14:25:40.000Z</time>
      </trkpt>
      <trkpt lat="44.41153" lon="1.9572">
        <ele>359.2</ele>
        <time>2022-05-25T14:25:41.000Z</time>
      </trkpt>
      <trkpt lat="44.41152" lon="1.9571">
        <ele>359</ele>
        <time>2022-05-25T14:25:42.000Z</time>
      </trkpt>
      <trkpt lat="44.4115" lon="1.95669">
        <ele>357.4</ele>
        <time>2022-05-25T14:25:46.000Z</time>
      </trkpt>
      <trkpt lat="44.4115" lon="1.95647">
        <ele>356.4</ele>
        <time>2022-05-25T14:25:48.000Z</time>
      </trkpt>
      <trkpt lat="44.4115" lon="1.95636">
        <ele>356.2</ele>
        <time>2022-05-25T14:25:49.000Z</time>
      </trkpt>
      <trkpt lat="44.41151" lon="1.95582">
        <ele>354.6</ele>
        <time>2022-05-25T14:25:54.000Z</time>
      </trkpt>
      <trkpt lat="44.4115" lon="1.9555">
        <ele>354</ele>
        <time>2022-05-25T14:25:57.000Z</time>
      </trkpt>
      <trkpt lat="44.4115" lon="1.95518">
        <ele>353.6</ele>
        <time>2022-05-25T14:26:00.000Z</time>
      </trkpt>
      <trkpt lat="44.41149" lon="1.95497">
        <ele>352.8</ele>
        <time>2022-05-25T14:26:02.000Z</time>
      </trkpt>
      <trkpt lat="44.41148" lon="1.95487">
        <ele>352.2</ele>
        <time>2022-05-25T14:26:03.000Z</time>
      </trkpt>
      <trkpt lat="44.41146" lon="1.9543">
        <ele>351.2</ele>
        <time>2022-05-25T14:26:09.000Z</time>
      </trkpt>
      <trkpt lat="44.41142" lon="1.95394">
        <ele>350.6</ele>
        <time>2022-05-25T14:26:13.000Z</time>
      </trkpt>
      <trkpt lat="44.41139" lon="1.95377">
        <ele>350.2</ele>
        <time>2022-05-25T14:26:15.000Z</time>
      </trkpt>
      <trkpt lat="44.41137" lon="1.9536">
        <ele>350</ele>
        <time>2022-05-25T14:26:17.000Z</time>
      </trkpt>
      <trkpt lat="44.41136" lon="1.95351">
        <ele>349.8</ele>
        <time>2022-05-25T14:26:18.000Z</time>
      </trkpt>
      <trkpt lat="44.41131" lon="1.95295">
        <ele>349.2</ele>
        <time>2022-05-25T14:26:24.000Z</time>
      </trkpt>
      <trkpt lat="44.41131" lon="1.95267">
        <ele>349.2</ele>
        <time>2022-05-25T14:26:27.000Z</time>
      </trkpt>
      <trkpt lat="44.41135" lon="1.95249">
        <ele>349</ele>
        <time>2022-05-25T14:26:29.000Z</time>
      </trkpt>
      <trkpt lat="44.41138" lon="1.95232">
        <ele>348.8</ele>
        <time>2022-05-25T14:26:31.000Z</time>
      </trkpt>
      <trkpt lat="44.41141" lon="1.95214">
        <ele>347.8</ele>
        <time>2022-05-25T14:26:33.000Z</time>
      </trkpt>
      <trkpt lat="44.41144" lon="1.95195">
        <ele>347</ele>
        <time>2022-05-25T14:26:35.000Z</time>
      </trkpt>
      <trkpt lat="44.41146" lon="1.95178">
        <ele>346.8</ele>
        <time>2022-05-25T14:26:37.000Z</time>
      </trkpt>
      <trkpt lat="44.41147" lon="1.95152">
        <ele>346.6</ele>
        <time>2022-05-25T14:26:40.000Z</time>
      </trkpt>
      <trkpt lat="44.41146" lon="1.95107">
        <ele>346</ele>
        <time>2022-05-25T14:26:45.000Z</time>
      </trkpt>
      <trkpt lat="44.41146" lon="1.9508">
        <ele>345.6</ele>
        <time>2022-05-25T14:26:48.000Z</time>
      </trkpt>
      <trkpt lat="44.41147" lon="1.95071">
        <ele>345.6</ele>
        <time>2022-05-25T14:26:49.000Z</time>
      </trkpt>
      <trkpt lat="44.41147" lon="1.95062">
        <ele>346</ele>
        <time>2022-05-25T14:26:50.000Z</time>
      </trkpt>
      <trkpt lat="44.41153" lon="1.95037">
        <ele>346</ele>
        <time>2022-05-25T14:26:53.000Z</time>
      </trkpt>
      <trkpt lat="44.41167" lon="1.94988">
        <ele>346.4</ele>
        <time>2022-05-25T14:26:59.000Z</time>
      </trkpt>
      <trkpt lat="44.41178" lon="1.94951">
        <ele>346.2</ele>
        <time>2022-05-25T14:27:04.000Z</time>
      </trkpt>
      <trkpt lat="44.41181" lon="1.94944">
        <ele>346.2</ele>
        <time>2022-05-25T14:27:05.000Z</time>
      </trkpt>
      <trkpt lat="44.41182" lon="1.94936">
        <ele>346.2</ele>
        <time>2022-05-25T14:27:06.000Z</time>
      </trkpt>
      <trkpt lat="44.41186" lon="1.94919">
        <ele>346</ele>
        <time>2022-05-25T14:27:08.000Z</time>
      </trkpt>
      <trkpt lat="44.4119" lon="1.94905">
        <ele>346</ele>
        <time>2022-05-25T14:27:10.000Z</time>
      </trkpt>
      <trkpt lat="44.41194" lon="1.94883">
        <ele>346.8</ele>
        <time>2022-05-25T14:27:13.000Z</time>
      </trkpt>
      <trkpt lat="44.41196" lon="1.94875">
        <ele>346.8</ele>
        <time>2022-05-25T14:27:14.000Z</time>
      </trkpt>
      <trkpt lat="44.41198" lon="1.94867">
        <ele>347</ele>
        <time>2022-05-25T14:27:15.000Z</time>
      </trkpt>
      <trkpt lat="44.41206" lon="1.94833">
        <ele>347.6</ele>
        <time>2022-05-25T14:27:19.000Z</time>
      </trkpt>
      <trkpt lat="44.4121" lon="1.94819">
        <ele>347.8</ele>
        <time>2022-05-25T14:27:21.000Z</time>
      </trkpt>
      <trkpt lat="44.41221" lon="1.94794">
        <ele>347.8</ele>
        <time>2022-05-25T14:27:25.000Z</time>
      </trkpt>
      <trkpt lat="44.41226" lon="1.94776">
        <ele>348.2</ele>
        <time>2022-05-25T14:27:28.000Z</time>
      </trkpt>
      <trkpt lat="44.4123" lon="1.94759">
        <ele>348.2</ele>
        <time>2022-05-25T14:27:30.000Z</time>
      </trkpt>
      <trkpt lat="44.41245" lon="1.94703">
        <ele>347.8</ele>
        <time>2022-05-25T14:27:37.000Z</time>
      </trkpt>
      <trkpt lat="44.41265" lon="1.94659">
        <ele>346.8</ele>
        <time>2022-05-25T14:27:43.000Z</time>
      </trkpt>
      <trkpt lat="44.41275" lon="1.94639">
        <ele>345.6</ele>
        <time>2022-05-25T14:27:46.000Z</time>
      </trkpt>
      <trkpt lat="44.41278" lon="1.94632">
        <ele>345.4</ele>
        <time>2022-05-25T14:27:47.000Z</time>
      </trkpt>
      <trkpt lat="44.41284" lon="1.94609">
        <ele>345</ele>
        <time>2022-05-25T14:27:50.000Z</time>
      </trkpt>
      <trkpt lat="44.41283" lon="1.94601">
        <ele>344.6</ele>
        <time>2022-05-25T14:27:51.000Z</time>
      </trkpt>
      <trkpt lat="44.41279" lon="1.94594">
        <ele>344.4</ele>
        <time>2022-05-25T14:27:52.000Z</time>
      </trkpt>
      <trkpt lat="44.41269" lon="1.94582">
        <ele>343.8</ele>
        <time>2022-05-25T14:27:54.000Z</time>
      </trkpt>
      <trkpt lat="44.41258" lon="1.94572">
        <ele>343.4</ele>
        <time>2022-05-25T14:27:56.000Z</time>
      </trkpt>
      <trkpt lat="44.41235" lon="1.94555">
        <ele>342.2</ele>
        <time>2022-05-25T14:28:00.000Z</time>
      </trkpt>
      <trkpt lat="44.41204" lon="1.94533">
        <ele>341.4</ele>
        <time>2022-05-25T14:28:05.000Z</time>
      </trkpt>
      <trkpt lat="44.4118" lon="1.94516">
        <ele>341</ele>
        <time>2022-05-25T14:28:09.000Z</time>
      </trkpt>
      <trkpt lat="44.41156" lon="1.945">
        <ele>340.4</ele>
        <time>2022-05-25T14:28:13.000Z</time>
      </trkpt>
      <trkpt lat="44.41132" lon="1.94488">
        <ele>340</ele>
        <time>2022-05-25T14:28:17.000Z</time>
      </trkpt>
      <trkpt lat="44.4112" lon="1.94484">
        <ele>339.6</ele>
        <time>2022-05-25T14:28:19.000Z</time>
      </trkpt>
      <trkpt lat="44.41115" lon="1.94482">
        <ele>339.4</ele>
        <time>2022-05-25T14:28:20.000Z</time>
      </trkpt>
      <trkpt lat="44.41094" lon="1.94472">
        <ele>340.2</ele>
        <time>2022-05-25T14:28:24.000Z</time>
      </trkpt>
      <trkpt lat="44.41063" lon="1.94461">
        <ele>341.2</ele>
        <time>2022-05-25T14:28:30.000Z</time>
      </trkpt>
      <trkpt lat="44.41057" lon="1.94459">
        <ele>341.2</ele>
        <time>2022-05-25T14:28:31.000Z</time>
      </trkpt>
      <trkpt lat="44.41028" lon="1.94445">
        <ele>340.8</ele>
        <time>2022-05-25T14:28:36.000Z</time>
      </trkpt>
      <trkpt lat="44.41022" lon="1.94441">
        <ele>340.6</ele>
        <time>2022-05-25T14:28:37.000Z</time>
      </trkpt>
      <trkpt lat="44.41001" lon="1.94423">
        <ele>340.4</ele>
        <time>2022-05-25T14:28:41.000Z</time>
      </trkpt>
      <trkpt lat="44.40987" lon="1.94406">
        <ele>340.2</ele>
        <time>2022-05-25T14:28:44.000Z</time>
      </trkpt>
      <trkpt lat="44.40982" lon="1.944">
        <ele>340</ele>
        <time>2022-05-25T14:28:45.000Z</time>
      </trkpt>
      <trkpt lat="44.40963" lon="1.94378">
        <ele>340</ele>
        <time>2022-05-25T14:28:49.000Z</time>
      </trkpt>
      <trkpt lat="44.4093" lon="1.94346">
        <ele>340.8</ele>
        <time>2022-05-25T14:28:56.000Z</time>
      </trkpt>
      <trkpt lat="44.40921" lon="1.9434">
        <ele>341.4</ele>
        <time>2022-05-25T14:28:58.000Z</time>
      </trkpt>
      <trkpt lat="44.40903" lon="1.94329">
        <ele>342.6</ele>
        <time>2022-05-25T14:29:02.000Z</time>
      </trkpt>
      <trkpt lat="44.40899" lon="1.94327">
        <ele>342.8</ele>
        <time>2022-05-25T14:29:03.000Z</time>
      </trkpt>
      <trkpt lat="44.40862" lon="1.94306">
        <ele>343.4</ele>
        <time>2022-05-25T14:29:11.000Z</time>
      </trkpt>
      <trkpt lat="44.40848" lon="1.94298">
        <ele>343.8</ele>
        <time>2022-05-25T14:29:14.000Z</time>
      </trkpt>
      <trkpt lat="44.40825" lon="1.94286">
        <ele>343.8</ele>
        <time>2022-05-25T14:29:19.000Z</time>
      </trkpt>
      <trkpt lat="44.40807" lon="1.94275">
        <ele>344.2</ele>
        <time>2022-05-25T14:29:23.000Z</time>
      </trkpt>
      <trkpt lat="44.40794" lon="1.94264">
        <ele>344.6</ele>
        <time>2022-05-25T14:29:26.000Z</time>
      </trkpt>
      <trkpt lat="44.40791" lon="1.9426">
        <ele>344.8</ele>
        <time>2022-05-25T14:29:27.000Z</time>
      </trkpt>
      <trkpt lat="44.40765" lon="1.94229">
        <ele>345.6</ele>
        <time>2022-05-25T14:29:34.000Z</time>
      </trkpt>
      <trkpt lat="44.40752" lon="1.9422">
        <ele>346</ele>
        <time>2022-05-25T14:29:37.000Z</time>
      </trkpt>
      <trkpt lat="44.40739" lon="1.94213">
        <ele>346</ele>
        <time>2022-05-25T14:29:40.000Z</time>
      </trkpt>
      <trkpt lat="44.40711" lon="1.94204">
        <ele>346.8</ele>
        <time>2022-05-25T14:29:46.000Z</time>
      </trkpt>
      <trkpt lat="44.40706" lon="1.94202">
        <ele>346.8</ele>
        <time>2022-05-25T14:29:47.000Z</time>
      </trkpt>
      <trkpt lat="44.40702" lon="1.942">
        <ele>347</ele>
        <time>2022-05-25T14:29:48.000Z</time>
      </trkpt>
      <trkpt lat="44.40665" lon="1.94186">
        <ele>348</ele>
        <time>2022-05-25T14:29:56.000Z</time>
      </trkpt>
      <trkpt lat="44.40642" lon="1.9417">
        <ele>348.6</ele>
        <time>2022-05-25T14:30:02.000Z</time>
      </trkpt>
      <trkpt lat="44.40631" lon="1.9416">
        <ele>348.8</ele>
        <time>2022-05-25T14:30:05.000Z</time>
      </trkpt>
      <trkpt lat="44.40626" lon="1.9415">
        <ele>348.8</ele>
        <time>2022-05-25T14:30:07.000Z</time>
      </trkpt>
      <trkpt lat="44.40624" lon="1.94136">
        <ele>349</ele>
        <time>2022-05-25T14:30:09.000Z</time>
      </trkpt>
      <trkpt lat="44.40624" lon="1.94129">
        <ele>349</ele>
        <time>2022-05-25T14:30:10.000Z</time>
      </trkpt>
      <trkpt lat="44.40626" lon="1.94093">
        <ele>349</ele>
        <time>2022-05-25T14:30:15.000Z</time>
      </trkpt>
      <trkpt lat="44.40628" lon="1.94086">
        <ele>349</ele>
        <time>2022-05-25T14:30:16.000Z</time>
      </trkpt>
      <trkpt lat="44.40638" lon="1.94051">
        <ele>348.6</ele>
        <time>2022-05-25T14:30:21.000Z</time>
      </trkpt>
      <trkpt lat="44.40657" lon="1.94007">
        <ele>348.6</ele>
        <time>2022-05-25T14:30:28.000Z</time>
      </trkpt>
      <trkpt lat="44.40671" lon="1.93979">
        <ele>349</ele>
        <time>2022-05-25T14:30:33.000Z</time>
      </trkpt>
      <trkpt lat="44.40677" lon="1.9397">
        <ele>349.4</ele>
        <time>2022-05-25T14:30:35.000Z</time>
      </trkpt>
      <trkpt lat="44.4068" lon="1.93965">
        <ele>349.4</ele>
        <time>2022-05-25T14:30:36.000Z</time>
      </trkpt>
      <trkpt lat="44.40687" lon="1.93951">
        <ele>350</ele>
        <time>2022-05-25T14:30:39.000Z</time>
      </trkpt>
      <trkpt lat="44.40695" lon="1.93933">
        <ele>351.2</ele>
        <time>2022-05-25T14:30:43.000Z</time>
      </trkpt>
      <trkpt lat="44.407" lon="1.93923">
        <ele>351.8</ele>
        <time>2022-05-25T14:30:46.000Z</time>
      </trkpt>
      <trkpt lat="44.40704" lon="1.93915">
        <ele>352.2</ele>
        <time>2022-05-25T14:30:48.000Z</time>
      </trkpt>
      <trkpt lat="44.40713" lon="1.93894">
        <ele>353.2</ele>
        <time>2022-05-25T14:30:53.000Z</time>
      </trkpt>
      <trkpt lat="44.40715" lon="1.9389">
        <ele>353.4</ele>
        <time>2022-05-25T14:30:54.000Z</time>
      </trkpt>
      <trkpt lat="44.40725" lon="1.93867">
        <ele>354.2</ele>
        <time>2022-05-25T14:30:59.000Z</time>
      </trkpt>
      <trkpt lat="44.4073" lon="1.93858">
        <ele>354.6</ele>
        <time>2022-05-25T14:31:01.000Z</time>
      </trkpt>
      <trkpt lat="44.40743" lon="1.93829">
        <ele>355.4</ele>
        <time>2022-05-25T14:31:07.000Z</time>
      </trkpt>
      <trkpt lat="44.40746" lon="1.93824">
        <ele>355.6</ele>
        <time>2022-05-25T14:31:08.000Z</time>
      </trkpt>
      <trkpt lat="44.4076" lon="1.93794">
        <ele>356.8</ele>
        <time>2022-05-25T14:31:14.000Z</time>
      </trkpt>
      <trkpt lat="44.40763" lon="1.93789">
        <ele>357</ele>
        <time>2022-05-25T14:31:15.000Z</time>
      </trkpt>
      <trkpt lat="44.40778" lon="1.93759">
        <ele>357.8</ele>
        <time>2022-05-25T14:31:21.000Z</time>
      </trkpt>
      <trkpt lat="44.40786" lon="1.93742">
        <ele>358.6</ele>
        <time>2022-05-25T14:31:24.000Z</time>
      </trkpt>
      <trkpt lat="44.40791" lon="1.93732">
        <ele>358.8</ele>
        <time>2022-05-25T14:31:26.000Z</time>
      </trkpt>
      <trkpt lat="44.40797" lon="1.93722">
        <ele>359.2</ele>
        <time>2022-05-25T14:31:28.000Z</time>
      </trkpt>
      <trkpt lat="44.40808" lon="1.93702">
        <ele>359.2</ele>
        <time>2022-05-25T14:31:32.000Z</time>
      </trkpt>
      <trkpt lat="44.4082" lon="1.93678">
        <ele>359.4</ele>
        <time>2022-05-25T14:31:37.000Z</time>
      </trkpt>
      <trkpt lat="44.40822" lon="1.93672">
        <ele>359.4</ele>
        <time>2022-05-25T14:31:38.000Z</time>
      </trkpt>
      <trkpt lat="44.40843" lon="1.93632">
        <ele>359.8</ele>
        <time>2022-05-25T14:31:45.000Z</time>
      </trkpt>
      <trkpt lat="44.40846" lon="1.93626">
        <ele>359.8</ele>
        <time>2022-05-25T14:31:46.000Z</time>
      </trkpt>
      <trkpt lat="44.40862" lon="1.93596">
        <ele>359.8</ele>
        <time>2022-05-25T14:31:51.000Z</time>
      </trkpt>
      <trkpt lat="44.40881" lon="1.93558">
        <ele>358.8</ele>
        <time>2022-05-25T14:31:57.000Z</time>
      </trkpt>
      <trkpt lat="44.40885" lon="1.9355">
        <ele>358.6</ele>
        <time>2022-05-25T14:31:58.000Z</time>
      </trkpt>
      <trkpt lat="44.40904" lon="1.93513">
        <ele>357.8</ele>
        <time>2022-05-25T14:32:03.000Z</time>
      </trkpt>
      <trkpt lat="44.40916" lon="1.93491">
        <ele>357.2</ele>
        <time>2022-05-25T14:32:06.000Z</time>
      </trkpt>
      <trkpt lat="44.40928" lon="1.93471">
        <ele>356.4</ele>
        <time>2022-05-25T14:32:09.000Z</time>
      </trkpt>
      <trkpt lat="44.4094" lon="1.9345">
        <ele>355.6</ele>
        <time>2022-05-25T14:32:12.000Z</time>
      </trkpt>
      <trkpt lat="44.40945" lon="1.93443">
        <ele>355</ele>
        <time>2022-05-25T14:32:13.000Z</time>
      </trkpt>
      <trkpt lat="44.40966" lon="1.93409">
        <ele>353.6</ele>
        <time>2022-05-25T14:32:18.000Z</time>
      </trkpt>
      <trkpt lat="44.40974" lon="1.93395">
        <ele>353.2</ele>
        <time>2022-05-25T14:32:20.000Z</time>
      </trkpt>
      <trkpt lat="44.40989" lon="1.93364">
        <ele>352.4</ele>
        <time>2022-05-25T14:32:24.000Z</time>
      </trkpt>
      <trkpt lat="44.40999" lon="1.9334">
        <ele>352.2</ele>
        <time>2022-05-25T14:32:27.000Z</time>
      </trkpt>
      <trkpt lat="44.41018" lon="1.93289">
        <ele>351.6</ele>
        <time>2022-05-25T14:32:33.000Z</time>
      </trkpt>
      <trkpt lat="44.41026" lon="1.93264">
        <ele>351.4</ele>
        <time>2022-05-25T14:32:36.000Z</time>
      </trkpt>
      <trkpt lat="44.41037" lon="1.93222">
        <ele>350.2</ele>
        <time>2022-05-25T14:32:41.000Z</time>
      </trkpt>
      <trkpt lat="44.4104" lon="1.93213">
        <ele>349.8</ele>
        <time>2022-05-25T14:32:42.000Z</time>
      </trkpt>
      <trkpt lat="44.41046" lon="1.93186">
        <ele>349</ele>
        <time>2022-05-25T14:32:45.000Z</time>
      </trkpt>
      <trkpt lat="44.41053" lon="1.9315">
        <ele>348</ele>
        <time>2022-05-25T14:32:49.000Z</time>
      </trkpt>
      <trkpt lat="44.41057" lon="1.93134">
        <ele>347.8</ele>
        <time>2022-05-25T14:32:51.000Z</time>
      </trkpt>
      <trkpt lat="44.41064" lon="1.931">
        <ele>347.8</ele>
        <time>2022-05-25T14:32:55.000Z</time>
      </trkpt>
      <trkpt lat="44.4107" lon="1.93076">
        <ele>347.6</ele>
        <time>2022-05-25T14:32:58.000Z</time>
      </trkpt>
      <trkpt lat="44.41076" lon="1.93054">
        <ele>347.8</ele>
        <time>2022-05-25T14:33:01.000Z</time>
      </trkpt>
      <trkpt lat="44.41077" lon="1.93047">
        <ele>348</ele>
        <time>2022-05-25T14:33:02.000Z</time>
      </trkpt>
      <trkpt lat="44.41081" lon="1.93035">
        <ele>348</ele>
        <time>2022-05-25T14:33:04.000Z</time>
      </trkpt>
      <trkpt lat="44.41096" lon="1.92981">
        <ele>348.4</ele>
        <time>2022-05-25T14:33:12.000Z</time>
      </trkpt>
      <trkpt lat="44.41103" lon="1.92932">
        <ele>348.6</ele>
        <time>2022-05-25T14:33:18.000Z</time>
      </trkpt>
      <trkpt lat="44.4111" lon="1.92892">
        <ele>348.4</ele>
        <time>2022-05-25T14:33:23.000Z</time>
      </trkpt>
      <trkpt lat="44.41113" lon="1.92875">
        <ele>348.4</ele>
        <time>2022-05-25T14:33:25.000Z</time>
      </trkpt>
      <trkpt lat="44.41115" lon="1.92858">
        <ele>348.2</ele>
        <time>2022-05-25T14:33:27.000Z</time>
      </trkpt>
      <trkpt lat="44.4112" lon="1.92832">
        <ele>347.4</ele>
        <time>2022-05-25T14:33:30.000Z</time>
      </trkpt>
      <trkpt lat="44.41132" lon="1.92778">
        <ele>346.8</ele>
        <time>2022-05-25T14:33:36.000Z</time>
      </trkpt>
      <trkpt lat="44.41134" lon="1.92768">
        <ele>346.6</ele>
        <time>2022-05-25T14:33:37.000Z</time>
      </trkpt>
      <trkpt lat="44.41138" lon="1.92739">
        <ele>346.2</ele>
        <time>2022-05-25T14:33:40.000Z</time>
      </trkpt>
      <trkpt lat="44.41141" lon="1.92719">
        <ele>345.8</ele>
        <time>2022-05-25T14:33:42.000Z</time>
      </trkpt>
      <trkpt lat="44.41143" lon="1.9271">
        <ele>345.6</ele>
        <time>2022-05-25T14:33:43.000Z</time>
      </trkpt>
      <trkpt lat="44.41146" lon="1.92692">
        <ele>345.4</ele>
        <time>2022-05-25T14:33:45.000Z</time>
      </trkpt>
      <trkpt lat="44.4115" lon="1.92673">
        <ele>344.6</ele>
        <time>2022-05-25T14:33:47.000Z</time>
      </trkpt>
      <trkpt lat="44.41152" lon="1.92664">
        <ele>344</ele>
        <time>2022-05-25T14:33:48.000Z</time>
      </trkpt>
      <trkpt lat="44.41158" lon="1.92637">
        <ele>343.6</ele>
        <time>2022-05-25T14:33:51.000Z</time>
      </trkpt>
      <trkpt lat="44.41161" lon="1.92629">
        <ele>343.4</ele>
        <time>2022-05-25T14:33:52.000Z</time>
      </trkpt>
      <trkpt lat="44.41169" lon="1.92604">
        <ele>342.4</ele>
        <time>2022-05-25T14:33:55.000Z</time>
      </trkpt>
      <trkpt lat="44.41174" lon="1.92587">
        <ele>342</ele>
        <time>2022-05-25T14:33:57.000Z</time>
      </trkpt>
      <trkpt lat="44.41185" lon="1.92554">
        <ele>341.2</ele>
        <time>2022-05-25T14:34:01.000Z</time>
      </trkpt>
      <trkpt lat="44.41189" lon="1.92547">
        <ele>341.2</ele>
        <time>2022-05-25T14:34:02.000Z</time>
      </trkpt>
      <trkpt lat="44.41196" lon="1.92533">
        <ele>340.6</ele>
        <time>2022-05-25T14:34:04.000Z</time>
      </trkpt>
      <trkpt lat="44.41202" lon="1.9252">
        <ele>340.2</ele>
        <time>2022-05-25T14:34:06.000Z</time>
      </trkpt>
      <trkpt lat="44.41231" lon="1.92468">
        <ele>340</ele>
        <time>2022-05-25T14:34:14.000Z</time>
      </trkpt>
      <trkpt lat="44.41236" lon="1.92461">
        <ele>339.8</ele>
        <time>2022-05-25T14:34:15.000Z</time>
      </trkpt>
      <trkpt lat="44.41257" lon="1.92435">
        <ele>339.8</ele>
        <time>2022-05-25T14:34:20.000Z</time>
      </trkpt>
      <trkpt lat="44.41282" lon="1.92407">
        <ele>340.2</ele>
        <time>2022-05-25T14:34:26.000Z</time>
      </trkpt>
      <trkpt lat="44.41296" lon="1.92391">
        <ele>341.6</ele>
        <time>2022-05-25T14:34:30.000Z</time>
      </trkpt>
      <trkpt lat="44.41299" lon="1.92386">
        <ele>342</ele>
        <time>2022-05-25T14:34:31.000Z</time>
      </trkpt>
      <trkpt lat="44.41302" lon="1.92382">
        <ele>342</ele>
        <time>2022-05-25T14:34:32.000Z</time>
      </trkpt>
      <trkpt lat="44.41311" lon="1.92372">
        <ele>342.8</ele>
        <time>2022-05-25T14:34:35.000Z</time>
      </trkpt>
      <trkpt lat="44.41313" lon="1.92369">
        <ele>343</ele>
        <time>2022-05-25T14:34:36.000Z</time>
      </trkpt>
      <trkpt lat="44.41325" lon="1.92354">
        <ele>343.6</ele>
        <time>2022-05-25T14:34:40.000Z</time>
      </trkpt>
      <trkpt lat="44.41331" lon="1.92346">
        <ele>344</ele>
        <time>2022-05-25T14:34:42.000Z</time>
      </trkpt>
      <trkpt lat="44.41345" lon="1.92322">
        <ele>345.2</ele>
        <time>2022-05-25T14:34:48.000Z</time>
      </trkpt>
      <trkpt lat="44.41356" lon="1.923">
        <ele>346.4</ele>
        <time>2022-05-25T14:34:53.000Z</time>
      </trkpt>
      <trkpt lat="44.41368" lon="1.92269">
        <ele>346.8</ele>
        <time>2022-05-25T14:34:58.000Z</time>
      </trkpt>
      <trkpt lat="44.41379" lon="1.92243">
        <ele>346.8</ele>
        <time>2022-05-25T14:35:02.000Z</time>
      </trkpt>
      <trkpt lat="44.41382" lon="1.92236">
        <ele>346.8</ele>
        <time>2022-05-25T14:35:03.000Z</time>
      </trkpt>
      <trkpt lat="44.41402" lon="1.92194">
        <ele>345.2</ele>
        <time>2022-05-25T14:35:09.000Z</time>
      </trkpt>
      <trkpt lat="44.41405" lon="1.92186">
        <ele>345</ele>
        <time>2022-05-25T14:35:10.000Z</time>
      </trkpt>
      <trkpt lat="44.41421" lon="1.92137">
        <ele>344.4</ele>
        <time>2022-05-25T14:35:16.000Z</time>
      </trkpt>
      <trkpt lat="44.41425" lon="1.92111">
        <ele>344.2</ele>
        <time>2022-05-25T14:35:19.000Z</time>
      </trkpt>
      <trkpt lat="44.41426" lon="1.92102">
        <ele>344</ele>
        <time>2022-05-25T14:35:20.000Z</time>
      </trkpt>
      <trkpt lat="44.41428" lon="1.92085">
        <ele>344</ele>
        <time>2022-05-25T14:35:22.000Z</time>
      </trkpt>
      <trkpt lat="44.41432" lon="1.92052">
        <ele>343.6</ele>
        <time>2022-05-25T14:35:26.000Z</time>
      </trkpt>
      <trkpt lat="44.41435" lon="1.92027">
        <ele>343.2</ele>
        <time>2022-05-25T14:35:29.000Z</time>
      </trkpt>
      <trkpt lat="44.41437" lon="1.92011">
        <ele>343.2</ele>
        <time>2022-05-25T14:35:31.000Z</time>
      </trkpt>
      <trkpt lat="44.41444" lon="1.9198">
        <ele>343.4</ele>
        <time>2022-05-25T14:35:35.000Z</time>
      </trkpt>
      <trkpt lat="44.41451" lon="1.91958">
        <ele>343.4</ele>
        <time>2022-05-25T14:35:38.000Z</time>
      </trkpt>
      <trkpt lat="44.41454" lon="1.91942">
        <ele>343.6</ele>
        <time>2022-05-25T14:35:40.000Z</time>
      </trkpt>
      <trkpt lat="44.41464" lon="1.9189">
        <ele>344.2</ele>
        <time>2022-05-25T14:35:47.000Z</time>
      </trkpt>
      <trkpt lat="44.41467" lon="1.91876">
        <ele>344.4</ele>
        <time>2022-05-25T14:35:49.000Z</time>
      </trkpt>
      <trkpt lat="44.41469" lon="1.9187">
        <ele>344.6</ele>
        <time>2022-05-25T14:35:50.000Z</time>
      </trkpt>
      <trkpt lat="44.41471" lon="1.91857">
        <ele>344.8</ele>
        <time>2022-05-25T14:35:52.000Z</time>
      </trkpt>
      <trkpt lat="44.41479" lon="1.91811">
        <ele>345.4</ele>
        <time>2022-05-25T14:35:58.000Z</time>
      </trkpt>
      <trkpt lat="44.41479" lon="1.91804">
        <ele>345.6</ele>
        <time>2022-05-25T14:35:59.000Z</time>
      </trkpt>
      <trkpt lat="44.41481" lon="1.91795">
        <ele>345.6</ele>
        <time>2022-05-25T14:36:00.000Z</time>
      </trkpt>
      <trkpt lat="44.41486" lon="1.91772">
        <ele>345.6</ele>
        <time>2022-05-25T14:36:03.000Z</time>
      </trkpt>
      <trkpt lat="44.41494" lon="1.91736">
        <ele>345.8</ele>
        <time>2022-05-25T14:36:08.000Z</time>
      </trkpt>
      <trkpt lat="44.41496" lon="1.91729">
        <ele>345.8</ele>
        <time>2022-05-25T14:36:09.000Z</time>
      </trkpt>
      <trkpt lat="44.41498" lon="1.91722">
        <ele>346</ele>
        <time>2022-05-25T14:36:10.000Z</time>
      </trkpt>
      <trkpt lat="44.41508" lon="1.91704">
        <ele>346.2</ele>
        <time>2022-05-25T14:36:13.000Z</time>
      </trkpt>
      <trkpt lat="44.41512" lon="1.91699">
        <ele>346.2</ele>
        <time>2022-05-25T14:36:14.000Z</time>
      </trkpt>
      <trkpt lat="44.41518" lon="1.91687">
        <ele>346.6</ele>
        <time>2022-05-25T14:36:16.000Z</time>
      </trkpt>
      <trkpt lat="44.41528" lon="1.91668">
        <ele>346.8</ele>
        <time>2022-05-25T14:36:19.000Z</time>
      </trkpt>
      <trkpt lat="44.4153" lon="1.91662">
        <ele>346.8</ele>
        <time>2022-05-25T14:36:20.000Z</time>
      </trkpt>
      <trkpt lat="44.41537" lon="1.91643">
        <ele>346.8</ele>
        <time>2022-05-25T14:36:23.000Z</time>
      </trkpt>
      <trkpt lat="44.41548" lon="1.91618">
        <ele>346.6</ele>
        <time>2022-05-25T14:36:27.000Z</time>
      </trkpt>
      <trkpt lat="44.41551" lon="1.91611">
        <ele>346.6</ele>
        <time>2022-05-25T14:36:28.000Z</time>
      </trkpt>
      <trkpt lat="44.41565" lon="1.91582">
        <ele>345.8</ele>
        <time>2022-05-25T14:36:32.000Z</time>
      </trkpt>
      <trkpt lat="44.41569" lon="1.91575">
        <ele>345.8</ele>
        <time>2022-05-25T14:36:33.000Z</time>
      </trkpt>
      <trkpt lat="44.41573" lon="1.91568">
        <ele>345.6</ele>
        <time>2022-05-25T14:36:34.000Z</time>
      </trkpt>
      <trkpt lat="44.41595" lon="1.91534">
        <ele>344.4</ele>
        <time>2022-05-25T14:36:39.000Z</time>
      </trkpt>
      <trkpt lat="44.41599" lon="1.91528">
        <ele>344.2</ele>
        <time>2022-05-25T14:36:40.000Z</time>
      </trkpt>
      <trkpt lat="44.41612" lon="1.9151">
        <ele>343.8</ele>
        <time>2022-05-25T14:36:43.000Z</time>
      </trkpt>
      <trkpt lat="44.41621" lon="1.91497">
        <ele>343.8</ele>
        <time>2022-05-25T14:36:45.000Z</time>
      </trkpt>
      <trkpt lat="44.41636" lon="1.91471">
        <ele>343.2</ele>
        <time>2022-05-25T14:36:49.000Z</time>
      </trkpt>
      <trkpt lat="44.41648" lon="1.91451">
        <ele>343</ele>
        <time>2022-05-25T14:36:52.000Z</time>
      </trkpt>
      <trkpt lat="44.4168" lon="1.91394">
        <ele>343</ele>
        <time>2022-05-25T14:37:01.000Z</time>
      </trkpt>
      <trkpt lat="44.41708" lon="1.91356">
        <ele>343.2</ele>
        <time>2022-05-25T14:37:08.000Z</time>
      </trkpt>
      <trkpt lat="44.41716" lon="1.91345">
        <ele>342.8</ele>
        <time>2022-05-25T14:37:10.000Z</time>
      </trkpt>
      <trkpt lat="44.41728" lon="1.91331">
        <ele>343</ele>
        <time>2022-05-25T14:37:13.000Z</time>
      </trkpt>
      <trkpt lat="44.41749" lon="1.91307">
        <ele>342.8</ele>
        <time>2022-05-25T14:37:18.000Z</time>
      </trkpt>
      <trkpt lat="44.41756" lon="1.91299">
        <ele>342.8</ele>
        <time>2022-05-25T14:37:20.000Z</time>
      </trkpt>
      <trkpt lat="44.41769" lon="1.91284">
        <ele>343</ele>
        <time>2022-05-25T14:37:23.000Z</time>
      </trkpt>
      <trkpt lat="44.41788" lon="1.91261">
        <ele>342.8</ele>
        <time>2022-05-25T14:37:27.000Z</time>
      </trkpt>
      <trkpt lat="44.41809" lon="1.91234">
        <ele>343</ele>
        <time>2022-05-25T14:37:32.000Z</time>
      </trkpt>
      <trkpt lat="44.41813" lon="1.91229">
        <ele>343</ele>
        <time>2022-05-25T14:37:33.000Z</time>
      </trkpt>
      <trkpt lat="44.41838" lon="1.91199">
        <ele>343.8</ele>
        <time>2022-05-25T14:37:39.000Z</time>
      </trkpt>
      <trkpt lat="44.41865" lon="1.91163">
        <ele>343.6</ele>
        <time>2022-05-25T14:37:46.000Z</time>
      </trkpt>
      <trkpt lat="44.41876" lon="1.91148">
        <ele>343.8</ele>
        <time>2022-05-25T14:37:49.000Z</time>
      </trkpt>
      <trkpt lat="44.41888" lon="1.91133">
        <ele>344</ele>
        <time>2022-05-25T14:37:52.000Z</time>
      </trkpt>
      <trkpt lat="44.41911" lon="1.911">
        <ele>344</ele>
        <time>2022-05-25T14:37:59.000Z</time>
      </trkpt>
      <trkpt lat="44.41925" lon="1.9108">
        <ele>344</ele>
        <time>2022-05-25T14:38:03.000Z</time>
      </trkpt>
      <trkpt lat="44.41928" lon="1.91075">
        <ele>344</ele>
        <time>2022-05-25T14:38:04.000Z</time>
      </trkpt>
      <trkpt lat="44.41955" lon="1.91039">
        <ele>344.2</ele>
        <time>2022-05-25T14:38:11.000Z</time>
      </trkpt>
      <trkpt lat="44.41959" lon="1.91034">
        <ele>344.2</ele>
        <time>2022-05-25T14:38:12.000Z</time>
      </trkpt>
      <trkpt lat="44.41978" lon="1.9101">
        <ele>344.4</ele>
        <time>2022-05-25T14:38:17.000Z</time>
      </trkpt>
      <trkpt lat="44.41987" lon="1.91">
        <ele>344.6</ele>
        <time>2022-05-25T14:38:19.000Z</time>
      </trkpt>
      <trkpt lat="44.42015" lon="1.90961">
        <ele>344.8</ele>
        <time>2022-05-25T14:38:27.000Z</time>
      </trkpt>
      <trkpt lat="44.42035" lon="1.90932">
        <ele>345.4</ele>
        <time>2022-05-25T14:38:33.000Z</time>
      </trkpt>
      <trkpt lat="44.42039" lon="1.90928">
        <ele>345.4</ele>
        <time>2022-05-25T14:38:34.000Z</time>
      </trkpt>
      <trkpt lat="44.42046" lon="1.90919">
        <ele>345.8</ele>
        <time>2022-05-25T14:38:36.000Z</time>
      </trkpt>
      <trkpt lat="44.42056" lon="1.90906">
        <ele>346.4</ele>
        <time>2022-05-25T14:38:39.000Z</time>
      </trkpt>
      <trkpt lat="44.42063" lon="1.90897">
        <ele>346.8</ele>
        <time>2022-05-25T14:38:41.000Z</time>
      </trkpt>
      <trkpt lat="44.42072" lon="1.90883">
        <ele>347</ele>
        <time>2022-05-25T14:38:44.000Z</time>
      </trkpt>
      <trkpt lat="44.42085" lon="1.90865">
        <ele>347.4</ele>
        <time>2022-05-25T14:38:48.000Z</time>
      </trkpt>
      <trkpt lat="44.42088" lon="1.90861">
        <ele>347.4</ele>
        <time>2022-05-25T14:38:49.000Z</time>
      </trkpt>
      <trkpt lat="44.42093" lon="1.90853">
        <ele>347.8</ele>
        <time>2022-05-25T14:38:51.000Z</time>
      </trkpt>
      <trkpt lat="44.42102" lon="1.90843">
        <ele>348.2</ele>
        <time>2022-05-25T14:38:54.000Z</time>
      </trkpt>
      <trkpt lat="44.42111" lon="1.90832">
        <ele>348.6</ele>
        <time>2022-05-25T14:38:57.000Z</time>
      </trkpt>
      <trkpt lat="44.42118" lon="1.90821">
        <ele>349.2</ele>
        <time>2022-05-25T14:39:00.000Z</time>
      </trkpt>
      <trkpt lat="44.42121" lon="1.90815">
        <ele>349.6</ele>
        <time>2022-05-25T14:39:02.000Z</time>
      </trkpt>
      <trkpt lat="44.42128" lon="1.90806">
        <ele>350.4</ele>
        <time>2022-05-25T14:39:05.000Z</time>
      </trkpt>
      <trkpt lat="44.42132" lon="1.90799">
        <ele>350.8</ele>
        <time>2022-05-25T14:39:07.000Z</time>
      </trkpt>
      <trkpt lat="44.42137" lon="1.90789">
        <ele>351.4</ele>
        <time>2022-05-25T14:39:10.000Z</time>
      </trkpt>
      <trkpt lat="44.42142" lon="1.90782">
        <ele>351.8</ele>
        <time>2022-05-25T14:39:12.000Z</time>
      </trkpt>
      <trkpt lat="44.42146" lon="1.90773">
        <ele>352.4</ele>
        <time>2022-05-25T14:39:15.000Z</time>
      </trkpt>
      <trkpt lat="44.42149" lon="1.90767">
        <ele>352.8</ele>
        <time>2022-05-25T14:39:17.000Z</time>
      </trkpt>
      <trkpt lat="44.42153" lon="1.90755">
        <ele>353.4</ele>
        <time>2022-05-25T14:39:21.000Z</time>
      </trkpt>
      <trkpt lat="44.42155" lon="1.90749">
        <ele>354</ele>
        <time>2022-05-25T14:39:23.000Z</time>
      </trkpt>
      <trkpt lat="44.42158" lon="1.90741">
        <ele>355</ele>
        <time>2022-05-25T14:39:26.000Z</time>
      </trkpt>
      <trkpt lat="44.4216" lon="1.90738">
        <ele>355.2</ele>
        <time>2022-05-25T14:39:27.000Z</time>
      </trkpt>
      <trkpt lat="44.42166" lon="1.90722">
        <ele>356.4</ele>
        <time>2022-05-25T14:39:31.000Z</time>
      </trkpt>
      <trkpt lat="44.42171" lon="1.90708">
        <ele>357.4</ele>
        <time>2022-05-25T14:39:35.000Z</time>
      </trkpt>
      <trkpt lat="44.42172" lon="1.90701">
        <ele>357.8</ele>
        <time>2022-05-25T14:39:37.000Z</time>
      </trkpt>
      <trkpt lat="44.42177" lon="1.90686">
        <ele>358.6</ele>
        <time>2022-05-25T14:39:41.000Z</time>
      </trkpt>
      <trkpt lat="44.42181" lon="1.90679">
        <ele>359</ele>
        <time>2022-05-25T14:39:43.000Z</time>
      </trkpt>
      <trkpt lat="44.42183" lon="1.90672">
        <ele>359.6</ele>
        <time>2022-05-25T14:39:45.000Z</time>
      </trkpt>
      <trkpt lat="44.42189" lon="1.90658">
        <ele>360.8</ele>
        <time>2022-05-25T14:39:49.000Z</time>
      </trkpt>
      <trkpt lat="44.42192" lon="1.9065">
        <ele>361.6</ele>
        <time>2022-05-25T14:39:51.000Z</time>
      </trkpt>
      <trkpt lat="44.42194" lon="1.90644">
        <ele>362</ele>
        <time>2022-05-25T14:39:53.000Z</time>
      </trkpt>
      <trkpt lat="44.42203" lon="1.90626">
        <ele>363</ele>
        <time>2022-05-25T14:39:58.000Z</time>
      </trkpt>
      <trkpt lat="44.42206" lon="1.9062">
        <ele>363.2</ele>
        <time>2022-05-25T14:39:59.000Z</time>
      </trkpt>
      <trkpt lat="44.42222" lon="1.90596">
        <ele>364.2</ele>
        <time>2022-05-25T14:40:05.000Z</time>
      </trkpt>
      <trkpt lat="44.42243" lon="1.90564">
        <ele>365.2</ele>
        <time>2022-05-25T14:40:13.000Z</time>
      </trkpt>
      <trkpt lat="44.42262" lon="1.90536">
        <ele>365.4</ele>
        <time>2022-05-25T14:40:21.000Z</time>
      </trkpt>
      <trkpt lat="44.42283" lon="1.90512">
        <ele>365.6</ele>
        <time>2022-05-25T14:40:28.000Z</time>
      </trkpt>
      <trkpt lat="44.42305" lon="1.9049">
        <ele>365</ele>
        <time>2022-05-25T14:40:35.000Z</time>
      </trkpt>
      <trkpt lat="44.42319" lon="1.90476">
        <ele>364.2</ele>
        <time>2022-05-25T14:40:40.000Z</time>
      </trkpt>
      <trkpt lat="44.42325" lon="1.9047">
        <ele>364.2</ele>
        <time>2022-05-25T14:40:43.000Z</time>
      </trkpt>
      <trkpt lat="44.42325" lon="1.90469">
        <ele>364</ele>
        <time>2022-05-25T14:40:44.000Z</time>
      </trkpt>
      <trkpt lat="44.42325" lon="1.90469">
        <ele>364</ele>
        <time>2022-05-25T14:40:46.000Z</time>
      </trkpt>
      <trkpt lat="44.42326" lon="1.90469">
        <ele>364.8</ele>
        <time>2022-05-25T14:51:30.000Z</time>
      </trkpt>
      <trkpt lat="44.42329" lon="1.90468">
        <ele>364.8</ele>
        <time>2022-05-25T14:51:31.000Z</time>
      </trkpt>
      <trkpt lat="44.42348" lon="1.90456">
        <ele>364.8</ele>
        <time>2022-05-25T14:51:37.000Z</time>
      </trkpt>
      <trkpt lat="44.42379" lon="1.90433">
        <ele>364.6</ele>
        <time>2022-05-25T14:51:45.000Z</time>
      </trkpt>
      <trkpt lat="44.42393" lon="1.90422">
        <ele>364.6</ele>
        <time>2022-05-25T14:51:49.000Z</time>
      </trkpt>
      <trkpt lat="44.42404" lon="1.90415">
        <ele>364.6</ele>
        <time>2022-05-25T14:51:52.000Z</time>
      </trkpt>
      <trkpt lat="44.42428" lon="1.90398">
        <ele>364.6</ele>
        <time>2022-05-25T14:51:59.000Z</time>
      </trkpt>
      <trkpt lat="44.42438" lon="1.9039">
        <ele>365.2</ele>
        <time>2022-05-25T14:52:02.000Z</time>
      </trkpt>
      <trkpt lat="44.42441" lon="1.90387">
        <ele>365.4</ele>
        <time>2022-05-25T14:52:03.000Z</time>
      </trkpt>
      <trkpt lat="44.42456" lon="1.90376">
        <ele>365.6</ele>
        <time>2022-05-25T14:52:08.000Z</time>
      </trkpt>
      <trkpt lat="44.42474" lon="1.90364">
        <ele>366</ele>
        <time>2022-05-25T14:52:14.000Z</time>
      </trkpt>
      <trkpt lat="44.42478" lon="1.90361">
        <ele>366.2</ele>
        <time>2022-05-25T14:52:15.000Z</time>
      </trkpt>
      <trkpt lat="44.42493" lon="1.9035">
        <ele>367.2</ele>
        <time>2022-05-25T14:52:20.000Z</time>
      </trkpt>
      <trkpt lat="44.42495" lon="1.90348">
        <ele>367.4</ele>
        <time>2022-05-25T14:52:21.000Z</time>
      </trkpt>
      <trkpt lat="44.42505" lon="1.90341">
        <ele>368.6</ele>
        <time>2022-05-25T14:52:24.000Z</time>
      </trkpt>
      <trkpt lat="44.42508" lon="1.90339">
        <ele>369</ele>
        <time>2022-05-25T14:52:25.000Z</time>
      </trkpt>
      <trkpt lat="44.42518" lon="1.90331">
        <ele>369.8</ele>
        <time>2022-05-25T14:52:28.000Z</time>
      </trkpt>
      <trkpt lat="44.42521" lon="1.90328">
        <ele>370.2</ele>
        <time>2022-05-25T14:52:29.000Z</time>
      </trkpt>
      <trkpt lat="44.42531" lon="1.90322">
        <ele>370.8</ele>
        <time>2022-05-25T14:52:32.000Z</time>
      </trkpt>
      <trkpt lat="44.42544" lon="1.90313">
        <ele>371.6</ele>
        <time>2022-05-25T14:52:36.000Z</time>
      </trkpt>
      <trkpt lat="44.42549" lon="1.90309">
        <ele>372.4</ele>
        <time>2022-05-25T14:52:38.000Z</time>
      </trkpt>
      <trkpt lat="44.42554" lon="1.90305">
        <ele>373</ele>
        <time>2022-05-25T14:52:41.000Z</time>
      </trkpt>
      <trkpt lat="44.42558" lon="1.90305">
        <ele>373.2</ele>
        <time>2022-05-25T14:52:45.000Z</time>
      </trkpt>
      <trkpt lat="44.42558" lon="1.90305">
        <ele>373.4</ele>
        <time>2022-05-25T14:52:46.000Z</time>
      </trkpt>
      <trkpt lat="44.42561" lon="1.90301">
        <ele>373.2</ele>
        <time>2022-05-25T14:53:19.000Z</time>
      </trkpt>
      <trkpt lat="44.42573" lon="1.90291">
        <ele>373.2</ele>
        <time>2022-05-25T14:53:23.000Z</time>
      </trkpt>
      <trkpt lat="44.42588" lon="1.90277">
        <ele>373</ele>
        <time>2022-05-25T14:53:28.000Z</time>
      </trkpt>
      <trkpt lat="44.42611" lon="1.90257">
        <ele>373</ele>
        <time>2022-05-25T14:53:33.000Z</time>
      </trkpt>
      <trkpt lat="44.42645" lon="1.90225">
        <ele>371</ele>
        <time>2022-05-25T14:53:40.000Z</time>
      </trkpt>
      <trkpt lat="44.42672" lon="1.902">
        <ele>370</ele>
        <time>2022-05-25T14:53:45.000Z</time>
      </trkpt>
      <trkpt lat="44.42685" lon="1.90188">
        <ele>369.8</ele>
        <time>2022-05-25T14:53:47.000Z</time>
      </trkpt>
      <trkpt lat="44.42707" lon="1.90164">
        <ele>369.6</ele>
        <time>2022-05-25T14:53:51.000Z</time>
      </trkpt>
      <trkpt lat="44.42722" lon="1.90148">
        <ele>368.6</ele>
        <time>2022-05-25T14:53:54.000Z</time>
      </trkpt>
      <trkpt lat="44.42733" lon="1.90135">
        <ele>367.2</ele>
        <time>2022-05-25T14:53:56.000Z</time>
      </trkpt>
      <trkpt lat="44.42747" lon="1.90121">
        <ele>366.2</ele>
        <time>2022-05-25T14:53:59.000Z</time>
      </trkpt>
      <trkpt lat="44.42773" lon="1.90086">
        <ele>365.8</ele>
        <time>2022-05-25T14:54:05.000Z</time>
      </trkpt>
      <trkpt lat="44.42786" lon="1.90052">
        <ele>366</ele>
        <time>2022-05-25T14:54:10.000Z</time>
      </trkpt>
      <trkpt lat="44.42794" lon="1.90011">
        <ele>366.8</ele>
        <time>2022-05-25T14:54:16.000Z</time>
      </trkpt>
      <trkpt lat="44.42798" lon="1.8999">
        <ele>367.4</ele>
        <time>2022-05-25T14:54:20.000Z</time>
      </trkpt>
      <trkpt lat="44.42801" lon="1.89978">
        <ele>367.6</ele>
        <time>2022-05-25T14:54:22.000Z</time>
      </trkpt>
      <trkpt lat="44.42809" lon="1.8995">
        <ele>368.6</ele>
        <time>2022-05-25T14:54:27.000Z</time>
      </trkpt>
      <trkpt lat="44.42813" lon="1.89941">
        <ele>368.8</ele>
        <time>2022-05-25T14:54:29.000Z</time>
      </trkpt>
      <trkpt lat="44.42814" lon="1.89934">
        <ele>369</ele>
        <time>2022-05-25T14:54:30.000Z</time>
      </trkpt>
      <trkpt lat="44.42816" lon="1.89928">
        <ele>369.2</ele>
        <time>2022-05-25T14:54:31.000Z</time>
      </trkpt>
      <trkpt lat="44.42817" lon="1.89923">
        <ele>369.6</ele>
        <time>2022-05-25T14:54:32.000Z</time>
      </trkpt>
      <trkpt lat="44.4282" lon="1.89912">
        <ele>370.2</ele>
        <time>2022-05-25T14:54:34.000Z</time>
      </trkpt>
      <trkpt lat="44.42821" lon="1.89906">
        <ele>370.2</ele>
        <time>2022-05-25T14:54:35.000Z</time>
      </trkpt>
      <trkpt lat="44.42825" lon="1.89894">
        <ele>370.6</ele>
        <time>2022-05-25T14:54:37.000Z</time>
      </trkpt>
      <trkpt lat="44.42831" lon="1.89876">
        <ele>371</ele>
        <time>2022-05-25T14:54:40.000Z</time>
      </trkpt>
      <trkpt lat="44.42832" lon="1.89871">
        <ele>371.2</ele>
        <time>2022-05-25T14:54:41.000Z</time>
      </trkpt>
      <trkpt lat="44.42844" lon="1.89824">
        <ele>371.8</ele>
        <time>2022-05-25T14:54:49.000Z</time>
      </trkpt>
      <trkpt lat="44.42845" lon="1.89819">
        <ele>372</ele>
        <time>2022-05-25T14:54:50.000Z</time>
      </trkpt>
      <trkpt lat="44.42846" lon="1.89814">
        <ele>372.2</ele>
        <time>2022-05-25T14:54:51.000Z</time>
      </trkpt>
      <trkpt lat="44.42849" lon="1.89796">
        <ele>372.8</ele>
        <time>2022-05-25T14:54:54.000Z</time>
      </trkpt>
      <trkpt lat="44.42851" lon="1.89784">
        <ele>372.8</ele>
        <time>2022-05-25T14:54:56.000Z</time>
      </trkpt>
      <trkpt lat="44.42854" lon="1.89774">
        <ele>373</ele>
        <time>2022-05-25T14:54:58.000Z</time>
      </trkpt>
      <trkpt lat="44.42856" lon="1.8977">
        <ele>373</ele>
        <time>2022-05-25T14:54:59.000Z</time>
      </trkpt>
      <trkpt lat="44.42864" lon="1.8976">
        <ele>373.2</ele>
        <time>2022-05-25T14:55:02.000Z</time>
      </trkpt>
      <trkpt lat="44.42875" lon="1.89752">
        <ele>373.4</ele>
        <time>2022-05-25T14:55:06.000Z</time>
      </trkpt>
      <trkpt lat="44.42884" lon="1.89747">
        <ele>373.6</ele>
        <time>2022-05-25T14:55:09.000Z</time>
      </trkpt>
      <trkpt lat="44.42903" lon="1.89733">
        <ele>373.6</ele>
        <time>2022-05-25T14:55:14.000Z</time>
      </trkpt>
      <trkpt lat="44.42908" lon="1.89729">
        <ele>373.4</ele>
        <time>2022-05-25T14:55:15.000Z</time>
      </trkpt>
      <trkpt lat="44.42913" lon="1.89723">
        <ele>373.2</ele>
        <time>2022-05-25T14:55:16.000Z</time>
      </trkpt>
      <trkpt lat="44.4292" lon="1.89711">
        <ele>372.4</ele>
        <time>2022-05-25T14:55:18.000Z</time>
      </trkpt>
      <trkpt lat="44.42925" lon="1.89702">
        <ele>372</ele>
        <time>2022-05-25T14:55:19.000Z</time>
      </trkpt>
      <trkpt lat="44.42928" lon="1.89693">
        <ele>371.4</ele>
        <time>2022-05-25T14:55:20.000Z</time>
      </trkpt>
      <trkpt lat="44.42933" lon="1.89675">
        <ele>370</ele>
        <time>2022-05-25T14:55:22.000Z</time>
      </trkpt>
      <trkpt lat="44.42939" lon="1.89655">
        <ele>368.8</ele>
        <time>2022-05-25T14:55:24.000Z</time>
      </trkpt>
      <trkpt lat="44.42946" lon="1.89633">
        <ele>367.2</ele>
        <time>2022-05-25T14:55:27.000Z</time>
      </trkpt>
      <trkpt lat="44.42949" lon="1.89629">
        <ele>366.6</ele>
        <time>2022-05-25T14:55:28.000Z</time>
      </trkpt>
      <trkpt lat="44.42953" lon="1.89627">
        <ele>365.8</ele>
        <time>2022-05-25T14:55:29.000Z</time>
      </trkpt>
      <trkpt lat="44.42961" lon="1.89629">
        <ele>364.8</ele>
        <time>2022-05-25T14:55:31.000Z</time>
      </trkpt>
      <trkpt lat="44.42969" lon="1.89644">
        <ele>363.8</ele>
        <time>2022-05-25T14:55:33.000Z</time>
      </trkpt>
      <trkpt lat="44.42973" lon="1.89652">
        <ele>363.4</ele>
        <time>2022-05-25T14:55:34.000Z</time>
      </trkpt>
      <trkpt lat="44.4298" lon="1.8967">
        <ele>362</ele>
        <time>2022-05-25T14:55:36.000Z</time>
      </trkpt>
      <trkpt lat="44.42989" lon="1.89689">
        <ele>360.8</ele>
        <time>2022-05-25T14:55:38.000Z</time>
      </trkpt>
      <trkpt lat="44.42995" lon="1.89697">
        <ele>360.4</ele>
        <time>2022-05-25T14:55:39.000Z</time>
      </trkpt>
      <trkpt lat="44.43001" lon="1.89705">
        <ele>359.2</ele>
        <time>2022-05-25T14:55:40.000Z</time>
      </trkpt>
      <trkpt lat="44.43008" lon="1.89712">
        <ele>358.8</ele>
        <time>2022-05-25T14:55:41.000Z</time>
      </trkpt>
      <trkpt lat="44.43015" lon="1.89717">
        <ele>358</ele>
        <time>2022-05-25T14:55:42.000Z</time>
      </trkpt>
      <trkpt lat="44.43032" lon="1.89728">
        <ele>357.2</ele>
        <time>2022-05-25T14:55:44.000Z</time>
      </trkpt>
      <trkpt lat="44.4304" lon="1.89732">
        <ele>356.8</ele>
        <time>2022-05-25T14:55:45.000Z</time>
      </trkpt>
      <trkpt lat="44.43047" lon="1.89735">
        <ele>356.6</ele>
        <time>2022-05-25T14:55:46.000Z</time>
      </trkpt>
      <trkpt lat="44.43054" lon="1.89736">
        <ele>356</ele>
        <time>2022-05-25T14:55:47.000Z</time>
      </trkpt>
      <trkpt lat="44.43062" lon="1.89737">
        <ele>355.6</ele>
        <time>2022-05-25T14:55:48.000Z</time>
      </trkpt>
      <trkpt lat="44.43077" lon="1.89735">
        <ele>353.4</ele>
        <time>2022-05-25T14:55:50.000Z</time>
      </trkpt>
      <trkpt lat="44.43086" lon="1.89734">
        <ele>352.8</ele>
        <time>2022-05-25T14:55:51.000Z</time>
      </trkpt>
      <trkpt lat="44.43095" lon="1.89731">
        <ele>351</ele>
        <time>2022-05-25T14:55:52.000Z</time>
      </trkpt>
      <trkpt lat="44.43115" lon="1.89727">
        <ele>349.6</ele>
        <time>2022-05-25T14:55:54.000Z</time>
      </trkpt>
      <trkpt lat="44.43125" lon="1.89724">
        <ele>349.2</ele>
        <time>2022-05-25T14:55:55.000Z</time>
      </trkpt>
      <trkpt lat="44.43135" lon="1.89721">
        <ele>347.2</ele>
        <time>2022-05-25T14:55:56.000Z</time>
      </trkpt>
      <trkpt lat="44.43145" lon="1.89718">
        <ele>346</ele>
        <time>2022-05-25T14:55:57.000Z</time>
      </trkpt>
      <trkpt lat="44.43156" lon="1.89713">
        <ele>344.2</ele>
        <time>2022-05-25T14:55:58.000Z</time>
      </trkpt>
      <trkpt lat="44.43166" lon="1.89707">
        <ele>342.6</ele>
        <time>2022-05-25T14:55:59.000Z</time>
      </trkpt>
      <trkpt lat="44.43185" lon="1.89692">
        <ele>338.6</ele>
        <time>2022-05-25T14:56:01.000Z</time>
      </trkpt>
      <trkpt lat="44.43194" lon="1.89683">
        <ele>337.6</ele>
        <time>2022-05-25T14:56:02.000Z</time>
      </trkpt>
      <trkpt lat="44.43204" lon="1.89676">
        <ele>336.4</ele>
        <time>2022-05-25T14:56:03.000Z</time>
      </trkpt>
      <trkpt lat="44.43223" lon="1.89662">
        <ele>334.6</ele>
        <time>2022-05-25T14:56:05.000Z</time>
      </trkpt>
      <trkpt lat="44.43232" lon="1.89656">
        <ele>333.4</ele>
        <time>2022-05-25T14:56:06.000Z</time>
      </trkpt>
      <trkpt lat="44.43247" lon="1.89647">
        <ele>331.6</ele>
        <time>2022-05-25T14:56:08.000Z</time>
      </trkpt>
      <trkpt lat="44.43261" lon="1.89633">
        <ele>330.2</ele>
        <time>2022-05-25T14:56:10.000Z</time>
      </trkpt>
      <trkpt lat="44.43268" lon="1.89625">
        <ele>329.8</ele>
        <time>2022-05-25T14:56:11.000Z</time>
      </trkpt>
      <trkpt lat="44.43274" lon="1.89617">
        <ele>329</ele>
        <time>2022-05-25T14:56:12.000Z</time>
      </trkpt>
      <trkpt lat="44.43286" lon="1.89601">
        <ele>327.8</ele>
        <time>2022-05-25T14:56:14.000Z</time>
      </trkpt>
      <trkpt lat="44.43293" lon="1.89591">
        <ele>326.8</ele>
        <time>2022-05-25T14:56:15.000Z</time>
      </trkpt>
      <trkpt lat="44.43297" lon="1.89585">
        <ele>326.2</ele>
        <time>2022-05-25T14:56:16.000Z</time>
      </trkpt>
      <trkpt lat="44.43303" lon="1.89577">
        <ele>325.6</ele>
        <time>2022-05-25T14:56:17.000Z</time>
      </trkpt>
      <trkpt lat="44.43309" lon="1.89569">
        <ele>325.4</ele>
        <time>2022-05-25T14:56:18.000Z</time>
      </trkpt>
      <trkpt lat="44.43332" lon="1.89543">
        <ele>324.4</ele>
        <time>2022-05-25T14:56:22.000Z</time>
      </trkpt>
      <trkpt lat="44.4336" lon="1.89515">
        <ele>323.4</ele>
        <time>2022-05-25T14:56:27.000Z</time>
      </trkpt>
      <trkpt lat="44.43365" lon="1.89508">
        <ele>323</ele>
        <time>2022-05-25T14:56:28.000Z</time>
      </trkpt>
      <trkpt lat="44.43381" lon="1.89484">
        <ele>321.8</ele>
        <time>2022-05-25T14:56:31.000Z</time>
      </trkpt>
      <trkpt lat="44.43392" lon="1.8947">
        <ele>321.2</ele>
        <time>2022-05-25T14:56:33.000Z</time>
      </trkpt>
      <trkpt lat="44.43405" lon="1.89458">
        <ele>320.4</ele>
        <time>2022-05-25T14:56:35.000Z</time>
      </trkpt>
      <trkpt lat="44.43418" lon="1.89447">
        <ele>319</ele>
        <time>2022-05-25T14:56:37.000Z</time>
      </trkpt>
      <trkpt lat="44.4343" lon="1.89438">
        <ele>318</ele>
        <time>2022-05-25T14:56:39.000Z</time>
      </trkpt>
      <trkpt lat="44.43437" lon="1.89433">
        <ele>317.8</ele>
        <time>2022-05-25T14:56:40.000Z</time>
      </trkpt>
      <trkpt lat="44.43456" lon="1.89415">
        <ele>317.4</ele>
        <time>2022-05-25T14:56:43.000Z</time>
      </trkpt>
      <trkpt lat="44.43461" lon="1.89408">
        <ele>317.2</ele>
        <time>2022-05-25T14:56:44.000Z</time>
      </trkpt>
      <trkpt lat="44.43467" lon="1.89399">
        <ele>316</ele>
        <time>2022-05-25T14:56:45.000Z</time>
      </trkpt>
      <trkpt lat="44.43477" lon="1.89379">
        <ele>315</ele>
        <time>2022-05-25T14:56:47.000Z</time>
      </trkpt>
      <trkpt lat="44.4348" lon="1.8937">
        <ele>315</ele>
        <time>2022-05-25T14:56:48.000Z</time>
      </trkpt>
      <trkpt lat="44.4349" lon="1.89333">
        <ele>313.2</ele>
        <time>2022-05-25T14:56:51.000Z</time>
      </trkpt>
      <trkpt lat="44.43496" lon="1.89308">
        <ele>312</ele>
        <time>2022-05-25T14:56:53.000Z</time>
      </trkpt>
      <trkpt lat="44.43502" lon="1.89268">
        <ele>310</ele>
        <time>2022-05-25T14:56:56.000Z</time>
      </trkpt>
      <trkpt lat="44.43505" lon="1.89241">
        <ele>308.6</ele>
        <time>2022-05-25T14:56:58.000Z</time>
      </trkpt>
      <trkpt lat="44.43508" lon="1.89227">
        <ele>308.4</ele>
        <time>2022-05-25T14:56:59.000Z</time>
      </trkpt>
      <trkpt lat="44.43515" lon="1.892">
        <ele>307</ele>
        <time>2022-05-25T14:57:01.000Z</time>
      </trkpt>
      <trkpt lat="44.43522" lon="1.89175">
        <ele>305.8</ele>
        <time>2022-05-25T14:57:03.000Z</time>
      </trkpt>
      <trkpt lat="44.43525" lon="1.89159">
        <ele>305.2</ele>
        <time>2022-05-25T14:57:04.000Z</time>
      </trkpt>
      <trkpt lat="44.43526" lon="1.89149">
        <ele>304.4</ele>
        <time>2022-05-25T14:57:05.000Z</time>
      </trkpt>
      <trkpt lat="44.43525" lon="1.89136">
        <ele>303.8</ele>
        <time>2022-05-25T14:57:06.000Z</time>
      </trkpt>
      <trkpt lat="44.43523" lon="1.89123">
        <ele>303</ele>
        <time>2022-05-25T14:57:07.000Z</time>
      </trkpt>
      <trkpt lat="44.4352" lon="1.8911">
        <ele>302.8</ele>
        <time>2022-05-25T14:57:08.000Z</time>
      </trkpt>
      <trkpt lat="44.43512" lon="1.89084">
        <ele>301.6</ele>
        <time>2022-05-25T14:57:10.000Z</time>
      </trkpt>
      <trkpt lat="44.43507" lon="1.89072">
        <ele>300.8</ele>
        <time>2022-05-25T14:57:11.000Z</time>
      </trkpt>
      <trkpt lat="44.43503" lon="1.8906">
        <ele>300</ele>
        <time>2022-05-25T14:57:12.000Z</time>
      </trkpt>
      <trkpt lat="44.43501" lon="1.89046">
        <ele>299.8</ele>
        <time>2022-05-25T14:57:13.000Z</time>
      </trkpt>
      <trkpt lat="44.43501" lon="1.89034">
        <ele>299.6</ele>
        <time>2022-05-25T14:57:14.000Z</time>
      </trkpt>
      <trkpt lat="44.43502" lon="1.89009">
        <ele>297.2</ele>
        <time>2022-05-25T14:57:16.000Z</time>
      </trkpt>
      <trkpt lat="44.43502" lon="1.88996">
        <ele>296</ele>
        <time>2022-05-25T14:57:17.000Z</time>
      </trkpt>
      <trkpt lat="44.43505" lon="1.88982">
        <ele>295.6</ele>
        <time>2022-05-25T14:57:18.000Z</time>
      </trkpt>
      <trkpt lat="44.43507" lon="1.88972">
        <ele>294.8</ele>
        <time>2022-05-25T14:57:19.000Z</time>
      </trkpt>
      <trkpt lat="44.4351" lon="1.88961">
        <ele>294.2</ele>
        <time>2022-05-25T14:57:20.000Z</time>
      </trkpt>
      <trkpt lat="44.43515" lon="1.88949">
        <ele>293.6</ele>
        <time>2022-05-25T14:57:21.000Z</time>
      </trkpt>
      <trkpt lat="44.43519" lon="1.88935">
        <ele>293</ele>
        <time>2022-05-25T14:57:22.000Z</time>
      </trkpt>
      <trkpt lat="44.43523" lon="1.88924">
        <ele>292</ele>
        <time>2022-05-25T14:57:23.000Z</time>
      </trkpt>
      <trkpt lat="44.43531" lon="1.88904">
        <ele>291.2</ele>
        <time>2022-05-25T14:57:25.000Z</time>
      </trkpt>
      <trkpt lat="44.43536" lon="1.88893">
        <ele>290.4</ele>
        <time>2022-05-25T14:57:26.000Z</time>
      </trkpt>
      <trkpt lat="44.43541" lon="1.88878">
        <ele>290.2</ele>
        <time>2022-05-25T14:57:27.000Z</time>
      </trkpt>
      <trkpt lat="44.43545" lon="1.88868">
        <ele>289.8</ele>
        <time>2022-05-25T14:57:28.000Z</time>
      </trkpt>
      <trkpt lat="44.43559" lon="1.88829">
        <ele>288.8</ele>
        <time>2022-05-25T14:57:31.000Z</time>
      </trkpt>
      <trkpt lat="44.43567" lon="1.88805">
        <ele>287</ele>
        <time>2022-05-25T14:57:33.000Z</time>
      </trkpt>
      <trkpt lat="44.43573" lon="1.88778">
        <ele>285.2</ele>
        <time>2022-05-25T14:57:35.000Z</time>
      </trkpt>
      <trkpt lat="44.43579" lon="1.88753">
        <ele>283.4</ele>
        <time>2022-05-25T14:57:37.000Z</time>
      </trkpt>
      <trkpt lat="44.43581" lon="1.8874">
        <ele>283</ele>
        <time>2022-05-25T14:57:38.000Z</time>
      </trkpt>
      <trkpt lat="44.43582" lon="1.88729">
        <ele>282.2</ele>
        <time>2022-05-25T14:57:39.000Z</time>
      </trkpt>
      <trkpt lat="44.43585" lon="1.88701">
        <ele>280.6</ele>
        <time>2022-05-25T14:57:41.000Z</time>
      </trkpt>
      <trkpt lat="44.43589" lon="1.88676">
        <ele>279.4</ele>
        <time>2022-05-25T14:57:43.000Z</time>
      </trkpt>
      <trkpt lat="44.43591" lon="1.88666">
        <ele>279</ele>
        <time>2022-05-25T14:57:44.000Z</time>
      </trkpt>
      <trkpt lat="44.43598" lon="1.88639">
        <ele>278.4</ele>
        <time>2022-05-25T14:57:46.000Z</time>
      </trkpt>
      <trkpt lat="44.43603" lon="1.88617">
        <ele>277.6</ele>
        <time>2022-05-25T14:57:48.000Z</time>
      </trkpt>
      <trkpt lat="44.43606" lon="1.88604">
        <ele>277</ele>
        <time>2022-05-25T14:57:49.000Z</time>
      </trkpt>
      <trkpt lat="44.43611" lon="1.88592">
        <ele>276.8</ele>
        <time>2022-05-25T14:57:50.000Z</time>
      </trkpt>
      <trkpt lat="44.43627" lon="1.8856">
        <ele>275.2</ele>
        <time>2022-05-25T14:57:53.000Z</time>
      </trkpt>
      <trkpt lat="44.43636" lon="1.88537">
        <ele>274.2</ele>
        <time>2022-05-25T14:57:55.000Z</time>
      </trkpt>
      <trkpt lat="44.43638" lon="1.88525">
        <ele>273.6</ele>
        <time>2022-05-25T14:57:56.000Z</time>
      </trkpt>
      <trkpt lat="44.43637" lon="1.88512">
        <ele>272.4</ele>
        <time>2022-05-25T14:57:57.000Z</time>
      </trkpt>
      <trkpt lat="44.43635" lon="1.88502">
        <ele>271.8</ele>
        <time>2022-05-25T14:57:58.000Z</time>
      </trkpt>
      <trkpt lat="44.43631" lon="1.88489">
        <ele>271.4</ele>
        <time>2022-05-25T14:57:59.000Z</time>
      </trkpt>
      <trkpt lat="44.43626" lon="1.88475">
        <ele>270.4</ele>
        <time>2022-05-25T14:58:00.000Z</time>
      </trkpt>
      <trkpt lat="44.43617" lon="1.88454">
        <ele>269.2</ele>
        <time>2022-05-25T14:58:02.000Z</time>
      </trkpt>
      <trkpt lat="44.43616" lon="1.88446">
        <ele>269.2</ele>
        <time>2022-05-25T14:58:03.000Z</time>
      </trkpt>
      <trkpt lat="44.43614" lon="1.88426">
        <ele>268.2</ele>
        <time>2022-05-25T14:58:05.000Z</time>
      </trkpt>
      <trkpt lat="44.43612" lon="1.88402">
        <ele>266.8</ele>
        <time>2022-05-25T14:58:07.000Z</time>
      </trkpt>
      <trkpt lat="44.43611" lon="1.8838">
        <ele>266.2</ele>
        <time>2022-05-25T14:58:09.000Z</time>
      </trkpt>
      <trkpt lat="44.4361" lon="1.88359">
        <ele>265.6</ele>
        <time>2022-05-25T14:58:11.000Z</time>
      </trkpt>
      <trkpt lat="44.43607" lon="1.88332">
        <ele>264.6</ele>
        <time>2022-05-25T14:58:13.000Z</time>
      </trkpt>
      <trkpt lat="44.43606" lon="1.88309">
        <ele>264</ele>
        <time>2022-05-25T14:58:15.000Z</time>
      </trkpt>
      <trkpt lat="44.43606" lon="1.88288">
        <ele>263.6</ele>
        <time>2022-05-25T14:58:17.000Z</time>
      </trkpt>
      <trkpt lat="44.43607" lon="1.88262">
        <ele>263.2</ele>
        <time>2022-05-25T14:58:19.000Z</time>
      </trkpt>
      <trkpt lat="44.43608" lon="1.88242">
        <ele>261.6</ele>
        <time>2022-05-25T14:58:21.000Z</time>
      </trkpt>
      <trkpt lat="44.4361" lon="1.88228">
        <ele>261.2</ele>
        <time>2022-05-25T14:58:22.000Z</time>
      </trkpt>
      <trkpt lat="44.43615" lon="1.88171">
        <ele>260.4</ele>
        <time>2022-05-25T14:58:27.000Z</time>
      </trkpt>
      <trkpt lat="44.43617" lon="1.88159">
        <ele>260</ele>
        <time>2022-05-25T14:58:28.000Z</time>
      </trkpt>
      <trkpt lat="44.43621" lon="1.88137">
        <ele>258.6</ele>
        <time>2022-05-25T14:58:30.000Z</time>
      </trkpt>
      <trkpt lat="44.43631" lon="1.88092">
        <ele>257.6</ele>
        <time>2022-05-25T14:58:34.000Z</time>
      </trkpt>
      <trkpt lat="44.43643" lon="1.88053">
        <ele>256.4</ele>
        <time>2022-05-25T14:58:38.000Z</time>
      </trkpt>
      <trkpt lat="44.43647" lon="1.88037">
        <ele>254.8</ele>
        <time>2022-05-25T14:58:40.000Z</time>
      </trkpt>
      <trkpt lat="44.4365" lon="1.8803">
        <ele>253.6</ele>
        <time>2022-05-25T14:58:41.000Z</time>
      </trkpt>
      <trkpt lat="44.43651" lon="1.88026">
        <ele>253.4</ele>
        <time>2022-05-25T14:58:42.000Z</time>
      </trkpt>
      <trkpt lat="44.43655" lon="1.88015">
        <ele>252.6</ele>
        <time>2022-05-25T14:58:44.000Z</time>
      </trkpt>
      <trkpt lat="44.43657" lon="1.88008">
        <ele>252.2</ele>
        <time>2022-05-25T14:58:46.000Z</time>
      </trkpt>
      <trkpt lat="44.43662" lon="1.87987">
        <ele>251.6</ele>
        <time>2022-05-25T14:58:50.000Z</time>
      </trkpt>
      <trkpt lat="44.43664" lon="1.87981">
        <ele>251.6</ele>
        <time>2022-05-25T14:58:51.000Z</time>
      </trkpt>
      <trkpt lat="44.43668" lon="1.87969">
        <ele>251.4</ele>
        <time>2022-05-25T14:58:53.000Z</time>
      </trkpt>
      <trkpt lat="44.43679" lon="1.87947">
        <ele>250.4</ele>
        <time>2022-05-25T14:58:56.000Z</time>
      </trkpt>
      <trkpt lat="44.43683" lon="1.8794">
        <ele>249.6</ele>
        <time>2022-05-25T14:58:57.000Z</time>
      </trkpt>
      <trkpt lat="44.43691" lon="1.8793">
        <ele>249</ele>
        <time>2022-05-25T14:58:59.000Z</time>
      </trkpt>
      <trkpt lat="44.43701" lon="1.87917">
        <ele>248.6</ele>
        <time>2022-05-25T14:59:01.000Z</time>
      </trkpt>
      <trkpt lat="44.43713" lon="1.879">
        <ele>248.2</ele>
        <time>2022-05-25T14:59:04.000Z</time>
      </trkpt>
      <trkpt lat="44.43726" lon="1.87881">
        <ele>248</ele>
        <time>2022-05-25T14:59:07.000Z</time>
      </trkpt>
      <trkpt lat="44.43736" lon="1.8787">
        <ele>247.8</ele>
        <time>2022-05-25T14:59:09.000Z</time>
      </trkpt>
      <trkpt lat="44.43767" lon="1.8784">
        <ele>247.2</ele>
        <time>2022-05-25T14:59:15.000Z</time>
      </trkpt>
      <trkpt lat="44.4379" lon="1.87822">
        <ele>247</ele>
        <time>2022-05-25T14:59:19.000Z</time>
      </trkpt>
      <trkpt lat="44.43796" lon="1.87817">
        <ele>246.6</ele>
        <time>2022-05-25T14:59:20.000Z</time>
      </trkpt>
      <trkpt lat="44.43807" lon="1.87809">
        <ele>245.8</ele>
        <time>2022-05-25T14:59:22.000Z</time>
      </trkpt>
      <trkpt lat="44.43816" lon="1.87802">
        <ele>245.6</ele>
        <time>2022-05-25T14:59:24.000Z</time>
      </trkpt>
      <trkpt lat="44.43849" lon="1.87786">
        <ele>245.6</ele>
        <time>2022-05-25T14:59:29.000Z</time>
      </trkpt>
      <trkpt lat="44.43887" lon="1.87775">
        <ele>245.2</ele>
        <time>2022-05-25T14:59:35.000Z</time>
      </trkpt>
      <trkpt lat="44.43919" lon="1.87767">
        <ele>244.4</ele>
        <time>2022-05-25T14:59:40.000Z</time>
      </trkpt>
      <trkpt lat="44.43932" lon="1.87762">
        <ele>244.4</ele>
        <time>2022-05-25T14:59:42.000Z</time>
      </trkpt>
      <trkpt lat="44.43967" lon="1.87747">
        <ele>243.4</ele>
        <time>2022-05-25T14:59:47.000Z</time>
      </trkpt>
      <trkpt lat="44.43974" lon="1.87747">
        <ele>242.8</ele>
        <time>2022-05-25T14:59:48.000Z</time>
      </trkpt>
      <trkpt lat="44.4398" lon="1.87749">
        <ele>241.8</ele>
        <time>2022-05-25T14:59:49.000Z</time>
      </trkpt>
      <trkpt lat="44.43985" lon="1.87752">
        <ele>241.4</ele>
        <time>2022-05-25T14:59:50.000Z</time>
      </trkpt>
      <trkpt lat="44.4399" lon="1.87756">
        <ele>240.8</ele>
        <time>2022-05-25T14:59:51.000Z</time>
      </trkpt>
      <trkpt lat="44.43994" lon="1.87762">
        <ele>240.6</ele>
        <time>2022-05-25T14:59:52.000Z</time>
      </trkpt>
      <trkpt lat="44.4401" lon="1.87787">
        <ele>239.2</ele>
        <time>2022-05-25T14:59:55.000Z</time>
      </trkpt>
      <trkpt lat="44.4402" lon="1.87802">
        <ele>238.6</ele>
        <time>2022-05-25T14:59:57.000Z</time>
      </trkpt>
      <trkpt lat="44.44025" lon="1.87809">
        <ele>237.8</ele>
        <time>2022-05-25T14:59:58.000Z</time>
      </trkpt>
      <trkpt lat="44.4403" lon="1.87815">
        <ele>237.6</ele>
        <time>2022-05-25T14:59:59.000Z</time>
      </trkpt>
      <trkpt lat="44.44035" lon="1.8782">
        <ele>236.8</ele>
        <time>2022-05-25T15:00:00.000Z</time>
      </trkpt>
      <trkpt lat="44.4404" lon="1.87824">
        <ele>236.4</ele>
        <time>2022-05-25T15:00:01.000Z</time>
      </trkpt>
      <trkpt lat="44.44055" lon="1.87829">
        <ele>235.8</ele>
        <time>2022-05-25T15:00:03.000Z</time>
      </trkpt>
      <trkpt lat="44.44062" lon="1.8783">
        <ele>235.6</ele>
        <time>2022-05-25T15:00:04.000Z</time>
      </trkpt>
      <trkpt lat="44.44099" lon="1.87833">
        <ele>234.4</ele>
        <time>2022-05-25T15:00:09.000Z</time>
      </trkpt>
      <trkpt lat="44.44106" lon="1.87835">
        <ele>234</ele>
        <time>2022-05-25T15:00:10.000Z</time>
      </trkpt>
      <trkpt lat="44.44121" lon="1.87838">
        <ele>233.4</ele>
        <time>2022-05-25T15:00:12.000Z</time>
      </trkpt>
      <trkpt lat="44.4414" lon="1.87846">
        <ele>232.6</ele>
        <time>2022-05-25T15:00:15.000Z</time>
      </trkpt>
      <trkpt lat="44.44147" lon="1.87849">
        <ele>232.4</ele>
        <time>2022-05-25T15:00:16.000Z</time>
      </trkpt>
      <trkpt lat="44.44161" lon="1.87855">
        <ele>232.2</ele>
        <time>2022-05-25T15:00:18.000Z</time>
      </trkpt>
      <trkpt lat="44.44175" lon="1.87857">
        <ele>231.8</ele>
        <time>2022-05-25T15:00:20.000Z</time>
      </trkpt>
      <trkpt lat="44.44196" lon="1.87858">
        <ele>231.6</ele>
        <time>2022-05-25T15:00:23.000Z</time>
      </trkpt>
      <trkpt lat="44.44209" lon="1.87855">
        <ele>231.2</ele>
        <time>2022-05-25T15:00:25.000Z</time>
      </trkpt>
      <trkpt lat="44.44227" lon="1.87842">
        <ele>230.4</ele>
        <time>2022-05-25T15:00:28.000Z</time>
      </trkpt>
      <trkpt lat="44.44243" lon="1.87821">
        <ele>229.8</ele>
        <time>2022-05-25T15:00:31.000Z</time>
      </trkpt>
      <trkpt lat="44.44248" lon="1.87813">
        <ele>229.6</ele>
        <time>2022-05-25T15:00:32.000Z</time>
      </trkpt>
      <trkpt lat="44.44262" lon="1.87789">
        <ele>229.2</ele>
        <time>2022-05-25T15:00:35.000Z</time>
      </trkpt>
      <trkpt lat="44.44271" lon="1.87773">
        <ele>228.8</ele>
        <time>2022-05-25T15:00:37.000Z</time>
      </trkpt>
      <trkpt lat="44.44275" lon="1.87764">
        <ele>228.8</ele>
        <time>2022-05-25T15:00:38.000Z</time>
      </trkpt>
      <trkpt lat="44.44292" lon="1.87729">
        <ele>227.6</ele>
        <time>2022-05-25T15:00:42.000Z</time>
      </trkpt>
      <trkpt lat="44.443" lon="1.87711">
        <ele>227.2</ele>
        <time>2022-05-25T15:00:44.000Z</time>
      </trkpt>
      <trkpt lat="44.44304" lon="1.87702">
        <ele>227</ele>
        <time>2022-05-25T15:00:45.000Z</time>
      </trkpt>
      <trkpt lat="44.44311" lon="1.87683">
        <ele>226.4</ele>
        <time>2022-05-25T15:00:47.000Z</time>
      </trkpt>
      <trkpt lat="44.44315" lon="1.87674">
        <ele>226</ele>
        <time>2022-05-25T15:00:48.000Z</time>
      </trkpt>
      <trkpt lat="44.44317" lon="1.87665">
        <ele>225.4</ele>
        <time>2022-05-25T15:00:49.000Z</time>
      </trkpt>
      <trkpt lat="44.44319" lon="1.87644">
        <ele>224.8</ele>
        <time>2022-05-25T15:00:51.000Z</time>
      </trkpt>
      <trkpt lat="44.44316" lon="1.876">
        <ele>223.6</ele>
        <time>2022-05-25T15:00:55.000Z</time>
      </trkpt>
      <trkpt lat="44.44314" lon="1.87577">
        <ele>222.8</ele>
        <time>2022-05-25T15:00:57.000Z</time>
      </trkpt>
      <trkpt lat="44.44315" lon="1.87567">
        <ele>222.2</ele>
        <time>2022-05-25T15:00:58.000Z</time>
      </trkpt>
      <trkpt lat="44.44318" lon="1.87547">
        <ele>221.8</ele>
        <time>2022-05-25T15:01:00.000Z</time>
      </trkpt>
      <trkpt lat="44.44318" lon="1.87535">
        <ele>221.6</ele>
        <time>2022-05-25T15:01:01.000Z</time>
      </trkpt>
      <trkpt lat="44.4432" lon="1.87514">
        <ele>221.6</ele>
        <time>2022-05-25T15:01:03.000Z</time>
      </trkpt>
      <trkpt lat="44.44323" lon="1.87504">
        <ele>221.4</ele>
        <time>2022-05-25T15:01:04.000Z</time>
      </trkpt>
      <trkpt lat="44.44329" lon="1.87485">
        <ele>221.2</ele>
        <time>2022-05-25T15:01:06.000Z</time>
      </trkpt>
      <trkpt lat="44.44337" lon="1.87466">
        <ele>220.6</ele>
        <time>2022-05-25T15:01:08.000Z</time>
      </trkpt>
      <trkpt lat="44.44343" lon="1.87459">
        <ele>220.2</ele>
        <time>2022-05-25T15:01:09.000Z</time>
      </trkpt>
      <trkpt lat="44.44349" lon="1.87451">
        <ele>220.2</ele>
        <time>2022-05-25T15:01:10.000Z</time>
      </trkpt>
      <trkpt lat="44.44374" lon="1.87427">
        <ele>219</ele>
        <time>2022-05-25T15:01:14.000Z</time>
      </trkpt>
      <trkpt lat="44.44387" lon="1.87415">
        <ele>218.4</ele>
        <time>2022-05-25T15:01:16.000Z</time>
      </trkpt>
      <trkpt lat="44.44413" lon="1.8739">
        <ele>218</ele>
        <time>2022-05-25T15:01:20.000Z</time>
      </trkpt>
      <trkpt lat="44.4444" lon="1.87368">
        <ele>217</ele>
        <time>2022-05-25T15:01:24.000Z</time>
      </trkpt>
      <trkpt lat="44.44447" lon="1.87364">
        <ele>216.6</ele>
        <time>2022-05-25T15:01:25.000Z</time>
      </trkpt>
      <trkpt lat="44.44469" lon="1.87356">
        <ele>216</ele>
        <time>2022-05-25T15:01:28.000Z</time>
      </trkpt>
      <trkpt lat="44.44476" lon="1.87355">
        <ele>215.4</ele>
        <time>2022-05-25T15:01:29.000Z</time>
      </trkpt>
      <trkpt lat="44.44496" lon="1.8735">
        <ele>214.2</ele>
        <time>2022-05-25T15:01:32.000Z</time>
      </trkpt>
      <trkpt lat="44.44511" lon="1.87348">
        <ele>213.8</ele>
        <time>2022-05-25T15:01:34.000Z</time>
      </trkpt>
      <trkpt lat="44.44526" lon="1.87349">
        <ele>213.4</ele>
        <time>2022-05-25T15:01:36.000Z</time>
      </trkpt>
      <trkpt lat="44.4454" lon="1.87353">
        <ele>213.4</ele>
        <time>2022-05-25T15:01:38.000Z</time>
      </trkpt>
      <trkpt lat="44.44546" lon="1.87356">
        <ele>213.4</ele>
        <time>2022-05-25T15:01:39.000Z</time>
      </trkpt>
      <trkpt lat="44.44554" lon="1.87362">
        <ele>213.2</ele>
        <time>2022-05-25T15:01:40.000Z</time>
      </trkpt>
      <trkpt lat="44.4456" lon="1.87366">
        <ele>212.8</ele>
        <time>2022-05-25T15:01:41.000Z</time>
      </trkpt>
      <trkpt lat="44.44577" lon="1.87387">
        <ele>212.4</ele>
        <time>2022-05-25T15:01:44.000Z</time>
      </trkpt>
      <trkpt lat="44.44582" lon="1.87397">
        <ele>211.6</ele>
        <time>2022-05-25T15:01:45.000Z</time>
      </trkpt>
      <trkpt lat="44.44586" lon="1.87408">
        <ele>211.6</ele>
        <time>2022-05-25T15:01:46.000Z</time>
      </trkpt>
      <trkpt lat="44.446" lon="1.87437">
        <ele>210.2</ele>
        <time>2022-05-25T15:01:49.000Z</time>
      </trkpt>
      <trkpt lat="44.44615" lon="1.87462">
        <ele>209.2</ele>
        <time>2022-05-25T15:01:52.000Z</time>
      </trkpt>
      <trkpt lat="44.44619" lon="1.8747">
        <ele>209</ele>
        <time>2022-05-25T15:01:53.000Z</time>
      </trkpt>
      <trkpt lat="44.4464" lon="1.87499">
        <ele>207.6</ele>
        <time>2022-05-25T15:01:57.000Z</time>
      </trkpt>
      <trkpt lat="44.44646" lon="1.87503">
        <ele>207.4</ele>
        <time>2022-05-25T15:01:58.000Z</time>
      </trkpt>
      <trkpt lat="44.44653" lon="1.87506">
        <ele>207.2</ele>
        <time>2022-05-25T15:01:59.000Z</time>
      </trkpt>
      <trkpt lat="44.44674" lon="1.87512">
        <ele>206.6</ele>
        <time>2022-05-25T15:02:02.000Z</time>
      </trkpt>
      <trkpt lat="44.44695" lon="1.87511">
        <ele>205.6</ele>
        <time>2022-05-25T15:02:05.000Z</time>
      </trkpt>
      <trkpt lat="44.44701" lon="1.87511">
        <ele>205</ele>
        <time>2022-05-25T15:02:06.000Z</time>
      </trkpt>
      <trkpt lat="44.44715" lon="1.8751">
        <ele>204.6</ele>
        <time>2022-05-25T15:02:08.000Z</time>
      </trkpt>
      <trkpt lat="44.44727" lon="1.87509">
        <ele>204.4</ele>
        <time>2022-05-25T15:02:10.000Z</time>
      </trkpt>
      <trkpt lat="44.44738" lon="1.87508">
        <ele>204.4</ele>
        <time>2022-05-25T15:02:12.000Z</time>
      </trkpt>
      <trkpt lat="44.44757" lon="1.87507">
        <ele>204.4</ele>
        <time>2022-05-25T15:02:15.000Z</time>
      </trkpt>
      <trkpt lat="44.44763" lon="1.87507">
        <ele>204.4</ele>
        <time>2022-05-25T15:02:16.000Z</time>
      </trkpt>
      <trkpt lat="44.44769" lon="1.87507">
        <ele>204.4</ele>
        <time>2022-05-25T15:02:17.000Z</time>
      </trkpt>
      <trkpt lat="44.44792" lon="1.87512">
        <ele>204.4</ele>
        <time>2022-05-25T15:02:21.000Z</time>
      </trkpt>
      <trkpt lat="44.44815" lon="1.87516">
        <ele>203.8</ele>
        <time>2022-05-25T15:02:25.000Z</time>
      </trkpt>
      <trkpt lat="44.44843" lon="1.87521">
        <ele>203.2</ele>
        <time>2022-05-25T15:02:29.000Z</time>
      </trkpt>
      <trkpt lat="44.44857" lon="1.87523">
        <ele>202.8</ele>
        <time>2022-05-25T15:02:31.000Z</time>
      </trkpt>
      <trkpt lat="44.44864" lon="1.87524">
        <ele>202.6</ele>
        <time>2022-05-25T15:02:32.000Z</time>
      </trkpt>
      <trkpt lat="44.44885" lon="1.87529">
        <ele>202</ele>
        <time>2022-05-25T15:02:35.000Z</time>
      </trkpt>
      <trkpt lat="44.44898" lon="1.87529">
        <ele>201.6</ele>
        <time>2022-05-25T15:02:37.000Z</time>
      </trkpt>
      <trkpt lat="44.44935" lon="1.87533">
        <ele>200.6</ele>
        <time>2022-05-25T15:02:42.000Z</time>
      </trkpt>
      <trkpt lat="44.44942" lon="1.87534">
        <ele>200.4</ele>
        <time>2022-05-25T15:02:43.000Z</time>
      </trkpt>
      <trkpt lat="44.44951" lon="1.87535">
        <ele>199.8</ele>
        <time>2022-05-25T15:02:44.000Z</time>
      </trkpt>
      <trkpt lat="44.4497" lon="1.87538">
        <ele>199</ele>
        <time>2022-05-25T15:02:46.000Z</time>
      </trkpt>
      <trkpt lat="44.44979" lon="1.87539">
        <ele>198.4</ele>
        <time>2022-05-25T15:02:47.000Z</time>
      </trkpt>
      <trkpt lat="44.44996" lon="1.8754">
        <ele>197.8</ele>
        <time>2022-05-25T15:02:49.000Z</time>
      </trkpt>
      <trkpt lat="44.45013" lon="1.8754">
        <ele>197.6</ele>
        <time>2022-05-25T15:02:51.000Z</time>
      </trkpt>
      <trkpt lat="44.45028" lon="1.87536">
        <ele>196</ele>
        <time>2022-05-25T15:02:53.000Z</time>
      </trkpt>
      <trkpt lat="44.45046" lon="1.87527">
        <ele>195.2</ele>
        <time>2022-05-25T15:02:55.000Z</time>
      </trkpt>
      <trkpt lat="44.45052" lon="1.87518">
        <ele>194.6</ele>
        <time>2022-05-25T15:02:56.000Z</time>
      </trkpt>
      <trkpt lat="44.45057" lon="1.8751">
        <ele>194.4</ele>
        <time>2022-05-25T15:02:57.000Z</time>
      </trkpt>
      <trkpt lat="44.45067" lon="1.87491">
        <ele>193.6</ele>
        <time>2022-05-25T15:02:59.000Z</time>
      </trkpt>
      <trkpt lat="44.45072" lon="1.87482">
        <ele>193</ele>
        <time>2022-05-25T15:03:00.000Z</time>
      </trkpt>
      <trkpt lat="44.4508" lon="1.87462">
        <ele>192.2</ele>
        <time>2022-05-25T15:03:02.000Z</time>
      </trkpt>
      <trkpt lat="44.45087" lon="1.87443">
        <ele>191.4</ele>
        <time>2022-05-25T15:03:04.000Z</time>
      </trkpt>
      <trkpt lat="44.45091" lon="1.87434">
        <ele>191</ele>
        <time>2022-05-25T15:03:05.000Z</time>
      </trkpt>
      <trkpt lat="44.45109" lon="1.87401">
        <ele>190</ele>
        <time>2022-05-25T15:03:09.000Z</time>
      </trkpt>
      <trkpt lat="44.45113" lon="1.87393">
        <ele>190</ele>
        <time>2022-05-25T15:03:10.000Z</time>
      </trkpt>
      <trkpt lat="44.45125" lon="1.87356">
        <ele>189</ele>
        <time>2022-05-25T15:03:14.000Z</time>
      </trkpt>
      <trkpt lat="44.45132" lon="1.8734">
        <ele>188.4</ele>
        <time>2022-05-25T15:03:16.000Z</time>
      </trkpt>
      <trkpt lat="44.45138" lon="1.8731">
        <ele>187.8</ele>
        <time>2022-05-25T15:03:19.000Z</time>
      </trkpt>
      <trkpt lat="44.45146" lon="1.87284">
        <ele>187.4</ele>
        <time>2022-05-25T15:03:22.000Z</time>
      </trkpt>
      <trkpt lat="44.45153" lon="1.87254">
        <ele>186.6</ele>
        <time>2022-05-25T15:03:25.000Z</time>
      </trkpt>
      <trkpt lat="44.45154" lon="1.87243">
        <ele>186.6</ele>
        <time>2022-05-25T15:03:26.000Z</time>
      </trkpt>
      <trkpt lat="44.45158" lon="1.87224">
        <ele>186</ele>
        <time>2022-05-25T15:03:28.000Z</time>
      </trkpt>
      <trkpt lat="44.45163" lon="1.87165">
        <ele>185.6</ele>
        <time>2022-05-25T15:03:34.000Z</time>
      </trkpt>
      <trkpt lat="44.45166" lon="1.87137">
        <ele>185.6</ele>
        <time>2022-05-25T15:03:37.000Z</time>
      </trkpt>
      <trkpt lat="44.45168" lon="1.8712">
        <ele>185.6</ele>
        <time>2022-05-25T15:03:39.000Z</time>
      </trkpt>
      <trkpt lat="44.45173" lon="1.87104">
        <ele>185.2</ele>
        <time>2022-05-25T15:03:41.000Z</time>
      </trkpt>
      <trkpt lat="44.45183" lon="1.87081">
        <ele>184.8</ele>
        <time>2022-05-25T15:03:44.000Z</time>
      </trkpt>
      <trkpt lat="44.45194" lon="1.87059">
        <ele>184.4</ele>
        <time>2022-05-25T15:03:47.000Z</time>
      </trkpt>
      <trkpt lat="44.45207" lon="1.87038">
        <ele>184.2</ele>
        <time>2022-05-25T15:03:50.000Z</time>
      </trkpt>
      <trkpt lat="44.45225" lon="1.87009">
        <ele>183.2</ele>
        <time>2022-05-25T15:03:54.000Z</time>
      </trkpt>
      <trkpt lat="44.45241" lon="1.86987">
        <ele>182.2</ele>
        <time>2022-05-25T15:03:57.000Z</time>
      </trkpt>
      <trkpt lat="44.45246" lon="1.8698">
        <ele>182.2</ele>
        <time>2022-05-25T15:03:58.000Z</time>
      </trkpt>
      <trkpt lat="44.45251" lon="1.86973">
        <ele>181.8</ele>
        <time>2022-05-25T15:03:59.000Z</time>
      </trkpt>
      <trkpt lat="44.45265" lon="1.86963">
        <ele>181.8</ele>
        <time>2022-05-25T15:04:01.000Z</time>
      </trkpt>
      <trkpt lat="44.45308" lon="1.86943">
        <ele>181</ele>
        <time>2022-05-25T15:04:07.000Z</time>
      </trkpt>
      <trkpt lat="44.45315" lon="1.86939">
        <ele>181</ele>
        <time>2022-05-25T15:04:08.000Z</time>
      </trkpt>
      <trkpt lat="44.45344" lon="1.86927">
        <ele>179.8</ele>
        <time>2022-05-25T15:04:12.000Z</time>
      </trkpt>
      <trkpt lat="44.45358" lon="1.86919">
        <ele>179.2</ele>
        <time>2022-05-25T15:04:14.000Z</time>
      </trkpt>
      <trkpt lat="44.45364" lon="1.86914">
        <ele>179</ele>
        <time>2022-05-25T15:04:15.000Z</time>
      </trkpt>
      <trkpt lat="44.45369" lon="1.86906">
        <ele>178.8</ele>
        <time>2022-05-25T15:04:16.000Z</time>
      </trkpt>
      <trkpt lat="44.45373" lon="1.86896">
        <ele>178.2</ele>
        <time>2022-05-25T15:04:17.000Z</time>
      </trkpt>
      <trkpt lat="44.45376" lon="1.86887">
        <ele>178</ele>
        <time>2022-05-25T15:04:18.000Z</time>
      </trkpt>
      <trkpt lat="44.45379" lon="1.86867">
        <ele>177.6</ele>
        <time>2022-05-25T15:04:20.000Z</time>
      </trkpt>
      <trkpt lat="44.45377" lon="1.86857">
        <ele>177.2</ele>
        <time>2022-05-25T15:04:21.000Z</time>
      </trkpt>
      <trkpt lat="44.45374" lon="1.86848">
        <ele>177</ele>
        <time>2022-05-25T15:04:22.000Z</time>
      </trkpt>
      <trkpt lat="44.45363" lon="1.86833">
        <ele>176.6</ele>
        <time>2022-05-25T15:04:24.000Z</time>
      </trkpt>
      <trkpt lat="44.45351" lon="1.86825">
        <ele>176</ele>
        <time>2022-05-25T15:04:26.000Z</time>
      </trkpt>
      <trkpt lat="44.45319" lon="1.86803">
        <ele>175.2</ele>
        <time>2022-05-25T15:04:31.000Z</time>
      </trkpt>
      <trkpt lat="44.45314" lon="1.86798">
        <ele>175</ele>
        <time>2022-05-25T15:04:32.000Z</time>
      </trkpt>
      <trkpt lat="44.45311" lon="1.86792">
        <ele>175</ele>
        <time>2022-05-25T15:04:33.000Z</time>
      </trkpt>
      <trkpt lat="44.45308" lon="1.86783">
        <ele>175</ele>
        <time>2022-05-25T15:04:34.000Z</time>
      </trkpt>
      <trkpt lat="44.45307" lon="1.86773">
        <ele>175</ele>
        <time>2022-05-25T15:04:35.000Z</time>
      </trkpt>
      <trkpt lat="44.45307" lon="1.86755">
        <ele>175</ele>
        <time>2022-05-25T15:04:37.000Z</time>
      </trkpt>
      <trkpt lat="44.45307" lon="1.86745">
        <ele>174.8</ele>
        <time>2022-05-25T15:04:38.000Z</time>
      </trkpt>
      <trkpt lat="44.45304" lon="1.86727">
        <ele>174.8</ele>
        <time>2022-05-25T15:04:40.000Z</time>
      </trkpt>
      <trkpt lat="44.45301" lon="1.86718">
        <ele>174.2</ele>
        <time>2022-05-25T15:04:41.000Z</time>
      </trkpt>
      <trkpt lat="44.45293" lon="1.86692">
        <ele>174</ele>
        <time>2022-05-25T15:04:44.000Z</time>
      </trkpt>
      <trkpt lat="44.45286" lon="1.86656">
        <ele>173.6</ele>
        <time>2022-05-25T15:04:48.000Z</time>
      </trkpt>
      <trkpt lat="44.45282" lon="1.86629">
        <ele>173.6</ele>
        <time>2022-05-25T15:04:51.000Z</time>
      </trkpt>
      <trkpt lat="44.45281" lon="1.86613">
        <ele>173.6</ele>
        <time>2022-05-25T15:04:53.000Z</time>
      </trkpt>
      <trkpt lat="44.45282" lon="1.86606">
        <ele>173.6</ele>
        <time>2022-05-25T15:04:54.000Z</time>
      </trkpt>
      <trkpt lat="44.45282" lon="1.86592">
        <ele>173.2</ele>
        <time>2022-05-25T15:04:56.000Z</time>
      </trkpt>
      <trkpt lat="44.45279" lon="1.86573">
        <ele>173.2</ele>
        <time>2022-05-25T15:04:58.000Z</time>
      </trkpt>
      <trkpt lat="44.45278" lon="1.86564">
        <ele>173.2</ele>
        <time>2022-05-25T15:04:59.000Z</time>
      </trkpt>
      <trkpt lat="44.45278" lon="1.86545">
        <ele>173.2</ele>
        <time>2022-05-25T15:05:01.000Z</time>
      </trkpt>
      <trkpt lat="44.45279" lon="1.86537">
        <ele>173.2</ele>
        <time>2022-05-25T15:05:02.000Z</time>
      </trkpt>
      <trkpt lat="44.45289" lon="1.86514">
        <ele>173</ele>
        <time>2022-05-25T15:05:05.000Z</time>
      </trkpt>
      <trkpt lat="44.45296" lon="1.86499">
        <ele>173</ele>
        <time>2022-05-25T15:05:07.000Z</time>
      </trkpt>
      <trkpt lat="44.45299" lon="1.86491">
        <ele>172.8</ele>
        <time>2022-05-25T15:05:08.000Z</time>
      </trkpt>
      <trkpt lat="44.45306" lon="1.86464">
        <ele>171.6</ele>
        <time>2022-05-25T15:05:11.000Z</time>
      </trkpt>
      <trkpt lat="44.45308" lon="1.86454">
        <ele>171.4</ele>
        <time>2022-05-25T15:05:12.000Z</time>
      </trkpt>
      <trkpt lat="44.45313" lon="1.86439">
        <ele>170.8</ele>
        <time>2022-05-25T15:05:14.000Z</time>
      </trkpt>
      <trkpt lat="44.45317" lon="1.8643">
        <ele>170.2</ele>
        <time>2022-05-25T15:05:15.000Z</time>
      </trkpt>
      <trkpt lat="44.45337" lon="1.86395">
        <ele>169.2</ele>
        <time>2022-05-25T15:05:20.000Z</time>
      </trkpt>
      <trkpt lat="44.45342" lon="1.86387">
        <ele>169.2</ele>
        <time>2022-05-25T15:05:21.000Z</time>
      </trkpt>
      <trkpt lat="44.45377" lon="1.86341">
        <ele>168.4</ele>
        <time>2022-05-25T15:05:28.000Z</time>
      </trkpt>
      <trkpt lat="44.45409" lon="1.8631">
        <ele>168.2</ele>
        <time>2022-05-25T15:05:34.000Z</time>
      </trkpt>
      <trkpt lat="44.4542" lon="1.86302">
        <ele>168</ele>
        <time>2022-05-25T15:05:36.000Z</time>
      </trkpt>
      <trkpt lat="44.4544" lon="1.86284">
        <ele>167.6</ele>
        <time>2022-05-25T15:05:40.000Z</time>
      </trkpt>
      <trkpt lat="44.45446" lon="1.8628">
        <ele>167.6</ele>
        <time>2022-05-25T15:05:41.000Z</time>
      </trkpt>
      <trkpt lat="44.45451" lon="1.86276">
        <ele>167.2</ele>
        <time>2022-05-25T15:05:42.000Z</time>
      </trkpt>
      <trkpt lat="44.4546" lon="1.86266">
        <ele>167</ele>
        <time>2022-05-25T15:05:44.000Z</time>
      </trkpt>
      <trkpt lat="44.4547" lon="1.86255">
        <ele>167</ele>
        <time>2022-05-25T15:05:46.000Z</time>
      </trkpt>
      <trkpt lat="44.45475" lon="1.86249">
        <ele>166.8</ele>
        <time>2022-05-25T15:05:47.000Z</time>
      </trkpt>
      <trkpt lat="44.45487" lon="1.8623">
        <ele>166.8</ele>
        <time>2022-05-25T15:05:50.000Z</time>
      </trkpt>
      <trkpt lat="44.45491" lon="1.86222">
        <ele>166.8</ele>
        <time>2022-05-25T15:05:51.000Z</time>
      </trkpt>
      <trkpt lat="44.45506" lon="1.8617">
        <ele>166.6</ele>
        <time>2022-05-25T15:05:57.000Z</time>
      </trkpt>
      <trkpt lat="44.45508" lon="1.86151">
        <ele>166.2</ele>
        <time>2022-05-25T15:05:59.000Z</time>
      </trkpt>
      <trkpt lat="44.45508" lon="1.86142">
        <ele>166</ele>
        <time>2022-05-25T15:06:00.000Z</time>
      </trkpt>
      <trkpt lat="44.45507" lon="1.86123">
        <ele>165.6</ele>
        <time>2022-05-25T15:06:02.000Z</time>
      </trkpt>
      <trkpt lat="44.45505" lon="1.86095">
        <ele>165</ele>
        <time>2022-05-25T15:06:05.000Z</time>
      </trkpt>
      <trkpt lat="44.45505" lon="1.86086">
        <ele>164.8</ele>
        <time>2022-05-25T15:06:06.000Z</time>
      </trkpt>
      <trkpt lat="44.45506" lon="1.86068">
        <ele>164.4</ele>
        <time>2022-05-25T15:06:08.000Z</time>
      </trkpt>
      <trkpt lat="44.45506" lon="1.86049">
        <ele>164.4</ele>
        <time>2022-05-25T15:06:10.000Z</time>
      </trkpt>
      <trkpt lat="44.45507" lon="1.86021">
        <ele>164</ele>
        <time>2022-05-25T15:06:13.000Z</time>
      </trkpt>
      <trkpt lat="44.45508" lon="1.86012">
        <ele>163.8</ele>
        <time>2022-05-25T15:06:14.000Z</time>
      </trkpt>
      <trkpt lat="44.45512" lon="1.85959">
        <ele>163</ele>
        <time>2022-05-25T15:06:20.000Z</time>
      </trkpt>
      <trkpt lat="44.45512" lon="1.8595">
        <ele>162.6</ele>
        <time>2022-05-25T15:06:21.000Z</time>
      </trkpt>
      <trkpt lat="44.45515" lon="1.85895">
        <ele>161.6</ele>
        <time>2022-05-25T15:06:27.000Z</time>
      </trkpt>
      <trkpt lat="44.45516" lon="1.85877">
        <ele>161.4</ele>
        <time>2022-05-25T15:06:29.000Z</time>
      </trkpt>
      <trkpt lat="44.4552" lon="1.85825">
        <ele>160.4</ele>
        <time>2022-05-25T15:06:35.000Z</time>
      </trkpt>
      <trkpt lat="44.45521" lon="1.85817">
        <ele>160.2</ele>
        <time>2022-05-25T15:06:36.000Z</time>
      </trkpt>
      <trkpt lat="44.45523" lon="1.85792">
        <ele>160.2</ele>
        <time>2022-05-25T15:06:39.000Z</time>
      </trkpt>
      <trkpt lat="44.45527" lon="1.85767">
        <ele>160.2</ele>
        <time>2022-05-25T15:06:42.000Z</time>
      </trkpt>
      <trkpt lat="44.45528" lon="1.85751">
        <ele>160.2</ele>
        <time>2022-05-25T15:06:44.000Z</time>
      </trkpt>
      <trkpt lat="44.45528" lon="1.85725">
        <ele>160</ele>
        <time>2022-05-25T15:06:47.000Z</time>
      </trkpt>
      <trkpt lat="44.45528" lon="1.85703">
        <ele>159.8</ele>
        <time>2022-05-25T15:06:50.000Z</time>
      </trkpt>
      <trkpt lat="44.45533" lon="1.85676">
        <ele>159.6</ele>
        <time>2022-05-25T15:06:53.000Z</time>
      </trkpt>
      <trkpt lat="44.45535" lon="1.85668">
        <ele>159.6</ele>
        <time>2022-05-25T15:06:54.000Z</time>
      </trkpt>
      <trkpt lat="44.45547" lon="1.85639">
        <ele>159.2</ele>
        <time>2022-05-25T15:06:58.000Z</time>
      </trkpt>
      <trkpt lat="44.4555" lon="1.85632">
        <ele>159</ele>
        <time>2022-05-25T15:06:59.000Z</time>
      </trkpt>
      <trkpt lat="44.45555" lon="1.85616">
        <ele>158.8</ele>
        <time>2022-05-25T15:07:01.000Z</time>
      </trkpt>
      <trkpt lat="44.4556" lon="1.85591">
        <ele>158.4</ele>
        <time>2022-05-25T15:07:04.000Z</time>
      </trkpt>
      <trkpt lat="44.45562" lon="1.85575">
        <ele>158.2</ele>
        <time>2022-05-25T15:07:06.000Z</time>
      </trkpt>
      <trkpt lat="44.45563" lon="1.85567">
        <ele>158.2</ele>
        <time>2022-05-25T15:07:07.000Z</time>
      </trkpt>
      <trkpt lat="44.45564" lon="1.85549">
        <ele>158.2</ele>
        <time>2022-05-25T15:07:09.000Z</time>
      </trkpt>
      <trkpt lat="44.45565" lon="1.85511">
        <ele>158.2</ele>
        <time>2022-05-25T15:07:13.000Z</time>
      </trkpt>
      <trkpt lat="44.45568" lon="1.85485">
        <ele>157.6</ele>
        <time>2022-05-25T15:07:16.000Z</time>
      </trkpt>
      <trkpt lat="44.45573" lon="1.85459">
        <ele>157.4</ele>
        <time>2022-05-25T15:07:19.000Z</time>
      </trkpt>
      <trkpt lat="44.45577" lon="1.85441">
        <ele>157</ele>
        <time>2022-05-25T15:07:21.000Z</time>
      </trkpt>
      <trkpt lat="44.45585" lon="1.85418">
        <ele>156.8</ele>
        <time>2022-05-25T15:07:24.000Z</time>
      </trkpt>
      <trkpt lat="44.4559" lon="1.85409">
        <ele>156.8</ele>
        <time>2022-05-25T15:07:25.000Z</time>
      </trkpt>
      <trkpt lat="44.4562" lon="1.8536">
        <ele>156</ele>
        <time>2022-05-25T15:07:32.000Z</time>
      </trkpt>
      <trkpt lat="44.45624" lon="1.85356">
        <ele>155.8</ele>
        <time>2022-05-25T15:07:33.000Z</time>
      </trkpt>
      <trkpt lat="44.45658" lon="1.85312">
        <ele>155.2</ele>
        <time>2022-05-25T15:07:40.000Z</time>
      </trkpt>
      <trkpt lat="44.45674" lon="1.85298">
        <ele>155.2</ele>
        <time>2022-05-25T15:07:43.000Z</time>
      </trkpt>
      <trkpt lat="44.4569" lon="1.85284">
        <ele>154.6</ele>
        <time>2022-05-25T15:07:46.000Z</time>
      </trkpt>
      <trkpt lat="44.45729" lon="1.85253">
        <ele>154</ele>
        <time>2022-05-25T15:07:53.000Z</time>
      </trkpt>
      <trkpt lat="44.45744" lon="1.85242">
        <ele>153.8</ele>
        <time>2022-05-25T15:07:56.000Z</time>
      </trkpt>
      <trkpt lat="44.45756" lon="1.85238">
        <ele>153.8</ele>
        <time>2022-05-25T15:07:58.000Z</time>
      </trkpt>
      <trkpt lat="44.45768" lon="1.85238">
        <ele>153.8</ele>
        <time>2022-05-25T15:08:00.000Z</time>
      </trkpt>
      <trkpt lat="44.4578" lon="1.85242">
        <ele>153.8</ele>
        <time>2022-05-25T15:08:02.000Z</time>
      </trkpt>
      <trkpt lat="44.45827" lon="1.85267">
        <ele>153.8</ele>
        <time>2022-05-25T15:08:10.000Z</time>
      </trkpt>
      <trkpt lat="44.45833" lon="1.8527">
        <ele>153.8</ele>
        <time>2022-05-25T15:08:11.000Z</time>
      </trkpt>
      <trkpt lat="44.45845" lon="1.85277">
        <ele>153.4</ele>
        <time>2022-05-25T15:08:13.000Z</time>
      </trkpt>
      <trkpt lat="44.45862" lon="1.85288">
        <ele>153.2</ele>
        <time>2022-05-25T15:08:16.000Z</time>
      </trkpt>
      <trkpt lat="44.45896" lon="1.85309">
        <ele>152.6</ele>
        <time>2022-05-25T15:08:22.000Z</time>
      </trkpt>
      <trkpt lat="44.45919" lon="1.85326">
        <ele>152.4</ele>
        <time>2022-05-25T15:08:26.000Z</time>
      </trkpt>
      <trkpt lat="44.4593" lon="1.85332">
        <ele>152.4</ele>
        <time>2022-05-25T15:08:28.000Z</time>
      </trkpt>
      <trkpt lat="44.45942" lon="1.85335">
        <ele>152.6</ele>
        <time>2022-05-25T15:08:30.000Z</time>
      </trkpt>
      <trkpt lat="44.45954" lon="1.85337">
        <ele>152.6</ele>
        <time>2022-05-25T15:08:32.000Z</time>
      </trkpt>
      <trkpt lat="44.45959" lon="1.85338">
        <ele>152.4</ele>
        <time>2022-05-25T15:08:33.000Z</time>
      </trkpt>
      <trkpt lat="44.45966" lon="1.85338">
        <ele>152.4</ele>
        <time>2022-05-25T15:08:34.000Z</time>
      </trkpt>
      <trkpt lat="44.45985" lon="1.85332">
        <ele>152.4</ele>
        <time>2022-05-25T15:08:37.000Z</time>
      </trkpt>
      <trkpt lat="44.46017" lon="1.85317">
        <ele>152</ele>
        <time>2022-05-25T15:08:43.000Z</time>
      </trkpt>
      <trkpt lat="44.46029" lon="1.85309">
        <ele>151.8</ele>
        <time>2022-05-25T15:08:45.000Z</time>
      </trkpt>
      <trkpt lat="44.46046" lon="1.85295">
        <ele>151.8</ele>
        <time>2022-05-25T15:08:48.000Z</time>
      </trkpt>
      <trkpt lat="44.46052" lon="1.85287">
        <ele>151.8</ele>
        <time>2022-05-25T15:08:49.000Z</time>
      </trkpt>
      <trkpt lat="44.46063" lon="1.85268">
        <ele>151.8</ele>
        <time>2022-05-25T15:08:52.000Z</time>
      </trkpt>
      <trkpt lat="44.46068" lon="1.85261">
        <ele>151.8</ele>
        <time>2022-05-25T15:08:53.000Z</time>
      </trkpt>
      <trkpt lat="44.46078" lon="1.85248">
        <ele>151.8</ele>
        <time>2022-05-25T15:08:55.000Z</time>
      </trkpt>
      <trkpt lat="44.4609" lon="1.85236">
        <ele>151.6</ele>
        <time>2022-05-25T15:08:57.000Z</time>
      </trkpt>
      <trkpt lat="44.461" lon="1.85226">
        <ele>151.6</ele>
        <time>2022-05-25T15:08:59.000Z</time>
      </trkpt>
      <trkpt lat="44.46113" lon="1.85219">
        <ele>151.6</ele>
        <time>2022-05-25T15:09:01.000Z</time>
      </trkpt>
      <trkpt lat="44.46122" lon="1.85204">
        <ele>151.4</ele>
        <time>2022-05-25T15:09:02.000Z</time>
      </trkpt>
      <trkpt lat="44.4613" lon="1.85189">
        <ele>151.4</ele>
        <time>2022-05-25T15:09:04.000Z</time>
      </trkpt>
      <trkpt lat="44.46144" lon="1.85172">
        <ele>151.4</ele>
        <time>2022-05-25T15:09:07.000Z</time>
      </trkpt>
      <trkpt lat="44.46144" lon="1.85172">
        <ele>151.4</ele>
        <time>2022-05-25T15:09:08.000Z</time>
      </trkpt>
      <trkpt lat="44.46148" lon="1.85166">
        <ele>151.4</ele>
        <time>2022-05-25T15:09:09.000Z</time>
      </trkpt>
      <trkpt lat="44.46163" lon="1.85154">
        <ele>151.4</ele>
        <time>2022-05-25T15:09:11.000Z</time>
      </trkpt>
      <trkpt lat="44.46167" lon="1.85152">
        <ele>151.2</ele>
        <time>2022-05-25T15:09:12.000Z</time>
      </trkpt>
      <trkpt lat="44.46176" lon="1.85152">
        <ele>151.2</ele>
        <time>2022-05-25T15:09:14.000Z</time>
      </trkpt>
      <trkpt lat="44.46187" lon="1.85168">
        <ele>151</ele>
        <time>2022-05-25T15:09:16.000Z</time>
      </trkpt>
      <trkpt lat="44.46194" lon="1.85178">
        <ele>150.8</ele>
        <time>2022-05-25T15:09:17.000Z</time>
      </trkpt>
      <trkpt lat="44.46197" lon="1.85188">
        <ele>150.8</ele>
        <time>2022-05-25T15:09:18.000Z</time>
      </trkpt>
      <trkpt lat="44.46206" lon="1.85214">
        <ele>150.6</ele>
        <time>2022-05-25T15:09:21.000Z</time>
      </trkpt>
      <trkpt lat="44.46212" lon="1.8523">
        <ele>150.6</ele>
        <time>2022-05-25T15:09:23.000Z</time>
      </trkpt>
      <trkpt lat="44.46216" lon="1.85248">
        <ele>150.4</ele>
        <time>2022-05-25T15:09:26.000Z</time>
      </trkpt>
      <trkpt lat="44.46221" lon="1.85264">
        <ele>150.4</ele>
        <time>2022-05-25T15:09:27.000Z</time>
      </trkpt>
      <trkpt lat="44.46228" lon="1.8528">
        <ele>150.2</ele>
        <time>2022-05-25T15:09:29.000Z</time>
      </trkpt>
      <trkpt lat="44.46233" lon="1.85286">
        <ele>150</ele>
        <time>2022-05-25T15:09:30.000Z</time>
      </trkpt>
      <trkpt lat="44.46269" lon="1.8533">
        <ele>149.6</ele>
        <time>2022-05-25T15:09:38.000Z</time>
      </trkpt>
      <trkpt lat="44.46276" lon="1.85336">
        <ele>149.6</ele>
        <time>2022-05-25T15:09:39.000Z</time>
      </trkpt>
      <trkpt lat="44.46295" lon="1.85346">
        <ele>149.6</ele>
        <time>2022-05-25T15:09:42.000Z</time>
      </trkpt>
      <trkpt lat="44.46305" lon="1.85345">
        <ele>149.6</ele>
        <time>2022-05-25T15:09:44.000Z</time>
      </trkpt>
      <trkpt lat="44.46316" lon="1.85338">
        <ele>149.6</ele>
        <time>2022-05-25T15:09:46.000Z</time>
      </trkpt>
      <trkpt lat="44.4634" lon="1.85326">
        <ele>149.8</ele>
        <time>2022-05-25T15:09:51.000Z</time>
      </trkpt>
      <trkpt lat="44.46347" lon="1.85322">
        <ele>149.8</ele>
        <time>2022-05-25T15:09:52.000Z</time>
      </trkpt>
      <trkpt lat="44.46369" lon="1.85304">
        <ele>150.2</ele>
        <time>2022-05-25T15:09:55.000Z</time>
      </trkpt>
      <trkpt lat="44.46387" lon="1.8528">
        <ele>150.2</ele>
        <time>2022-05-25T15:09:59.000Z</time>
      </trkpt>
      <trkpt lat="44.46403" lon="1.85257">
        <ele>150.4</ele>
        <time>2022-05-25T15:10:03.000Z</time>
      </trkpt>
      <trkpt lat="44.4641" lon="1.85246">
        <ele>150.8</ele>
        <time>2022-05-25T15:10:05.000Z</time>
      </trkpt>
      <trkpt lat="44.4644" lon="1.85202">
        <ele>151</ele>
        <time>2022-05-25T15:10:12.000Z</time>
      </trkpt>
      <trkpt lat="44.46452" lon="1.85184">
        <ele>151</ele>
        <time>2022-05-25T15:10:15.000Z</time>
      </trkpt>
      <trkpt lat="44.46459" lon="1.85173">
        <ele>151</ele>
        <time>2022-05-25T15:10:17.000Z</time>
      </trkpt>
      <trkpt lat="44.46461" lon="1.85168">
        <ele>151</ele>
        <time>2022-05-25T15:10:19.000Z</time>
      </trkpt>
      <trkpt lat="44.46472" lon="1.85138">
        <ele>151.6</ele>
        <time>2022-05-25T15:10:22.000Z</time>
      </trkpt>
      <trkpt lat="44.46475" lon="1.85132">
        <ele>151.6</ele>
        <time>2022-05-25T15:10:23.000Z</time>
      </trkpt>
      <trkpt lat="44.46479" lon="1.85125">
        <ele>151.6</ele>
        <time>2022-05-25T15:10:24.000Z</time>
      </trkpt>
      <trkpt lat="44.46483" lon="1.8512">
        <ele>151.6</ele>
        <time>2022-05-25T15:10:25.000Z</time>
      </trkpt>
      <trkpt lat="44.46503" lon="1.85103">
        <ele>152</ele>
        <time>2022-05-25T15:10:29.000Z</time>
      </trkpt>
      <trkpt lat="44.46527" lon="1.85088">
        <ele>152</ele>
        <time>2022-05-25T15:10:34.000Z</time>
      </trkpt>
      <trkpt lat="44.46536" lon="1.85084">
        <ele>152</ele>
        <time>2022-05-25T15:10:36.000Z</time>
      </trkpt>
      <trkpt lat="44.4654" lon="1.85084">
        <ele>152.2</ele>
        <time>2022-05-25T15:10:37.000Z</time>
      </trkpt>
      <trkpt lat="44.46562" lon="1.85086">
        <ele>152.2</ele>
        <time>2022-05-25T15:10:41.000Z</time>
      </trkpt>
      <trkpt lat="44.46562" lon="1.85086">
        <ele>152.4</ele>
        <time>2022-05-25T15:10:42.000Z</time>
      </trkpt>
      <trkpt lat="44.46572" lon="1.85088">
        <ele>152.8</ele>
        <time>2022-05-25T15:10:43.000Z</time>
      </trkpt>
      <trkpt lat="44.46582" lon="1.8509">
        <ele>153.4</ele>
        <time>2022-05-25T15:10:45.000Z</time>
      </trkpt>
      <trkpt lat="44.46582" lon="1.8509">
        <ele>153.6</ele>
        <time>2022-05-25T15:10:46.000Z</time>
      </trkpt>
      <trkpt lat="44.4659" lon="1.85091">
        <ele>153.6</ele>
        <time>2022-05-25T15:10:47.000Z</time>
      </trkpt>
      <trkpt lat="44.4662" lon="1.85093">
        <ele>154.2</ele>
        <time>2022-05-25T15:10:53.000Z</time>
      </trkpt>
      <trkpt lat="44.4666" lon="1.85085">
        <ele>154.2</ele>
        <time>2022-05-25T15:11:01.000Z</time>
      </trkpt>
      <trkpt lat="44.4667" lon="1.85082">
        <ele>154.6</ele>
        <time>2022-05-25T15:11:03.000Z</time>
      </trkpt>
      <trkpt lat="44.46674" lon="1.8508">
        <ele>154.6</ele>
        <time>2022-05-25T15:11:04.000Z</time>
      </trkpt>
      <trkpt lat="44.46679" lon="1.85078">
        <ele>154.8</ele>
        <time>2022-05-25T15:11:05.000Z</time>
      </trkpt>
      <trkpt lat="44.46706" lon="1.85061">
        <ele>155.6</ele>
        <time>2022-05-25T15:11:11.000Z</time>
      </trkpt>
      <trkpt lat="44.46711" lon="1.85057">
        <ele>155.6</ele>
        <time>2022-05-25T15:11:12.000Z</time>
      </trkpt>
      <trkpt lat="44.46714" lon="1.85053">
        <ele>156</ele>
        <time>2022-05-25T15:11:13.000Z</time>
      </trkpt>
      <trkpt lat="44.46719" lon="1.85049">
        <ele>156.2</ele>
        <time>2022-05-25T15:11:14.000Z</time>
      </trkpt>
      <trkpt lat="44.4673" lon="1.85035">
        <ele>156.6</ele>
        <time>2022-05-25T15:11:17.000Z</time>
      </trkpt>
      <trkpt lat="44.4673" lon="1.85035">
        <ele>156.8</ele>
        <time>2022-05-25T15:11:18.000Z</time>
      </trkpt>
      <trkpt lat="44.46737" lon="1.85025">
        <ele>157.2</ele>
        <time>2022-05-25T15:11:19.000Z</time>
      </trkpt>
      <trkpt lat="44.46745" lon="1.85007">
        <ele>158.2</ele>
        <time>2022-05-25T15:11:22.000Z</time>
      </trkpt>
      <trkpt lat="44.46748" lon="1.85002">
        <ele>158.4</ele>
        <time>2022-05-25T15:11:23.000Z</time>
      </trkpt>
      <trkpt lat="44.46752" lon="1.8499">
        <ele>159</ele>
        <time>2022-05-25T15:11:25.000Z</time>
      </trkpt>
      <trkpt lat="44.46756" lon="1.8498">
        <ele>159.2</ele>
        <time>2022-05-25T15:11:27.000Z</time>
      </trkpt>
      <trkpt lat="44.46762" lon="1.84964">
        <ele>159.2</ele>
        <time>2022-05-25T15:11:30.000Z</time>
      </trkpt>
      <trkpt lat="44.46771" lon="1.84932">
        <ele>160.4</ele>
        <time>2022-05-25T15:11:36.000Z</time>
      </trkpt>
      <trkpt lat="44.46777" lon="1.84905">
        <ele>161.4</ele>
        <time>2022-05-25T15:11:41.000Z</time>
      </trkpt>
      <trkpt lat="44.46778" lon="1.849">
        <ele>161.6</ele>
        <time>2022-05-25T15:11:42.000Z</time>
      </trkpt>
      <trkpt lat="44.46781" lon="1.84889">
        <ele>161.8</ele>
        <time>2022-05-25T15:11:44.000Z</time>
      </trkpt>
      <trkpt lat="44.46786" lon="1.84865">
        <ele>162.6</ele>
        <time>2022-05-25T15:11:49.000Z</time>
      </trkpt>
      <trkpt lat="44.46786" lon="1.84865">
        <ele>162.6</ele>
        <time>2022-05-25T15:11:50.000Z</time>
      </trkpt>
      <trkpt lat="44.46795" lon="1.8484">
        <ele>163.4</ele>
        <time>2022-05-25T15:11:55.000Z</time>
      </trkpt>
      <trkpt lat="44.46798" lon="1.84838">
        <ele>163.6</ele>
        <time>2022-05-25T15:11:56.000Z</time>
      </trkpt>
      <trkpt lat="44.46809" lon="1.84836">
        <ele>164</ele>
        <time>2022-05-25T15:11:59.000Z</time>
      </trkpt>
      <trkpt lat="44.46825" lon="1.84835">
        <ele>164</ele>
        <time>2022-05-25T15:12:03.000Z</time>
      </trkpt>
      <trkpt lat="44.46829" lon="1.84833">
        <ele>164</ele>
        <time>2022-05-25T15:12:04.000Z</time>
      </trkpt>
      <trkpt lat="44.46857" lon="1.84828">
        <ele>164</ele>
        <time>2022-05-25T15:12:10.000Z</time>
      </trkpt>
      <trkpt lat="44.46874" lon="1.84828">
        <ele>164</ele>
        <time>2022-05-25T15:12:13.000Z</time>
      </trkpt>
      <trkpt lat="44.46885" lon="1.84827">
        <ele>163.2</ele>
        <time>2022-05-25T15:12:15.000Z</time>
      </trkpt>
      <trkpt lat="44.46903" lon="1.84826">
        <ele>162.6</ele>
        <time>2022-05-25T15:12:18.000Z</time>
      </trkpt>
      <trkpt lat="44.4692" lon="1.84825">
        <ele>162.2</ele>
        <time>2022-05-25T15:12:21.000Z</time>
      </trkpt>
      <trkpt lat="44.4693" lon="1.84824">
        <ele>161.6</ele>
        <time>2022-05-25T15:12:23.000Z</time>
      </trkpt>
      <trkpt lat="44.46942" lon="1.84824">
        <ele>161</ele>
        <time>2022-05-25T15:12:25.000Z</time>
      </trkpt>
      <trkpt lat="44.46948" lon="1.84823">
        <ele>160.8</ele>
        <time>2022-05-25T15:12:26.000Z</time>
      </trkpt>
      <trkpt lat="44.46971" lon="1.84819">
        <ele>160.4</ele>
        <time>2022-05-25T15:12:30.000Z</time>
      </trkpt>
      <trkpt lat="44.4699" lon="1.84818">
        <ele>160</ele>
        <time>2022-05-25T15:12:33.000Z</time>
      </trkpt>
      <trkpt lat="44.4701" lon="1.84818">
        <ele>159.4</ele>
        <time>2022-05-25T15:12:36.000Z</time>
      </trkpt>
      <trkpt lat="44.47017" lon="1.84817">
        <ele>159</ele>
        <time>2022-05-25T15:12:37.000Z</time>
      </trkpt>
      <trkpt lat="44.47045" lon="1.84811">
        <ele>157.4</ele>
        <time>2022-05-25T15:12:41.000Z</time>
      </trkpt>
      <trkpt lat="44.47053" lon="1.8481">
        <ele>157</ele>
        <time>2022-05-25T15:12:42.000Z</time>
      </trkpt>
      <trkpt lat="44.47059" lon="1.84807">
        <ele>156.8</ele>
        <time>2022-05-25T15:12:43.000Z</time>
      </trkpt>
      <trkpt lat="44.47059" lon="1.84807">
        <ele>156.2</ele>
        <time>2022-05-25T15:12:44.000Z</time>
      </trkpt>
      <trkpt lat="44.47074" lon="1.84802">
        <ele>156</ele>
        <time>2022-05-25T15:12:45.000Z</time>
      </trkpt>
      <trkpt lat="44.4709" lon="1.84796">
        <ele>155.4</ele>
        <time>2022-05-25T15:12:47.000Z</time>
      </trkpt>
      <trkpt lat="44.47097" lon="1.84792">
        <ele>154.8</ele>
        <time>2022-05-25T15:12:48.000Z</time>
      </trkpt>
      <trkpt lat="44.47112" lon="1.84785">
        <ele>153.8</ele>
        <time>2022-05-25T15:12:50.000Z</time>
      </trkpt>
      <trkpt lat="44.47134" lon="1.84773">
        <ele>152.2</ele>
        <time>2022-05-25T15:12:53.000Z</time>
      </trkpt>
      <trkpt lat="44.47142" lon="1.8477">
        <ele>152.2</ele>
        <time>2022-05-25T15:12:54.000Z</time>
      </trkpt>
      <trkpt lat="44.47162" lon="1.84761">
        <ele>151</ele>
        <time>2022-05-25T15:12:57.000Z</time>
      </trkpt>
      <trkpt lat="44.4718" lon="1.84753">
        <ele>150.8</ele>
        <time>2022-05-25T15:13:00.000Z</time>
      </trkpt>
      <trkpt lat="44.47186" lon="1.8475">
        <ele>150.6</ele>
        <time>2022-05-25T15:13:01.000Z</time>
      </trkpt>
      <trkpt lat="44.47208" lon="1.84738">
        <ele>150.2</ele>
        <time>2022-05-25T15:13:05.000Z</time>
      </trkpt>
      <trkpt lat="44.47213" lon="1.84735">
        <ele>150.2</ele>
        <time>2022-05-25T15:13:06.000Z</time>
      </trkpt>
      <trkpt lat="44.47219" lon="1.84732">
        <ele>150.2</ele>
        <time>2022-05-25T15:13:07.000Z</time>
      </trkpt>
      <trkpt lat="44.47236" lon="1.84723">
        <ele>149.6</ele>
        <time>2022-05-25T15:13:10.000Z</time>
      </trkpt>
      <trkpt lat="44.47242" lon="1.8472">
        <ele>149.6</ele>
        <time>2022-05-25T15:13:11.000Z</time>
      </trkpt>
      <trkpt lat="44.47263" lon="1.84707">
        <ele>149.6</ele>
        <time>2022-05-25T15:13:15.000Z</time>
      </trkpt>
      <trkpt lat="44.47274" lon="1.84704">
        <ele>149.6</ele>
        <time>2022-05-25T15:13:17.000Z</time>
      </trkpt>
      <trkpt lat="44.47296" lon="1.84702">
        <ele>149.6</ele>
        <time>2022-05-25T15:13:21.000Z</time>
      </trkpt>
      <trkpt lat="44.47308" lon="1.84701">
        <ele>149.8</ele>
        <time>2022-05-25T15:13:23.000Z</time>
      </trkpt>
      <trkpt lat="44.4734" lon="1.84697">
        <ele>151</ele>
        <time>2022-05-25T15:13:29.000Z</time>
      </trkpt>
      <trkpt lat="44.47346" lon="1.84697">
        <ele>151.4</ele>
        <time>2022-05-25T15:13:30.000Z</time>
      </trkpt>
      <trkpt lat="44.47365" lon="1.84702">
        <ele>152</ele>
        <time>2022-05-25T15:13:33.000Z</time>
      </trkpt>
      <trkpt lat="44.4738" lon="1.84703">
        <ele>152.2</ele>
        <time>2022-05-25T15:13:36.000Z</time>
      </trkpt>
      <trkpt lat="44.47385" lon="1.84703">
        <ele>152.2</ele>
        <time>2022-05-25T15:13:37.000Z</time>
      </trkpt>
      <trkpt lat="44.47422" lon="1.84707">
        <ele>152.8</ele>
        <time>2022-05-25T15:13:44.000Z</time>
      </trkpt>
      <trkpt lat="44.47447" lon="1.84708">
        <ele>152.4</ele>
        <time>2022-05-25T15:13:50.000Z</time>
      </trkpt>
      <trkpt lat="44.47478" lon="1.84708">
        <ele>152.6</ele>
        <time>2022-05-25T15:13:58.000Z</time>
      </trkpt>
      <trkpt lat="44.4749" lon="1.8471">
        <ele>152.8</ele>
        <time>2022-05-25T15:14:02.000Z</time>
      </trkpt>
      <trkpt lat="44.47501" lon="1.84695">
        <ele>152.8</ele>
        <time>2022-05-25T15:14:06.000Z</time>
      </trkpt>
      <trkpt lat="44.47505" lon="1.8469">
        <ele>152.8</ele>
        <time>2022-05-25T15:14:07.000Z</time>
      </trkpt>
      <trkpt lat="44.47515" lon="1.84678">
        <ele>152.8</ele>
        <time>2022-05-25T15:14:10.000Z</time>
      </trkpt>
      <trkpt lat="44.4752" lon="1.84675">
        <ele>152.6</ele>
        <time>2022-05-25T15:14:12.000Z</time>
      </trkpt>
      <trkpt lat="44.4752" lon="1.84675">
        <ele>152.6</ele>
        <time>2022-05-25T15:14:13.000Z</time>
      </trkpt>
      <trkpt lat="44.4752" lon="1.84675">
        <ele>152.4</ele>
        <time>2022-05-25T15:14:14.000Z</time>
      </trkpt>
      <trkpt lat="44.47526" lon="1.84668">
        <ele>152.4</ele>
        <time>2022-05-25T15:14:21.000Z</time>
      </trkpt>
      <trkpt lat="44.4753" lon="1.84663">
        <ele>152.4</ele>
        <time>2022-05-25T15:14:23.000Z</time>
      </trkpt>
      <trkpt lat="44.47547" lon="1.84646">
        <ele>152.2</ele>
        <time>2022-05-25T15:14:29.000Z</time>
      </trkpt>
      <trkpt lat="44.47559" lon="1.84634">
        <ele>152.2</ele>
        <time>2022-05-25T15:14:32.000Z</time>
      </trkpt>
      <trkpt lat="44.47564" lon="1.84631">
        <ele>152.2</ele>
        <time>2022-05-25T15:14:33.000Z</time>
      </trkpt>
      <trkpt lat="44.47584" lon="1.84617">
        <ele>151.8</ele>
        <time>2022-05-25T15:14:37.000Z</time>
      </trkpt>
      <trkpt lat="44.47593" lon="1.84613">
        <ele>152</ele>
        <time>2022-05-25T15:14:39.000Z</time>
      </trkpt>
      <trkpt lat="44.47606" lon="1.84609">
        <ele>152</ele>
        <time>2022-05-25T15:14:41.000Z</time>
      </trkpt>
      <trkpt lat="44.47632" lon="1.84603">
        <ele>151.8</ele>
        <time>2022-05-25T15:14:46.000Z</time>
      </trkpt>
      <trkpt lat="44.4768" lon="1.84595">
        <ele>151.8</ele>
        <time>2022-05-25T15:14:55.000Z</time>
      </trkpt>
      <trkpt lat="44.47697" lon="1.84592">
        <ele>151.4</ele>
        <time>2022-05-25T15:14:58.000Z</time>
      </trkpt>
      <trkpt lat="44.47709" lon="1.8459">
        <ele>151.2</ele>
        <time>2022-05-25T15:15:00.000Z</time>
      </trkpt>
      <trkpt lat="44.47715" lon="1.8459">
        <ele>151.2</ele>
        <time>2022-05-25T15:15:01.000Z</time>
      </trkpt>
      <trkpt lat="44.47738" lon="1.84588">
        <ele>151.2</ele>
        <time>2022-05-25T15:15:05.000Z</time>
      </trkpt>
      <trkpt lat="44.47749" lon="1.84587">
        <ele>151.2</ele>
        <time>2022-05-25T15:15:07.000Z</time>
      </trkpt>
      <trkpt lat="44.47793" lon="1.84582">
        <ele>151</ele>
        <time>2022-05-25T15:15:15.000Z</time>
      </trkpt>
      <trkpt lat="44.47844" lon="1.84575">
        <ele>151</ele>
        <time>2022-05-25T15:15:24.000Z</time>
      </trkpt>
      <trkpt lat="44.47884" lon="1.84568">
        <ele>151.2</ele>
        <time>2022-05-25T15:15:31.000Z</time>
      </trkpt>
      <trkpt lat="44.47902" lon="1.84567">
        <ele>151.2</ele>
        <time>2022-05-25T15:15:34.000Z</time>
      </trkpt>
      <trkpt lat="44.47918" lon="1.84567">
        <ele>151</ele>
        <time>2022-05-25T15:15:37.000Z</time>
      </trkpt>
      <trkpt lat="44.47937" lon="1.84564">
        <ele>150.4</ele>
        <time>2022-05-25T15:15:40.000Z</time>
      </trkpt>
      <trkpt lat="44.47953" lon="1.84561">
        <ele>150.2</ele>
        <time>2022-05-25T15:15:43.000Z</time>
      </trkpt>
      <trkpt lat="44.47958" lon="1.8456">
        <ele>150.2</ele>
        <time>2022-05-25T15:15:44.000Z</time>
      </trkpt>
      <trkpt lat="44.47983" lon="1.84556">
        <ele>149.8</ele>
        <time>2022-05-25T15:15:49.000Z</time>
      </trkpt>
      <trkpt lat="44.47988" lon="1.84556">
        <ele>149.6</ele>
        <time>2022-05-25T15:15:50.000Z</time>
      </trkpt>
      <trkpt lat="44.47993" lon="1.84555">
        <ele>149.6</ele>
        <time>2022-05-25T15:15:51.000Z</time>
      </trkpt>
      <trkpt lat="44.48019" lon="1.84551">
        <ele>149.8</ele>
        <time>2022-05-25T15:15:56.000Z</time>
      </trkpt>
      <trkpt lat="44.48067" lon="1.8455">
        <ele>150.4</ele>
        <time>2022-05-25T15:16:05.000Z</time>
      </trkpt>
      <trkpt lat="44.48078" lon="1.84551">
        <ele>150.6</ele>
        <time>2022-05-25T15:16:07.000Z</time>
      </trkpt>
      <trkpt lat="44.48088" lon="1.84548">
        <ele>150.6</ele>
        <time>2022-05-25T15:16:09.000Z</time>
      </trkpt>
      <trkpt lat="44.48124" lon="1.84534">
        <ele>150.4</ele>
        <time>2022-05-25T15:16:16.000Z</time>
      </trkpt>
      <trkpt lat="44.48166" lon="1.84521">
        <ele>150</ele>
        <time>2022-05-25T15:16:24.000Z</time>
      </trkpt>
      <trkpt lat="44.48194" lon="1.84509">
        <ele>149.6</ele>
        <time>2022-05-25T15:16:30.000Z</time>
      </trkpt>
      <trkpt lat="44.48222" lon="1.84494">
        <ele>149.8</ele>
        <time>2022-05-25T15:16:37.000Z</time>
      </trkpt>
      <trkpt lat="44.48239" lon="1.84484">
        <ele>149.8</ele>
        <time>2022-05-25T15:16:42.000Z</time>
      </trkpt>
      <trkpt lat="44.48261" lon="1.84473">
        <ele>149.8</ele>
        <time>2022-05-25T15:16:47.000Z</time>
      </trkpt>
      <trkpt lat="44.48288" lon="1.84459">
        <ele>150</ele>
        <time>2022-05-25T15:16:54.000Z</time>
      </trkpt>
      <trkpt lat="44.48305" lon="1.84451">
        <ele>150.4</ele>
        <time>2022-05-25T15:16:59.000Z</time>
      </trkpt>
      <trkpt lat="44.48323" lon="1.84442">
        <ele>150.8</ele>
        <time>2022-05-25T15:17:05.000Z</time>
      </trkpt>
      <trkpt lat="44.48347" lon="1.84427">
        <ele>150.6</ele>
        <time>2022-05-25T15:17:11.000Z</time>
      </trkpt>
      <trkpt lat="44.48369" lon="1.84415">
        <ele>150.4</ele>
        <time>2022-05-25T15:17:17.000Z</time>
      </trkpt>
      <trkpt lat="44.48394" lon="1.84403">
        <ele>150.4</ele>
        <time>2022-05-25T15:17:24.000Z</time>
      </trkpt>
      <trkpt lat="44.48424" lon="1.84388">
        <ele>150.2</ele>
        <time>2022-05-25T15:17:32.000Z</time>
      </trkpt>
      <trkpt lat="44.48442" lon="1.84379">
        <ele>150</ele>
        <time>2022-05-25T15:17:38.000Z</time>
      </trkpt>
      <trkpt lat="44.48462" lon="1.84368">
        <ele>150</ele>
        <time>2022-05-25T15:17:44.000Z</time>
      </trkpt>
      <trkpt lat="44.48482" lon="1.84375">
        <ele>149.8</ele>
        <time>2022-05-25T15:17:49.000Z</time>
      </trkpt>
      <trkpt lat="44.48515" lon="1.84389">
        <ele>150</ele>
        <time>2022-05-25T15:17:56.000Z</time>
      </trkpt>
      <trkpt lat="44.48531" lon="1.84392">
        <ele>149.8</ele>
        <time>2022-05-25T15:17:59.000Z</time>
      </trkpt>
      <trkpt lat="44.4854" lon="1.84389">
        <ele>150</ele>
        <time>2022-05-25T15:18:01.000Z</time>
      </trkpt>
      <trkpt lat="44.48559" lon="1.84384">
        <ele>149.8</ele>
        <time>2022-05-25T15:18:05.000Z</time>
      </trkpt>
      <trkpt lat="44.48564" lon="1.84384">
        <ele>149.6</ele>
        <time>2022-05-25T15:18:06.000Z</time>
      </trkpt>
      <trkpt lat="44.48569" lon="1.84383">
        <ele>149.6</ele>
        <time>2022-05-25T15:18:07.000Z</time>
      </trkpt>
      <trkpt lat="44.48573" lon="1.84381">
        <ele>149.6</ele>
        <time>2022-05-25T15:18:08.000Z</time>
      </trkpt>
      <trkpt lat="44.48585" lon="1.84372">
        <ele>149.4</ele>
        <time>2022-05-25T15:18:11.000Z</time>
      </trkpt>
      <trkpt lat="44.48603" lon="1.84352">
        <ele>149.2</ele>
        <time>2022-05-25T15:18:17.000Z</time>
      </trkpt>
      <trkpt lat="44.48617" lon="1.84338">
        <ele>149</ele>
        <time>2022-05-25T15:18:22.000Z</time>
      </trkpt>
      <trkpt lat="44.48634" lon="1.84321">
        <ele>149</ele>
        <time>2022-05-25T15:18:27.000Z</time>
      </trkpt>
      <trkpt lat="44.48656" lon="1.84305">
        <ele>149.2</ele>
        <time>2022-05-25T15:18:32.000Z</time>
      </trkpt>
      <trkpt lat="44.48664" lon="1.84299">
        <ele>149.2</ele>
        <time>2022-05-25T15:18:34.000Z</time>
      </trkpt>
      <trkpt lat="44.48672" lon="1.84292">
        <ele>149.4</ele>
        <time>2022-05-25T15:18:36.000Z</time>
      </trkpt>
      <trkpt lat="44.48676" lon="1.84288">
        <ele>149.4</ele>
        <time>2022-05-25T15:18:37.000Z</time>
      </trkpt>
      <trkpt lat="44.48685" lon="1.84285">
        <ele>149.4</ele>
        <time>2022-05-25T15:18:39.000Z</time>
      </trkpt>
      <trkpt lat="44.48689" lon="1.84282">
        <ele>149.4</ele>
        <time>2022-05-25T15:18:40.000Z</time>
      </trkpt>
      <trkpt lat="44.48697" lon="1.84273">
        <ele>149.6</ele>
        <time>2022-05-25T15:18:42.000Z</time>
      </trkpt>
      <trkpt lat="44.48706" lon="1.84277">
        <ele>149.6</ele>
        <time>2022-05-25T15:18:44.000Z</time>
      </trkpt>
      <trkpt lat="44.48718" lon="1.84297">
        <ele>149.4</ele>
        <time>2022-05-25T15:18:48.000Z</time>
      </trkpt>
      <trkpt lat="44.48732" lon="1.84323">
        <ele>149.8</ele>
        <time>2022-05-25T15:18:53.000Z</time>
      </trkpt>
      <trkpt lat="44.48737" lon="1.84334">
        <ele>150</ele>
        <time>2022-05-25T15:18:55.000Z</time>
      </trkpt>
      <trkpt lat="44.48742" lon="1.84344">
        <ele>150</ele>
        <time>2022-05-25T15:18:57.000Z</time>
      </trkpt>
      <trkpt lat="44.48751" lon="1.84359">
        <ele>150.2</ele>
        <time>2022-05-25T15:19:00.000Z</time>
      </trkpt>
      <trkpt lat="44.48754" lon="1.84364">
        <ele>150.2</ele>
        <time>2022-05-25T15:19:01.000Z</time>
      </trkpt>
      <trkpt lat="44.48757" lon="1.84369">
        <ele>150.2</ele>
        <time>2022-05-25T15:19:02.000Z</time>
      </trkpt>
      <trkpt lat="44.48769" lon="1.84388">
        <ele>150.2</ele>
        <time>2022-05-25T15:19:06.000Z</time>
      </trkpt>
      <trkpt lat="44.48788" lon="1.84426">
        <ele>150.6</ele>
        <time>2022-05-25T15:19:13.000Z</time>
      </trkpt>
      <trkpt lat="44.48793" lon="1.84436">
        <ele>150.6</ele>
        <time>2022-05-25T15:19:15.000Z</time>
      </trkpt>
      <trkpt lat="44.48822" lon="1.8449">
        <ele>151</ele>
        <time>2022-05-25T15:19:25.000Z</time>
      </trkpt>
      <trkpt lat="44.48839" lon="1.84527">
        <ele>151.2</ele>
        <time>2022-05-25T15:19:32.000Z</time>
      </trkpt>
      <trkpt lat="44.48852" lon="1.84554">
        <ele>151.6</ele>
        <time>2022-05-25T15:19:37.000Z</time>
      </trkpt>
      <trkpt lat="44.48857" lon="1.84565">
        <ele>152.2</ele>
        <time>2022-05-25T15:19:39.000Z</time>
      </trkpt>
      <trkpt lat="44.48864" lon="1.8458">
        <ele>152.4</ele>
        <time>2022-05-25T15:19:42.000Z</time>
      </trkpt>
      <trkpt lat="44.48871" lon="1.84597">
        <ele>152.6</ele>
        <time>2022-05-25T15:19:45.000Z</time>
      </trkpt>
      <trkpt lat="44.48879" lon="1.84613">
        <ele>152.8</ele>
        <time>2022-05-25T15:19:48.000Z</time>
      </trkpt>
      <trkpt lat="44.48884" lon="1.84624">
        <ele>153</ele>
        <time>2022-05-25T15:19:50.000Z</time>
      </trkpt>
      <trkpt lat="44.48888" lon="1.84634">
        <ele>153</ele>
        <time>2022-05-25T15:19:52.000Z</time>
      </trkpt>
      <trkpt lat="44.48909" lon="1.84677">
        <ele>154</ele>
        <time>2022-05-25T15:20:00.000Z</time>
      </trkpt>
      <trkpt lat="44.48913" lon="1.84682">
        <ele>154</ele>
        <time>2022-05-25T15:20:01.000Z</time>
      </trkpt>
      <trkpt lat="44.4893" lon="1.84705">
        <ele>155</ele>
        <time>2022-05-25T15:20:06.000Z</time>
      </trkpt>
      <trkpt lat="44.48939" lon="1.84721">
        <ele>155.2</ele>
        <time>2022-05-25T15:20:09.000Z</time>
      </trkpt>
      <trkpt lat="44.48951" lon="1.8474">
        <ele>155.6</ele>
        <time>2022-05-25T15:20:13.000Z</time>
      </trkpt>
      <trkpt lat="44.4896" lon="1.84755">
        <ele>155.6</ele>
        <time>2022-05-25T15:20:16.000Z</time>
      </trkpt>
      <trkpt lat="44.48986" lon="1.84794">
        <ele>155.8</ele>
        <time>2022-05-25T15:20:24.000Z</time>
      </trkpt>
      <trkpt lat="44.48989" lon="1.84798">
        <ele>155.8</ele>
        <time>2022-05-25T15:20:25.000Z</time>
      </trkpt>
      <trkpt lat="44.49001" lon="1.84815">
        <ele>156.2</ele>
        <time>2022-05-25T15:20:29.000Z</time>
      </trkpt>
      <trkpt lat="44.49014" lon="1.84837">
        <ele>156.8</ele>
        <time>2022-05-25T15:20:34.000Z</time>
      </trkpt>
      <trkpt lat="44.49021" lon="1.84849">
        <ele>157.2</ele>
        <time>2022-05-25T15:20:37.000Z</time>
      </trkpt>
      <trkpt lat="44.49023" lon="1.84857">
        <ele>157.2</ele>
        <time>2022-05-25T15:20:39.000Z</time>
      </trkpt>
      <trkpt lat="44.49022" lon="1.84878">
        <ele>158</ele>
        <time>2022-05-25T15:20:44.000Z</time>
      </trkpt>
      <trkpt lat="44.49022" lon="1.84882">
        <ele>158.2</ele>
        <time>2022-05-25T15:20:45.000Z</time>
      </trkpt>
      <trkpt lat="44.49015" lon="1.84904">
        <ele>159.4</ele>
        <time>2022-05-25T15:20:51.000Z</time>
      </trkpt>
      <trkpt lat="44.49015" lon="1.84904">
        <ele>159.4</ele>
        <time>2022-05-25T15:20:52.000Z</time>
      </trkpt>
      <trkpt lat="44.4901" lon="1.84916">
        <ele>160.4</ele>
        <time>2022-05-25T15:20:55.000Z</time>
      </trkpt>
      <trkpt lat="44.49005" lon="1.84924">
        <ele>161.6</ele>
        <time>2022-05-25T15:20:58.000Z</time>
      </trkpt>
      <trkpt lat="44.49003" lon="1.84927">
        <ele>161.6</ele>
        <time>2022-05-25T15:20:59.000Z</time>
      </trkpt>
      <trkpt lat="44.48993" lon="1.84938">
        <ele>162.8</ele>
        <time>2022-05-25T15:21:04.000Z</time>
      </trkpt>
      <trkpt lat="44.4899" lon="1.8494">
        <ele>163.2</ele>
        <time>2022-05-25T15:21:05.000Z</time>
      </trkpt>
      <trkpt lat="44.48983" lon="1.84947">
        <ele>163.8</ele>
        <time>2022-05-25T15:21:08.000Z</time>
      </trkpt>
      <trkpt lat="44.48973" lon="1.84957">
        <ele>164.2</ele>
        <time>2022-05-25T15:21:12.000Z</time>
      </trkpt>
      <trkpt lat="44.48968" lon="1.84971">
        <ele>165</ele>
        <time>2022-05-25T15:21:16.000Z</time>
      </trkpt>
      <trkpt lat="44.48967" lon="1.84975">
        <ele>165.2</ele>
        <time>2022-05-25T15:21:17.000Z</time>
      </trkpt>
      <trkpt lat="44.48971" lon="1.84992">
        <ele>166.2</ele>
        <time>2022-05-25T15:21:22.000Z</time>
      </trkpt>
      <trkpt lat="44.48977" lon="1.85004">
        <ele>167.4</ele>
        <time>2022-05-25T15:21:27.000Z</time>
      </trkpt>
      <trkpt lat="44.48982" lon="1.85013">
        <ele>168.2</ele>
        <time>2022-05-25T15:21:30.000Z</time>
      </trkpt>
      <trkpt lat="44.48985" lon="1.85017">
        <ele>168.8</ele>
        <time>2022-05-25T15:21:32.000Z</time>
      </trkpt>
      <trkpt lat="44.48991" lon="1.85029">
        <ele>169.8</ele>
        <time>2022-05-25T15:21:37.000Z</time>
      </trkpt>
      <trkpt lat="44.48993" lon="1.85034">
        <ele>170.6</ele>
        <time>2022-05-25T15:21:39.000Z</time>
      </trkpt>
      <trkpt lat="44.48994" lon="1.85036">
        <ele>171</ele>
        <time>2022-05-25T15:21:40.000Z</time>
      </trkpt>
      <trkpt lat="44.49" lon="1.85045">
        <ele>172.2</ele>
        <time>2022-05-25T15:21:45.000Z</time>
      </trkpt>
      <trkpt lat="44.49001" lon="1.85047">
        <ele>172.4</ele>
        <time>2022-05-25T15:21:46.000Z</time>
      </trkpt>
      <trkpt lat="44.49004" lon="1.85053">
        <ele>173.4</ele>
        <time>2022-05-25T15:21:49.000Z</time>
      </trkpt>
      <trkpt lat="44.49009" lon="1.8506">
        <ele>174.4</ele>
        <time>2022-05-25T15:21:53.000Z</time>
      </trkpt>
      <trkpt lat="44.49013" lon="1.85068">
        <ele>175.4</ele>
        <time>2022-05-25T15:21:57.000Z</time>
      </trkpt>
      <trkpt lat="44.49017" lon="1.85072">
        <ele>176</ele>
        <time>2022-05-25T15:22:00.000Z</time>
      </trkpt>
      <trkpt lat="44.49018" lon="1.85076">
        <ele>176.6</ele>
        <time>2022-05-25T15:22:02.000Z</time>
      </trkpt>
      <trkpt lat="44.49023" lon="1.85083">
        <ele>177.6</ele>
        <time>2022-05-25T15:22:06.000Z</time>
      </trkpt>
      <trkpt lat="44.49024" lon="1.85086">
        <ele>177.8</ele>
        <time>2022-05-25T15:22:07.000Z</time>
      </trkpt>
      <trkpt lat="44.49028" lon="1.85092">
        <ele>178.8</ele>
        <time>2022-05-25T15:22:10.000Z</time>
      </trkpt>
      <trkpt lat="44.49029" lon="1.85096">
        <ele>179.4</ele>
        <time>2022-05-25T15:22:12.000Z</time>
      </trkpt>
      <trkpt lat="44.49032" lon="1.85101">
        <ele>180.2</ele>
        <time>2022-05-25T15:22:15.000Z</time>
      </trkpt>
      <trkpt lat="44.49036" lon="1.85106">
        <ele>180.8</ele>
        <time>2022-05-25T15:22:18.000Z</time>
      </trkpt>
      <trkpt lat="44.49037" lon="1.8511">
        <ele>181.4</ele>
        <time>2022-05-25T15:22:20.000Z</time>
      </trkpt>
      <trkpt lat="44.49044" lon="1.8512">
        <ele>182.8</ele>
        <time>2022-05-25T15:22:26.000Z</time>
      </trkpt>
      <trkpt lat="44.49051" lon="1.85129">
        <ele>184</ele>
        <time>2022-05-25T15:22:31.000Z</time>
      </trkpt>
      <trkpt lat="44.49055" lon="1.85134">
        <ele>184.8</ele>
        <time>2022-05-25T15:22:34.000Z</time>
      </trkpt>
      <trkpt lat="44.49056" lon="1.85136">
        <ele>185.2</ele>
        <time>2022-05-25T15:22:35.000Z</time>
      </trkpt>
      <trkpt lat="44.49062" lon="1.85143">
        <ele>186</ele>
        <time>2022-05-25T15:22:39.000Z</time>
      </trkpt>
      <trkpt lat="44.49063" lon="1.85145">
        <ele>186.6</ele>
        <time>2022-05-25T15:22:40.000Z</time>
      </trkpt>
      <trkpt lat="44.4907" lon="1.85153">
        <ele>187.6</ele>
        <time>2022-05-25T15:22:45.000Z</time>
      </trkpt>
      <trkpt lat="44.49073" lon="1.85157">
        <ele>188.2</ele>
        <time>2022-05-25T15:22:47.000Z</time>
      </trkpt>
      <trkpt lat="44.49078" lon="1.85164">
        <ele>188.6</ele>
        <time>2022-05-25T15:22:51.000Z</time>
      </trkpt>
      <trkpt lat="44.49082" lon="1.85171">
        <ele>190</ele>
        <time>2022-05-25T15:22:55.000Z</time>
      </trkpt>
      <trkpt lat="44.49083" lon="1.85176">
        <ele>190.4</ele>
        <time>2022-05-25T15:22:57.000Z</time>
      </trkpt>
      <trkpt lat="44.49083" lon="1.85181">
        <ele>190.6</ele>
        <time>2022-05-25T15:22:59.000Z</time>
      </trkpt>
      <trkpt lat="44.49082" lon="1.85184">
        <ele>190.8</ele>
        <time>2022-05-25T15:23:00.000Z</time>
      </trkpt>
      <trkpt lat="44.49079" lon="1.85188">
        <ele>191.4</ele>
        <time>2022-05-25T15:23:02.000Z</time>
      </trkpt>
      <trkpt lat="44.49073" lon="1.85199">
        <ele>192.6</ele>
        <time>2022-05-25T15:23:06.000Z</time>
      </trkpt>
      <trkpt lat="44.49071" lon="1.85202">
        <ele>193</ele>
        <time>2022-05-25T15:23:07.000Z</time>
      </trkpt>
      <trkpt lat="44.49068" lon="1.8521">
        <ele>193.6</ele>
        <time>2022-05-25T15:23:10.000Z</time>
      </trkpt>
      <trkpt lat="44.49062" lon="1.85223">
        <ele>194.6</ele>
        <time>2022-05-25T15:23:15.000Z</time>
      </trkpt>
      <trkpt lat="44.49061" lon="1.85225">
        <ele>194.8</ele>
        <time>2022-05-25T15:23:16.000Z</time>
      </trkpt>
      <trkpt lat="44.49054" lon="1.85242">
        <ele>195.2</ele>
        <time>2022-05-25T15:23:20.000Z</time>
      </trkpt>
      <trkpt lat="44.49051" lon="1.85257">
        <ele>195.2</ele>
        <time>2022-05-25T15:23:24.000Z</time>
      </trkpt>
      <trkpt lat="44.49051" lon="1.8526">
        <ele>195.2</ele>
        <time>2022-05-25T15:23:28.000Z</time>
      </trkpt>
    </trkseg>
  </trk>
</gpx>